<?xml version="1.0" encoding="UTF-8" standalone="no" ?>
<gpx xmlns="http://www.topografix.com/GPX/1/1" xmlns:xsi="http://www.w3.org/2001/XMLSchema-instance" xsi:schemaLocation="http://www.topografix.com/GPX/1/1 http://www.topografix.com/GPX/1/1/gpx.xsd" version="1.1" creator="VisuGPX - https://www.visugpx.com">
  <metadata>
    <name>Pornichet 21/01/2021</name>
    <desc><![CDATA[Sortie VTT du jeudi 21 janvier 2021]]></desc>
  </metadata>
  <trk>
    <name><![CDATA[Pornichet Cyclisme]]></name>
    <trkseg>
      <trkpt lat="47.26423" lon="-2.31551">
        <ele>111.59999847412</ele>
        <time>2021-01-21T08:18:03.000Z</time>
      </trkpt>
      <trkpt lat="47.26423" lon="-2.31551">
        <ele>111.59999847412</ele>
        <time>2021-01-21T08:18:04.000Z</time>
      </trkpt>
      <trkpt lat="47.26418" lon="-2.31552">
        <ele>112.19999694824</ele>
        <time>2021-01-21T08:18:45.000Z</time>
      </trkpt>
      <trkpt lat="47.26413" lon="-2.31553">
        <ele>112.19999694824</ele>
        <time>2021-01-21T08:18:47.000Z</time>
      </trkpt>
      <trkpt lat="47.26408" lon="-2.31558">
        <ele>112.19999694824</ele>
        <time>2021-01-21T08:18:49.000Z</time>
      </trkpt>
      <trkpt lat="47.26407" lon="-2.31566">
        <ele>112.19999694824</ele>
        <time>2021-01-21T08:18:51.000Z</time>
      </trkpt>
      <trkpt lat="47.26407" lon="-2.31575">
        <ele>112.19999694824</ele>
        <time>2021-01-21T08:18:53.000Z</time>
      </trkpt>
      <trkpt lat="47.26408" lon="-2.31598">
        <ele>112.19999694824</ele>
        <time>2021-01-21T08:18:57.000Z</time>
      </trkpt>
      <trkpt lat="47.26408" lon="-2.3161">
        <ele>112.19999694824</ele>
        <time>2021-01-21T08:18:59.000Z</time>
      </trkpt>
      <trkpt lat="47.26409" lon="-2.31636">
        <ele>112.19999694824</ele>
        <time>2021-01-21T08:19:03.000Z</time>
      </trkpt>
      <trkpt lat="47.26408" lon="-2.31656">
        <ele>112.19999694824</ele>
        <time>2021-01-21T08:19:07.000Z</time>
      </trkpt>
      <trkpt lat="47.26405" lon="-2.31658">
        <ele>111.80000305176</ele>
        <time>2021-01-21T08:19:08.000Z</time>
      </trkpt>
      <trkpt lat="47.26402" lon="-2.31659">
        <ele>111.40000152588</ele>
        <time>2021-01-21T08:19:09.000Z</time>
      </trkpt>
      <trkpt lat="47.264" lon="-2.31661">
        <ele>111</ele>
        <time>2021-01-21T08:19:10.000Z</time>
      </trkpt>
      <trkpt lat="47.26396" lon="-2.31662">
        <ele>110.59999847412</ele>
        <time>2021-01-21T08:19:11.000Z</time>
      </trkpt>
      <trkpt lat="47.26393" lon="-2.31664">
        <ele>110.19999694824</ele>
        <time>2021-01-21T08:19:12.000Z</time>
      </trkpt>
      <trkpt lat="47.26376" lon="-2.31673">
        <ele>110.19999694824</ele>
        <time>2021-01-21T08:19:16.000Z</time>
      </trkpt>
      <trkpt lat="47.26372" lon="-2.31675">
        <ele>110.19999694824</ele>
        <time>2021-01-21T08:19:17.000Z</time>
      </trkpt>
      <trkpt lat="47.26337" lon="-2.31692">
        <ele>110.19999694824</ele>
        <time>2021-01-21T08:19:25.000Z</time>
      </trkpt>
      <trkpt lat="47.2633" lon="-2.31704">
        <ele>109.59999847412</ele>
        <time>2021-01-21T08:19:28.000Z</time>
      </trkpt>
      <trkpt lat="47.26326" lon="-2.31708">
        <ele>109.19999694824</ele>
        <time>2021-01-21T08:19:29.000Z</time>
      </trkpt>
      <trkpt lat="47.26322" lon="-2.3171">
        <ele>108.80000305176</ele>
        <time>2021-01-21T08:19:30.000Z</time>
      </trkpt>
      <trkpt lat="47.26318" lon="-2.31712">
        <ele>108.40000152588</ele>
        <time>2021-01-21T08:19:31.000Z</time>
      </trkpt>
      <trkpt lat="47.26314" lon="-2.31714">
        <ele>108</ele>
        <time>2021-01-21T08:19:32.000Z</time>
      </trkpt>
      <trkpt lat="47.26299" lon="-2.31728">
        <ele>108</ele>
        <time>2021-01-21T08:19:36.000Z</time>
      </trkpt>
      <trkpt lat="47.26298" lon="-2.3175">
        <ele>108</ele>
        <time>2021-01-21T08:19:40.000Z</time>
      </trkpt>
      <trkpt lat="47.26302" lon="-2.31788">
        <ele>108</ele>
        <time>2021-01-21T08:19:46.000Z</time>
      </trkpt>
      <trkpt lat="47.26301" lon="-2.31818">
        <ele>108</ele>
        <time>2021-01-21T08:19:51.000Z</time>
      </trkpt>
      <trkpt lat="47.263" lon="-2.31848">
        <ele>108</ele>
        <time>2021-01-21T08:19:57.000Z</time>
      </trkpt>
      <trkpt lat="47.26299" lon="-2.3187">
        <ele>107.59999847412</ele>
        <time>2021-01-21T08:20:02.000Z</time>
      </trkpt>
      <trkpt lat="47.26299" lon="-2.31875">
        <ele>107.19999694824</ele>
        <time>2021-01-21T08:20:03.000Z</time>
      </trkpt>
      <trkpt lat="47.26298" lon="-2.31878">
        <ele>106.80000305176</ele>
        <time>2021-01-21T08:20:04.000Z</time>
      </trkpt>
      <trkpt lat="47.26295" lon="-2.31882">
        <ele>106.40000152588</ele>
        <time>2021-01-21T08:20:05.000Z</time>
      </trkpt>
      <trkpt lat="47.26293" lon="-2.31885">
        <ele>106</ele>
        <time>2021-01-21T08:20:06.000Z</time>
      </trkpt>
      <trkpt lat="47.26291" lon="-2.31888">
        <ele>106</ele>
        <time>2021-01-21T08:20:07.000Z</time>
      </trkpt>
      <trkpt lat="47.26278" lon="-2.31902">
        <ele>106</ele>
        <time>2021-01-21T08:20:12.000Z</time>
      </trkpt>
      <trkpt lat="47.26265" lon="-2.31918">
        <ele>106</ele>
        <time>2021-01-21T08:20:17.000Z</time>
      </trkpt>
      <trkpt lat="47.26254" lon="-2.3194">
        <ele>106</ele>
        <time>2021-01-21T08:20:23.000Z</time>
      </trkpt>
      <trkpt lat="47.26244" lon="-2.31962">
        <ele>106</ele>
        <time>2021-01-21T08:20:30.000Z</time>
      </trkpt>
      <trkpt lat="47.26235" lon="-2.31969">
        <ele>106</ele>
        <time>2021-01-21T08:20:34.000Z</time>
      </trkpt>
      <trkpt lat="47.26233" lon="-2.31971">
        <ele>106</ele>
        <time>2021-01-21T08:20:35.000Z</time>
      </trkpt>
      <trkpt lat="47.26225" lon="-2.31982">
        <ele>106</ele>
        <time>2021-01-21T08:20:39.000Z</time>
      </trkpt>
      <trkpt lat="47.26223" lon="-2.31986">
        <ele>106</ele>
        <time>2021-01-21T08:20:40.000Z</time>
      </trkpt>
      <trkpt lat="47.26208" lon="-2.32">
        <ele>106</ele>
        <time>2021-01-21T08:20:46.000Z</time>
      </trkpt>
      <trkpt lat="47.26205" lon="-2.32004">
        <ele>106</ele>
        <time>2021-01-21T08:20:49.000Z</time>
      </trkpt>
      <trkpt lat="47.26205" lon="-2.32006">
        <ele>106</ele>
        <time>2021-01-21T08:20:50.000Z</time>
      </trkpt>
      <trkpt lat="47.26202" lon="-2.32015">
        <ele>106</ele>
        <time>2021-01-21T08:20:55.000Z</time>
      </trkpt>
      <trkpt lat="47.262" lon="-2.32015">
        <ele>106</ele>
        <time>2021-01-21T08:20:57.000Z</time>
      </trkpt>
      <trkpt lat="47.26191" lon="-2.32017">
        <ele>106</ele>
        <time>2021-01-21T08:21:00.000Z</time>
      </trkpt>
      <trkpt lat="47.26172" lon="-2.32026">
        <ele>106</ele>
        <time>2021-01-21T08:21:06.000Z</time>
      </trkpt>
      <trkpt lat="47.26158" lon="-2.3204">
        <ele>106</ele>
        <time>2021-01-21T08:21:10.000Z</time>
      </trkpt>
      <trkpt lat="47.26148" lon="-2.32059">
        <ele>106</ele>
        <time>2021-01-21T08:21:14.000Z</time>
      </trkpt>
      <trkpt lat="47.26145" lon="-2.32073">
        <ele>106</ele>
        <time>2021-01-21T08:21:16.000Z</time>
      </trkpt>
      <trkpt lat="47.26142" lon="-2.32085">
        <ele>106</ele>
        <time>2021-01-21T08:21:18.000Z</time>
      </trkpt>
      <trkpt lat="47.26136" lon="-2.32109">
        <ele>106</ele>
        <time>2021-01-21T08:21:22.000Z</time>
      </trkpt>
      <trkpt lat="47.26119" lon="-2.32161">
        <ele>106</ele>
        <time>2021-01-21T08:21:31.000Z</time>
      </trkpt>
      <trkpt lat="47.261" lon="-2.32206">
        <ele>106</ele>
        <time>2021-01-21T08:21:39.000Z</time>
      </trkpt>
      <trkpt lat="47.26097" lon="-2.32212">
        <ele>106</ele>
        <time>2021-01-21T08:21:40.000Z</time>
      </trkpt>
      <trkpt lat="47.26083" lon="-2.32232">
        <ele>106</ele>
        <time>2021-01-21T08:21:44.000Z</time>
      </trkpt>
      <trkpt lat="47.26079" lon="-2.32237">
        <ele>106</ele>
        <time>2021-01-21T08:21:45.000Z</time>
      </trkpt>
      <trkpt lat="47.26053" lon="-2.32266">
        <ele>106</ele>
        <time>2021-01-21T08:21:52.000Z</time>
      </trkpt>
      <trkpt lat="47.26026" lon="-2.32297">
        <ele>106</ele>
        <time>2021-01-21T08:21:59.000Z</time>
      </trkpt>
      <trkpt lat="47.26006" lon="-2.32322">
        <ele>106.40000152588</ele>
        <time>2021-01-21T08:22:05.000Z</time>
      </trkpt>
      <trkpt lat="47.26003" lon="-2.32327">
        <ele>106.80000305176</ele>
        <time>2021-01-21T08:22:06.000Z</time>
      </trkpt>
      <trkpt lat="47.25999" lon="-2.32331">
        <ele>107.19999694824</ele>
        <time>2021-01-21T08:22:07.000Z</time>
      </trkpt>
      <trkpt lat="47.25996" lon="-2.32336">
        <ele>107.59999847412</ele>
        <time>2021-01-21T08:22:08.000Z</time>
      </trkpt>
      <trkpt lat="47.25992" lon="-2.32341">
        <ele>108</ele>
        <time>2021-01-21T08:22:09.000Z</time>
      </trkpt>
      <trkpt lat="47.25965" lon="-2.32378">
        <ele>108</ele>
        <time>2021-01-21T08:22:17.000Z</time>
      </trkpt>
      <trkpt lat="47.25958" lon="-2.32387">
        <ele>108</ele>
        <time>2021-01-21T08:22:19.000Z</time>
      </trkpt>
      <trkpt lat="47.25946" lon="-2.32404">
        <ele>108</ele>
        <time>2021-01-21T08:22:23.000Z</time>
      </trkpt>
      <trkpt lat="47.25939" lon="-2.32413">
        <ele>108</ele>
        <time>2021-01-21T08:22:25.000Z</time>
      </trkpt>
      <trkpt lat="47.25923" lon="-2.32434">
        <ele>108</ele>
        <time>2021-01-21T08:22:30.000Z</time>
      </trkpt>
      <trkpt lat="47.25903" lon="-2.32462">
        <ele>108</ele>
        <time>2021-01-21T08:22:37.000Z</time>
      </trkpt>
      <trkpt lat="47.25904" lon="-2.32467">
        <ele>108</ele>
        <time>2021-01-21T08:22:38.000Z</time>
      </trkpt>
      <trkpt lat="47.25909" lon="-2.32473">
        <ele>108</ele>
        <time>2021-01-21T08:22:40.000Z</time>
      </trkpt>
      <trkpt lat="47.25917" lon="-2.32478">
        <ele>108</ele>
        <time>2021-01-21T08:22:42.000Z</time>
      </trkpt>
      <trkpt lat="47.25928" lon="-2.32493">
        <ele>108</ele>
        <time>2021-01-21T08:22:45.000Z</time>
      </trkpt>
      <trkpt lat="47.25932" lon="-2.32506">
        <ele>108</ele>
        <time>2021-01-21T08:22:47.000Z</time>
      </trkpt>
      <trkpt lat="47.2594" lon="-2.32532">
        <ele>108</ele>
        <time>2021-01-21T08:22:51.000Z</time>
      </trkpt>
      <trkpt lat="47.25952" lon="-2.32577">
        <ele>108</ele>
        <time>2021-01-21T08:22:58.000Z</time>
      </trkpt>
      <trkpt lat="47.25962" lon="-2.32624">
        <ele>108</ele>
        <time>2021-01-21T08:23:05.000Z</time>
      </trkpt>
      <trkpt lat="47.25963" lon="-2.32654">
        <ele>108</ele>
        <time>2021-01-21T08:23:10.000Z</time>
      </trkpt>
      <trkpt lat="47.25974" lon="-2.32657">
        <ele>108</ele>
        <time>2021-01-21T08:23:13.000Z</time>
      </trkpt>
      <trkpt lat="47.25978" lon="-2.32657">
        <ele>108</ele>
        <time>2021-01-21T08:23:14.000Z</time>
      </trkpt>
      <trkpt lat="47.26" lon="-2.32657">
        <ele>108</ele>
        <time>2021-01-21T08:23:19.000Z</time>
      </trkpt>
      <trkpt lat="47.26031" lon="-2.32651">
        <ele>108</ele>
        <time>2021-01-21T08:23:26.000Z</time>
      </trkpt>
      <trkpt lat="47.26048" lon="-2.32649">
        <ele>108</ele>
        <time>2021-01-21T08:23:30.000Z</time>
      </trkpt>
      <trkpt lat="47.26061" lon="-2.32647">
        <ele>108</ele>
        <time>2021-01-21T08:23:33.000Z</time>
      </trkpt>
      <trkpt lat="47.26097" lon="-2.3264">
        <ele>108</ele>
        <time>2021-01-21T08:23:41.000Z</time>
      </trkpt>
      <trkpt lat="47.26134" lon="-2.3264">
        <ele>108.40000152588</ele>
        <time>2021-01-21T08:23:49.000Z</time>
      </trkpt>
      <trkpt lat="47.26138" lon="-2.32641">
        <ele>108.80000305176</ele>
        <time>2021-01-21T08:23:50.000Z</time>
      </trkpt>
      <trkpt lat="47.26143" lon="-2.32642">
        <ele>109.19999694824</ele>
        <time>2021-01-21T08:23:51.000Z</time>
      </trkpt>
      <trkpt lat="47.26148" lon="-2.32644">
        <ele>109.59999847412</ele>
        <time>2021-01-21T08:23:52.000Z</time>
      </trkpt>
      <trkpt lat="47.26152" lon="-2.32645">
        <ele>110</ele>
        <time>2021-01-21T08:23:53.000Z</time>
      </trkpt>
      <trkpt lat="47.26161" lon="-2.32649">
        <ele>110</ele>
        <time>2021-01-21T08:23:55.000Z</time>
      </trkpt>
      <trkpt lat="47.26171" lon="-2.32654">
        <ele>110</ele>
        <time>2021-01-21T08:23:57.000Z</time>
      </trkpt>
      <trkpt lat="47.26197" lon="-2.32675">
        <ele>110</ele>
        <time>2021-01-21T08:24:03.000Z</time>
      </trkpt>
      <trkpt lat="47.26215" lon="-2.327">
        <ele>110</ele>
        <time>2021-01-21T08:24:08.000Z</time>
      </trkpt>
      <trkpt lat="47.26243" lon="-2.32742">
        <ele>110</ele>
        <time>2021-01-21T08:24:15.000Z</time>
      </trkpt>
      <trkpt lat="47.26273" lon="-2.32798">
        <ele>110</ele>
        <time>2021-01-21T08:24:23.000Z</time>
      </trkpt>
      <trkpt lat="47.26283" lon="-2.32831">
        <ele>110</ele>
        <time>2021-01-21T08:24:27.000Z</time>
      </trkpt>
      <trkpt lat="47.26285" lon="-2.32839">
        <ele>110</ele>
        <time>2021-01-21T08:24:28.000Z</time>
      </trkpt>
      <trkpt lat="47.26288" lon="-2.32846">
        <ele>110</ele>
        <time>2021-01-21T08:24:29.000Z</time>
      </trkpt>
      <trkpt lat="47.263" lon="-2.32861">
        <ele>110</ele>
        <time>2021-01-21T08:24:32.000Z</time>
      </trkpt>
      <trkpt lat="47.26306" lon="-2.32864">
        <ele>109.59999847412</ele>
        <time>2021-01-21T08:24:33.000Z</time>
      </trkpt>
      <trkpt lat="47.26311" lon="-2.32867">
        <ele>109.19999694824</ele>
        <time>2021-01-21T08:24:34.000Z</time>
      </trkpt>
      <trkpt lat="47.26316" lon="-2.32872">
        <ele>108.80000305176</ele>
        <time>2021-01-21T08:24:35.000Z</time>
      </trkpt>
      <trkpt lat="47.26319" lon="-2.32877">
        <ele>108.40000152588</ele>
        <time>2021-01-21T08:24:36.000Z</time>
      </trkpt>
      <trkpt lat="47.26322" lon="-2.32884">
        <ele>108</ele>
        <time>2021-01-21T08:24:37.000Z</time>
      </trkpt>
      <trkpt lat="47.26327" lon="-2.32898">
        <ele>108</ele>
        <time>2021-01-21T08:24:39.000Z</time>
      </trkpt>
      <trkpt lat="47.26329" lon="-2.32905">
        <ele>108</ele>
        <time>2021-01-21T08:24:40.000Z</time>
      </trkpt>
      <trkpt lat="47.26347" lon="-2.32959">
        <ele>108</ele>
        <time>2021-01-21T08:24:48.000Z</time>
      </trkpt>
      <trkpt lat="47.26356" lon="-2.32975">
        <ele>108</ele>
        <time>2021-01-21T08:24:51.000Z</time>
      </trkpt>
      <trkpt lat="47.26363" lon="-2.32985">
        <ele>108</ele>
        <time>2021-01-21T08:24:53.000Z</time>
      </trkpt>
      <trkpt lat="47.26368" lon="-2.33005">
        <ele>108</ele>
        <time>2021-01-21T08:24:56.000Z</time>
      </trkpt>
      <trkpt lat="47.26369" lon="-2.33019">
        <ele>108</ele>
        <time>2021-01-21T08:24:58.000Z</time>
      </trkpt>
      <trkpt lat="47.26369" lon="-2.33055">
        <ele>108</ele>
        <time>2021-01-21T08:25:03.000Z</time>
      </trkpt>
      <trkpt lat="47.26374" lon="-2.33119">
        <ele>108</ele>
        <time>2021-01-21T08:25:12.000Z</time>
      </trkpt>
      <trkpt lat="47.26377" lon="-2.33182">
        <ele>108</ele>
        <time>2021-01-21T08:25:21.000Z</time>
      </trkpt>
      <trkpt lat="47.26381" lon="-2.3324">
        <ele>108</ele>
        <time>2021-01-21T08:25:29.000Z</time>
      </trkpt>
      <trkpt lat="47.26382" lon="-2.33247">
        <ele>108</ele>
        <time>2021-01-21T08:25:30.000Z</time>
      </trkpt>
      <trkpt lat="47.26391" lon="-2.33262">
        <ele>108</ele>
        <time>2021-01-21T08:25:33.000Z</time>
      </trkpt>
      <trkpt lat="47.26406" lon="-2.33268">
        <ele>108</ele>
        <time>2021-01-21T08:25:36.000Z</time>
      </trkpt>
      <trkpt lat="47.2641" lon="-2.3327">
        <ele>108</ele>
        <time>2021-01-21T08:25:37.000Z</time>
      </trkpt>
      <trkpt lat="47.26423" lon="-2.33277">
        <ele>108</ele>
        <time>2021-01-21T08:25:40.000Z</time>
      </trkpt>
      <trkpt lat="47.26432" lon="-2.33278">
        <ele>108</ele>
        <time>2021-01-21T08:25:42.000Z</time>
      </trkpt>
      <trkpt lat="47.26468" lon="-2.33277">
        <ele>108</ele>
        <time>2021-01-21T08:25:49.000Z</time>
      </trkpt>
      <trkpt lat="47.26473" lon="-2.33277">
        <ele>108</ele>
        <time>2021-01-21T08:25:50.000Z</time>
      </trkpt>
      <trkpt lat="47.26482" lon="-2.33277">
        <ele>108</ele>
        <time>2021-01-21T08:25:52.000Z</time>
      </trkpt>
      <trkpt lat="47.26493" lon="-2.33279">
        <ele>108</ele>
        <time>2021-01-21T08:25:55.000Z</time>
      </trkpt>
      <trkpt lat="47.26512" lon="-2.33287">
        <ele>108</ele>
        <time>2021-01-21T08:26:00.000Z</time>
      </trkpt>
      <trkpt lat="47.26533" lon="-2.33291">
        <ele>108</ele>
        <time>2021-01-21T08:26:05.000Z</time>
      </trkpt>
      <trkpt lat="47.26538" lon="-2.33297">
        <ele>108</ele>
        <time>2021-01-21T08:26:07.000Z</time>
      </trkpt>
      <trkpt lat="47.26541" lon="-2.33298">
        <ele>108</ele>
        <time>2021-01-21T08:26:08.000Z</time>
      </trkpt>
      <trkpt lat="47.26543" lon="-2.33297">
        <ele>108</ele>
        <time>2021-01-21T08:26:09.000Z</time>
      </trkpt>
      <trkpt lat="47.26556" lon="-2.33282">
        <ele>108</ele>
        <time>2021-01-21T08:26:14.000Z</time>
      </trkpt>
      <trkpt lat="47.26577" lon="-2.33261">
        <ele>108</ele>
        <time>2021-01-21T08:26:20.000Z</time>
      </trkpt>
      <trkpt lat="47.26604" lon="-2.33233">
        <ele>108</ele>
        <time>2021-01-21T08:26:27.000Z</time>
      </trkpt>
      <trkpt lat="47.26635" lon="-2.332">
        <ele>108</ele>
        <time>2021-01-21T08:26:35.000Z</time>
      </trkpt>
      <trkpt lat="47.26661" lon="-2.33173">
        <ele>108</ele>
        <time>2021-01-21T08:26:42.000Z</time>
      </trkpt>
      <trkpt lat="47.26687" lon="-2.33145">
        <ele>108</ele>
        <time>2021-01-21T08:26:49.000Z</time>
      </trkpt>
      <trkpt lat="47.26715" lon="-2.33118">
        <ele>108</ele>
        <time>2021-01-21T08:26:56.000Z</time>
      </trkpt>
      <trkpt lat="47.2672" lon="-2.33114">
        <ele>108.40000152588</ele>
        <time>2021-01-21T08:26:57.000Z</time>
      </trkpt>
      <trkpt lat="47.26724" lon="-2.3311">
        <ele>108.80000305176</ele>
        <time>2021-01-21T08:26:58.000Z</time>
      </trkpt>
      <trkpt lat="47.26728" lon="-2.33106">
        <ele>109.19999694824</ele>
        <time>2021-01-21T08:26:59.000Z</time>
      </trkpt>
      <trkpt lat="47.26732" lon="-2.33103">
        <ele>109.59999847412</ele>
        <time>2021-01-21T08:27:00.000Z</time>
      </trkpt>
      <trkpt lat="47.26735" lon="-2.33099">
        <ele>110</ele>
        <time>2021-01-21T08:27:01.000Z</time>
      </trkpt>
      <trkpt lat="47.26742" lon="-2.33091">
        <ele>110</ele>
        <time>2021-01-21T08:27:03.000Z</time>
      </trkpt>
      <trkpt lat="47.26746" lon="-2.33087">
        <ele>110</ele>
        <time>2021-01-21T08:27:04.000Z</time>
      </trkpt>
      <trkpt lat="47.26756" lon="-2.33086">
        <ele>110</ele>
        <time>2021-01-21T08:27:07.000Z</time>
      </trkpt>
      <trkpt lat="47.26764" lon="-2.33104">
        <ele>110</ele>
        <time>2021-01-21T08:27:10.000Z</time>
      </trkpt>
      <trkpt lat="47.26765" lon="-2.33134">
        <ele>110</ele>
        <time>2021-01-21T08:27:14.000Z</time>
      </trkpt>
      <trkpt lat="47.26762" lon="-2.33148">
        <ele>110</ele>
        <time>2021-01-21T08:27:16.000Z</time>
      </trkpt>
      <trkpt lat="47.26756" lon="-2.33169">
        <ele>110</ele>
        <time>2021-01-21T08:27:19.000Z</time>
      </trkpt>
      <trkpt lat="47.26742" lon="-2.33214">
        <ele>110</ele>
        <time>2021-01-21T08:27:26.000Z</time>
      </trkpt>
      <trkpt lat="47.2673" lon="-2.33258">
        <ele>110</ele>
        <time>2021-01-21T08:27:33.000Z</time>
      </trkpt>
      <trkpt lat="47.2673" lon="-2.33265">
        <ele>110</ele>
        <time>2021-01-21T08:27:34.000Z</time>
      </trkpt>
      <trkpt lat="47.26735" lon="-2.33299">
        <ele>110</ele>
        <time>2021-01-21T08:27:39.000Z</time>
      </trkpt>
      <trkpt lat="47.26737" lon="-2.33306">
        <ele>110</ele>
        <time>2021-01-21T08:27:40.000Z</time>
      </trkpt>
      <trkpt lat="47.26747" lon="-2.33341">
        <ele>110</ele>
        <time>2021-01-21T08:27:45.000Z</time>
      </trkpt>
      <trkpt lat="47.26748" lon="-2.33348">
        <ele>110</ele>
        <time>2021-01-21T08:27:46.000Z</time>
      </trkpt>
      <trkpt lat="47.26756" lon="-2.33408">
        <ele>110</ele>
        <time>2021-01-21T08:27:54.000Z</time>
      </trkpt>
      <trkpt lat="47.26762" lon="-2.33459">
        <ele>110</ele>
        <time>2021-01-21T08:28:01.000Z</time>
      </trkpt>
      <trkpt lat="47.2677" lon="-2.33516">
        <ele>110</ele>
        <time>2021-01-21T08:28:09.000Z</time>
      </trkpt>
      <trkpt lat="47.26779" lon="-2.33571">
        <ele>110</ele>
        <time>2021-01-21T08:28:17.000Z</time>
      </trkpt>
      <trkpt lat="47.26779" lon="-2.33624">
        <ele>110</ele>
        <time>2021-01-21T08:28:25.000Z</time>
      </trkpt>
      <trkpt lat="47.26779" lon="-2.33675">
        <ele>110.59999847412</ele>
        <time>2021-01-21T08:28:33.000Z</time>
      </trkpt>
      <trkpt lat="47.26779" lon="-2.33682">
        <ele>111</ele>
        <time>2021-01-21T08:28:34.000Z</time>
      </trkpt>
      <trkpt lat="47.2678" lon="-2.33688">
        <ele>111.40000152588</ele>
        <time>2021-01-21T08:28:35.000Z</time>
      </trkpt>
      <trkpt lat="47.26781" lon="-2.33693">
        <ele>111.80000305176</ele>
        <time>2021-01-21T08:28:36.000Z</time>
      </trkpt>
      <trkpt lat="47.26783" lon="-2.33698">
        <ele>112.19999694824</ele>
        <time>2021-01-21T08:28:37.000Z</time>
      </trkpt>
      <trkpt lat="47.26785" lon="-2.33703">
        <ele>112.19999694824</ele>
        <time>2021-01-21T08:28:38.000Z</time>
      </trkpt>
      <trkpt lat="47.26805" lon="-2.33728">
        <ele>112.19999694824</ele>
        <time>2021-01-21T08:28:44.000Z</time>
      </trkpt>
      <trkpt lat="47.26827" lon="-2.33753">
        <ele>112.19999694824</ele>
        <time>2021-01-21T08:28:50.000Z</time>
      </trkpt>
      <trkpt lat="47.26846" lon="-2.33775">
        <ele>112.19999694824</ele>
        <time>2021-01-21T08:28:55.000Z</time>
      </trkpt>
      <trkpt lat="47.2685" lon="-2.33778">
        <ele>112.19999694824</ele>
        <time>2021-01-21T08:28:56.000Z</time>
      </trkpt>
      <trkpt lat="47.26864" lon="-2.33781">
        <ele>112.19999694824</ele>
        <time>2021-01-21T08:28:59.000Z</time>
      </trkpt>
      <trkpt lat="47.26873" lon="-2.33784">
        <ele>112.19999694824</ele>
        <time>2021-01-21T08:29:01.000Z</time>
      </trkpt>
      <trkpt lat="47.26889" lon="-2.33792">
        <ele>112.19999694824</ele>
        <time>2021-01-21T08:29:05.000Z</time>
      </trkpt>
      <trkpt lat="47.26896" lon="-2.338">
        <ele>112.19999694824</ele>
        <time>2021-01-21T08:29:07.000Z</time>
      </trkpt>
      <trkpt lat="47.26901" lon="-2.3381">
        <ele>112.19999694824</ele>
        <time>2021-01-21T08:29:09.000Z</time>
      </trkpt>
      <trkpt lat="47.26903" lon="-2.33816">
        <ele>112.19999694824</ele>
        <time>2021-01-21T08:29:10.000Z</time>
      </trkpt>
      <trkpt lat="47.26906" lon="-2.33831">
        <ele>112.59999847412</ele>
        <time>2021-01-21T08:29:12.000Z</time>
      </trkpt>
      <trkpt lat="47.26907" lon="-2.33837">
        <ele>113.19999694824</ele>
        <time>2021-01-21T08:29:13.000Z</time>
      </trkpt>
      <trkpt lat="47.26908" lon="-2.33844">
        <ele>113.59999847412</ele>
        <time>2021-01-21T08:29:14.000Z</time>
      </trkpt>
      <trkpt lat="47.26909" lon="-2.33851">
        <ele>114</ele>
        <time>2021-01-21T08:29:15.000Z</time>
      </trkpt>
      <trkpt lat="47.26911" lon="-2.33857">
        <ele>114.40000152588</ele>
        <time>2021-01-21T08:29:16.000Z</time>
      </trkpt>
      <trkpt lat="47.2692" lon="-2.33895">
        <ele>114.40000152588</ele>
        <time>2021-01-21T08:29:22.000Z</time>
      </trkpt>
      <trkpt lat="47.26929" lon="-2.33938">
        <ele>114.40000152588</ele>
        <time>2021-01-21T08:29:29.000Z</time>
      </trkpt>
      <trkpt lat="47.26939" lon="-2.33982">
        <ele>114.40000152588</ele>
        <time>2021-01-21T08:29:36.000Z</time>
      </trkpt>
      <trkpt lat="47.26952" lon="-2.34039">
        <ele>114.40000152588</ele>
        <time>2021-01-21T08:29:45.000Z</time>
      </trkpt>
      <trkpt lat="47.26958" lon="-2.34064">
        <ele>114.40000152588</ele>
        <time>2021-01-21T08:29:49.000Z</time>
      </trkpt>
      <trkpt lat="47.26964" lon="-2.3409">
        <ele>114.40000152588</ele>
        <time>2021-01-21T08:29:53.000Z</time>
      </trkpt>
      <trkpt lat="47.26967" lon="-2.34103">
        <ele>114.80000305176</ele>
        <time>2021-01-21T08:29:55.000Z</time>
      </trkpt>
      <trkpt lat="47.26969" lon="-2.34109">
        <ele>115.19999694824</ele>
        <time>2021-01-21T08:29:56.000Z</time>
      </trkpt>
      <trkpt lat="47.2697" lon="-2.34116">
        <ele>115.59999847412</ele>
        <time>2021-01-21T08:29:57.000Z</time>
      </trkpt>
      <trkpt lat="47.26972" lon="-2.34122">
        <ele>116</ele>
        <time>2021-01-21T08:29:58.000Z</time>
      </trkpt>
      <trkpt lat="47.26973" lon="-2.34129">
        <ele>116.40000152588</ele>
        <time>2021-01-21T08:29:59.000Z</time>
      </trkpt>
      <trkpt lat="47.26975" lon="-2.34135">
        <ele>116.40000152588</ele>
        <time>2021-01-21T08:30:00.000Z</time>
      </trkpt>
      <trkpt lat="47.26988" lon="-2.34194">
        <ele>116.40000152588</ele>
        <time>2021-01-21T08:30:09.000Z</time>
      </trkpt>
      <trkpt lat="47.27" lon="-2.34246">
        <ele>116.40000152588</ele>
        <time>2021-01-21T08:30:17.000Z</time>
      </trkpt>
      <trkpt lat="47.27009" lon="-2.34291">
        <ele>116.40000152588</ele>
        <time>2021-01-21T08:30:24.000Z</time>
      </trkpt>
      <trkpt lat="47.27009" lon="-2.34297">
        <ele>116.40000152588</ele>
        <time>2021-01-21T08:30:25.000Z</time>
      </trkpt>
      <trkpt lat="47.27015" lon="-2.3432">
        <ele>116.40000152588</ele>
        <time>2021-01-21T08:30:30.000Z</time>
      </trkpt>
      <trkpt lat="47.27032" lon="-2.3432">
        <ele>116.40000152588</ele>
        <time>2021-01-21T08:30:34.000Z</time>
      </trkpt>
      <trkpt lat="47.27054" lon="-2.3432">
        <ele>116.40000152588</ele>
        <time>2021-01-21T08:30:39.000Z</time>
      </trkpt>
      <trkpt lat="47.27059" lon="-2.34319">
        <ele>116.40000152588</ele>
        <time>2021-01-21T08:30:40.000Z</time>
      </trkpt>
      <trkpt lat="47.2709" lon="-2.34317">
        <ele>116.80000305176</ele>
        <time>2021-01-21T08:30:47.000Z</time>
      </trkpt>
      <trkpt lat="47.27094" lon="-2.34317">
        <ele>117.19999694824</ele>
        <time>2021-01-21T08:30:48.000Z</time>
      </trkpt>
      <trkpt lat="47.27099" lon="-2.34317">
        <ele>117.80000305176</ele>
        <time>2021-01-21T08:30:49.000Z</time>
      </trkpt>
      <trkpt lat="47.27104" lon="-2.34318">
        <ele>118.19999694824</ele>
        <time>2021-01-21T08:30:50.000Z</time>
      </trkpt>
      <trkpt lat="47.27108" lon="-2.34318">
        <ele>118.59999847412</ele>
        <time>2021-01-21T08:30:51.000Z</time>
      </trkpt>
      <trkpt lat="47.27124" lon="-2.34318">
        <ele>118.59999847412</ele>
        <time>2021-01-21T08:30:55.000Z</time>
      </trkpt>
      <trkpt lat="47.27128" lon="-2.34319">
        <ele>118.59999847412</ele>
        <time>2021-01-21T08:30:56.000Z</time>
      </trkpt>
      <trkpt lat="47.27145" lon="-2.34318">
        <ele>119</ele>
        <time>2021-01-21T08:31:00.000Z</time>
      </trkpt>
      <trkpt lat="47.27149" lon="-2.34318">
        <ele>119.40000152588</ele>
        <time>2021-01-21T08:31:01.000Z</time>
      </trkpt>
      <trkpt lat="47.27154" lon="-2.34318">
        <ele>119.80000305176</ele>
        <time>2021-01-21T08:31:02.000Z</time>
      </trkpt>
      <trkpt lat="47.27158" lon="-2.34319">
        <ele>120.19999694824</ele>
        <time>2021-01-21T08:31:03.000Z</time>
      </trkpt>
      <trkpt lat="47.27162" lon="-2.34319">
        <ele>120.59999847412</ele>
        <time>2021-01-21T08:31:04.000Z</time>
      </trkpt>
      <trkpt lat="47.27167" lon="-2.3432">
        <ele>120.59999847412</ele>
        <time>2021-01-21T08:31:05.000Z</time>
      </trkpt>
      <trkpt lat="47.27193" lon="-2.34319">
        <ele>120.59999847412</ele>
        <time>2021-01-21T08:31:11.000Z</time>
      </trkpt>
      <trkpt lat="47.27206" lon="-2.34319">
        <ele>121</ele>
        <time>2021-01-21T08:31:14.000Z</time>
      </trkpt>
      <trkpt lat="47.2721" lon="-2.34319">
        <ele>121.40000152588</ele>
        <time>2021-01-21T08:31:15.000Z</time>
      </trkpt>
      <trkpt lat="47.27214" lon="-2.34319">
        <ele>121.80000305176</ele>
        <time>2021-01-21T08:31:16.000Z</time>
      </trkpt>
      <trkpt lat="47.27219" lon="-2.34319">
        <ele>122.19999694824</ele>
        <time>2021-01-21T08:31:17.000Z</time>
      </trkpt>
      <trkpt lat="47.27223" lon="-2.34319">
        <ele>122.59999847412</ele>
        <time>2021-01-21T08:31:18.000Z</time>
      </trkpt>
      <trkpt lat="47.27231" lon="-2.34319">
        <ele>122.59999847412</ele>
        <time>2021-01-21T08:31:20.000Z</time>
      </trkpt>
      <trkpt lat="47.27252" lon="-2.3432">
        <ele>123.19999694824</ele>
        <time>2021-01-21T08:31:25.000Z</time>
      </trkpt>
      <trkpt lat="47.27255" lon="-2.3432">
        <ele>123.59999847412</ele>
        <time>2021-01-21T08:31:26.000Z</time>
      </trkpt>
      <trkpt lat="47.2726" lon="-2.3432">
        <ele>124</ele>
        <time>2021-01-21T08:31:27.000Z</time>
      </trkpt>
      <trkpt lat="47.27264" lon="-2.3432">
        <ele>124.40000152588</ele>
        <time>2021-01-21T08:31:28.000Z</time>
      </trkpt>
      <trkpt lat="47.27268" lon="-2.3432">
        <ele>124.80000305176</ele>
        <time>2021-01-21T08:31:29.000Z</time>
      </trkpt>
      <trkpt lat="47.27289" lon="-2.34314">
        <ele>124.80000305176</ele>
        <time>2021-01-21T08:31:34.000Z</time>
      </trkpt>
      <trkpt lat="47.27305" lon="-2.34308">
        <ele>125.19999694824</ele>
        <time>2021-01-21T08:31:38.000Z</time>
      </trkpt>
      <trkpt lat="47.27309" lon="-2.34306">
        <ele>125.59999847412</ele>
        <time>2021-01-21T08:31:39.000Z</time>
      </trkpt>
      <trkpt lat="47.27313" lon="-2.34304">
        <ele>126</ele>
        <time>2021-01-21T08:31:40.000Z</time>
      </trkpt>
      <trkpt lat="47.27317" lon="-2.34301">
        <ele>126.40000152588</ele>
        <time>2021-01-21T08:31:41.000Z</time>
      </trkpt>
      <trkpt lat="47.27321" lon="-2.34298">
        <ele>126.80000305176</ele>
        <time>2021-01-21T08:31:42.000Z</time>
      </trkpt>
      <trkpt lat="47.27336" lon="-2.34288">
        <ele>126.80000305176</ele>
        <time>2021-01-21T08:31:46.000Z</time>
      </trkpt>
      <trkpt lat="47.27347" lon="-2.34279">
        <ele>126.80000305176</ele>
        <time>2021-01-21T08:31:49.000Z</time>
      </trkpt>
      <trkpt lat="47.27359" lon="-2.34272">
        <ele>126.80000305176</ele>
        <time>2021-01-21T08:31:52.000Z</time>
      </trkpt>
      <trkpt lat="47.27363" lon="-2.34269">
        <ele>127.19999694824</ele>
        <time>2021-01-21T08:31:53.000Z</time>
      </trkpt>
      <trkpt lat="47.27367" lon="-2.34267">
        <ele>127.59999847412</ele>
        <time>2021-01-21T08:31:54.000Z</time>
      </trkpt>
      <trkpt lat="47.2737" lon="-2.34264">
        <ele>128.19999694824</ele>
        <time>2021-01-21T08:31:55.000Z</time>
      </trkpt>
      <trkpt lat="47.27374" lon="-2.34261">
        <ele>128.60000610352</ele>
        <time>2021-01-21T08:31:56.000Z</time>
      </trkpt>
      <trkpt lat="47.27378" lon="-2.34259">
        <ele>129</ele>
        <time>2021-01-21T08:31:57.000Z</time>
      </trkpt>
      <trkpt lat="47.27389" lon="-2.34252">
        <ele>129</ele>
        <time>2021-01-21T08:32:00.000Z</time>
      </trkpt>
      <trkpt lat="47.27412" lon="-2.34244">
        <ele>129</ele>
        <time>2021-01-21T08:32:06.000Z</time>
      </trkpt>
      <trkpt lat="47.2742" lon="-2.34261">
        <ele>129.80000305176</ele>
        <time>2021-01-21T08:32:10.000Z</time>
      </trkpt>
      <trkpt lat="47.27421" lon="-2.34267">
        <ele>130.19999694824</ele>
        <time>2021-01-21T08:32:11.000Z</time>
      </trkpt>
      <trkpt lat="47.27421" lon="-2.34273">
        <ele>130.60000610352</ele>
        <time>2021-01-21T08:32:12.000Z</time>
      </trkpt>
      <trkpt lat="47.27421" lon="-2.34279">
        <ele>131</ele>
        <time>2021-01-21T08:32:13.000Z</time>
      </trkpt>
      <trkpt lat="47.27421" lon="-2.34286">
        <ele>131</ele>
        <time>2021-01-21T08:32:14.000Z</time>
      </trkpt>
      <trkpt lat="47.27421" lon="-2.34293">
        <ele>131</ele>
        <time>2021-01-21T08:32:15.000Z</time>
      </trkpt>
      <trkpt lat="47.27421" lon="-2.34319">
        <ele>131</ele>
        <time>2021-01-21T08:32:19.000Z</time>
      </trkpt>
      <trkpt lat="47.2742" lon="-2.34339">
        <ele>131</ele>
        <time>2021-01-21T08:32:22.000Z</time>
      </trkpt>
      <trkpt lat="47.27419" lon="-2.34371">
        <ele>131.39999389648</ele>
        <time>2021-01-21T08:32:27.000Z</time>
      </trkpt>
      <trkpt lat="47.2742" lon="-2.34377">
        <ele>131.80000305176</ele>
        <time>2021-01-21T08:32:28.000Z</time>
      </trkpt>
      <trkpt lat="47.2742" lon="-2.34383">
        <ele>132.19999694824</ele>
        <time>2021-01-21T08:32:29.000Z</time>
      </trkpt>
      <trkpt lat="47.27421" lon="-2.34389">
        <ele>132.80000305176</ele>
        <time>2021-01-21T08:32:30.000Z</time>
      </trkpt>
      <trkpt lat="47.27422" lon="-2.34395">
        <ele>133.19999694824</ele>
        <time>2021-01-21T08:32:31.000Z</time>
      </trkpt>
      <trkpt lat="47.27424" lon="-2.34433">
        <ele>133.19999694824</ele>
        <time>2021-01-21T08:32:37.000Z</time>
      </trkpt>
      <trkpt lat="47.27427" lon="-2.3448">
        <ele>133.19999694824</ele>
        <time>2021-01-21T08:32:44.000Z</time>
      </trkpt>
      <trkpt lat="47.27431" lon="-2.34505">
        <ele>133.19999694824</ele>
        <time>2021-01-21T08:32:48.000Z</time>
      </trkpt>
      <trkpt lat="47.27432" lon="-2.34511">
        <ele>133.19999694824</ele>
        <time>2021-01-21T08:32:49.000Z</time>
      </trkpt>
      <trkpt lat="47.27443" lon="-2.34547">
        <ele>133.19999694824</ele>
        <time>2021-01-21T08:32:55.000Z</time>
      </trkpt>
      <trkpt lat="47.27447" lon="-2.34558">
        <ele>133.60000610352</ele>
        <time>2021-01-21T08:32:57.000Z</time>
      </trkpt>
      <trkpt lat="47.27448" lon="-2.34564">
        <ele>134</ele>
        <time>2021-01-21T08:32:58.000Z</time>
      </trkpt>
      <trkpt lat="47.27449" lon="-2.34571">
        <ele>134.39999389648</ele>
        <time>2021-01-21T08:32:59.000Z</time>
      </trkpt>
      <trkpt lat="47.2745" lon="-2.34577">
        <ele>135.19999694824</ele>
        <time>2021-01-21T08:33:00.000Z</time>
      </trkpt>
      <trkpt lat="47.27453" lon="-2.346">
        <ele>135.19999694824</ele>
        <time>2021-01-21T08:33:03.000Z</time>
      </trkpt>
      <trkpt lat="47.2746" lon="-2.34668">
        <ele>135.19999694824</ele>
        <time>2021-01-21T08:33:12.000Z</time>
      </trkpt>
      <trkpt lat="47.2746" lon="-2.34675">
        <ele>135.19999694824</ele>
        <time>2021-01-21T08:33:13.000Z</time>
      </trkpt>
      <trkpt lat="47.27462" lon="-2.34688">
        <ele>135.19999694824</ele>
        <time>2021-01-21T08:33:15.000Z</time>
      </trkpt>
      <trkpt lat="47.27464" lon="-2.34691">
        <ele>135.19999694824</ele>
        <time>2021-01-21T08:33:16.000Z</time>
      </trkpt>
      <trkpt lat="47.27477" lon="-2.34689">
        <ele>135.19999694824</ele>
        <time>2021-01-21T08:33:19.000Z</time>
      </trkpt>
      <trkpt lat="47.27481" lon="-2.34687">
        <ele>135.19999694824</ele>
        <time>2021-01-21T08:33:20.000Z</time>
      </trkpt>
      <trkpt lat="47.27506" lon="-2.34678">
        <ele>135.19999694824</ele>
        <time>2021-01-21T08:33:25.000Z</time>
      </trkpt>
      <trkpt lat="47.27535" lon="-2.34673">
        <ele>135.19999694824</ele>
        <time>2021-01-21T08:33:31.000Z</time>
      </trkpt>
      <trkpt lat="47.27566" lon="-2.34661">
        <ele>135.19999694824</ele>
        <time>2021-01-21T08:33:37.000Z</time>
      </trkpt>
      <trkpt lat="47.27595" lon="-2.34634">
        <ele>135.19999694824</ele>
        <time>2021-01-21T08:33:43.000Z</time>
      </trkpt>
      <trkpt lat="47.27605" lon="-2.34625">
        <ele>134.80000305176</ele>
        <time>2021-01-21T08:33:45.000Z</time>
      </trkpt>
      <trkpt lat="47.2761" lon="-2.3462">
        <ele>134.39999389648</ele>
        <time>2021-01-21T08:33:46.000Z</time>
      </trkpt>
      <trkpt lat="47.27614" lon="-2.34616">
        <ele>134</ele>
        <time>2021-01-21T08:33:47.000Z</time>
      </trkpt>
      <trkpt lat="47.27619" lon="-2.34612">
        <ele>133.60000610352</ele>
        <time>2021-01-21T08:33:48.000Z</time>
      </trkpt>
      <trkpt lat="47.27624" lon="-2.34607">
        <ele>133.19999694824</ele>
        <time>2021-01-21T08:33:49.000Z</time>
      </trkpt>
      <trkpt lat="47.27633" lon="-2.34597">
        <ele>133.19999694824</ele>
        <time>2021-01-21T08:33:51.000Z</time>
      </trkpt>
      <trkpt lat="47.27665" lon="-2.34567">
        <ele>133.19999694824</ele>
        <time>2021-01-21T08:33:58.000Z</time>
      </trkpt>
      <trkpt lat="47.2767" lon="-2.34565">
        <ele>133.19999694824</ele>
        <time>2021-01-21T08:33:59.000Z</time>
      </trkpt>
      <trkpt lat="47.27676" lon="-2.34565">
        <ele>133.19999694824</ele>
        <time>2021-01-21T08:34:01.000Z</time>
      </trkpt>
      <trkpt lat="47.27685" lon="-2.34573">
        <ele>133.19999694824</ele>
        <time>2021-01-21T08:34:06.000Z</time>
      </trkpt>
      <trkpt lat="47.27693" lon="-2.34595">
        <ele>133.19999694824</ele>
        <time>2021-01-21T08:34:11.000Z</time>
      </trkpt>
      <trkpt lat="47.27695" lon="-2.3461">
        <ele>133.19999694824</ele>
        <time>2021-01-21T08:34:13.000Z</time>
      </trkpt>
      <trkpt lat="47.27696" lon="-2.34626">
        <ele>133.19999694824</ele>
        <time>2021-01-21T08:34:15.000Z</time>
      </trkpt>
      <trkpt lat="47.27699" lon="-2.34666">
        <ele>133.19999694824</ele>
        <time>2021-01-21T08:34:21.000Z</time>
      </trkpt>
      <trkpt lat="47.27699" lon="-2.34674">
        <ele>133.19999694824</ele>
        <time>2021-01-21T08:34:24.000Z</time>
      </trkpt>
      <trkpt lat="47.277" lon="-2.34677">
        <ele>133.19999694824</ele>
        <time>2021-01-21T08:34:25.000Z</time>
      </trkpt>
      <trkpt lat="47.27702" lon="-2.34685">
        <ele>133.19999694824</ele>
        <time>2021-01-21T08:34:27.000Z</time>
      </trkpt>
      <trkpt lat="47.27716" lon="-2.34719">
        <ele>133.19999694824</ele>
        <time>2021-01-21T08:34:33.000Z</time>
      </trkpt>
      <trkpt lat="47.27737" lon="-2.34768">
        <ele>133.19999694824</ele>
        <time>2021-01-21T08:34:40.000Z</time>
      </trkpt>
      <trkpt lat="47.27762" lon="-2.34817">
        <ele>133.19999694824</ele>
        <time>2021-01-21T08:34:47.000Z</time>
      </trkpt>
      <trkpt lat="47.27784" lon="-2.34859">
        <ele>132.80000305176</ele>
        <time>2021-01-21T08:34:53.000Z</time>
      </trkpt>
      <trkpt lat="47.27787" lon="-2.34864">
        <ele>132.39999389648</ele>
        <time>2021-01-21T08:34:54.000Z</time>
      </trkpt>
      <trkpt lat="47.2779" lon="-2.34868">
        <ele>132</ele>
        <time>2021-01-21T08:34:55.000Z</time>
      </trkpt>
      <trkpt lat="47.27792" lon="-2.34871">
        <ele>131.39999389648</ele>
        <time>2021-01-21T08:34:56.000Z</time>
      </trkpt>
      <trkpt lat="47.27795" lon="-2.34874">
        <ele>131</ele>
        <time>2021-01-21T08:34:57.000Z</time>
      </trkpt>
      <trkpt lat="47.27797" lon="-2.34877">
        <ele>131</ele>
        <time>2021-01-21T08:34:58.000Z</time>
      </trkpt>
      <trkpt lat="47.27804" lon="-2.34884">
        <ele>130.60000610352</ele>
        <time>2021-01-21T08:35:01.000Z</time>
      </trkpt>
      <trkpt lat="47.27808" lon="-2.34887">
        <ele>130.19999694824</ele>
        <time>2021-01-21T08:35:02.000Z</time>
      </trkpt>
      <trkpt lat="47.27811" lon="-2.34889">
        <ele>129.19999694824</ele>
        <time>2021-01-21T08:35:03.000Z</time>
      </trkpt>
      <trkpt lat="47.27814" lon="-2.34892">
        <ele>128.80000305176</ele>
        <time>2021-01-21T08:35:04.000Z</time>
      </trkpt>
      <trkpt lat="47.2783" lon="-2.34905">
        <ele>128.80000305176</ele>
        <time>2021-01-21T08:35:08.000Z</time>
      </trkpt>
      <trkpt lat="47.27841" lon="-2.34918">
        <ele>129.19999694824</ele>
        <time>2021-01-21T08:35:11.000Z</time>
      </trkpt>
      <trkpt lat="47.27844" lon="-2.34922">
        <ele>129.60000610352</ele>
        <time>2021-01-21T08:35:12.000Z</time>
      </trkpt>
      <trkpt lat="47.27848" lon="-2.34926">
        <ele>130</ele>
        <time>2021-01-21T08:35:13.000Z</time>
      </trkpt>
      <trkpt lat="47.27852" lon="-2.34931">
        <ele>130.39999389648</ele>
        <time>2021-01-21T08:35:14.000Z</time>
      </trkpt>
      <trkpt lat="47.27855" lon="-2.34935">
        <ele>130.80000305176</ele>
        <time>2021-01-21T08:35:15.000Z</time>
      </trkpt>
      <trkpt lat="47.27859" lon="-2.34939">
        <ele>130.80000305176</ele>
        <time>2021-01-21T08:35:16.000Z</time>
      </trkpt>
      <trkpt lat="47.27883" lon="-2.34974">
        <ele>130.80000305176</ele>
        <time>2021-01-21T08:35:23.000Z</time>
      </trkpt>
      <trkpt lat="47.27895" lon="-2.35012">
        <ele>130.80000305176</ele>
        <time>2021-01-21T08:35:28.000Z</time>
      </trkpt>
      <trkpt lat="47.27908" lon="-2.35071">
        <ele>130.80000305176</ele>
        <time>2021-01-21T08:35:35.000Z</time>
      </trkpt>
      <trkpt lat="47.27908" lon="-2.35079">
        <ele>130.80000305176</ele>
        <time>2021-01-21T08:35:36.000Z</time>
      </trkpt>
      <trkpt lat="47.27911" lon="-2.35148">
        <ele>130.80000305176</ele>
        <time>2021-01-21T08:35:43.000Z</time>
      </trkpt>
      <trkpt lat="47.27914" lon="-2.35202">
        <ele>130.39999389648</ele>
        <time>2021-01-21T08:35:48.000Z</time>
      </trkpt>
      <trkpt lat="47.27916" lon="-2.35212">
        <ele>130</ele>
        <time>2021-01-21T08:35:49.000Z</time>
      </trkpt>
      <trkpt lat="47.27917" lon="-2.35223">
        <ele>129.60000610352</ele>
        <time>2021-01-21T08:35:50.000Z</time>
      </trkpt>
      <trkpt lat="47.27918" lon="-2.35233">
        <ele>129</ele>
        <time>2021-01-21T08:35:51.000Z</time>
      </trkpt>
      <trkpt lat="47.2792" lon="-2.35242">
        <ele>128.60000610352</ele>
        <time>2021-01-21T08:35:52.000Z</time>
      </trkpt>
      <trkpt lat="47.27927" lon="-2.35286">
        <ele>128.60000610352</ele>
        <time>2021-01-21T08:35:57.000Z</time>
      </trkpt>
      <trkpt lat="47.27928" lon="-2.353">
        <ele>128.60000610352</ele>
        <time>2021-01-21T08:35:59.000Z</time>
      </trkpt>
      <trkpt lat="47.27923" lon="-2.35311">
        <ele>128.60000610352</ele>
        <time>2021-01-21T08:36:01.000Z</time>
      </trkpt>
      <trkpt lat="47.27918" lon="-2.3532">
        <ele>128.60000610352</ele>
        <time>2021-01-21T08:36:04.000Z</time>
      </trkpt>
      <trkpt lat="47.27924" lon="-2.35325">
        <ele>128.60000610352</ele>
        <time>2021-01-21T08:36:07.000Z</time>
      </trkpt>
      <trkpt lat="47.27931" lon="-2.35345">
        <ele>128.60000610352</ele>
        <time>2021-01-21T08:36:11.000Z</time>
      </trkpt>
      <trkpt lat="47.27932" lon="-2.35359">
        <ele>128.60000610352</ele>
        <time>2021-01-21T08:36:13.000Z</time>
      </trkpt>
      <trkpt lat="47.27933" lon="-2.35383">
        <ele>128.60000610352</ele>
        <time>2021-01-21T08:36:16.000Z</time>
      </trkpt>
      <trkpt lat="47.27935" lon="-2.35406">
        <ele>128.60000610352</ele>
        <time>2021-01-21T08:36:19.000Z</time>
      </trkpt>
      <trkpt lat="47.2794" lon="-2.3542">
        <ele>128.60000610352</ele>
        <time>2021-01-21T08:36:21.000Z</time>
      </trkpt>
      <trkpt lat="47.27947" lon="-2.35431">
        <ele>128.60000610352</ele>
        <time>2021-01-21T08:36:23.000Z</time>
      </trkpt>
      <trkpt lat="47.27953" lon="-2.35444">
        <ele>128.60000610352</ele>
        <time>2021-01-21T08:36:25.000Z</time>
      </trkpt>
      <trkpt lat="47.27955" lon="-2.3545">
        <ele>128.60000610352</ele>
        <time>2021-01-21T08:36:26.000Z</time>
      </trkpt>
      <trkpt lat="47.27958" lon="-2.35461">
        <ele>128.19999694824</ele>
        <time>2021-01-21T08:36:28.000Z</time>
      </trkpt>
      <trkpt lat="47.27962" lon="-2.35465">
        <ele>127.80000305176</ele>
        <time>2021-01-21T08:36:29.000Z</time>
      </trkpt>
      <trkpt lat="47.27966" lon="-2.35467">
        <ele>127.40000152588</ele>
        <time>2021-01-21T08:36:30.000Z</time>
      </trkpt>
      <trkpt lat="47.27971" lon="-2.35471">
        <ele>127</ele>
        <time>2021-01-21T08:36:31.000Z</time>
      </trkpt>
      <trkpt lat="47.27976" lon="-2.35476">
        <ele>126.40000152588</ele>
        <time>2021-01-21T08:36:32.000Z</time>
      </trkpt>
      <trkpt lat="47.27984" lon="-2.35487">
        <ele>126.40000152588</ele>
        <time>2021-01-21T08:36:34.000Z</time>
      </trkpt>
      <trkpt lat="47.28001" lon="-2.35522">
        <ele>126.40000152588</ele>
        <time>2021-01-21T08:36:40.000Z</time>
      </trkpt>
      <trkpt lat="47.28008" lon="-2.35546">
        <ele>126.40000152588</ele>
        <time>2021-01-21T08:36:45.000Z</time>
      </trkpt>
      <trkpt lat="47.2801" lon="-2.35549">
        <ele>126.40000152588</ele>
        <time>2021-01-21T08:36:46.000Z</time>
      </trkpt>
      <trkpt lat="47.28018" lon="-2.3555">
        <ele>126.40000152588</ele>
        <time>2021-01-21T08:36:48.000Z</time>
      </trkpt>
      <trkpt lat="47.28032" lon="-2.35561">
        <ele>126.80000305176</ele>
        <time>2021-01-21T08:36:52.000Z</time>
      </trkpt>
      <trkpt lat="47.28035" lon="-2.35565">
        <ele>127.19999694824</ele>
        <time>2021-01-21T08:36:53.000Z</time>
      </trkpt>
      <trkpt lat="47.28038" lon="-2.35568">
        <ele>127.59999847412</ele>
        <time>2021-01-21T08:36:54.000Z</time>
      </trkpt>
      <trkpt lat="47.28041" lon="-2.35571">
        <ele>128</ele>
        <time>2021-01-21T08:36:55.000Z</time>
      </trkpt>
      <trkpt lat="47.28044" lon="-2.35572">
        <ele>128.60000610352</ele>
        <time>2021-01-21T08:36:56.000Z</time>
      </trkpt>
      <trkpt lat="47.2805" lon="-2.35575">
        <ele>128.60000610352</ele>
        <time>2021-01-21T08:36:58.000Z</time>
      </trkpt>
      <trkpt lat="47.28067" lon="-2.35583">
        <ele>128.60000610352</ele>
        <time>2021-01-21T08:37:05.000Z</time>
      </trkpt>
      <trkpt lat="47.28074" lon="-2.35594">
        <ele>128.60000610352</ele>
        <time>2021-01-21T08:37:10.000Z</time>
      </trkpt>
      <trkpt lat="47.28075" lon="-2.35598">
        <ele>128.60000610352</ele>
        <time>2021-01-21T08:37:12.000Z</time>
      </trkpt>
      <trkpt lat="47.28075" lon="-2.35599">
        <ele>129</ele>
        <time>2021-01-21T08:37:14.000Z</time>
      </trkpt>
      <trkpt lat="47.28075" lon="-2.35604">
        <ele>130.60000610352</ele>
        <time>2021-01-21T08:37:53.000Z</time>
      </trkpt>
      <trkpt lat="47.28076" lon="-2.3562">
        <ele>130.60000610352</ele>
        <time>2021-01-21T08:37:58.000Z</time>
      </trkpt>
      <trkpt lat="47.28078" lon="-2.35635">
        <ele>131</ele>
        <time>2021-01-21T08:38:03.000Z</time>
      </trkpt>
      <trkpt lat="47.28079" lon="-2.35638">
        <ele>131.39999389648</ele>
        <time>2021-01-21T08:38:04.000Z</time>
      </trkpt>
      <trkpt lat="47.2808" lon="-2.35641">
        <ele>131.80000305176</ele>
        <time>2021-01-21T08:38:05.000Z</time>
      </trkpt>
      <trkpt lat="47.28081" lon="-2.35644">
        <ele>132.19999694824</ele>
        <time>2021-01-21T08:38:06.000Z</time>
      </trkpt>
      <trkpt lat="47.28082" lon="-2.35647">
        <ele>132.60000610352</ele>
        <time>2021-01-21T08:38:07.000Z</time>
      </trkpt>
      <trkpt lat="47.28083" lon="-2.35651">
        <ele>132.60000610352</ele>
        <time>2021-01-21T08:38:08.000Z</time>
      </trkpt>
      <trkpt lat="47.28085" lon="-2.35655">
        <ele>133</ele>
        <time>2021-01-21T08:38:09.000Z</time>
      </trkpt>
      <trkpt lat="47.28086" lon="-2.35658">
        <ele>133.60000610352</ele>
        <time>2021-01-21T08:38:10.000Z</time>
      </trkpt>
      <trkpt lat="47.28087" lon="-2.35661">
        <ele>134</ele>
        <time>2021-01-21T08:38:11.000Z</time>
      </trkpt>
      <trkpt lat="47.28088" lon="-2.35664">
        <ele>134.39999389648</ele>
        <time>2021-01-21T08:38:12.000Z</time>
      </trkpt>
      <trkpt lat="47.28089" lon="-2.35667">
        <ele>134.80000305176</ele>
        <time>2021-01-21T08:38:13.000Z</time>
      </trkpt>
      <trkpt lat="47.2809" lon="-2.35669">
        <ele>134.80000305176</ele>
        <time>2021-01-21T08:38:14.000Z</time>
      </trkpt>
      <trkpt lat="47.28091" lon="-2.3568">
        <ele>134.80000305176</ele>
        <time>2021-01-21T08:38:20.000Z</time>
      </trkpt>
      <trkpt lat="47.28091" lon="-2.35684">
        <ele>135.19999694824</ele>
        <time>2021-01-21T08:38:22.000Z</time>
      </trkpt>
      <trkpt lat="47.28092" lon="-2.35685">
        <ele>135.60000610352</ele>
        <time>2021-01-21T08:38:23.000Z</time>
      </trkpt>
      <trkpt lat="47.28104" lon="-2.35688">
        <ele>137</ele>
        <time>2021-01-21T08:38:55.000Z</time>
      </trkpt>
      <trkpt lat="47.28105" lon="-2.35687">
        <ele>137.39999389648</ele>
        <time>2021-01-21T08:38:56.000Z</time>
      </trkpt>
      <trkpt lat="47.28106" lon="-2.35685">
        <ele>137.80000305176</ele>
        <time>2021-01-21T08:38:57.000Z</time>
      </trkpt>
      <trkpt lat="47.28108" lon="-2.35684">
        <ele>138.19999694824</ele>
        <time>2021-01-21T08:38:58.000Z</time>
      </trkpt>
      <trkpt lat="47.2811" lon="-2.35683">
        <ele>138.60000610352</ele>
        <time>2021-01-21T08:38:59.000Z</time>
      </trkpt>
      <trkpt lat="47.28111" lon="-2.35682">
        <ele>139</ele>
        <time>2021-01-21T08:39:00.000Z</time>
      </trkpt>
      <trkpt lat="47.28117" lon="-2.35681">
        <ele>139.39999389648</ele>
        <time>2021-01-21T08:39:03.000Z</time>
      </trkpt>
      <trkpt lat="47.28118" lon="-2.3568">
        <ele>139.80000305176</ele>
        <time>2021-01-21T08:39:04.000Z</time>
      </trkpt>
      <trkpt lat="47.28119" lon="-2.35679">
        <ele>140.39999389648</ele>
        <time>2021-01-21T08:39:05.000Z</time>
      </trkpt>
      <trkpt lat="47.2812" lon="-2.35679">
        <ele>140.80000305176</ele>
        <time>2021-01-21T08:39:06.000Z</time>
      </trkpt>
      <trkpt lat="47.28122" lon="-2.35678">
        <ele>141.19999694824</ele>
        <time>2021-01-21T08:39:07.000Z</time>
      </trkpt>
      <trkpt lat="47.28123" lon="-2.35677">
        <ele>141.60000610352</ele>
        <time>2021-01-21T08:39:09.000Z</time>
      </trkpt>
      <trkpt lat="47.28131" lon="-2.35674">
        <ele>143.19999694824</ele>
        <time>2021-01-21T08:39:18.000Z</time>
      </trkpt>
      <trkpt lat="47.2814" lon="-2.3567">
        <ele>143.19999694824</ele>
        <time>2021-01-21T08:39:24.000Z</time>
      </trkpt>
      <trkpt lat="47.28141" lon="-2.3567">
        <ele>143.80000305176</ele>
        <time>2021-01-21T08:39:25.000Z</time>
      </trkpt>
      <trkpt lat="47.28143" lon="-2.3567">
        <ele>144.19999694824</ele>
        <time>2021-01-21T08:39:26.000Z</time>
      </trkpt>
      <trkpt lat="47.28144" lon="-2.3567">
        <ele>144.60000610352</ele>
        <time>2021-01-21T08:39:27.000Z</time>
      </trkpt>
      <trkpt lat="47.28158" lon="-2.35677">
        <ele>145.39999389648</ele>
        <time>2021-01-21T08:39:48.000Z</time>
      </trkpt>
      <trkpt lat="47.28159" lon="-2.35677">
        <ele>145</ele>
        <time>2021-01-21T08:39:49.000Z</time>
      </trkpt>
      <trkpt lat="47.28159" lon="-2.35678">
        <ele>144.60000610352</ele>
        <time>2021-01-21T08:39:50.000Z</time>
      </trkpt>
      <trkpt lat="47.2816" lon="-2.35679">
        <ele>144.19999694824</ele>
        <time>2021-01-21T08:39:51.000Z</time>
      </trkpt>
      <trkpt lat="47.2816" lon="-2.3568">
        <ele>143.80000305176</ele>
        <time>2021-01-21T08:39:52.000Z</time>
      </trkpt>
      <trkpt lat="47.28161" lon="-2.35681">
        <ele>143.39999389648</ele>
        <time>2021-01-21T08:39:53.000Z</time>
      </trkpt>
      <trkpt lat="47.28162" lon="-2.3568">
        <ele>143.39999389648</ele>
        <time>2021-01-21T08:39:55.000Z</time>
      </trkpt>
      <trkpt lat="47.28165" lon="-2.35678">
        <ele>143.39999389648</ele>
        <time>2021-01-21T08:39:59.000Z</time>
      </trkpt>
      <trkpt lat="47.28168" lon="-2.35682">
        <ele>143.39999389648</ele>
        <time>2021-01-21T08:40:02.000Z</time>
      </trkpt>
      <trkpt lat="47.28169" lon="-2.35684">
        <ele>142.80000305176</ele>
        <time>2021-01-21T08:40:03.000Z</time>
      </trkpt>
      <trkpt lat="47.2817" lon="-2.35686">
        <ele>142.39999389648</ele>
        <time>2021-01-21T08:40:04.000Z</time>
      </trkpt>
      <trkpt lat="47.28171" lon="-2.35688">
        <ele>142</ele>
        <time>2021-01-21T08:40:05.000Z</time>
      </trkpt>
      <trkpt lat="47.28173" lon="-2.35689">
        <ele>141.60000610352</ele>
        <time>2021-01-21T08:40:06.000Z</time>
      </trkpt>
      <trkpt lat="47.28174" lon="-2.35691">
        <ele>141</ele>
        <time>2021-01-21T08:40:07.000Z</time>
      </trkpt>
      <trkpt lat="47.28176" lon="-2.35695">
        <ele>140.60000610352</ele>
        <time>2021-01-21T08:40:08.000Z</time>
      </trkpt>
      <trkpt lat="47.28178" lon="-2.35699">
        <ele>140</ele>
        <time>2021-01-21T08:40:09.000Z</time>
      </trkpt>
      <trkpt lat="47.2818" lon="-2.35703">
        <ele>139.60000610352</ele>
        <time>2021-01-21T08:40:10.000Z</time>
      </trkpt>
      <trkpt lat="47.28181" lon="-2.35706">
        <ele>139</ele>
        <time>2021-01-21T08:40:11.000Z</time>
      </trkpt>
      <trkpt lat="47.28184" lon="-2.35707">
        <ele>138.60000610352</ele>
        <time>2021-01-21T08:40:13.000Z</time>
      </trkpt>
      <trkpt lat="47.28187" lon="-2.35706">
        <ele>138.19999694824</ele>
        <time>2021-01-21T08:40:14.000Z</time>
      </trkpt>
      <trkpt lat="47.28189" lon="-2.35705">
        <ele>137.80000305176</ele>
        <time>2021-01-21T08:40:15.000Z</time>
      </trkpt>
      <trkpt lat="47.28191" lon="-2.35703">
        <ele>137.39999389648</ele>
        <time>2021-01-21T08:40:16.000Z</time>
      </trkpt>
      <trkpt lat="47.28193" lon="-2.35703">
        <ele>137</ele>
        <time>2021-01-21T08:40:17.000Z</time>
      </trkpt>
      <trkpt lat="47.28195" lon="-2.35702">
        <ele>137</ele>
        <time>2021-01-21T08:40:19.000Z</time>
      </trkpt>
      <trkpt lat="47.28212" lon="-2.35723">
        <ele>137</ele>
        <time>2021-01-21T08:41:04.000Z</time>
      </trkpt>
      <trkpt lat="47.28217" lon="-2.35723">
        <ele>137</ele>
        <time>2021-01-21T08:41:07.000Z</time>
      </trkpt>
      <trkpt lat="47.28226" lon="-2.35728">
        <ele>137</ele>
        <time>2021-01-21T08:41:13.000Z</time>
      </trkpt>
      <trkpt lat="47.28228" lon="-2.35739">
        <ele>137</ele>
        <time>2021-01-21T08:41:18.000Z</time>
      </trkpt>
      <trkpt lat="47.28229" lon="-2.35743">
        <ele>137</ele>
        <time>2021-01-21T08:41:19.000Z</time>
      </trkpt>
      <trkpt lat="47.28229" lon="-2.35754">
        <ele>137</ele>
        <time>2021-01-21T08:41:25.000Z</time>
      </trkpt>
      <trkpt lat="47.2823" lon="-2.35756">
        <ele>137.39999389648</ele>
        <time>2021-01-21T08:41:26.000Z</time>
      </trkpt>
      <trkpt lat="47.2823" lon="-2.35757">
        <ele>137.80000305176</ele>
        <time>2021-01-21T08:41:27.000Z</time>
      </trkpt>
      <trkpt lat="47.28214" lon="-2.35804">
        <ele>141</ele>
        <time>2021-01-21T08:42:17.000Z</time>
      </trkpt>
      <trkpt lat="47.28213" lon="-2.35807">
        <ele>141</ele>
        <time>2021-01-21T08:42:18.000Z</time>
      </trkpt>
      <trkpt lat="47.2821" lon="-2.35812">
        <ele>141</ele>
        <time>2021-01-21T08:42:19.000Z</time>
      </trkpt>
      <trkpt lat="47.282" lon="-2.3583">
        <ele>140.60000610352</ele>
        <time>2021-01-21T08:42:22.000Z</time>
      </trkpt>
      <trkpt lat="47.28197" lon="-2.35836">
        <ele>140</ele>
        <time>2021-01-21T08:42:23.000Z</time>
      </trkpt>
      <trkpt lat="47.28194" lon="-2.35843">
        <ele>139.60000610352</ele>
        <time>2021-01-21T08:42:24.000Z</time>
      </trkpt>
      <trkpt lat="47.28191" lon="-2.3585">
        <ele>139</ele>
        <time>2021-01-21T08:42:25.000Z</time>
      </trkpt>
      <trkpt lat="47.28188" lon="-2.35857">
        <ele>138.60000610352</ele>
        <time>2021-01-21T08:42:26.000Z</time>
      </trkpt>
      <trkpt lat="47.28182" lon="-2.3587">
        <ele>138.19999694824</ele>
        <time>2021-01-21T08:42:28.000Z</time>
      </trkpt>
      <trkpt lat="47.28181" lon="-2.35875">
        <ele>137.60000610352</ele>
        <time>2021-01-21T08:42:29.000Z</time>
      </trkpt>
      <trkpt lat="47.2818" lon="-2.35881">
        <ele>137.19999694824</ele>
        <time>2021-01-21T08:42:30.000Z</time>
      </trkpt>
      <trkpt lat="47.28179" lon="-2.35887">
        <ele>136.60000610352</ele>
        <time>2021-01-21T08:42:31.000Z</time>
      </trkpt>
      <trkpt lat="47.28179" lon="-2.35892">
        <ele>136.19999694824</ele>
        <time>2021-01-21T08:42:32.000Z</time>
      </trkpt>
      <trkpt lat="47.28176" lon="-2.3591">
        <ele>136.19999694824</ele>
        <time>2021-01-21T08:42:35.000Z</time>
      </trkpt>
      <trkpt lat="47.28177" lon="-2.3594">
        <ele>136.19999694824</ele>
        <time>2021-01-21T08:42:39.000Z</time>
      </trkpt>
      <trkpt lat="47.28179" lon="-2.35946">
        <ele>136.19999694824</ele>
        <time>2021-01-21T08:42:40.000Z</time>
      </trkpt>
      <trkpt lat="47.2818" lon="-2.35952">
        <ele>135.80000305176</ele>
        <time>2021-01-21T08:42:41.000Z</time>
      </trkpt>
      <trkpt lat="47.28182" lon="-2.3596">
        <ele>135.39999389648</ele>
        <time>2021-01-21T08:42:42.000Z</time>
      </trkpt>
      <trkpt lat="47.28185" lon="-2.3597">
        <ele>135</ele>
        <time>2021-01-21T08:42:43.000Z</time>
      </trkpt>
      <trkpt lat="47.28187" lon="-2.35977">
        <ele>134.60000610352</ele>
        <time>2021-01-21T08:42:44.000Z</time>
      </trkpt>
      <trkpt lat="47.28191" lon="-2.35982">
        <ele>134.19999694824</ele>
        <time>2021-01-21T08:42:45.000Z</time>
      </trkpt>
      <trkpt lat="47.28203" lon="-2.35998">
        <ele>134.19999694824</ele>
        <time>2021-01-21T08:42:48.000Z</time>
      </trkpt>
      <trkpt lat="47.28215" lon="-2.36016">
        <ele>134.19999694824</ele>
        <time>2021-01-21T08:42:53.000Z</time>
      </trkpt>
      <trkpt lat="47.28218" lon="-2.36026">
        <ele>134.19999694824</ele>
        <time>2021-01-21T08:42:57.000Z</time>
      </trkpt>
      <trkpt lat="47.28212" lon="-2.3604">
        <ele>134.19999694824</ele>
        <time>2021-01-21T08:43:01.000Z</time>
      </trkpt>
      <trkpt lat="47.28213" lon="-2.36044">
        <ele>133.80000305176</ele>
        <time>2021-01-21T08:43:02.000Z</time>
      </trkpt>
      <trkpt lat="47.28213" lon="-2.36048">
        <ele>133.39999389648</ele>
        <time>2021-01-21T08:43:03.000Z</time>
      </trkpt>
      <trkpt lat="47.28214" lon="-2.36052">
        <ele>133</ele>
        <time>2021-01-21T08:43:04.000Z</time>
      </trkpt>
      <trkpt lat="47.28215" lon="-2.36056">
        <ele>132.60000610352</ele>
        <time>2021-01-21T08:43:05.000Z</time>
      </trkpt>
      <trkpt lat="47.28216" lon="-2.36059">
        <ele>132.19999694824</ele>
        <time>2021-01-21T08:43:06.000Z</time>
      </trkpt>
      <trkpt lat="47.28217" lon="-2.36062">
        <ele>132.19999694824</ele>
        <time>2021-01-21T08:43:07.000Z</time>
      </trkpt>
      <trkpt lat="47.28222" lon="-2.36079">
        <ele>132.19999694824</ele>
        <time>2021-01-21T08:43:13.000Z</time>
      </trkpt>
      <trkpt lat="47.28228" lon="-2.36091">
        <ele>132.60000610352</ele>
        <time>2021-01-21T08:43:17.000Z</time>
      </trkpt>
      <trkpt lat="47.28229" lon="-2.36093">
        <ele>133.39999389648</ele>
        <time>2021-01-21T08:43:18.000Z</time>
      </trkpt>
      <trkpt lat="47.28229" lon="-2.36095">
        <ele>133.80000305176</ele>
        <time>2021-01-21T08:43:19.000Z</time>
      </trkpt>
      <trkpt lat="47.28231" lon="-2.36098">
        <ele>134.19999694824</ele>
        <time>2021-01-21T08:43:20.000Z</time>
      </trkpt>
      <trkpt lat="47.28236" lon="-2.36111">
        <ele>134.19999694824</ele>
        <time>2021-01-21T08:43:24.000Z</time>
      </trkpt>
      <trkpt lat="47.28246" lon="-2.36133">
        <ele>134.19999694824</ele>
        <time>2021-01-21T08:43:29.000Z</time>
      </trkpt>
      <trkpt lat="47.28248" lon="-2.36139">
        <ele>134.19999694824</ele>
        <time>2021-01-21T08:43:30.000Z</time>
      </trkpt>
      <trkpt lat="47.28254" lon="-2.36153">
        <ele>133.80000305176</ele>
        <time>2021-01-21T08:43:33.000Z</time>
      </trkpt>
      <trkpt lat="47.28256" lon="-2.36155">
        <ele>133.39999389648</ele>
        <time>2021-01-21T08:43:34.000Z</time>
      </trkpt>
      <trkpt lat="47.28257" lon="-2.36158">
        <ele>133</ele>
        <time>2021-01-21T08:43:35.000Z</time>
      </trkpt>
      <trkpt lat="47.28258" lon="-2.3616">
        <ele>132.60000610352</ele>
        <time>2021-01-21T08:43:36.000Z</time>
      </trkpt>
      <trkpt lat="47.28259" lon="-2.36162">
        <ele>132.19999694824</ele>
        <time>2021-01-21T08:43:37.000Z</time>
      </trkpt>
      <trkpt lat="47.2826" lon="-2.36164">
        <ele>132.19999694824</ele>
        <time>2021-01-21T08:43:40.000Z</time>
      </trkpt>
      <trkpt lat="47.28261" lon="-2.36167">
        <ele>132.19999694824</ele>
        <time>2021-01-21T08:44:02.000Z</time>
      </trkpt>
      <trkpt lat="47.28264" lon="-2.36176">
        <ele>132.19999694824</ele>
        <time>2021-01-21T08:44:05.000Z</time>
      </trkpt>
      <trkpt lat="47.28276" lon="-2.362">
        <ele>132.19999694824</ele>
        <time>2021-01-21T08:44:10.000Z</time>
      </trkpt>
      <trkpt lat="47.2829" lon="-2.36229">
        <ele>132.19999694824</ele>
        <time>2021-01-21T08:44:16.000Z</time>
      </trkpt>
      <trkpt lat="47.28307" lon="-2.36237">
        <ele>132.19999694824</ele>
        <time>2021-01-21T08:44:21.000Z</time>
      </trkpt>
      <trkpt lat="47.28324" lon="-2.36248">
        <ele>132.19999694824</ele>
        <time>2021-01-21T08:44:27.000Z</time>
      </trkpt>
      <trkpt lat="47.28336" lon="-2.36254">
        <ele>132.60000610352</ele>
        <time>2021-01-21T08:44:32.000Z</time>
      </trkpt>
      <trkpt lat="47.28338" lon="-2.36255">
        <ele>133</ele>
        <time>2021-01-21T08:44:33.000Z</time>
      </trkpt>
      <trkpt lat="47.2834" lon="-2.36256">
        <ele>133.39999389648</ele>
        <time>2021-01-21T08:44:34.000Z</time>
      </trkpt>
      <trkpt lat="47.28343" lon="-2.36257">
        <ele>133.80000305176</ele>
        <time>2021-01-21T08:44:35.000Z</time>
      </trkpt>
      <trkpt lat="47.28346" lon="-2.36257">
        <ele>134.39999389648</ele>
        <time>2021-01-21T08:44:36.000Z</time>
      </trkpt>
      <trkpt lat="47.28353" lon="-2.3626">
        <ele>134.39999389648</ele>
        <time>2021-01-21T08:44:40.000Z</time>
      </trkpt>
      <trkpt lat="47.2836" lon="-2.36269">
        <ele>134.39999389648</ele>
        <time>2021-01-21T08:44:46.000Z</time>
      </trkpt>
      <trkpt lat="47.28359" lon="-2.36272">
        <ele>134.39999389648</ele>
        <time>2021-01-21T08:44:47.000Z</time>
      </trkpt>
      <trkpt lat="47.28357" lon="-2.36282">
        <ele>134.39999389648</ele>
        <time>2021-01-21T08:44:51.000Z</time>
      </trkpt>
      <trkpt lat="47.28358" lon="-2.36285">
        <ele>134.80000305176</ele>
        <time>2021-01-21T08:44:52.000Z</time>
      </trkpt>
      <trkpt lat="47.28359" lon="-2.36287">
        <ele>135.19999694824</ele>
        <time>2021-01-21T08:44:53.000Z</time>
      </trkpt>
      <trkpt lat="47.2836" lon="-2.3629">
        <ele>135.60000610352</ele>
        <time>2021-01-21T08:44:54.000Z</time>
      </trkpt>
      <trkpt lat="47.2836" lon="-2.36293">
        <ele>136</ele>
        <time>2021-01-21T08:44:55.000Z</time>
      </trkpt>
      <trkpt lat="47.28362" lon="-2.36295">
        <ele>136.39999389648</ele>
        <time>2021-01-21T08:44:56.000Z</time>
      </trkpt>
      <trkpt lat="47.28368" lon="-2.36302">
        <ele>136.39999389648</ele>
        <time>2021-01-21T08:45:01.000Z</time>
      </trkpt>
      <trkpt lat="47.28373" lon="-2.36306">
        <ele>136.39999389648</ele>
        <time>2021-01-21T08:45:05.000Z</time>
      </trkpt>
      <trkpt lat="47.28378" lon="-2.36311">
        <ele>136.39999389648</ele>
        <time>2021-01-21T08:45:07.000Z</time>
      </trkpt>
      <trkpt lat="47.28381" lon="-2.36313">
        <ele>136.80000305176</ele>
        <time>2021-01-21T08:45:08.000Z</time>
      </trkpt>
      <trkpt lat="47.28383" lon="-2.36314">
        <ele>137.19999694824</ele>
        <time>2021-01-21T08:45:09.000Z</time>
      </trkpt>
      <trkpt lat="47.28387" lon="-2.36316">
        <ele>137.60000610352</ele>
        <time>2021-01-21T08:45:10.000Z</time>
      </trkpt>
      <trkpt lat="47.28389" lon="-2.36319">
        <ele>138</ele>
        <time>2021-01-21T08:45:11.000Z</time>
      </trkpt>
      <trkpt lat="47.28392" lon="-2.36322">
        <ele>138.39999389648</ele>
        <time>2021-01-21T08:45:12.000Z</time>
      </trkpt>
      <trkpt lat="47.28396" lon="-2.36325">
        <ele>138.39999389648</ele>
        <time>2021-01-21T08:45:14.000Z</time>
      </trkpt>
      <trkpt lat="47.28405" lon="-2.36338">
        <ele>138.39999389648</ele>
        <time>2021-01-21T08:45:19.000Z</time>
      </trkpt>
      <trkpt lat="47.28417" lon="-2.36352">
        <ele>138.39999389648</ele>
        <time>2021-01-21T08:45:25.000Z</time>
      </trkpt>
      <trkpt lat="47.28427" lon="-2.3636">
        <ele>138.80000305176</ele>
        <time>2021-01-21T08:45:29.000Z</time>
      </trkpt>
      <trkpt lat="47.28429" lon="-2.36361">
        <ele>139.19999694824</ele>
        <time>2021-01-21T08:45:30.000Z</time>
      </trkpt>
      <trkpt lat="47.28434" lon="-2.36364">
        <ele>139.60000610352</ele>
        <time>2021-01-21T08:45:31.000Z</time>
      </trkpt>
      <trkpt lat="47.28436" lon="-2.36366">
        <ele>140</ele>
        <time>2021-01-21T08:45:32.000Z</time>
      </trkpt>
      <trkpt lat="47.28439" lon="-2.36368">
        <ele>140.39999389648</ele>
        <time>2021-01-21T08:45:33.000Z</time>
      </trkpt>
      <trkpt lat="47.28447" lon="-2.36375">
        <ele>140.39999389648</ele>
        <time>2021-01-21T08:45:38.000Z</time>
      </trkpt>
      <trkpt lat="47.2846" lon="-2.36389">
        <ele>140.39999389648</ele>
        <time>2021-01-21T08:45:44.000Z</time>
      </trkpt>
      <trkpt lat="47.28464" lon="-2.36395">
        <ele>141.39999389648</ele>
        <time>2021-01-21T08:45:46.000Z</time>
      </trkpt>
      <trkpt lat="47.28466" lon="-2.36397">
        <ele>141.80000305176</ele>
        <time>2021-01-21T08:45:47.000Z</time>
      </trkpt>
      <trkpt lat="47.28468" lon="-2.36402">
        <ele>142.19999694824</ele>
        <time>2021-01-21T08:45:48.000Z</time>
      </trkpt>
      <trkpt lat="47.28469" lon="-2.36406">
        <ele>142.60000610352</ele>
        <time>2021-01-21T08:45:49.000Z</time>
      </trkpt>
      <trkpt lat="47.28471" lon="-2.3641">
        <ele>142.60000610352</ele>
        <time>2021-01-21T08:45:50.000Z</time>
      </trkpt>
      <trkpt lat="47.28487" lon="-2.36428">
        <ele>142.60000610352</ele>
        <time>2021-01-21T08:45:55.000Z</time>
      </trkpt>
      <trkpt lat="47.28495" lon="-2.36435">
        <ele>142.60000610352</ele>
        <time>2021-01-21T08:45:57.000Z</time>
      </trkpt>
      <trkpt lat="47.28508" lon="-2.36445">
        <ele>142.60000610352</ele>
        <time>2021-01-21T08:46:00.000Z</time>
      </trkpt>
      <trkpt lat="47.28515" lon="-2.36459">
        <ele>142.60000610352</ele>
        <time>2021-01-21T08:46:03.000Z</time>
      </trkpt>
      <trkpt lat="47.28517" lon="-2.36463">
        <ele>142.60000610352</ele>
        <time>2021-01-21T08:46:04.000Z</time>
      </trkpt>
      <trkpt lat="47.28521" lon="-2.36491">
        <ele>142.60000610352</ele>
        <time>2021-01-21T08:46:10.000Z</time>
      </trkpt>
      <trkpt lat="47.28512" lon="-2.36511">
        <ele>142.19999694824</ele>
        <time>2021-01-21T08:46:14.000Z</time>
      </trkpt>
      <trkpt lat="47.28508" lon="-2.36518">
        <ele>141.80000305176</ele>
        <time>2021-01-21T08:46:15.000Z</time>
      </trkpt>
      <trkpt lat="47.28504" lon="-2.36524">
        <ele>141.39999389648</ele>
        <time>2021-01-21T08:46:16.000Z</time>
      </trkpt>
      <trkpt lat="47.28499" lon="-2.36529">
        <ele>141</ele>
        <time>2021-01-21T08:46:17.000Z</time>
      </trkpt>
      <trkpt lat="47.28495" lon="-2.36534">
        <ele>140.60000610352</ele>
        <time>2021-01-21T08:46:18.000Z</time>
      </trkpt>
      <trkpt lat="47.2849" lon="-2.3654">
        <ele>140.60000610352</ele>
        <time>2021-01-21T08:46:19.000Z</time>
      </trkpt>
      <trkpt lat="47.2847" lon="-2.36569">
        <ele>140.60000610352</ele>
        <time>2021-01-21T08:46:24.000Z</time>
      </trkpt>
      <trkpt lat="47.28468" lon="-2.36577">
        <ele>140.60000610352</ele>
        <time>2021-01-21T08:46:25.000Z</time>
      </trkpt>
      <trkpt lat="47.28471" lon="-2.36593">
        <ele>140.19999694824</ele>
        <time>2021-01-21T08:46:27.000Z</time>
      </trkpt>
      <trkpt lat="47.28474" lon="-2.36601">
        <ele>139.80000305176</ele>
        <time>2021-01-21T08:46:28.000Z</time>
      </trkpt>
      <trkpt lat="47.28476" lon="-2.36608">
        <ele>139.39999389648</ele>
        <time>2021-01-21T08:46:29.000Z</time>
      </trkpt>
      <trkpt lat="47.28479" lon="-2.36615">
        <ele>139</ele>
        <time>2021-01-21T08:46:30.000Z</time>
      </trkpt>
      <trkpt lat="47.28481" lon="-2.36623">
        <ele>138.60000610352</ele>
        <time>2021-01-21T08:46:31.000Z</time>
      </trkpt>
      <trkpt lat="47.28492" lon="-2.36657">
        <ele>138.60000610352</ele>
        <time>2021-01-21T08:46:36.000Z</time>
      </trkpt>
      <trkpt lat="47.28501" lon="-2.36672">
        <ele>138.60000610352</ele>
        <time>2021-01-21T08:46:40.000Z</time>
      </trkpt>
      <trkpt lat="47.28515" lon="-2.36694">
        <ele>138.60000610352</ele>
        <time>2021-01-21T08:46:45.000Z</time>
      </trkpt>
      <trkpt lat="47.28533" lon="-2.36725">
        <ele>138.19999694824</ele>
        <time>2021-01-21T08:46:50.000Z</time>
      </trkpt>
      <trkpt lat="47.28537" lon="-2.36731">
        <ele>137.60000610352</ele>
        <time>2021-01-21T08:46:51.000Z</time>
      </trkpt>
      <trkpt lat="47.28541" lon="-2.36737">
        <ele>137.19999694824</ele>
        <time>2021-01-21T08:46:52.000Z</time>
      </trkpt>
      <trkpt lat="47.28545" lon="-2.36743">
        <ele>136.80000305176</ele>
        <time>2021-01-21T08:46:53.000Z</time>
      </trkpt>
      <trkpt lat="47.28549" lon="-2.36749">
        <ele>136.19999694824</ele>
        <time>2021-01-21T08:46:54.000Z</time>
      </trkpt>
      <trkpt lat="47.28556" lon="-2.36762">
        <ele>135.80000305176</ele>
        <time>2021-01-21T08:46:56.000Z</time>
      </trkpt>
      <trkpt lat="47.2856" lon="-2.36768">
        <ele>135.39999389648</ele>
        <time>2021-01-21T08:46:57.000Z</time>
      </trkpt>
      <trkpt lat="47.28564" lon="-2.36774">
        <ele>135</ele>
        <time>2021-01-21T08:46:58.000Z</time>
      </trkpt>
      <trkpt lat="47.28568" lon="-2.3678">
        <ele>134.60000610352</ele>
        <time>2021-01-21T08:46:59.000Z</time>
      </trkpt>
      <trkpt lat="47.28572" lon="-2.36786">
        <ele>134.19999694824</ele>
        <time>2021-01-21T08:47:00.000Z</time>
      </trkpt>
      <trkpt lat="47.28587" lon="-2.36809">
        <ele>134.19999694824</ele>
        <time>2021-01-21T08:47:04.000Z</time>
      </trkpt>
      <trkpt lat="47.28592" lon="-2.36818">
        <ele>133.80000305176</ele>
        <time>2021-01-21T08:47:06.000Z</time>
      </trkpt>
      <trkpt lat="47.28594" lon="-2.36822">
        <ele>133.19999694824</ele>
        <time>2021-01-21T08:47:07.000Z</time>
      </trkpt>
      <trkpt lat="47.28597" lon="-2.36825">
        <ele>132.80000305176</ele>
        <time>2021-01-21T08:47:08.000Z</time>
      </trkpt>
      <trkpt lat="47.28598" lon="-2.36828">
        <ele>132.39999389648</ele>
        <time>2021-01-21T08:47:09.000Z</time>
      </trkpt>
      <trkpt lat="47.28599" lon="-2.3683">
        <ele>131.80000305176</ele>
        <time>2021-01-21T08:47:10.000Z</time>
      </trkpt>
      <trkpt lat="47.28609" lon="-2.36841">
        <ele>131.80000305176</ele>
        <time>2021-01-21T08:47:16.000Z</time>
      </trkpt>
      <trkpt lat="47.28611" lon="-2.36841">
        <ele>131.80000305176</ele>
        <time>2021-01-21T08:47:17.000Z</time>
      </trkpt>
      <trkpt lat="47.28621" lon="-2.36831">
        <ele>131.80000305176</ele>
        <time>2021-01-21T08:47:21.000Z</time>
      </trkpt>
      <trkpt lat="47.28639" lon="-2.36808">
        <ele>131.80000305176</ele>
        <time>2021-01-21T08:47:28.000Z</time>
      </trkpt>
      <trkpt lat="47.2866" lon="-2.36796">
        <ele>132.39999389648</ele>
        <time>2021-01-21T08:47:34.000Z</time>
      </trkpt>
      <trkpt lat="47.28664" lon="-2.36796">
        <ele>132.80000305176</ele>
        <time>2021-01-21T08:47:35.000Z</time>
      </trkpt>
      <trkpt lat="47.28666" lon="-2.36796">
        <ele>133.19999694824</ele>
        <time>2021-01-21T08:47:36.000Z</time>
      </trkpt>
      <trkpt lat="47.28669" lon="-2.36798">
        <ele>133.60000610352</ele>
        <time>2021-01-21T08:47:37.000Z</time>
      </trkpt>
      <trkpt lat="47.28671" lon="-2.36801">
        <ele>134</ele>
        <time>2021-01-21T08:47:38.000Z</time>
      </trkpt>
      <trkpt lat="47.28678" lon="-2.36817">
        <ele>134</ele>
        <time>2021-01-21T08:47:42.000Z</time>
      </trkpt>
      <trkpt lat="47.2868" lon="-2.36821">
        <ele>134</ele>
        <time>2021-01-21T08:47:43.000Z</time>
      </trkpt>
      <trkpt lat="47.28685" lon="-2.36829">
        <ele>134</ele>
        <time>2021-01-21T08:47:46.000Z</time>
      </trkpt>
      <trkpt lat="47.28689" lon="-2.36828">
        <ele>134</ele>
        <time>2021-01-21T08:47:48.000Z</time>
      </trkpt>
      <trkpt lat="47.28695" lon="-2.36829">
        <ele>134</ele>
        <time>2021-01-21T08:47:52.000Z</time>
      </trkpt>
      <trkpt lat="47.28698" lon="-2.36833">
        <ele>134</ele>
        <time>2021-01-21T08:47:53.000Z</time>
      </trkpt>
      <trkpt lat="47.28708" lon="-2.36853">
        <ele>134</ele>
        <time>2021-01-21T08:47:57.000Z</time>
      </trkpt>
      <trkpt lat="47.28719" lon="-2.36876">
        <ele>134</ele>
        <time>2021-01-21T08:48:00.000Z</time>
      </trkpt>
      <trkpt lat="47.28722" lon="-2.36883">
        <ele>134</ele>
        <time>2021-01-21T08:48:01.000Z</time>
      </trkpt>
      <trkpt lat="47.28726" lon="-2.36891">
        <ele>133.39999389648</ele>
        <time>2021-01-21T08:48:02.000Z</time>
      </trkpt>
      <trkpt lat="47.2873" lon="-2.36899">
        <ele>133</ele>
        <time>2021-01-21T08:48:03.000Z</time>
      </trkpt>
      <trkpt lat="47.28733" lon="-2.36906">
        <ele>132.60000610352</ele>
        <time>2021-01-21T08:48:04.000Z</time>
      </trkpt>
      <trkpt lat="47.28737" lon="-2.36914">
        <ele>132.19999694824</ele>
        <time>2021-01-21T08:48:05.000Z</time>
      </trkpt>
      <trkpt lat="47.28741" lon="-2.36922">
        <ele>131.80000305176</ele>
        <time>2021-01-21T08:48:06.000Z</time>
      </trkpt>
      <trkpt lat="47.28745" lon="-2.36929">
        <ele>131.80000305176</ele>
        <time>2021-01-21T08:48:07.000Z</time>
      </trkpt>
      <trkpt lat="47.28748" lon="-2.36934">
        <ele>131.80000305176</ele>
        <time>2021-01-21T08:48:08.000Z</time>
      </trkpt>
      <trkpt lat="47.28753" lon="-2.36941">
        <ele>131.80000305176</ele>
        <time>2021-01-21T08:48:10.000Z</time>
      </trkpt>
      <trkpt lat="47.28755" lon="-2.36949">
        <ele>131.80000305176</ele>
        <time>2021-01-21T08:48:14.000Z</time>
      </trkpt>
      <trkpt lat="47.28756" lon="-2.36955">
        <ele>132.19999694824</ele>
        <time>2021-01-21T08:48:17.000Z</time>
      </trkpt>
      <trkpt lat="47.28756" lon="-2.36958">
        <ele>132.60000610352</ele>
        <time>2021-01-21T08:48:18.000Z</time>
      </trkpt>
      <trkpt lat="47.28756" lon="-2.36961">
        <ele>133</ele>
        <time>2021-01-21T08:48:19.000Z</time>
      </trkpt>
      <trkpt lat="47.28755" lon="-2.36963">
        <ele>133.39999389648</ele>
        <time>2021-01-21T08:48:20.000Z</time>
      </trkpt>
      <trkpt lat="47.28756" lon="-2.36966">
        <ele>133.80000305176</ele>
        <time>2021-01-21T08:48:21.000Z</time>
      </trkpt>
      <trkpt lat="47.28758" lon="-2.36977">
        <ele>133.80000305176</ele>
        <time>2021-01-21T08:48:25.000Z</time>
      </trkpt>
      <trkpt lat="47.28769" lon="-2.36993">
        <ele>133.80000305176</ele>
        <time>2021-01-21T08:48:31.000Z</time>
      </trkpt>
      <trkpt lat="47.28783" lon="-2.37026">
        <ele>133.80000305176</ele>
        <time>2021-01-21T08:48:37.000Z</time>
      </trkpt>
      <trkpt lat="47.28788" lon="-2.3704">
        <ele>133.80000305176</ele>
        <time>2021-01-21T08:48:39.000Z</time>
      </trkpt>
      <trkpt lat="47.28797" lon="-2.37065">
        <ele>133.80000305176</ele>
        <time>2021-01-21T08:48:42.000Z</time>
      </trkpt>
      <trkpt lat="47.28801" lon="-2.37082">
        <ele>133.39999389648</ele>
        <time>2021-01-21T08:48:44.000Z</time>
      </trkpt>
      <trkpt lat="47.28802" lon="-2.37088">
        <ele>132.80000305176</ele>
        <time>2021-01-21T08:48:45.000Z</time>
      </trkpt>
      <trkpt lat="47.28804" lon="-2.37093">
        <ele>132.19999694824</ele>
        <time>2021-01-21T08:48:46.000Z</time>
      </trkpt>
      <trkpt lat="47.28805" lon="-2.37097">
        <ele>131.60000610352</ele>
        <time>2021-01-21T08:48:47.000Z</time>
      </trkpt>
      <trkpt lat="47.28807" lon="-2.37099">
        <ele>131</ele>
        <time>2021-01-21T08:48:48.000Z</time>
      </trkpt>
      <trkpt lat="47.28809" lon="-2.371">
        <ele>130.39999389648</ele>
        <time>2021-01-21T08:48:49.000Z</time>
      </trkpt>
      <trkpt lat="47.28812" lon="-2.37101">
        <ele>130</ele>
        <time>2021-01-21T08:48:50.000Z</time>
      </trkpt>
      <trkpt lat="47.28814" lon="-2.37102">
        <ele>129.39999389648</ele>
        <time>2021-01-21T08:48:51.000Z</time>
      </trkpt>
      <trkpt lat="47.28816" lon="-2.37101">
        <ele>128.80000305176</ele>
        <time>2021-01-21T08:48:52.000Z</time>
      </trkpt>
      <trkpt lat="47.28819" lon="-2.371">
        <ele>128.39999389648</ele>
        <time>2021-01-21T08:48:53.000Z</time>
      </trkpt>
      <trkpt lat="47.28821" lon="-2.37099">
        <ele>127.80000305176</ele>
        <time>2021-01-21T08:48:54.000Z</time>
      </trkpt>
      <trkpt lat="47.28822" lon="-2.37098">
        <ele>127.40000152588</ele>
        <time>2021-01-21T08:48:55.000Z</time>
      </trkpt>
      <trkpt lat="47.28823" lon="-2.37097">
        <ele>126.80000305176</ele>
        <time>2021-01-21T08:48:56.000Z</time>
      </trkpt>
      <trkpt lat="47.28825" lon="-2.37099">
        <ele>126.40000152588</ele>
        <time>2021-01-21T08:48:57.000Z</time>
      </trkpt>
      <trkpt lat="47.28825" lon="-2.37103">
        <ele>125.80000305176</ele>
        <time>2021-01-21T08:48:58.000Z</time>
      </trkpt>
      <trkpt lat="47.28826" lon="-2.37107">
        <ele>125.19999694824</ele>
        <time>2021-01-21T08:48:59.000Z</time>
      </trkpt>
      <trkpt lat="47.28826" lon="-2.37112">
        <ele>124.59999847412</ele>
        <time>2021-01-21T08:49:00.000Z</time>
      </trkpt>
      <trkpt lat="47.28826" lon="-2.37115">
        <ele>124.19999694824</ele>
        <time>2021-01-21T08:49:01.000Z</time>
      </trkpt>
      <trkpt lat="47.28826" lon="-2.3713">
        <ele>124.19999694824</ele>
        <time>2021-01-21T08:49:05.000Z</time>
      </trkpt>
      <trkpt lat="47.28832" lon="-2.37153">
        <ele>124.19999694824</ele>
        <time>2021-01-21T08:49:12.000Z</time>
      </trkpt>
      <trkpt lat="47.28838" lon="-2.37176">
        <ele>124.19999694824</ele>
        <time>2021-01-21T08:49:17.000Z</time>
      </trkpt>
      <trkpt lat="47.28843" lon="-2.37202">
        <ele>123.80000305176</ele>
        <time>2021-01-21T08:49:22.000Z</time>
      </trkpt>
      <trkpt lat="47.28844" lon="-2.37206">
        <ele>123.40000152588</ele>
        <time>2021-01-21T08:49:23.000Z</time>
      </trkpt>
      <trkpt lat="47.28845" lon="-2.3721">
        <ele>123</ele>
        <time>2021-01-21T08:49:24.000Z</time>
      </trkpt>
      <trkpt lat="47.28846" lon="-2.37214">
        <ele>122.59999847412</ele>
        <time>2021-01-21T08:49:25.000Z</time>
      </trkpt>
      <trkpt lat="47.28848" lon="-2.37218">
        <ele>122.19999694824</ele>
        <time>2021-01-21T08:49:26.000Z</time>
      </trkpt>
      <trkpt lat="47.28857" lon="-2.37244">
        <ele>122.19999694824</ele>
        <time>2021-01-21T08:49:31.000Z</time>
      </trkpt>
      <trkpt lat="47.28858" lon="-2.37251">
        <ele>122.19999694824</ele>
        <time>2021-01-21T08:49:32.000Z</time>
      </trkpt>
      <trkpt lat="47.28863" lon="-2.37279">
        <ele>122.19999694824</ele>
        <time>2021-01-21T08:49:36.000Z</time>
      </trkpt>
      <trkpt lat="47.28867" lon="-2.37333">
        <ele>122.19999694824</ele>
        <time>2021-01-21T08:49:43.000Z</time>
      </trkpt>
      <trkpt lat="47.28872" lon="-2.3739">
        <ele>122.19999694824</ele>
        <time>2021-01-21T08:49:50.000Z</time>
      </trkpt>
      <trkpt lat="47.28873" lon="-2.37414">
        <ele>122.19999694824</ele>
        <time>2021-01-21T08:49:53.000Z</time>
      </trkpt>
      <trkpt lat="47.28874" lon="-2.37432">
        <ele>122.19999694824</ele>
        <time>2021-01-21T08:49:55.000Z</time>
      </trkpt>
      <trkpt lat="47.28876" lon="-2.3744">
        <ele>122.19999694824</ele>
        <time>2021-01-21T08:49:56.000Z</time>
      </trkpt>
      <trkpt lat="47.28885" lon="-2.3751">
        <ele>122.19999694824</ele>
        <time>2021-01-21T08:50:05.000Z</time>
      </trkpt>
      <trkpt lat="47.28887" lon="-2.37519">
        <ele>122.19999694824</ele>
        <time>2021-01-21T08:50:08.000Z</time>
      </trkpt>
      <trkpt lat="47.28887" lon="-2.37521">
        <ele>122.19999694824</ele>
        <time>2021-01-21T08:50:11.000Z</time>
      </trkpt>
      <trkpt lat="47.28889" lon="-2.37525">
        <ele>122.19999694824</ele>
        <time>2021-01-21T08:50:14.000Z</time>
      </trkpt>
      <trkpt lat="47.28893" lon="-2.37545">
        <ele>122.19999694824</ele>
        <time>2021-01-21T08:50:19.000Z</time>
      </trkpt>
      <trkpt lat="47.28898" lon="-2.37561">
        <ele>122.19999694824</ele>
        <time>2021-01-21T08:50:22.000Z</time>
      </trkpt>
      <trkpt lat="47.28902" lon="-2.37573">
        <ele>122.19999694824</ele>
        <time>2021-01-21T08:50:24.000Z</time>
      </trkpt>
      <trkpt lat="47.28905" lon="-2.37584">
        <ele>121.80000305176</ele>
        <time>2021-01-21T08:50:26.000Z</time>
      </trkpt>
      <trkpt lat="47.28906" lon="-2.37589">
        <ele>121.40000152588</ele>
        <time>2021-01-21T08:50:27.000Z</time>
      </trkpt>
      <trkpt lat="47.28906" lon="-2.37595">
        <ele>121</ele>
        <time>2021-01-21T08:50:28.000Z</time>
      </trkpt>
      <trkpt lat="47.28907" lon="-2.376">
        <ele>120.40000152588</ele>
        <time>2021-01-21T08:50:29.000Z</time>
      </trkpt>
      <trkpt lat="47.28907" lon="-2.37605">
        <ele>120</ele>
        <time>2021-01-21T08:50:30.000Z</time>
      </trkpt>
      <trkpt lat="47.28915" lon="-2.37642">
        <ele>120</ele>
        <time>2021-01-21T08:50:38.000Z</time>
      </trkpt>
      <trkpt lat="47.28928" lon="-2.37641">
        <ele>120</ele>
        <time>2021-01-21T08:50:41.000Z</time>
      </trkpt>
      <trkpt lat="47.28936" lon="-2.37641">
        <ele>120</ele>
        <time>2021-01-21T08:50:45.000Z</time>
      </trkpt>
      <trkpt lat="47.28936" lon="-2.37642">
        <ele>120</ele>
        <time>2021-01-21T08:50:47.000Z</time>
      </trkpt>
      <trkpt lat="47.28939" lon="-2.37644">
        <ele>120</ele>
        <time>2021-01-21T08:51:04.000Z</time>
      </trkpt>
      <trkpt lat="47.28941" lon="-2.37647">
        <ele>120</ele>
        <time>2021-01-21T08:51:05.000Z</time>
      </trkpt>
      <trkpt lat="47.28941" lon="-2.37669">
        <ele>120</ele>
        <time>2021-01-21T08:51:09.000Z</time>
      </trkpt>
      <trkpt lat="47.2894" lon="-2.37685">
        <ele>120</ele>
        <time>2021-01-21T08:51:11.000Z</time>
      </trkpt>
      <trkpt lat="47.28938" lon="-2.37711">
        <ele>120</ele>
        <time>2021-01-21T08:51:14.000Z</time>
      </trkpt>
      <trkpt lat="47.28932" lon="-2.37794">
        <ele>120</ele>
        <time>2021-01-21T08:51:23.000Z</time>
      </trkpt>
      <trkpt lat="47.2893" lon="-2.37809">
        <ele>120</ele>
        <time>2021-01-21T08:51:25.000Z</time>
      </trkpt>
      <trkpt lat="47.28929" lon="-2.37836">
        <ele>120</ele>
        <time>2021-01-21T08:51:28.000Z</time>
      </trkpt>
      <trkpt lat="47.28925" lon="-2.37872">
        <ele>120</ele>
        <time>2021-01-21T08:51:32.000Z</time>
      </trkpt>
      <trkpt lat="47.28921" lon="-2.37932">
        <ele>120</ele>
        <time>2021-01-21T08:51:39.000Z</time>
      </trkpt>
      <trkpt lat="47.28919" lon="-2.37963">
        <ele>120</ele>
        <time>2021-01-21T08:51:44.000Z</time>
      </trkpt>
      <trkpt lat="47.28918" lon="-2.37973">
        <ele>120</ele>
        <time>2021-01-21T08:51:46.000Z</time>
      </trkpt>
      <trkpt lat="47.28917" lon="-2.37987">
        <ele>120</ele>
        <time>2021-01-21T08:51:48.000Z</time>
      </trkpt>
      <trkpt lat="47.28916" lon="-2.38009">
        <ele>120</ele>
        <time>2021-01-21T08:51:51.000Z</time>
      </trkpt>
      <trkpt lat="47.28914" lon="-2.38034">
        <ele>120</ele>
        <time>2021-01-21T08:51:54.000Z</time>
      </trkpt>
      <trkpt lat="47.28915" lon="-2.38043">
        <ele>120</ele>
        <time>2021-01-21T08:51:55.000Z</time>
      </trkpt>
      <trkpt lat="47.28917" lon="-2.38059">
        <ele>120</ele>
        <time>2021-01-21T08:51:57.000Z</time>
      </trkpt>
      <trkpt lat="47.28922" lon="-2.38077">
        <ele>120</ele>
        <time>2021-01-21T08:51:59.000Z</time>
      </trkpt>
      <trkpt lat="47.28934" lon="-2.38133">
        <ele>120</ele>
        <time>2021-01-21T08:52:05.000Z</time>
      </trkpt>
      <trkpt lat="47.28943" lon="-2.38221">
        <ele>120</ele>
        <time>2021-01-21T08:52:14.000Z</time>
      </trkpt>
      <trkpt lat="47.28943" lon="-2.38271">
        <ele>120</ele>
        <time>2021-01-21T08:52:19.000Z</time>
      </trkpt>
      <trkpt lat="47.28939" lon="-2.38335">
        <ele>120</ele>
        <time>2021-01-21T08:52:26.000Z</time>
      </trkpt>
      <trkpt lat="47.28943" lon="-2.384">
        <ele>120</ele>
        <time>2021-01-21T08:52:33.000Z</time>
      </trkpt>
      <trkpt lat="47.28948" lon="-2.38473">
        <ele>120</ele>
        <time>2021-01-21T08:52:41.000Z</time>
      </trkpt>
      <trkpt lat="47.28957" lon="-2.38558">
        <ele>120</ele>
        <time>2021-01-21T08:52:50.000Z</time>
      </trkpt>
      <trkpt lat="47.28958" lon="-2.38568">
        <ele>120</ele>
        <time>2021-01-21T08:52:51.000Z</time>
      </trkpt>
      <trkpt lat="47.28963" lon="-2.38645">
        <ele>120</ele>
        <time>2021-01-21T08:52:59.000Z</time>
      </trkpt>
      <trkpt lat="47.28964" lon="-2.3872">
        <ele>120</ele>
        <time>2021-01-21T08:53:07.000Z</time>
      </trkpt>
      <trkpt lat="47.28964" lon="-2.38803">
        <ele>120</ele>
        <time>2021-01-21T08:53:16.000Z</time>
      </trkpt>
      <trkpt lat="47.28964" lon="-2.38812">
        <ele>120</ele>
        <time>2021-01-21T08:53:17.000Z</time>
      </trkpt>
      <trkpt lat="47.28963" lon="-2.38877">
        <ele>120</ele>
        <time>2021-01-21T08:53:24.000Z</time>
      </trkpt>
      <trkpt lat="47.2896" lon="-2.38944">
        <ele>120</ele>
        <time>2021-01-21T08:53:31.000Z</time>
      </trkpt>
      <trkpt lat="47.28955" lon="-2.39029">
        <ele>120</ele>
        <time>2021-01-21T08:53:40.000Z</time>
      </trkpt>
      <trkpt lat="47.28952" lon="-2.39075">
        <ele>120</ele>
        <time>2021-01-21T08:53:45.000Z</time>
      </trkpt>
      <trkpt lat="47.28943" lon="-2.39141">
        <ele>120</ele>
        <time>2021-01-21T08:53:52.000Z</time>
      </trkpt>
      <trkpt lat="47.28939" lon="-2.39188">
        <ele>120</ele>
        <time>2021-01-21T08:53:57.000Z</time>
      </trkpt>
      <trkpt lat="47.28939" lon="-2.39197">
        <ele>120</ele>
        <time>2021-01-21T08:53:58.000Z</time>
      </trkpt>
      <trkpt lat="47.2894" lon="-2.39256">
        <ele>120</ele>
        <time>2021-01-21T08:54:04.000Z</time>
      </trkpt>
      <trkpt lat="47.28942" lon="-2.39275">
        <ele>120</ele>
        <time>2021-01-21T08:54:06.000Z</time>
      </trkpt>
      <trkpt lat="47.28947" lon="-2.39292">
        <ele>120</ele>
        <time>2021-01-21T08:54:08.000Z</time>
      </trkpt>
      <trkpt lat="47.28962" lon="-2.39311">
        <ele>120</ele>
        <time>2021-01-21T08:54:11.000Z</time>
      </trkpt>
      <trkpt lat="47.28977" lon="-2.39314">
        <ele>120</ele>
        <time>2021-01-21T08:54:13.000Z</time>
      </trkpt>
      <trkpt lat="47.28998" lon="-2.39321">
        <ele>120</ele>
        <time>2021-01-21T08:54:16.000Z</time>
      </trkpt>
      <trkpt lat="47.29019" lon="-2.39328">
        <ele>119.59999847412</ele>
        <time>2021-01-21T08:54:19.000Z</time>
      </trkpt>
      <trkpt lat="47.29026" lon="-2.39331">
        <ele>119.19999694824</ele>
        <time>2021-01-21T08:54:20.000Z</time>
      </trkpt>
      <trkpt lat="47.29033" lon="-2.39334">
        <ele>118.80000305176</ele>
        <time>2021-01-21T08:54:21.000Z</time>
      </trkpt>
      <trkpt lat="47.29039" lon="-2.39336">
        <ele>118.40000152588</ele>
        <time>2021-01-21T08:54:22.000Z</time>
      </trkpt>
      <trkpt lat="47.29044" lon="-2.39339">
        <ele>118</ele>
        <time>2021-01-21T08:54:23.000Z</time>
      </trkpt>
      <trkpt lat="47.29068" lon="-2.39351">
        <ele>118</ele>
        <time>2021-01-21T08:54:28.000Z</time>
      </trkpt>
      <trkpt lat="47.2909" lon="-2.39361">
        <ele>118</ele>
        <time>2021-01-21T08:54:33.000Z</time>
      </trkpt>
      <trkpt lat="47.29094" lon="-2.39363">
        <ele>118.40000152588</ele>
        <time>2021-01-21T08:54:34.000Z</time>
      </trkpt>
      <trkpt lat="47.29098" lon="-2.39365">
        <ele>118.80000305176</ele>
        <time>2021-01-21T08:54:35.000Z</time>
      </trkpt>
      <trkpt lat="47.29102" lon="-2.39367">
        <ele>119.40000152588</ele>
        <time>2021-01-21T08:54:36.000Z</time>
      </trkpt>
      <trkpt lat="47.29106" lon="-2.39367">
        <ele>119.80000305176</ele>
        <time>2021-01-21T08:54:37.000Z</time>
      </trkpt>
      <trkpt lat="47.29111" lon="-2.39366">
        <ele>120.19999694824</ele>
        <time>2021-01-21T08:54:38.000Z</time>
      </trkpt>
      <trkpt lat="47.29123" lon="-2.39359">
        <ele>120.19999694824</ele>
        <time>2021-01-21T08:54:40.000Z</time>
      </trkpt>
      <trkpt lat="47.29135" lon="-2.39351">
        <ele>120.19999694824</ele>
        <time>2021-01-21T08:54:42.000Z</time>
      </trkpt>
      <trkpt lat="47.2917" lon="-2.39326">
        <ele>120.19999694824</ele>
        <time>2021-01-21T08:54:47.000Z</time>
      </trkpt>
      <trkpt lat="47.29199" lon="-2.39318">
        <ele>119.80000305176</ele>
        <time>2021-01-21T08:54:51.000Z</time>
      </trkpt>
      <trkpt lat="47.29206" lon="-2.39317">
        <ele>119.40000152588</ele>
        <time>2021-01-21T08:54:52.000Z</time>
      </trkpt>
      <trkpt lat="47.29212" lon="-2.39315">
        <ele>119</ele>
        <time>2021-01-21T08:54:53.000Z</time>
      </trkpt>
      <trkpt lat="47.29219" lon="-2.39312">
        <ele>118.59999847412</ele>
        <time>2021-01-21T08:54:54.000Z</time>
      </trkpt>
      <trkpt lat="47.29226" lon="-2.39309">
        <ele>118.19999694824</ele>
        <time>2021-01-21T08:54:55.000Z</time>
      </trkpt>
      <trkpt lat="47.29239" lon="-2.39303">
        <ele>118.19999694824</ele>
        <time>2021-01-21T08:54:57.000Z</time>
      </trkpt>
      <trkpt lat="47.29264" lon="-2.39291">
        <ele>118.19999694824</ele>
        <time>2021-01-21T08:55:01.000Z</time>
      </trkpt>
      <trkpt lat="47.29272" lon="-2.3929">
        <ele>118.19999694824</ele>
        <time>2021-01-21T08:55:02.000Z</time>
      </trkpt>
      <trkpt lat="47.29298" lon="-2.39295">
        <ele>118.19999694824</ele>
        <time>2021-01-21T08:55:06.000Z</time>
      </trkpt>
      <trkpt lat="47.2931" lon="-2.39302">
        <ele>118.19999694824</ele>
        <time>2021-01-21T08:55:08.000Z</time>
      </trkpt>
      <trkpt lat="47.29327" lon="-2.39314">
        <ele>118.19999694824</ele>
        <time>2021-01-21T08:55:11.000Z</time>
      </trkpt>
      <trkpt lat="47.29338" lon="-2.39319">
        <ele>118.19999694824</ele>
        <time>2021-01-21T08:55:13.000Z</time>
      </trkpt>
      <trkpt lat="47.29348" lon="-2.39325">
        <ele>118.19999694824</ele>
        <time>2021-01-21T08:55:15.000Z</time>
      </trkpt>
      <trkpt lat="47.29355" lon="-2.39345">
        <ele>118.19999694824</ele>
        <time>2021-01-21T08:55:18.000Z</time>
      </trkpt>
      <trkpt lat="47.29355" lon="-2.39354">
        <ele>118.19999694824</ele>
        <time>2021-01-21T08:55:19.000Z</time>
      </trkpt>
      <trkpt lat="47.29356" lon="-2.39363">
        <ele>118.59999847412</ele>
        <time>2021-01-21T08:55:20.000Z</time>
      </trkpt>
      <trkpt lat="47.29356" lon="-2.39372">
        <ele>119</ele>
        <time>2021-01-21T08:55:21.000Z</time>
      </trkpt>
      <trkpt lat="47.29356" lon="-2.3938">
        <ele>119.40000152588</ele>
        <time>2021-01-21T08:55:22.000Z</time>
      </trkpt>
      <trkpt lat="47.29356" lon="-2.39389">
        <ele>119.80000305176</ele>
        <time>2021-01-21T08:55:23.000Z</time>
      </trkpt>
      <trkpt lat="47.29356" lon="-2.39397">
        <ele>120.19999694824</ele>
        <time>2021-01-21T08:55:24.000Z</time>
      </trkpt>
      <trkpt lat="47.2936" lon="-2.39441">
        <ele>120.19999694824</ele>
        <time>2021-01-21T08:55:29.000Z</time>
      </trkpt>
      <trkpt lat="47.29365" lon="-2.39455">
        <ele>120.19999694824</ele>
        <time>2021-01-21T08:55:31.000Z</time>
      </trkpt>
      <trkpt lat="47.2938" lon="-2.39463">
        <ele>120.19999694824</ele>
        <time>2021-01-21T08:55:34.000Z</time>
      </trkpt>
      <trkpt lat="47.29386" lon="-2.39463">
        <ele>120.19999694824</ele>
        <time>2021-01-21T08:55:35.000Z</time>
      </trkpt>
      <trkpt lat="47.29398" lon="-2.39464">
        <ele>120.19999694824</ele>
        <time>2021-01-21T08:55:38.000Z</time>
      </trkpt>
      <trkpt lat="47.29415" lon="-2.39466">
        <ele>120.19999694824</ele>
        <time>2021-01-21T08:55:44.000Z</time>
      </trkpt>
      <trkpt lat="47.29438" lon="-2.39468">
        <ele>120.19999694824</ele>
        <time>2021-01-21T08:55:51.000Z</time>
      </trkpt>
      <trkpt lat="47.2947" lon="-2.39471">
        <ele>120.19999694824</ele>
        <time>2021-01-21T08:55:59.000Z</time>
      </trkpt>
      <trkpt lat="47.29504" lon="-2.3947">
        <ele>120.19999694824</ele>
        <time>2021-01-21T08:56:07.000Z</time>
      </trkpt>
      <trkpt lat="47.29533" lon="-2.39475">
        <ele>120.19999694824</ele>
        <time>2021-01-21T08:56:14.000Z</time>
      </trkpt>
      <trkpt lat="47.29554" lon="-2.39479">
        <ele>120.19999694824</ele>
        <time>2021-01-21T08:56:20.000Z</time>
      </trkpt>
      <trkpt lat="47.29556" lon="-2.3948">
        <ele>120.19999694824</ele>
        <time>2021-01-21T08:56:21.000Z</time>
      </trkpt>
      <trkpt lat="47.29561" lon="-2.39487">
        <ele>120.19999694824</ele>
        <time>2021-01-21T08:56:23.000Z</time>
      </trkpt>
      <trkpt lat="47.29559" lon="-2.395">
        <ele>120.19999694824</ele>
        <time>2021-01-21T08:56:26.000Z</time>
      </trkpt>
      <trkpt lat="47.29556" lon="-2.3951">
        <ele>120.19999694824</ele>
        <time>2021-01-21T08:56:30.000Z</time>
      </trkpt>
      <trkpt lat="47.29556" lon="-2.39512">
        <ele>120.19999694824</ele>
        <time>2021-01-21T08:56:31.000Z</time>
      </trkpt>
      <trkpt lat="47.29556" lon="-2.39525">
        <ele>120.19999694824</ele>
        <time>2021-01-21T08:56:35.000Z</time>
      </trkpt>
      <trkpt lat="47.29558" lon="-2.39535">
        <ele>120.59999847412</ele>
        <time>2021-01-21T08:56:38.000Z</time>
      </trkpt>
      <trkpt lat="47.29557" lon="-2.39538">
        <ele>121</ele>
        <time>2021-01-21T08:56:39.000Z</time>
      </trkpt>
      <trkpt lat="47.29557" lon="-2.39542">
        <ele>121.40000152588</ele>
        <time>2021-01-21T08:56:40.000Z</time>
      </trkpt>
      <trkpt lat="47.29559" lon="-2.39545">
        <ele>121.80000305176</ele>
        <time>2021-01-21T08:56:41.000Z</time>
      </trkpt>
      <trkpt lat="47.29561" lon="-2.39546">
        <ele>122.19999694824</ele>
        <time>2021-01-21T08:56:42.000Z</time>
      </trkpt>
      <trkpt lat="47.29565" lon="-2.39546">
        <ele>122.19999694824</ele>
        <time>2021-01-21T08:56:44.000Z</time>
      </trkpt>
      <trkpt lat="47.29576" lon="-2.39546">
        <ele>122.59999847412</ele>
        <time>2021-01-21T08:56:48.000Z</time>
      </trkpt>
      <trkpt lat="47.29579" lon="-2.39546">
        <ele>123</ele>
        <time>2021-01-21T08:56:49.000Z</time>
      </trkpt>
      <trkpt lat="47.29582" lon="-2.39546">
        <ele>123.40000152588</ele>
        <time>2021-01-21T08:56:50.000Z</time>
      </trkpt>
      <trkpt lat="47.29584" lon="-2.39547">
        <ele>123.80000305176</ele>
        <time>2021-01-21T08:56:51.000Z</time>
      </trkpt>
      <trkpt lat="47.29586" lon="-2.39547">
        <ele>124.19999694824</ele>
        <time>2021-01-21T08:56:52.000Z</time>
      </trkpt>
      <trkpt lat="47.29593" lon="-2.39548">
        <ele>124.19999694824</ele>
        <time>2021-01-21T08:56:55.000Z</time>
      </trkpt>
      <trkpt lat="47.29611" lon="-2.3955">
        <ele>124.19999694824</ele>
        <time>2021-01-21T08:57:00.000Z</time>
      </trkpt>
      <trkpt lat="47.29621" lon="-2.39554">
        <ele>124.19999694824</ele>
        <time>2021-01-21T08:57:03.000Z</time>
      </trkpt>
      <trkpt lat="47.29622" lon="-2.39556">
        <ele>124.19999694824</ele>
        <time>2021-01-21T08:57:04.000Z</time>
      </trkpt>
      <trkpt lat="47.29619" lon="-2.39564">
        <ele>124.19999694824</ele>
        <time>2021-01-21T08:57:07.000Z</time>
      </trkpt>
      <trkpt lat="47.29616" lon="-2.39566">
        <ele>124.19999694824</ele>
        <time>2021-01-21T08:57:08.000Z</time>
      </trkpt>
      <trkpt lat="47.2961" lon="-2.39573">
        <ele>123.80000305176</ele>
        <time>2021-01-21T08:57:11.000Z</time>
      </trkpt>
      <trkpt lat="47.29611" lon="-2.39577">
        <ele>123.40000152588</ele>
        <time>2021-01-21T08:57:12.000Z</time>
      </trkpt>
      <trkpt lat="47.29613" lon="-2.39578">
        <ele>123</ele>
        <time>2021-01-21T08:57:13.000Z</time>
      </trkpt>
      <trkpt lat="47.29617" lon="-2.39578">
        <ele>122.59999847412</ele>
        <time>2021-01-21T08:57:14.000Z</time>
      </trkpt>
      <trkpt lat="47.2962" lon="-2.39578">
        <ele>122</ele>
        <time>2021-01-21T08:57:15.000Z</time>
      </trkpt>
      <trkpt lat="47.29628" lon="-2.39579">
        <ele>121.59999847412</ele>
        <time>2021-01-21T08:57:17.000Z</time>
      </trkpt>
      <trkpt lat="47.29631" lon="-2.39581">
        <ele>120.59999847412</ele>
        <time>2021-01-21T08:57:18.000Z</time>
      </trkpt>
      <trkpt lat="47.29634" lon="-2.39584">
        <ele>120.19999694824</ele>
        <time>2021-01-21T08:57:19.000Z</time>
      </trkpt>
      <trkpt lat="47.29635" lon="-2.39589">
        <ele>119.59999847412</ele>
        <time>2021-01-21T08:57:20.000Z</time>
      </trkpt>
      <trkpt lat="47.29636" lon="-2.39601">
        <ele>119.59999847412</ele>
        <time>2021-01-21T08:57:22.000Z</time>
      </trkpt>
      <trkpt lat="47.29635" lon="-2.3961">
        <ele>119.59999847412</ele>
        <time>2021-01-21T08:57:23.000Z</time>
      </trkpt>
      <trkpt lat="47.2963" lon="-2.39644">
        <ele>119.59999847412</ele>
        <time>2021-01-21T08:57:28.000Z</time>
      </trkpt>
      <trkpt lat="47.29625" lon="-2.39661">
        <ele>119.59999847412</ele>
        <time>2021-01-21T08:57:31.000Z</time>
      </trkpt>
      <trkpt lat="47.29619" lon="-2.39671">
        <ele>119.59999847412</ele>
        <time>2021-01-21T08:57:33.000Z</time>
      </trkpt>
      <trkpt lat="47.29613" lon="-2.39682">
        <ele>119.59999847412</ele>
        <time>2021-01-21T08:57:35.000Z</time>
      </trkpt>
      <trkpt lat="47.29598" lon="-2.39709">
        <ele>119.59999847412</ele>
        <time>2021-01-21T08:57:40.000Z</time>
      </trkpt>
      <trkpt lat="47.29576" lon="-2.39745">
        <ele>119.59999847412</ele>
        <time>2021-01-21T08:57:47.000Z</time>
      </trkpt>
      <trkpt lat="47.29558" lon="-2.39788">
        <ele>119.59999847412</ele>
        <time>2021-01-21T08:57:54.000Z</time>
      </trkpt>
      <trkpt lat="47.29538" lon="-2.39828">
        <ele>119.59999847412</ele>
        <time>2021-01-21T08:58:01.000Z</time>
      </trkpt>
      <trkpt lat="47.29516" lon="-2.39872">
        <ele>119.59999847412</ele>
        <time>2021-01-21T08:58:09.000Z</time>
      </trkpt>
      <trkpt lat="47.29501" lon="-2.39897">
        <ele>119.59999847412</ele>
        <time>2021-01-21T08:58:14.000Z</time>
      </trkpt>
      <trkpt lat="47.29494" lon="-2.399">
        <ele>119.59999847412</ele>
        <time>2021-01-21T08:58:16.000Z</time>
      </trkpt>
      <trkpt lat="47.29485" lon="-2.39892">
        <ele>119.59999847412</ele>
        <time>2021-01-21T08:58:19.000Z</time>
      </trkpt>
      <trkpt lat="47.29483" lon="-2.39887">
        <ele>119.59999847412</ele>
        <time>2021-01-21T08:58:20.000Z</time>
      </trkpt>
      <trkpt lat="47.29468" lon="-2.39851">
        <ele>119.59999847412</ele>
        <time>2021-01-21T08:58:27.000Z</time>
      </trkpt>
      <trkpt lat="47.29462" lon="-2.39839">
        <ele>119.59999847412</ele>
        <time>2021-01-21T08:58:30.000Z</time>
      </trkpt>
      <trkpt lat="47.29459" lon="-2.39838">
        <ele>119.59999847412</ele>
        <time>2021-01-21T08:58:31.000Z</time>
      </trkpt>
      <trkpt lat="47.29454" lon="-2.39844">
        <ele>119.59999847412</ele>
        <time>2021-01-21T08:58:35.000Z</time>
      </trkpt>
      <trkpt lat="47.29447" lon="-2.39848">
        <ele>119.59999847412</ele>
        <time>2021-01-21T08:58:39.000Z</time>
      </trkpt>
      <trkpt lat="47.29444" lon="-2.39848">
        <ele>119.59999847412</ele>
        <time>2021-01-21T08:58:40.000Z</time>
      </trkpt>
      <trkpt lat="47.29429" lon="-2.39844">
        <ele>119.59999847412</ele>
        <time>2021-01-21T08:58:44.000Z</time>
      </trkpt>
      <trkpt lat="47.29411" lon="-2.39843">
        <ele>119.59999847412</ele>
        <time>2021-01-21T08:58:49.000Z</time>
      </trkpt>
      <trkpt lat="47.29407" lon="-2.39844">
        <ele>119.59999847412</ele>
        <time>2021-01-21T08:58:50.000Z</time>
      </trkpt>
      <trkpt lat="47.29394" lon="-2.3985">
        <ele>119.59999847412</ele>
        <time>2021-01-21T08:58:53.000Z</time>
      </trkpt>
      <trkpt lat="47.2939" lon="-2.39853">
        <ele>119.59999847412</ele>
        <time>2021-01-21T08:58:54.000Z</time>
      </trkpt>
      <trkpt lat="47.29356" lon="-2.3988">
        <ele>119.59999847412</ele>
        <time>2021-01-21T08:59:02.000Z</time>
      </trkpt>
      <trkpt lat="47.29344" lon="-2.39894">
        <ele>119.59999847412</ele>
        <time>2021-01-21T08:59:05.000Z</time>
      </trkpt>
      <trkpt lat="47.29331" lon="-2.39907">
        <ele>119.59999847412</ele>
        <time>2021-01-21T08:59:08.000Z</time>
      </trkpt>
      <trkpt lat="47.29306" lon="-2.39943">
        <ele>119.59999847412</ele>
        <time>2021-01-21T08:59:15.000Z</time>
      </trkpt>
      <trkpt lat="47.29284" lon="-2.39983">
        <ele>119.59999847412</ele>
        <time>2021-01-21T08:59:22.000Z</time>
      </trkpt>
      <trkpt lat="47.2926" lon="-2.40032">
        <ele>119.59999847412</ele>
        <time>2021-01-21T08:59:30.000Z</time>
      </trkpt>
      <trkpt lat="47.29237" lon="-2.40083">
        <ele>119.59999847412</ele>
        <time>2021-01-21T08:59:38.000Z</time>
      </trkpt>
      <trkpt lat="47.29219" lon="-2.4012">
        <ele>120.19999694824</ele>
        <time>2021-01-21T08:59:44.000Z</time>
      </trkpt>
      <trkpt lat="47.29217" lon="-2.40126">
        <ele>120.59999847412</ele>
        <time>2021-01-21T08:59:45.000Z</time>
      </trkpt>
      <trkpt lat="47.29214" lon="-2.40132">
        <ele>121</ele>
        <time>2021-01-21T08:59:46.000Z</time>
      </trkpt>
      <trkpt lat="47.29211" lon="-2.40138">
        <ele>121.80000305176</ele>
        <time>2021-01-21T08:59:47.000Z</time>
      </trkpt>
      <trkpt lat="47.29202" lon="-2.40157">
        <ele>121.80000305176</ele>
        <time>2021-01-21T08:59:50.000Z</time>
      </trkpt>
      <trkpt lat="47.2919" lon="-2.40181">
        <ele>121.80000305176</ele>
        <time>2021-01-21T08:59:54.000Z</time>
      </trkpt>
      <trkpt lat="47.29171" lon="-2.40222">
        <ele>121.80000305176</ele>
        <time>2021-01-21T09:00:01.000Z</time>
      </trkpt>
      <trkpt lat="47.29146" lon="-2.40276">
        <ele>121.80000305176</ele>
        <time>2021-01-21T09:00:10.000Z</time>
      </trkpt>
      <trkpt lat="47.29119" lon="-2.40332">
        <ele>121.80000305176</ele>
        <time>2021-01-21T09:00:19.000Z</time>
      </trkpt>
      <trkpt lat="47.29092" lon="-2.40387">
        <ele>121.80000305176</ele>
        <time>2021-01-21T09:00:28.000Z</time>
      </trkpt>
      <trkpt lat="47.29067" lon="-2.40439">
        <ele>121.80000305176</ele>
        <time>2021-01-21T09:00:36.000Z</time>
      </trkpt>
      <trkpt lat="47.29042" lon="-2.40487">
        <ele>121.80000305176</ele>
        <time>2021-01-21T09:00:44.000Z</time>
      </trkpt>
      <trkpt lat="47.29035" lon="-2.40498">
        <ele>121.80000305176</ele>
        <time>2021-01-21T09:00:46.000Z</time>
      </trkpt>
      <trkpt lat="47.29016" lon="-2.40523">
        <ele>121.80000305176</ele>
        <time>2021-01-21T09:00:51.000Z</time>
      </trkpt>
      <trkpt lat="47.28984" lon="-2.40557">
        <ele>121.80000305176</ele>
        <time>2021-01-21T09:00:59.000Z</time>
      </trkpt>
      <trkpt lat="47.28949" lon="-2.40584">
        <ele>121.80000305176</ele>
        <time>2021-01-21T09:01:07.000Z</time>
      </trkpt>
      <trkpt lat="47.28912" lon="-2.40609">
        <ele>121.80000305176</ele>
        <time>2021-01-21T09:01:15.000Z</time>
      </trkpt>
      <trkpt lat="47.28877" lon="-2.4063">
        <ele>121.80000305176</ele>
        <time>2021-01-21T09:01:22.000Z</time>
      </trkpt>
      <trkpt lat="47.28838" lon="-2.40656">
        <ele>121.80000305176</ele>
        <time>2021-01-21T09:01:30.000Z</time>
      </trkpt>
      <trkpt lat="47.28806" lon="-2.40681">
        <ele>121.80000305176</ele>
        <time>2021-01-21T09:01:37.000Z</time>
      </trkpt>
      <trkpt lat="47.28781" lon="-2.40704">
        <ele>121.80000305176</ele>
        <time>2021-01-21T09:01:43.000Z</time>
      </trkpt>
      <trkpt lat="47.28749" lon="-2.40743">
        <ele>121.80000305176</ele>
        <time>2021-01-21T09:01:51.000Z</time>
      </trkpt>
      <trkpt lat="47.28725" lon="-2.40787">
        <ele>121.80000305176</ele>
        <time>2021-01-21T09:01:58.000Z</time>
      </trkpt>
      <trkpt lat="47.28711" lon="-2.4083">
        <ele>121.80000305176</ele>
        <time>2021-01-21T09:02:04.000Z</time>
      </trkpt>
      <trkpt lat="47.28709" lon="-2.40838">
        <ele>121.80000305176</ele>
        <time>2021-01-21T09:02:05.000Z</time>
      </trkpt>
      <trkpt lat="47.28704" lon="-2.40877">
        <ele>121.80000305176</ele>
        <time>2021-01-21T09:02:10.000Z</time>
      </trkpt>
      <trkpt lat="47.28704" lon="-2.40925">
        <ele>121.80000305176</ele>
        <time>2021-01-21T09:02:16.000Z</time>
      </trkpt>
      <trkpt lat="47.28712" lon="-2.4098">
        <ele>121.80000305176</ele>
        <time>2021-01-21T09:02:23.000Z</time>
      </trkpt>
      <trkpt lat="47.28729" lon="-2.41047">
        <ele>121.80000305176</ele>
        <time>2021-01-21T09:02:32.000Z</time>
      </trkpt>
      <trkpt lat="47.28746" lon="-2.41104">
        <ele>121.80000305176</ele>
        <time>2021-01-21T09:02:40.000Z</time>
      </trkpt>
      <trkpt lat="47.28761" lon="-2.41153">
        <ele>121.80000305176</ele>
        <time>2021-01-21T09:02:47.000Z</time>
      </trkpt>
      <trkpt lat="47.2877" lon="-2.41185">
        <ele>121.80000305176</ele>
        <time>2021-01-21T09:02:52.000Z</time>
      </trkpt>
      <trkpt lat="47.28772" lon="-2.41198">
        <ele>121.80000305176</ele>
        <time>2021-01-21T09:02:54.000Z</time>
      </trkpt>
      <trkpt lat="47.28774" lon="-2.41218">
        <ele>121.80000305176</ele>
        <time>2021-01-21T09:02:57.000Z</time>
      </trkpt>
      <trkpt lat="47.2878" lon="-2.41237">
        <ele>121.80000305176</ele>
        <time>2021-01-21T09:03:00.000Z</time>
      </trkpt>
      <trkpt lat="47.28781" lon="-2.41244">
        <ele>121.80000305176</ele>
        <time>2021-01-21T09:03:01.000Z</time>
      </trkpt>
      <trkpt lat="47.28779" lon="-2.41258">
        <ele>121.80000305176</ele>
        <time>2021-01-21T09:03:03.000Z</time>
      </trkpt>
      <trkpt lat="47.28769" lon="-2.41273">
        <ele>121.80000305176</ele>
        <time>2021-01-21T09:03:06.000Z</time>
      </trkpt>
      <trkpt lat="47.28755" lon="-2.41273">
        <ele>121.80000305176</ele>
        <time>2021-01-21T09:03:09.000Z</time>
      </trkpt>
      <trkpt lat="47.28744" lon="-2.41259">
        <ele>121.80000305176</ele>
        <time>2021-01-21T09:03:12.000Z</time>
      </trkpt>
      <trkpt lat="47.28736" lon="-2.4125">
        <ele>121.80000305176</ele>
        <time>2021-01-21T09:03:14.000Z</time>
      </trkpt>
      <trkpt lat="47.28725" lon="-2.41243">
        <ele>121.80000305176</ele>
        <time>2021-01-21T09:03:16.000Z</time>
      </trkpt>
      <trkpt lat="47.2872" lon="-2.41241">
        <ele>121.80000305176</ele>
        <time>2021-01-21T09:03:17.000Z</time>
      </trkpt>
      <trkpt lat="47.28696" lon="-2.41235">
        <ele>121.80000305176</ele>
        <time>2021-01-21T09:03:21.000Z</time>
      </trkpt>
      <trkpt lat="47.28654" lon="-2.41226">
        <ele>121.80000305176</ele>
        <time>2021-01-21T09:03:28.000Z</time>
      </trkpt>
      <trkpt lat="47.28647" lon="-2.41224">
        <ele>120.80000305176</ele>
        <time>2021-01-21T09:03:29.000Z</time>
      </trkpt>
      <trkpt lat="47.28641" lon="-2.41222">
        <ele>120.19999694824</ele>
        <time>2021-01-21T09:03:30.000Z</time>
      </trkpt>
      <trkpt lat="47.28633" lon="-2.4122">
        <ele>119.80000305176</ele>
        <time>2021-01-21T09:03:31.000Z</time>
      </trkpt>
      <trkpt lat="47.28627" lon="-2.41218">
        <ele>120</ele>
        <time>2021-01-21T09:03:32.000Z</time>
      </trkpt>
      <trkpt lat="47.2862" lon="-2.41217">
        <ele>120.40000152588</ele>
        <time>2021-01-21T09:03:33.000Z</time>
      </trkpt>
      <trkpt lat="47.28613" lon="-2.41215">
        <ele>120.19999694824</ele>
        <time>2021-01-21T09:03:34.000Z</time>
      </trkpt>
      <trkpt lat="47.28606" lon="-2.41213">
        <ele>119.80000305176</ele>
        <time>2021-01-21T09:03:35.000Z</time>
      </trkpt>
      <trkpt lat="47.28598" lon="-2.41211">
        <ele>119.59999847412</ele>
        <time>2021-01-21T09:03:36.000Z</time>
      </trkpt>
      <trkpt lat="47.28591" lon="-2.41209">
        <ele>119.19999694824</ele>
        <time>2021-01-21T09:03:37.000Z</time>
      </trkpt>
      <trkpt lat="47.28585" lon="-2.41207">
        <ele>119</ele>
        <time>2021-01-21T09:03:38.000Z</time>
      </trkpt>
      <trkpt lat="47.28565" lon="-2.41205">
        <ele>119</ele>
        <time>2021-01-21T09:03:41.000Z</time>
      </trkpt>
      <trkpt lat="47.28536" lon="-2.41201">
        <ele>119</ele>
        <time>2021-01-21T09:03:47.000Z</time>
      </trkpt>
      <trkpt lat="47.28512" lon="-2.412">
        <ele>119</ele>
        <time>2021-01-21T09:03:52.000Z</time>
      </trkpt>
      <trkpt lat="47.28508" lon="-2.41203">
        <ele>119</ele>
        <time>2021-01-21T09:03:53.000Z</time>
      </trkpt>
      <trkpt lat="47.28497" lon="-2.41214">
        <ele>119</ele>
        <time>2021-01-21T09:03:56.000Z</time>
      </trkpt>
      <trkpt lat="47.28494" lon="-2.41219">
        <ele>119.40000152588</ele>
        <time>2021-01-21T09:03:57.000Z</time>
      </trkpt>
      <trkpt lat="47.28491" lon="-2.41225">
        <ele>119.80000305176</ele>
        <time>2021-01-21T09:03:58.000Z</time>
      </trkpt>
      <trkpt lat="47.28489" lon="-2.41232">
        <ele>120.19999694824</ele>
        <time>2021-01-21T09:03:59.000Z</time>
      </trkpt>
      <trkpt lat="47.28489" lon="-2.41239">
        <ele>120.80000305176</ele>
        <time>2021-01-21T09:04:00.000Z</time>
      </trkpt>
      <trkpt lat="47.28488" lon="-2.41246">
        <ele>121.19999694824</ele>
        <time>2021-01-21T09:04:01.000Z</time>
      </trkpt>
      <trkpt lat="47.28478" lon="-2.41257">
        <ele>121.19999694824</ele>
        <time>2021-01-21T09:04:04.000Z</time>
      </trkpt>
      <trkpt lat="47.28465" lon="-2.41259">
        <ele>121.19999694824</ele>
        <time>2021-01-21T09:04:07.000Z</time>
      </trkpt>
      <trkpt lat="47.28461" lon="-2.4126">
        <ele>121.19999694824</ele>
        <time>2021-01-21T09:04:08.000Z</time>
      </trkpt>
      <trkpt lat="47.28456" lon="-2.41263">
        <ele>121.19999694824</ele>
        <time>2021-01-21T09:04:09.000Z</time>
      </trkpt>
      <trkpt lat="47.28453" lon="-2.41279">
        <ele>121.19999694824</ele>
        <time>2021-01-21T09:04:12.000Z</time>
      </trkpt>
      <trkpt lat="47.28454" lon="-2.41292">
        <ele>121.19999694824</ele>
        <time>2021-01-21T09:04:14.000Z</time>
      </trkpt>
      <trkpt lat="47.28453" lon="-2.41314">
        <ele>121.19999694824</ele>
        <time>2021-01-21T09:04:17.000Z</time>
      </trkpt>
      <trkpt lat="47.28448" lon="-2.41345">
        <ele>121.19999694824</ele>
        <time>2021-01-21T09:04:21.000Z</time>
      </trkpt>
      <trkpt lat="47.28444" lon="-2.41362">
        <ele>121.19999694824</ele>
        <time>2021-01-21T09:04:23.000Z</time>
      </trkpt>
      <trkpt lat="47.28427" lon="-2.4142">
        <ele>121.19999694824</ele>
        <time>2021-01-21T09:04:30.000Z</time>
      </trkpt>
      <trkpt lat="47.28418" lon="-2.41492">
        <ele>121.19999694824</ele>
        <time>2021-01-21T09:04:38.000Z</time>
      </trkpt>
      <trkpt lat="47.28412" lon="-2.41549">
        <ele>121.19999694824</ele>
        <time>2021-01-21T09:04:44.000Z</time>
      </trkpt>
      <trkpt lat="47.28403" lon="-2.41626">
        <ele>121.19999694824</ele>
        <time>2021-01-21T09:04:52.000Z</time>
      </trkpt>
      <trkpt lat="47.28392" lon="-2.41699">
        <ele>121.19999694824</ele>
        <time>2021-01-21T09:05:00.000Z</time>
      </trkpt>
      <trkpt lat="47.28377" lon="-2.41762">
        <ele>121.19999694824</ele>
        <time>2021-01-21T09:05:07.000Z</time>
      </trkpt>
      <trkpt lat="47.28356" lon="-2.41841">
        <ele>121.19999694824</ele>
        <time>2021-01-21T09:05:16.000Z</time>
      </trkpt>
      <trkpt lat="47.28341" lon="-2.41911">
        <ele>121.19999694824</ele>
        <time>2021-01-21T09:05:24.000Z</time>
      </trkpt>
      <trkpt lat="47.28328" lon="-2.41966">
        <ele>121.19999694824</ele>
        <time>2021-01-21T09:05:31.000Z</time>
      </trkpt>
      <trkpt lat="47.28311" lon="-2.42045">
        <ele>121.19999694824</ele>
        <time>2021-01-21T09:05:41.000Z</time>
      </trkpt>
      <trkpt lat="47.28303" lon="-2.421">
        <ele>121.19999694824</ele>
        <time>2021-01-21T09:05:48.000Z</time>
      </trkpt>
      <trkpt lat="47.28293" lon="-2.42165">
        <ele>121.19999694824</ele>
        <time>2021-01-21T09:05:56.000Z</time>
      </trkpt>
      <trkpt lat="47.28282" lon="-2.42233">
        <ele>121.19999694824</ele>
        <time>2021-01-21T09:06:05.000Z</time>
      </trkpt>
      <trkpt lat="47.2828" lon="-2.4224">
        <ele>121.19999694824</ele>
        <time>2021-01-21T09:06:06.000Z</time>
      </trkpt>
      <trkpt lat="47.28273" lon="-2.42277">
        <ele>121.19999694824</ele>
        <time>2021-01-21T09:06:11.000Z</time>
      </trkpt>
      <trkpt lat="47.28265" lon="-2.42336">
        <ele>121.19999694824</ele>
        <time>2021-01-21T09:06:18.000Z</time>
      </trkpt>
      <trkpt lat="47.28255" lon="-2.42392">
        <ele>121.19999694824</ele>
        <time>2021-01-21T09:06:25.000Z</time>
      </trkpt>
      <trkpt lat="47.28241" lon="-2.42443">
        <ele>121.19999694824</ele>
        <time>2021-01-21T09:06:32.000Z</time>
      </trkpt>
      <trkpt lat="47.28218" lon="-2.42492">
        <ele>121.19999694824</ele>
        <time>2021-01-21T09:06:39.000Z</time>
      </trkpt>
      <trkpt lat="47.28214" lon="-2.42498">
        <ele>121.19999694824</ele>
        <time>2021-01-21T09:06:40.000Z</time>
      </trkpt>
      <trkpt lat="47.28197" lon="-2.42517">
        <ele>121.19999694824</ele>
        <time>2021-01-21T09:06:44.000Z</time>
      </trkpt>
      <trkpt lat="47.28183" lon="-2.42525">
        <ele>121.19999694824</ele>
        <time>2021-01-21T09:06:47.000Z</time>
      </trkpt>
      <trkpt lat="47.28173" lon="-2.42528">
        <ele>121.19999694824</ele>
        <time>2021-01-21T09:06:49.000Z</time>
      </trkpt>
      <trkpt lat="47.28131" lon="-2.42541">
        <ele>121.19999694824</ele>
        <time>2021-01-21T09:06:57.000Z</time>
      </trkpt>
      <trkpt lat="47.28103" lon="-2.4255">
        <ele>121.19999694824</ele>
        <time>2021-01-21T09:07:04.000Z</time>
      </trkpt>
      <trkpt lat="47.28101" lon="-2.42552">
        <ele>121.19999694824</ele>
        <time>2021-01-21T09:07:05.000Z</time>
      </trkpt>
      <trkpt lat="47.28101" lon="-2.42558">
        <ele>121.19999694824</ele>
        <time>2021-01-21T09:07:07.000Z</time>
      </trkpt>
      <trkpt lat="47.28112" lon="-2.42577">
        <ele>121.19999694824</ele>
        <time>2021-01-21T09:07:12.000Z</time>
      </trkpt>
      <trkpt lat="47.28133" lon="-2.42614">
        <ele>121.19999694824</ele>
        <time>2021-01-21T09:07:19.000Z</time>
      </trkpt>
      <trkpt lat="47.28156" lon="-2.42654">
        <ele>121.19999694824</ele>
        <time>2021-01-21T09:07:27.000Z</time>
      </trkpt>
      <trkpt lat="47.28162" lon="-2.42664">
        <ele>121.19999694824</ele>
        <time>2021-01-21T09:07:29.000Z</time>
      </trkpt>
      <trkpt lat="47.28174" lon="-2.42681">
        <ele>121.19999694824</ele>
        <time>2021-01-21T09:07:32.000Z</time>
      </trkpt>
      <trkpt lat="47.2819" lon="-2.42703">
        <ele>121.19999694824</ele>
        <time>2021-01-21T09:07:37.000Z</time>
      </trkpt>
      <trkpt lat="47.28197" lon="-2.42694">
        <ele>121.19999694824</ele>
        <time>2021-01-21T09:07:40.000Z</time>
      </trkpt>
      <trkpt lat="47.282" lon="-2.42681">
        <ele>121.19999694824</ele>
        <time>2021-01-21T09:07:42.000Z</time>
      </trkpt>
      <trkpt lat="47.28207" lon="-2.42662">
        <ele>121.19999694824</ele>
        <time>2021-01-21T09:07:45.000Z</time>
      </trkpt>
      <trkpt lat="47.28225" lon="-2.42643">
        <ele>121.19999694824</ele>
        <time>2021-01-21T09:07:49.000Z</time>
      </trkpt>
      <trkpt lat="47.28264" lon="-2.42601">
        <ele>121.19999694824</ele>
        <time>2021-01-21T09:07:57.000Z</time>
      </trkpt>
      <trkpt lat="47.28296" lon="-2.42569">
        <ele>121.19999694824</ele>
        <time>2021-01-21T09:08:04.000Z</time>
      </trkpt>
      <trkpt lat="47.28309" lon="-2.42557">
        <ele>121.19999694824</ele>
        <time>2021-01-21T09:08:07.000Z</time>
      </trkpt>
      <trkpt lat="47.2832" lon="-2.4254">
        <ele>121.19999694824</ele>
        <time>2021-01-21T09:08:10.000Z</time>
      </trkpt>
      <trkpt lat="47.28331" lon="-2.42506">
        <ele>121.19999694824</ele>
        <time>2021-01-21T09:08:15.000Z</time>
      </trkpt>
      <trkpt lat="47.28346" lon="-2.42471">
        <ele>121.19999694824</ele>
        <time>2021-01-21T09:08:21.000Z</time>
      </trkpt>
      <trkpt lat="47.2836" lon="-2.42436">
        <ele>121.19999694824</ele>
        <time>2021-01-21T09:08:27.000Z</time>
      </trkpt>
      <trkpt lat="47.28377" lon="-2.42392">
        <ele>121.19999694824</ele>
        <time>2021-01-21T09:08:34.000Z</time>
      </trkpt>
      <trkpt lat="47.28382" lon="-2.4238">
        <ele>121.19999694824</ele>
        <time>2021-01-21T09:08:36.000Z</time>
      </trkpt>
      <trkpt lat="47.28386" lon="-2.42358">
        <ele>121.19999694824</ele>
        <time>2021-01-21T09:08:39.000Z</time>
      </trkpt>
      <trkpt lat="47.28383" lon="-2.42324">
        <ele>121.19999694824</ele>
        <time>2021-01-21T09:08:44.000Z</time>
      </trkpt>
      <trkpt lat="47.2838" lon="-2.42312">
        <ele>121.19999694824</ele>
        <time>2021-01-21T09:08:46.000Z</time>
      </trkpt>
      <trkpt lat="47.28379" lon="-2.42305">
        <ele>121.19999694824</ele>
        <time>2021-01-21T09:08:47.000Z</time>
      </trkpt>
      <trkpt lat="47.28379" lon="-2.42292">
        <ele>121.19999694824</ele>
        <time>2021-01-21T09:08:49.000Z</time>
      </trkpt>
      <trkpt lat="47.28381" lon="-2.4228">
        <ele>121.19999694824</ele>
        <time>2021-01-21T09:08:51.000Z</time>
      </trkpt>
      <trkpt lat="47.28384" lon="-2.42261">
        <ele>121.19999694824</ele>
        <time>2021-01-21T09:08:54.000Z</time>
      </trkpt>
      <trkpt lat="47.28388" lon="-2.42243">
        <ele>121.19999694824</ele>
        <time>2021-01-21T09:08:57.000Z</time>
      </trkpt>
      <trkpt lat="47.28389" lon="-2.42231">
        <ele>121.19999694824</ele>
        <time>2021-01-21T09:08:59.000Z</time>
      </trkpt>
      <trkpt lat="47.28392" lon="-2.42218">
        <ele>121.19999694824</ele>
        <time>2021-01-21T09:09:01.000Z</time>
      </trkpt>
      <trkpt lat="47.28393" lon="-2.42211">
        <ele>121.19999694824</ele>
        <time>2021-01-21T09:09:02.000Z</time>
      </trkpt>
      <trkpt lat="47.28396" lon="-2.42198">
        <ele>121.19999694824</ele>
        <time>2021-01-21T09:09:04.000Z</time>
      </trkpt>
      <trkpt lat="47.28399" lon="-2.42185">
        <ele>121.19999694824</ele>
        <time>2021-01-21T09:09:06.000Z</time>
      </trkpt>
      <trkpt lat="47.28406" lon="-2.42157">
        <ele>121.19999694824</ele>
        <time>2021-01-21T09:09:10.000Z</time>
      </trkpt>
      <trkpt lat="47.28417" lon="-2.42106">
        <ele>121.19999694824</ele>
        <time>2021-01-21T09:09:18.000Z</time>
      </trkpt>
      <trkpt lat="47.2842" lon="-2.42086">
        <ele>121.19999694824</ele>
        <time>2021-01-21T09:09:21.000Z</time>
      </trkpt>
      <trkpt lat="47.28423" lon="-2.42067">
        <ele>121.19999694824</ele>
        <time>2021-01-21T09:09:24.000Z</time>
      </trkpt>
      <trkpt lat="47.28426" lon="-2.42053">
        <ele>121.19999694824</ele>
        <time>2021-01-21T09:09:26.000Z</time>
      </trkpt>
      <trkpt lat="47.2843" lon="-2.42032">
        <ele>121.19999694824</ele>
        <time>2021-01-21T09:09:29.000Z</time>
      </trkpt>
      <trkpt lat="47.28432" lon="-2.42026">
        <ele>121.19999694824</ele>
        <time>2021-01-21T09:09:30.000Z</time>
      </trkpt>
      <trkpt lat="47.28437" lon="-2.42">
        <ele>121.19999694824</ele>
        <time>2021-01-21T09:09:35.000Z</time>
      </trkpt>
      <trkpt lat="47.28441" lon="-2.41981">
        <ele>121.19999694824</ele>
        <time>2021-01-21T09:09:38.000Z</time>
      </trkpt>
      <trkpt lat="47.28447" lon="-2.41955">
        <ele>121.19999694824</ele>
        <time>2021-01-21T09:09:43.000Z</time>
      </trkpt>
      <trkpt lat="47.28449" lon="-2.41953">
        <ele>121.19999694824</ele>
        <time>2021-01-21T09:09:44.000Z</time>
      </trkpt>
      <trkpt lat="47.28457" lon="-2.41941">
        <ele>121.19999694824</ele>
        <time>2021-01-21T09:09:49.000Z</time>
      </trkpt>
      <trkpt lat="47.28469" lon="-2.41941">
        <ele>121.19999694824</ele>
        <time>2021-01-21T09:09:53.000Z</time>
      </trkpt>
      <trkpt lat="47.28474" lon="-2.4194">
        <ele>120.80000305176</ele>
        <time>2021-01-21T09:09:55.000Z</time>
      </trkpt>
      <trkpt lat="47.28477" lon="-2.41939">
        <ele>120.40000152588</ele>
        <time>2021-01-21T09:09:56.000Z</time>
      </trkpt>
      <trkpt lat="47.28479" lon="-2.41938">
        <ele>119.80000305176</ele>
        <time>2021-01-21T09:09:57.000Z</time>
      </trkpt>
      <trkpt lat="47.28481" lon="-2.41938">
        <ele>119.40000152588</ele>
        <time>2021-01-21T09:09:58.000Z</time>
      </trkpt>
      <trkpt lat="47.28484" lon="-2.41938">
        <ele>119</ele>
        <time>2021-01-21T09:09:59.000Z</time>
      </trkpt>
      <trkpt lat="47.28489" lon="-2.41939">
        <ele>119</ele>
        <time>2021-01-21T09:10:01.000Z</time>
      </trkpt>
      <trkpt lat="47.28492" lon="-2.41939">
        <ele>119</ele>
        <time>2021-01-21T09:10:02.000Z</time>
      </trkpt>
      <trkpt lat="47.28501" lon="-2.41937">
        <ele>119</ele>
        <time>2021-01-21T09:10:06.000Z</time>
      </trkpt>
      <trkpt lat="47.28503" lon="-2.41933">
        <ele>119</ele>
        <time>2021-01-21T09:10:08.000Z</time>
      </trkpt>
      <trkpt lat="47.28503" lon="-2.41931">
        <ele>119.40000152588</ele>
        <time>2021-01-21T09:10:09.000Z</time>
      </trkpt>
      <trkpt lat="47.28502" lon="-2.4193">
        <ele>119.80000305176</ele>
        <time>2021-01-21T09:10:10.000Z</time>
      </trkpt>
      <trkpt lat="47.285" lon="-2.41929">
        <ele>120.19999694824</ele>
        <time>2021-01-21T09:10:11.000Z</time>
      </trkpt>
      <trkpt lat="47.28499" lon="-2.41928">
        <ele>120.59999847412</ele>
        <time>2021-01-21T09:10:12.000Z</time>
      </trkpt>
      <trkpt lat="47.28497" lon="-2.41926">
        <ele>121</ele>
        <time>2021-01-21T09:10:13.000Z</time>
      </trkpt>
      <trkpt lat="47.28497" lon="-2.41922">
        <ele>121</ele>
        <time>2021-01-21T09:10:14.000Z</time>
      </trkpt>
      <trkpt lat="47.28497" lon="-2.41917">
        <ele>121</ele>
        <time>2021-01-21T09:10:15.000Z</time>
      </trkpt>
      <trkpt lat="47.28499" lon="-2.41897">
        <ele>121</ele>
        <time>2021-01-21T09:10:18.000Z</time>
      </trkpt>
      <trkpt lat="47.285" lon="-2.41889">
        <ele>121</ele>
        <time>2021-01-21T09:10:19.000Z</time>
      </trkpt>
      <trkpt lat="47.28506" lon="-2.41845">
        <ele>121</ele>
        <time>2021-01-21T09:10:25.000Z</time>
      </trkpt>
      <trkpt lat="47.28517" lon="-2.41793">
        <ele>121</ele>
        <time>2021-01-21T09:10:32.000Z</time>
      </trkpt>
      <trkpt lat="47.28523" lon="-2.41754">
        <ele>121</ele>
        <time>2021-01-21T09:10:37.000Z</time>
      </trkpt>
      <trkpt lat="47.28525" lon="-2.41747">
        <ele>121</ele>
        <time>2021-01-21T09:10:38.000Z</time>
      </trkpt>
      <trkpt lat="47.2854" lon="-2.41729">
        <ele>121</ele>
        <time>2021-01-21T09:10:42.000Z</time>
      </trkpt>
      <trkpt lat="47.28557" lon="-2.41725">
        <ele>121</ele>
        <time>2021-01-21T09:10:46.000Z</time>
      </trkpt>
      <trkpt lat="47.28583" lon="-2.41735">
        <ele>121</ele>
        <time>2021-01-21T09:10:51.000Z</time>
      </trkpt>
      <trkpt lat="47.28593" lon="-2.41744">
        <ele>121</ele>
        <time>2021-01-21T09:10:53.000Z</time>
      </trkpt>
      <trkpt lat="47.28611" lon="-2.41761">
        <ele>121</ele>
        <time>2021-01-21T09:10:57.000Z</time>
      </trkpt>
      <trkpt lat="47.28643" lon="-2.41793">
        <ele>121</ele>
        <time>2021-01-21T09:11:04.000Z</time>
      </trkpt>
      <trkpt lat="47.28676" lon="-2.41819">
        <ele>121</ele>
        <time>2021-01-21T09:11:11.000Z</time>
      </trkpt>
      <trkpt lat="47.28708" lon="-2.41845">
        <ele>121</ele>
        <time>2021-01-21T09:11:18.000Z</time>
      </trkpt>
      <trkpt lat="47.28742" lon="-2.41868">
        <ele>121</ele>
        <time>2021-01-21T09:11:25.000Z</time>
      </trkpt>
      <trkpt lat="47.28774" lon="-2.41885">
        <ele>121</ele>
        <time>2021-01-21T09:11:31.000Z</time>
      </trkpt>
      <trkpt lat="47.28778" lon="-2.41889">
        <ele>121</ele>
        <time>2021-01-21T09:11:32.000Z</time>
      </trkpt>
      <trkpt lat="47.28792" lon="-2.41915">
        <ele>121</ele>
        <time>2021-01-21T09:11:36.000Z</time>
      </trkpt>
      <trkpt lat="47.28797" lon="-2.4193">
        <ele>121</ele>
        <time>2021-01-21T09:11:38.000Z</time>
      </trkpt>
      <trkpt lat="47.28797" lon="-2.41948">
        <ele>121</ele>
        <time>2021-01-21T09:11:40.000Z</time>
      </trkpt>
      <trkpt lat="47.28798" lon="-2.41965">
        <ele>121</ele>
        <time>2021-01-21T09:11:42.000Z</time>
      </trkpt>
      <trkpt lat="47.288" lon="-2.41991">
        <ele>121</ele>
        <time>2021-01-21T09:11:45.000Z</time>
      </trkpt>
      <trkpt lat="47.28801" lon="-2.41999">
        <ele>121</ele>
        <time>2021-01-21T09:11:46.000Z</time>
      </trkpt>
      <trkpt lat="47.28813" lon="-2.4205">
        <ele>121</ele>
        <time>2021-01-21T09:11:52.000Z</time>
      </trkpt>
      <trkpt lat="47.28814" lon="-2.42059">
        <ele>121</ele>
        <time>2021-01-21T09:11:53.000Z</time>
      </trkpt>
      <trkpt lat="47.28813" lon="-2.42084">
        <ele>121</ele>
        <time>2021-01-21T09:11:56.000Z</time>
      </trkpt>
      <trkpt lat="47.28802" lon="-2.42118">
        <ele>121</ele>
        <time>2021-01-21T09:12:00.000Z</time>
      </trkpt>
      <trkpt lat="47.28787" lon="-2.42133">
        <ele>121</ele>
        <time>2021-01-21T09:12:03.000Z</time>
      </trkpt>
      <trkpt lat="47.28782" lon="-2.42137">
        <ele>121</ele>
        <time>2021-01-21T09:12:04.000Z</time>
      </trkpt>
      <trkpt lat="47.28778" lon="-2.42139">
        <ele>121</ele>
        <time>2021-01-21T09:12:05.000Z</time>
      </trkpt>
      <trkpt lat="47.28762" lon="-2.42148">
        <ele>121</ele>
        <time>2021-01-21T09:12:09.000Z</time>
      </trkpt>
      <trkpt lat="47.28736" lon="-2.42168">
        <ele>121</ele>
        <time>2021-01-21T09:12:15.000Z</time>
      </trkpt>
      <trkpt lat="47.28712" lon="-2.42192">
        <ele>121</ele>
        <time>2021-01-21T09:12:21.000Z</time>
      </trkpt>
      <trkpt lat="47.28709" lon="-2.42197">
        <ele>121</ele>
        <time>2021-01-21T09:12:22.000Z</time>
      </trkpt>
      <trkpt lat="47.28697" lon="-2.42221">
        <ele>121</ele>
        <time>2021-01-21T09:12:26.000Z</time>
      </trkpt>
      <trkpt lat="47.28687" lon="-2.42253">
        <ele>121.40000152588</ele>
        <time>2021-01-21T09:12:30.000Z</time>
      </trkpt>
      <trkpt lat="47.28685" lon="-2.42261">
        <ele>121.80000305176</ele>
        <time>2021-01-21T09:12:31.000Z</time>
      </trkpt>
      <trkpt lat="47.28683" lon="-2.4227">
        <ele>122.19999694824</ele>
        <time>2021-01-21T09:12:32.000Z</time>
      </trkpt>
      <trkpt lat="47.28681" lon="-2.42279">
        <ele>122.59999847412</ele>
        <time>2021-01-21T09:12:33.000Z</time>
      </trkpt>
      <trkpt lat="47.28679" lon="-2.42289">
        <ele>123</ele>
        <time>2021-01-21T09:12:34.000Z</time>
      </trkpt>
      <trkpt lat="47.2867" lon="-2.42347">
        <ele>123</ele>
        <time>2021-01-21T09:12:40.000Z</time>
      </trkpt>
      <trkpt lat="47.28667" lon="-2.42381">
        <ele>123</ele>
        <time>2021-01-21T09:12:44.000Z</time>
      </trkpt>
      <trkpt lat="47.28664" lon="-2.42388">
        <ele>123</ele>
        <time>2021-01-21T09:12:45.000Z</time>
      </trkpt>
      <trkpt lat="47.28654" lon="-2.42405">
        <ele>123</ele>
        <time>2021-01-21T09:12:48.000Z</time>
      </trkpt>
      <trkpt lat="47.2865" lon="-2.4241">
        <ele>123</ele>
        <time>2021-01-21T09:12:49.000Z</time>
      </trkpt>
      <trkpt lat="47.28637" lon="-2.42425">
        <ele>123</ele>
        <time>2021-01-21T09:12:52.000Z</time>
      </trkpt>
      <trkpt lat="47.28627" lon="-2.42434">
        <ele>123</ele>
        <time>2021-01-21T09:12:54.000Z</time>
      </trkpt>
      <trkpt lat="47.28597" lon="-2.42462">
        <ele>123</ele>
        <time>2021-01-21T09:13:00.000Z</time>
      </trkpt>
      <trkpt lat="47.28568" lon="-2.42499">
        <ele>123</ele>
        <time>2021-01-21T09:13:07.000Z</time>
      </trkpt>
      <trkpt lat="47.28565" lon="-2.42504">
        <ele>123</ele>
        <time>2021-01-21T09:13:08.000Z</time>
      </trkpt>
      <trkpt lat="47.28562" lon="-2.42523">
        <ele>123</ele>
        <time>2021-01-21T09:13:11.000Z</time>
      </trkpt>
      <trkpt lat="47.28562" lon="-2.42538">
        <ele>123</ele>
        <time>2021-01-21T09:13:13.000Z</time>
      </trkpt>
      <trkpt lat="47.28562" lon="-2.42545">
        <ele>123</ele>
        <time>2021-01-21T09:13:14.000Z</time>
      </trkpt>
      <trkpt lat="47.28565" lon="-2.4256">
        <ele>123</ele>
        <time>2021-01-21T09:13:16.000Z</time>
      </trkpt>
      <trkpt lat="47.28576" lon="-2.42589">
        <ele>123</ele>
        <time>2021-01-21T09:13:20.000Z</time>
      </trkpt>
      <trkpt lat="47.28592" lon="-2.42611">
        <ele>123</ele>
        <time>2021-01-21T09:13:24.000Z</time>
      </trkpt>
      <trkpt lat="47.28596" lon="-2.42615">
        <ele>123</ele>
        <time>2021-01-21T09:13:25.000Z</time>
      </trkpt>
      <trkpt lat="47.28615" lon="-2.4263">
        <ele>123</ele>
        <time>2021-01-21T09:13:30.000Z</time>
      </trkpt>
      <trkpt lat="47.28639" lon="-2.42646">
        <ele>123</ele>
        <time>2021-01-21T09:13:35.000Z</time>
      </trkpt>
      <trkpt lat="47.28659" lon="-2.42651">
        <ele>123</ele>
        <time>2021-01-21T09:13:40.000Z</time>
      </trkpt>
      <trkpt lat="47.28684" lon="-2.42656">
        <ele>123</ele>
        <time>2021-01-21T09:13:46.000Z</time>
      </trkpt>
      <trkpt lat="47.28688" lon="-2.42657">
        <ele>123</ele>
        <time>2021-01-21T09:13:47.000Z</time>
      </trkpt>
      <trkpt lat="47.28698" lon="-2.4266">
        <ele>123</ele>
        <time>2021-01-21T09:13:49.000Z</time>
      </trkpt>
      <trkpt lat="47.28711" lon="-2.42666">
        <ele>123</ele>
        <time>2021-01-21T09:13:52.000Z</time>
      </trkpt>
      <trkpt lat="47.28723" lon="-2.42682">
        <ele>123</ele>
        <time>2021-01-21T09:13:56.000Z</time>
      </trkpt>
      <trkpt lat="47.28722" lon="-2.42697">
        <ele>123</ele>
        <time>2021-01-21T09:13:59.000Z</time>
      </trkpt>
      <trkpt lat="47.28722" lon="-2.42702">
        <ele>123</ele>
        <time>2021-01-21T09:14:00.000Z</time>
      </trkpt>
      <trkpt lat="47.28719" lon="-2.42736">
        <ele>123.59999847412</ele>
        <time>2021-01-21T09:14:06.000Z</time>
      </trkpt>
      <trkpt lat="47.28718" lon="-2.42742">
        <ele>124</ele>
        <time>2021-01-21T09:14:07.000Z</time>
      </trkpt>
      <trkpt lat="47.28717" lon="-2.42748">
        <ele>124.40000152588</ele>
        <time>2021-01-21T09:14:08.000Z</time>
      </trkpt>
      <trkpt lat="47.28716" lon="-2.42755">
        <ele>124.80000305176</ele>
        <time>2021-01-21T09:14:09.000Z</time>
      </trkpt>
      <trkpt lat="47.28714" lon="-2.42761">
        <ele>125.19999694824</ele>
        <time>2021-01-21T09:14:10.000Z</time>
      </trkpt>
      <trkpt lat="47.28712" lon="-2.42767">
        <ele>125.19999694824</ele>
        <time>2021-01-21T09:14:11.000Z</time>
      </trkpt>
      <trkpt lat="47.2871" lon="-2.42773">
        <ele>125.19999694824</ele>
        <time>2021-01-21T09:14:12.000Z</time>
      </trkpt>
      <trkpt lat="47.28701" lon="-2.42789">
        <ele>125.19999694824</ele>
        <time>2021-01-21T09:14:15.000Z</time>
      </trkpt>
      <trkpt lat="47.2869" lon="-2.42811">
        <ele>125.19999694824</ele>
        <time>2021-01-21T09:14:19.000Z</time>
      </trkpt>
      <trkpt lat="47.2868" lon="-2.42833">
        <ele>125.19999694824</ele>
        <time>2021-01-21T09:14:23.000Z</time>
      </trkpt>
      <trkpt lat="47.28677" lon="-2.42845">
        <ele>125.19999694824</ele>
        <time>2021-01-21T09:14:25.000Z</time>
      </trkpt>
      <trkpt lat="47.2867" lon="-2.4289">
        <ele>125.19999694824</ele>
        <time>2021-01-21T09:14:32.000Z</time>
      </trkpt>
      <trkpt lat="47.28665" lon="-2.42936">
        <ele>125.19999694824</ele>
        <time>2021-01-21T09:14:39.000Z</time>
      </trkpt>
      <trkpt lat="47.28659" lon="-2.42978">
        <ele>125.19999694824</ele>
        <time>2021-01-21T09:14:45.000Z</time>
      </trkpt>
      <trkpt lat="47.28657" lon="-2.42991">
        <ele>125.19999694824</ele>
        <time>2021-01-21T09:14:47.000Z</time>
      </trkpt>
      <trkpt lat="47.28652" lon="-2.43018">
        <ele>125.19999694824</ele>
        <time>2021-01-21T09:14:51.000Z</time>
      </trkpt>
      <trkpt lat="47.28649" lon="-2.43038">
        <ele>125.19999694824</ele>
        <time>2021-01-21T09:14:54.000Z</time>
      </trkpt>
      <trkpt lat="47.28646" lon="-2.43051">
        <ele>125.19999694824</ele>
        <time>2021-01-21T09:14:56.000Z</time>
      </trkpt>
      <trkpt lat="47.2864" lon="-2.43078">
        <ele>125.19999694824</ele>
        <time>2021-01-21T09:15:00.000Z</time>
      </trkpt>
      <trkpt lat="47.28638" lon="-2.43084">
        <ele>125.19999694824</ele>
        <time>2021-01-21T09:15:01.000Z</time>
      </trkpt>
      <trkpt lat="47.28629" lon="-2.43113">
        <ele>125.19999694824</ele>
        <time>2021-01-21T09:15:05.000Z</time>
      </trkpt>
      <trkpt lat="47.28628" lon="-2.43121">
        <ele>124.80000305176</ele>
        <time>2021-01-21T09:15:06.000Z</time>
      </trkpt>
      <trkpt lat="47.28626" lon="-2.43129">
        <ele>124.40000152588</ele>
        <time>2021-01-21T09:15:07.000Z</time>
      </trkpt>
      <trkpt lat="47.28626" lon="-2.43137">
        <ele>124</ele>
        <time>2021-01-21T09:15:08.000Z</time>
      </trkpt>
      <trkpt lat="47.28626" lon="-2.43144">
        <ele>123.59999847412</ele>
        <time>2021-01-21T09:15:09.000Z</time>
      </trkpt>
      <trkpt lat="47.28626" lon="-2.43151">
        <ele>123.19999694824</ele>
        <time>2021-01-21T09:15:10.000Z</time>
      </trkpt>
      <trkpt lat="47.28626" lon="-2.43159">
        <ele>123.19999694824</ele>
        <time>2021-01-21T09:15:11.000Z</time>
      </trkpt>
      <trkpt lat="47.28628" lon="-2.43171">
        <ele>123.19999694824</ele>
        <time>2021-01-21T09:15:13.000Z</time>
      </trkpt>
      <trkpt lat="47.2863" lon="-2.43184">
        <ele>123.19999694824</ele>
        <time>2021-01-21T09:15:15.000Z</time>
      </trkpt>
      <trkpt lat="47.28632" lon="-2.4319">
        <ele>123.19999694824</ele>
        <time>2021-01-21T09:15:16.000Z</time>
      </trkpt>
      <trkpt lat="47.28641" lon="-2.43218">
        <ele>123.19999694824</ele>
        <time>2021-01-21T09:15:21.000Z</time>
      </trkpt>
      <trkpt lat="47.28652" lon="-2.43245">
        <ele>123.19999694824</ele>
        <time>2021-01-21T09:15:28.000Z</time>
      </trkpt>
      <trkpt lat="47.28637" lon="-2.43252">
        <ele>123.19999694824</ele>
        <time>2021-01-21T09:15:32.000Z</time>
      </trkpt>
      <trkpt lat="47.28606" lon="-2.43259">
        <ele>123.19999694824</ele>
        <time>2021-01-21T09:15:39.000Z</time>
      </trkpt>
      <trkpt lat="47.28603" lon="-2.43257">
        <ele>123.19999694824</ele>
        <time>2021-01-21T09:15:40.000Z</time>
      </trkpt>
      <trkpt lat="47.28599" lon="-2.43246">
        <ele>123.19999694824</ele>
        <time>2021-01-21T09:15:42.000Z</time>
      </trkpt>
      <trkpt lat="47.28595" lon="-2.43229">
        <ele>123.19999694824</ele>
        <time>2021-01-21T09:15:45.000Z</time>
      </trkpt>
      <trkpt lat="47.28595" lon="-2.43216">
        <ele>123.19999694824</ele>
        <time>2021-01-21T09:15:47.000Z</time>
      </trkpt>
      <trkpt lat="47.28595" lon="-2.43202">
        <ele>123.19999694824</ele>
        <time>2021-01-21T09:15:49.000Z</time>
      </trkpt>
      <trkpt lat="47.28595" lon="-2.43174">
        <ele>123.19999694824</ele>
        <time>2021-01-21T09:15:53.000Z</time>
      </trkpt>
      <trkpt lat="47.28594" lon="-2.4316">
        <ele>123.19999694824</ele>
        <time>2021-01-21T09:15:55.000Z</time>
      </trkpt>
      <trkpt lat="47.28591" lon="-2.43138">
        <ele>123.19999694824</ele>
        <time>2021-01-21T09:15:58.000Z</time>
      </trkpt>
      <trkpt lat="47.28587" lon="-2.43118">
        <ele>123.19999694824</ele>
        <time>2021-01-21T09:16:01.000Z</time>
      </trkpt>
      <trkpt lat="47.28582" lon="-2.43105">
        <ele>123.19999694824</ele>
        <time>2021-01-21T09:16:03.000Z</time>
      </trkpt>
      <trkpt lat="47.28575" lon="-2.43095">
        <ele>123.19999694824</ele>
        <time>2021-01-21T09:16:05.000Z</time>
      </trkpt>
      <trkpt lat="47.28562" lon="-2.43075">
        <ele>123.19999694824</ele>
        <time>2021-01-21T09:16:09.000Z</time>
      </trkpt>
      <trkpt lat="47.28538" lon="-2.43043">
        <ele>123.19999694824</ele>
        <time>2021-01-21T09:16:16.000Z</time>
      </trkpt>
      <trkpt lat="47.28516" lon="-2.4303">
        <ele>123.19999694824</ele>
        <time>2021-01-21T09:16:21.000Z</time>
      </trkpt>
      <trkpt lat="47.28498" lon="-2.43025">
        <ele>123.19999694824</ele>
        <time>2021-01-21T09:16:25.000Z</time>
      </trkpt>
      <trkpt lat="47.28489" lon="-2.43026">
        <ele>123.19999694824</ele>
        <time>2021-01-21T09:16:27.000Z</time>
      </trkpt>
      <trkpt lat="47.28473" lon="-2.43039">
        <ele>123.19999694824</ele>
        <time>2021-01-21T09:16:31.000Z</time>
      </trkpt>
      <trkpt lat="47.28464" lon="-2.43056">
        <ele>123.19999694824</ele>
        <time>2021-01-21T09:16:34.000Z</time>
      </trkpt>
      <trkpt lat="47.28458" lon="-2.43067">
        <ele>123.19999694824</ele>
        <time>2021-01-21T09:16:36.000Z</time>
      </trkpt>
      <trkpt lat="47.28433" lon="-2.43101">
        <ele>123.19999694824</ele>
        <time>2021-01-21T09:16:43.000Z</time>
      </trkpt>
      <trkpt lat="47.28419" lon="-2.43119">
        <ele>123.19999694824</ele>
        <time>2021-01-21T09:16:47.000Z</time>
      </trkpt>
      <trkpt lat="47.28414" lon="-2.43128">
        <ele>123.19999694824</ele>
        <time>2021-01-21T09:16:49.000Z</time>
      </trkpt>
      <trkpt lat="47.28396" lon="-2.43155">
        <ele>123.19999694824</ele>
        <time>2021-01-21T09:16:55.000Z</time>
      </trkpt>
      <trkpt lat="47.28385" lon="-2.43168">
        <ele>123.19999694824</ele>
        <time>2021-01-21T09:16:58.000Z</time>
      </trkpt>
      <trkpt lat="47.28374" lon="-2.43179">
        <ele>123.19999694824</ele>
        <time>2021-01-21T09:17:01.000Z</time>
      </trkpt>
      <trkpt lat="47.2835" lon="-2.43204">
        <ele>123.19999694824</ele>
        <time>2021-01-21T09:17:07.000Z</time>
      </trkpt>
      <trkpt lat="47.28327" lon="-2.43234">
        <ele>123.19999694824</ele>
        <time>2021-01-21T09:17:14.000Z</time>
      </trkpt>
      <trkpt lat="47.28312" lon="-2.43257">
        <ele>123.19999694824</ele>
        <time>2021-01-21T09:17:20.000Z</time>
      </trkpt>
      <trkpt lat="47.283" lon="-2.43264">
        <ele>123.19999694824</ele>
        <time>2021-01-21T09:17:25.000Z</time>
      </trkpt>
      <trkpt lat="47.28293" lon="-2.4325">
        <ele>123.19999694824</ele>
        <time>2021-01-21T09:17:28.000Z</time>
      </trkpt>
      <trkpt lat="47.28295" lon="-2.43224">
        <ele>123.19999694824</ele>
        <time>2021-01-21T09:17:32.000Z</time>
      </trkpt>
      <trkpt lat="47.28296" lon="-2.43217">
        <ele>123.19999694824</ele>
        <time>2021-01-21T09:17:33.000Z</time>
      </trkpt>
      <trkpt lat="47.28302" lon="-2.43184">
        <ele>123.19999694824</ele>
        <time>2021-01-21T09:17:38.000Z</time>
      </trkpt>
      <trkpt lat="47.28305" lon="-2.43162">
        <ele>123.19999694824</ele>
        <time>2021-01-21T09:17:43.000Z</time>
      </trkpt>
      <trkpt lat="47.28309" lon="-2.4314">
        <ele>123.19999694824</ele>
        <time>2021-01-21T09:17:50.000Z</time>
      </trkpt>
      <trkpt lat="47.28316" lon="-2.43112">
        <ele>123.19999694824</ele>
        <time>2021-01-21T09:17:56.000Z</time>
      </trkpt>
      <trkpt lat="47.28319" lon="-2.4311">
        <ele>123.19999694824</ele>
        <time>2021-01-21T09:17:57.000Z</time>
      </trkpt>
      <trkpt lat="47.28323" lon="-2.43102">
        <ele>123.19999694824</ele>
        <time>2021-01-21T09:18:01.000Z</time>
      </trkpt>
      <trkpt lat="47.28319" lon="-2.43092">
        <ele>123.19999694824</ele>
        <time>2021-01-21T09:18:05.000Z</time>
      </trkpt>
      <trkpt lat="47.28318" lon="-2.43093">
        <ele>122.80000305176</ele>
        <time>2021-01-21T09:18:06.000Z</time>
      </trkpt>
      <trkpt lat="47.28316" lon="-2.43095">
        <ele>122.40000152588</ele>
        <time>2021-01-21T09:18:07.000Z</time>
      </trkpt>
      <trkpt lat="47.28315" lon="-2.43099">
        <ele>121.80000305176</ele>
        <time>2021-01-21T09:18:08.000Z</time>
      </trkpt>
      <trkpt lat="47.28314" lon="-2.43102">
        <ele>121.40000152588</ele>
        <time>2021-01-21T09:18:09.000Z</time>
      </trkpt>
      <trkpt lat="47.28313" lon="-2.43106">
        <ele>121</ele>
        <time>2021-01-21T09:18:10.000Z</time>
      </trkpt>
      <trkpt lat="47.28309" lon="-2.43124">
        <ele>121</ele>
        <time>2021-01-21T09:18:14.000Z</time>
      </trkpt>
      <trkpt lat="47.28303" lon="-2.43159">
        <ele>121</ele>
        <time>2021-01-21T09:18:21.000Z</time>
      </trkpt>
      <trkpt lat="47.28295" lon="-2.43206">
        <ele>121</ele>
        <time>2021-01-21T09:18:30.000Z</time>
      </trkpt>
      <trkpt lat="47.28289" lon="-2.43241">
        <ele>121</ele>
        <time>2021-01-21T09:18:38.000Z</time>
      </trkpt>
      <trkpt lat="47.28284" lon="-2.43274">
        <ele>121</ele>
        <time>2021-01-21T09:18:46.000Z</time>
      </trkpt>
      <trkpt lat="47.28281" lon="-2.4329">
        <ele>121.40000152588</ele>
        <time>2021-01-21T09:18:50.000Z</time>
      </trkpt>
      <trkpt lat="47.2828" lon="-2.43294">
        <ele>122</ele>
        <time>2021-01-21T09:18:51.000Z</time>
      </trkpt>
      <trkpt lat="47.2828" lon="-2.43299">
        <ele>122.40000152588</ele>
        <time>2021-01-21T09:18:52.000Z</time>
      </trkpt>
      <trkpt lat="47.28279" lon="-2.43303">
        <ele>122.80000305176</ele>
        <time>2021-01-21T09:18:53.000Z</time>
      </trkpt>
      <trkpt lat="47.28278" lon="-2.43308">
        <ele>123.19999694824</ele>
        <time>2021-01-21T09:18:54.000Z</time>
      </trkpt>
      <trkpt lat="47.28273" lon="-2.43336">
        <ele>123.19999694824</ele>
        <time>2021-01-21T09:19:01.000Z</time>
      </trkpt>
      <trkpt lat="47.28272" lon="-2.43356">
        <ele>123.19999694824</ele>
        <time>2021-01-21T09:19:09.000Z</time>
      </trkpt>
      <trkpt lat="47.28272" lon="-2.43357">
        <ele>123.19999694824</ele>
        <time>2021-01-21T09:19:11.000Z</time>
      </trkpt>
      <trkpt lat="47.28271" lon="-2.43363">
        <ele>123.19999694824</ele>
        <time>2021-01-21T09:20:04.000Z</time>
      </trkpt>
      <trkpt lat="47.28271" lon="-2.43368">
        <ele>123.19999694824</ele>
        <time>2021-01-21T09:20:06.000Z</time>
      </trkpt>
      <trkpt lat="47.28264" lon="-2.43385">
        <ele>123.19999694824</ele>
        <time>2021-01-21T09:20:12.000Z</time>
      </trkpt>
      <trkpt lat="47.2826" lon="-2.43386">
        <ele>123.19999694824</ele>
        <time>2021-01-21T09:20:13.000Z</time>
      </trkpt>
      <trkpt lat="47.28249" lon="-2.43383">
        <ele>123.19999694824</ele>
        <time>2021-01-21T09:20:16.000Z</time>
      </trkpt>
      <trkpt lat="47.28241" lon="-2.43377">
        <ele>123.19999694824</ele>
        <time>2021-01-21T09:20:18.000Z</time>
      </trkpt>
      <trkpt lat="47.28226" lon="-2.43361">
        <ele>123.19999694824</ele>
        <time>2021-01-21T09:20:22.000Z</time>
      </trkpt>
      <trkpt lat="47.28216" lon="-2.43337">
        <ele>123.19999694824</ele>
        <time>2021-01-21T09:20:26.000Z</time>
      </trkpt>
      <trkpt lat="47.28213" lon="-2.43331">
        <ele>123.19999694824</ele>
        <time>2021-01-21T09:20:27.000Z</time>
      </trkpt>
      <trkpt lat="47.28202" lon="-2.43327">
        <ele>123.19999694824</ele>
        <time>2021-01-21T09:20:30.000Z</time>
      </trkpt>
      <trkpt lat="47.28186" lon="-2.43336">
        <ele>123.19999694824</ele>
        <time>2021-01-21T09:20:33.000Z</time>
      </trkpt>
      <trkpt lat="47.28178" lon="-2.43333">
        <ele>123.19999694824</ele>
        <time>2021-01-21T09:20:35.000Z</time>
      </trkpt>
      <trkpt lat="47.28175" lon="-2.43337">
        <ele>123.19999694824</ele>
        <time>2021-01-21T09:20:36.000Z</time>
      </trkpt>
      <trkpt lat="47.28165" lon="-2.43352">
        <ele>123.19999694824</ele>
        <time>2021-01-21T09:20:39.000Z</time>
      </trkpt>
      <trkpt lat="47.28145" lon="-2.43382">
        <ele>123.19999694824</ele>
        <time>2021-01-21T09:20:45.000Z</time>
      </trkpt>
      <trkpt lat="47.2812" lon="-2.43418">
        <ele>123.19999694824</ele>
        <time>2021-01-21T09:20:52.000Z</time>
      </trkpt>
      <trkpt lat="47.28085" lon="-2.4347">
        <ele>123.19999694824</ele>
        <time>2021-01-21T09:21:01.000Z</time>
      </trkpt>
      <trkpt lat="47.28044" lon="-2.43531">
        <ele>123.19999694824</ele>
        <time>2021-01-21T09:21:11.000Z</time>
      </trkpt>
      <trkpt lat="47.28005" lon="-2.43588">
        <ele>123.19999694824</ele>
        <time>2021-01-21T09:21:20.000Z</time>
      </trkpt>
      <trkpt lat="47.27997" lon="-2.436">
        <ele>123.19999694824</ele>
        <time>2021-01-21T09:21:22.000Z</time>
      </trkpt>
      <trkpt lat="47.27966" lon="-2.43647">
        <ele>123.19999694824</ele>
        <time>2021-01-21T09:21:30.000Z</time>
      </trkpt>
      <trkpt lat="47.27937" lon="-2.43687">
        <ele>123.19999694824</ele>
        <time>2021-01-21T09:21:37.000Z</time>
      </trkpt>
      <trkpt lat="47.27905" lon="-2.43727">
        <ele>123.19999694824</ele>
        <time>2021-01-21T09:21:45.000Z</time>
      </trkpt>
      <trkpt lat="47.27876" lon="-2.43757">
        <ele>123.19999694824</ele>
        <time>2021-01-21T09:21:52.000Z</time>
      </trkpt>
      <trkpt lat="47.27845" lon="-2.43783">
        <ele>123.19999694824</ele>
        <time>2021-01-21T09:21:59.000Z</time>
      </trkpt>
      <trkpt lat="47.27836" lon="-2.43789">
        <ele>123.19999694824</ele>
        <time>2021-01-21T09:22:01.000Z</time>
      </trkpt>
      <trkpt lat="47.27816" lon="-2.43799">
        <ele>123.19999694824</ele>
        <time>2021-01-21T09:22:06.000Z</time>
      </trkpt>
      <trkpt lat="47.27801" lon="-2.43795">
        <ele>123.19999694824</ele>
        <time>2021-01-21T09:22:10.000Z</time>
      </trkpt>
      <trkpt lat="47.27776" lon="-2.43787">
        <ele>123.19999694824</ele>
        <time>2021-01-21T09:22:16.000Z</time>
      </trkpt>
      <trkpt lat="47.27763" lon="-2.438">
        <ele>123.19999694824</ele>
        <time>2021-01-21T09:22:19.000Z</time>
      </trkpt>
      <trkpt lat="47.27747" lon="-2.43819">
        <ele>123.19999694824</ele>
        <time>2021-01-21T09:22:23.000Z</time>
      </trkpt>
      <trkpt lat="47.27742" lon="-2.4382">
        <ele>123.19999694824</ele>
        <time>2021-01-21T09:22:24.000Z</time>
      </trkpt>
      <trkpt lat="47.27705" lon="-2.43825">
        <ele>123.19999694824</ele>
        <time>2021-01-21T09:22:30.000Z</time>
      </trkpt>
      <trkpt lat="47.27661" lon="-2.43838">
        <ele>123.19999694824</ele>
        <time>2021-01-21T09:22:37.000Z</time>
      </trkpt>
      <trkpt lat="47.27616" lon="-2.43856">
        <ele>123.19999694824</ele>
        <time>2021-01-21T09:22:45.000Z</time>
      </trkpt>
      <trkpt lat="47.27588" lon="-2.43868">
        <ele>123.19999694824</ele>
        <time>2021-01-21T09:22:50.000Z</time>
      </trkpt>
      <trkpt lat="47.27544" lon="-2.43887">
        <ele>123.19999694824</ele>
        <time>2021-01-21T09:22:58.000Z</time>
      </trkpt>
      <trkpt lat="47.2751" lon="-2.43904">
        <ele>123.19999694824</ele>
        <time>2021-01-21T09:23:05.000Z</time>
      </trkpt>
      <trkpt lat="47.27501" lon="-2.43908">
        <ele>123.19999694824</ele>
        <time>2021-01-21T09:23:07.000Z</time>
      </trkpt>
      <trkpt lat="47.27477" lon="-2.43918">
        <ele>123.19999694824</ele>
        <time>2021-01-21T09:23:12.000Z</time>
      </trkpt>
      <trkpt lat="47.27445" lon="-2.43931">
        <ele>123.19999694824</ele>
        <time>2021-01-21T09:23:19.000Z</time>
      </trkpt>
      <trkpt lat="47.274" lon="-2.43949">
        <ele>123.19999694824</ele>
        <time>2021-01-21T09:23:28.000Z</time>
      </trkpt>
      <trkpt lat="47.27387" lon="-2.43956">
        <ele>123.19999694824</ele>
        <time>2021-01-21T09:23:31.000Z</time>
      </trkpt>
      <trkpt lat="47.2737" lon="-2.43963">
        <ele>123.19999694824</ele>
        <time>2021-01-21T09:23:35.000Z</time>
      </trkpt>
      <trkpt lat="47.27336" lon="-2.43976">
        <ele>123.19999694824</ele>
        <time>2021-01-21T09:23:42.000Z</time>
      </trkpt>
      <trkpt lat="47.27302" lon="-2.43985">
        <ele>123.19999694824</ele>
        <time>2021-01-21T09:23:49.000Z</time>
      </trkpt>
      <trkpt lat="47.27293" lon="-2.43989">
        <ele>123.19999694824</ele>
        <time>2021-01-21T09:23:51.000Z</time>
      </trkpt>
      <trkpt lat="47.27283" lon="-2.43998">
        <ele>123.19999694824</ele>
        <time>2021-01-21T09:23:53.000Z</time>
      </trkpt>
      <trkpt lat="47.27278" lon="-2.44001">
        <ele>123.19999694824</ele>
        <time>2021-01-21T09:23:54.000Z</time>
      </trkpt>
      <trkpt lat="47.27258" lon="-2.44007">
        <ele>123.19999694824</ele>
        <time>2021-01-21T09:23:58.000Z</time>
      </trkpt>
      <trkpt lat="47.27232" lon="-2.44012">
        <ele>123.19999694824</ele>
        <time>2021-01-21T09:24:03.000Z</time>
      </trkpt>
      <trkpt lat="47.27228" lon="-2.44011">
        <ele>123.19999694824</ele>
        <time>2021-01-21T09:24:04.000Z</time>
      </trkpt>
      <trkpt lat="47.27215" lon="-2.43998">
        <ele>123.19999694824</ele>
        <time>2021-01-21T09:24:08.000Z</time>
      </trkpt>
      <trkpt lat="47.27204" lon="-2.44001">
        <ele>123.19999694824</ele>
        <time>2021-01-21T09:24:11.000Z</time>
      </trkpt>
      <trkpt lat="47.27194" lon="-2.44016">
        <ele>123.19999694824</ele>
        <time>2021-01-21T09:24:14.000Z</time>
      </trkpt>
      <trkpt lat="47.2718" lon="-2.44024">
        <ele>123.19999694824</ele>
        <time>2021-01-21T09:24:17.000Z</time>
      </trkpt>
      <trkpt lat="47.27174" lon="-2.44026">
        <ele>123.19999694824</ele>
        <time>2021-01-21T09:24:18.000Z</time>
      </trkpt>
      <trkpt lat="47.27141" lon="-2.44037">
        <ele>123.19999694824</ele>
        <time>2021-01-21T09:24:24.000Z</time>
      </trkpt>
      <trkpt lat="47.2711" lon="-2.44046">
        <ele>123.19999694824</ele>
        <time>2021-01-21T09:24:30.000Z</time>
      </trkpt>
      <trkpt lat="47.27098" lon="-2.44049">
        <ele>123.59999847412</ele>
        <time>2021-01-21T09:24:32.000Z</time>
      </trkpt>
      <trkpt lat="47.27093" lon="-2.44049">
        <ele>124</ele>
        <time>2021-01-21T09:24:33.000Z</time>
      </trkpt>
      <trkpt lat="47.27088" lon="-2.44049">
        <ele>124.40000152588</ele>
        <time>2021-01-21T09:24:34.000Z</time>
      </trkpt>
      <trkpt lat="47.27083" lon="-2.4405">
        <ele>124.80000305176</ele>
        <time>2021-01-21T09:24:35.000Z</time>
      </trkpt>
      <trkpt lat="47.27078" lon="-2.44051">
        <ele>125.19999694824</ele>
        <time>2021-01-21T09:24:36.000Z</time>
      </trkpt>
      <trkpt lat="47.27047" lon="-2.44056">
        <ele>125.19999694824</ele>
        <time>2021-01-21T09:24:42.000Z</time>
      </trkpt>
      <trkpt lat="47.2701" lon="-2.44059">
        <ele>125.19999694824</ele>
        <time>2021-01-21T09:24:49.000Z</time>
      </trkpt>
      <trkpt lat="47.27005" lon="-2.44059">
        <ele>125.59999847412</ele>
        <time>2021-01-21T09:24:50.000Z</time>
      </trkpt>
      <trkpt lat="47.27" lon="-2.4406">
        <ele>126</ele>
        <time>2021-01-21T09:24:51.000Z</time>
      </trkpt>
      <trkpt lat="47.26995" lon="-2.44061">
        <ele>126.40000152588</ele>
        <time>2021-01-21T09:24:52.000Z</time>
      </trkpt>
      <trkpt lat="47.26991" lon="-2.44061">
        <ele>126.80000305176</ele>
        <time>2021-01-21T09:24:53.000Z</time>
      </trkpt>
      <trkpt lat="47.26986" lon="-2.44061">
        <ele>127.19999694824</ele>
        <time>2021-01-21T09:24:54.000Z</time>
      </trkpt>
      <trkpt lat="47.26968" lon="-2.44063">
        <ele>127.19999694824</ele>
        <time>2021-01-21T09:24:58.000Z</time>
      </trkpt>
      <trkpt lat="47.26952" lon="-2.44065">
        <ele>127.19999694824</ele>
        <time>2021-01-21T09:25:03.000Z</time>
      </trkpt>
      <trkpt lat="47.26947" lon="-2.44072">
        <ele>127.59999847412</ele>
        <time>2021-01-21T09:25:05.000Z</time>
      </trkpt>
      <trkpt lat="47.26945" lon="-2.44077">
        <ele>128</ele>
        <time>2021-01-21T09:25:06.000Z</time>
      </trkpt>
      <trkpt lat="47.26943" lon="-2.44082">
        <ele>128.39999389648</ele>
        <time>2021-01-21T09:25:07.000Z</time>
      </trkpt>
      <trkpt lat="47.26941" lon="-2.44088">
        <ele>128.80000305176</ele>
        <time>2021-01-21T09:25:08.000Z</time>
      </trkpt>
      <trkpt lat="47.2694" lon="-2.44094">
        <ele>129.19999694824</ele>
        <time>2021-01-21T09:25:09.000Z</time>
      </trkpt>
      <trkpt lat="47.26942" lon="-2.44108">
        <ele>129.19999694824</ele>
        <time>2021-01-21T09:25:11.000Z</time>
      </trkpt>
      <trkpt lat="47.26943" lon="-2.44115">
        <ele>129.19999694824</ele>
        <time>2021-01-21T09:25:12.000Z</time>
      </trkpt>
      <trkpt lat="47.26945" lon="-2.44128">
        <ele>129.19999694824</ele>
        <time>2021-01-21T09:25:14.000Z</time>
      </trkpt>
      <trkpt lat="47.26949" lon="-2.44148">
        <ele>129.19999694824</ele>
        <time>2021-01-21T09:25:17.000Z</time>
      </trkpt>
      <trkpt lat="47.26956" lon="-2.44204">
        <ele>129.19999694824</ele>
        <time>2021-01-21T09:25:24.000Z</time>
      </trkpt>
      <trkpt lat="47.2696" lon="-2.4423">
        <ele>129.80000305176</ele>
        <time>2021-01-21T09:25:27.000Z</time>
      </trkpt>
      <trkpt lat="47.26961" lon="-2.44238">
        <ele>130.19999694824</ele>
        <time>2021-01-21T09:25:28.000Z</time>
      </trkpt>
      <trkpt lat="47.26962" lon="-2.44246">
        <ele>130.60000610352</ele>
        <time>2021-01-21T09:25:29.000Z</time>
      </trkpt>
      <trkpt lat="47.26964" lon="-2.44254">
        <ele>131</ele>
        <time>2021-01-21T09:25:30.000Z</time>
      </trkpt>
      <trkpt lat="47.26966" lon="-2.44263">
        <ele>131.39999389648</ele>
        <time>2021-01-21T09:25:31.000Z</time>
      </trkpt>
      <trkpt lat="47.26967" lon="-2.44271">
        <ele>131.39999389648</ele>
        <time>2021-01-21T09:25:32.000Z</time>
      </trkpt>
      <trkpt lat="47.26972" lon="-2.44294">
        <ele>131.39999389648</ele>
        <time>2021-01-21T09:25:35.000Z</time>
      </trkpt>
      <trkpt lat="47.2698" lon="-2.44315">
        <ele>131.39999389648</ele>
        <time>2021-01-21T09:25:38.000Z</time>
      </trkpt>
      <trkpt lat="47.27004" lon="-2.44353">
        <ele>131.39999389648</ele>
        <time>2021-01-21T09:25:44.000Z</time>
      </trkpt>
      <trkpt lat="47.27008" lon="-2.44361">
        <ele>131.39999389648</ele>
        <time>2021-01-21T09:25:45.000Z</time>
      </trkpt>
      <trkpt lat="47.27013" lon="-2.44384">
        <ele>131.39999389648</ele>
        <time>2021-01-21T09:25:48.000Z</time>
      </trkpt>
      <trkpt lat="47.27012" lon="-2.44406">
        <ele>131.39999389648</ele>
        <time>2021-01-21T09:25:51.000Z</time>
      </trkpt>
      <trkpt lat="47.27008" lon="-2.44414">
        <ele>131.39999389648</ele>
        <time>2021-01-21T09:25:52.000Z</time>
      </trkpt>
      <trkpt lat="47.27004" lon="-2.44422">
        <ele>131.39999389648</ele>
        <time>2021-01-21T09:25:53.000Z</time>
      </trkpt>
      <trkpt lat="47.27002" lon="-2.4444">
        <ele>131.39999389648</ele>
        <time>2021-01-21T09:25:55.000Z</time>
      </trkpt>
      <trkpt lat="47.27002" lon="-2.44457">
        <ele>131.39999389648</ele>
        <time>2021-01-21T09:25:57.000Z</time>
      </trkpt>
      <trkpt lat="47.27013" lon="-2.44525">
        <ele>131.39999389648</ele>
        <time>2021-01-21T09:26:05.000Z</time>
      </trkpt>
      <trkpt lat="47.27027" lon="-2.44608">
        <ele>131.39999389648</ele>
        <time>2021-01-21T09:26:14.000Z</time>
      </trkpt>
      <trkpt lat="47.27036" lon="-2.4467">
        <ele>131.39999389648</ele>
        <time>2021-01-21T09:26:21.000Z</time>
      </trkpt>
      <trkpt lat="47.27052" lon="-2.44752">
        <ele>131.39999389648</ele>
        <time>2021-01-21T09:26:30.000Z</time>
      </trkpt>
      <trkpt lat="47.27056" lon="-2.44823">
        <ele>131.39999389648</ele>
        <time>2021-01-21T09:26:37.000Z</time>
      </trkpt>
      <trkpt lat="47.27057" lon="-2.44889">
        <ele>131.39999389648</ele>
        <time>2021-01-21T09:26:44.000Z</time>
      </trkpt>
      <trkpt lat="47.27062" lon="-2.44949">
        <ele>131.39999389648</ele>
        <time>2021-01-21T09:26:51.000Z</time>
      </trkpt>
      <trkpt lat="47.27064" lon="-2.44989">
        <ele>131.39999389648</ele>
        <time>2021-01-21T09:26:57.000Z</time>
      </trkpt>
      <trkpt lat="47.27069" lon="-2.44998">
        <ele>131.39999389648</ele>
        <time>2021-01-21T09:27:00.000Z</time>
      </trkpt>
      <trkpt lat="47.27072" lon="-2.44998">
        <ele>131.39999389648</ele>
        <time>2021-01-21T09:27:01.000Z</time>
      </trkpt>
      <trkpt lat="47.27086" lon="-2.44996">
        <ele>131.39999389648</ele>
        <time>2021-01-21T09:27:04.000Z</time>
      </trkpt>
      <trkpt lat="47.27091" lon="-2.44997">
        <ele>131.39999389648</ele>
        <time>2021-01-21T09:27:05.000Z</time>
      </trkpt>
      <trkpt lat="47.27122" lon="-2.45001">
        <ele>131.39999389648</ele>
        <time>2021-01-21T09:27:10.000Z</time>
      </trkpt>
      <trkpt lat="47.27143" lon="-2.45001">
        <ele>131</ele>
        <time>2021-01-21T09:27:13.000Z</time>
      </trkpt>
      <trkpt lat="47.27151" lon="-2.45">
        <ele>130.60000610352</ele>
        <time>2021-01-21T09:27:14.000Z</time>
      </trkpt>
      <trkpt lat="47.27157" lon="-2.44999">
        <ele>130.19999694824</ele>
        <time>2021-01-21T09:27:15.000Z</time>
      </trkpt>
      <trkpt lat="47.27165" lon="-2.44997">
        <ele>129.80000305176</ele>
        <time>2021-01-21T09:27:16.000Z</time>
      </trkpt>
      <trkpt lat="47.27172" lon="-2.44996">
        <ele>129.39999389648</ele>
        <time>2021-01-21T09:27:17.000Z</time>
      </trkpt>
      <trkpt lat="47.27217" lon="-2.44988">
        <ele>129.39999389648</ele>
        <time>2021-01-21T09:27:23.000Z</time>
      </trkpt>
      <trkpt lat="47.27257" lon="-2.44971">
        <ele>129.39999389648</ele>
        <time>2021-01-21T09:27:29.000Z</time>
      </trkpt>
      <trkpt lat="47.2727" lon="-2.44966">
        <ele>129.39999389648</ele>
        <time>2021-01-21T09:27:31.000Z</time>
      </trkpt>
      <trkpt lat="47.27289" lon="-2.44964">
        <ele>129.39999389648</ele>
        <time>2021-01-21T09:27:34.000Z</time>
      </trkpt>
      <trkpt lat="47.27316" lon="-2.44962">
        <ele>129.39999389648</ele>
        <time>2021-01-21T09:27:38.000Z</time>
      </trkpt>
      <trkpt lat="47.27329" lon="-2.44957">
        <ele>129.39999389648</ele>
        <time>2021-01-21T09:27:40.000Z</time>
      </trkpt>
      <trkpt lat="47.27373" lon="-2.44934">
        <ele>129.39999389648</ele>
        <time>2021-01-21T09:27:47.000Z</time>
      </trkpt>
      <trkpt lat="47.27392" lon="-2.44923">
        <ele>129</ele>
        <time>2021-01-21T09:27:50.000Z</time>
      </trkpt>
      <trkpt lat="47.27399" lon="-2.4492">
        <ele>128.60000610352</ele>
        <time>2021-01-21T09:27:51.000Z</time>
      </trkpt>
      <trkpt lat="47.27405" lon="-2.44916">
        <ele>128.19999694824</ele>
        <time>2021-01-21T09:27:52.000Z</time>
      </trkpt>
      <trkpt lat="47.27412" lon="-2.44912">
        <ele>127.80000305176</ele>
        <time>2021-01-21T09:27:53.000Z</time>
      </trkpt>
      <trkpt lat="47.27418" lon="-2.44907">
        <ele>127.40000152588</ele>
        <time>2021-01-21T09:27:54.000Z</time>
      </trkpt>
      <trkpt lat="47.27423" lon="-2.44901">
        <ele>127.40000152588</ele>
        <time>2021-01-21T09:27:55.000Z</time>
      </trkpt>
      <trkpt lat="47.27449" lon="-2.44869">
        <ele>127.40000152588</ele>
        <time>2021-01-21T09:28:00.000Z</time>
      </trkpt>
      <trkpt lat="47.27458" lon="-2.44857">
        <ele>127.40000152588</ele>
        <time>2021-01-21T09:28:02.000Z</time>
      </trkpt>
      <trkpt lat="47.27468" lon="-2.44852">
        <ele>126.80000305176</ele>
        <time>2021-01-21T09:28:04.000Z</time>
      </trkpt>
      <trkpt lat="47.27474" lon="-2.44853">
        <ele>126.40000152588</ele>
        <time>2021-01-21T09:28:05.000Z</time>
      </trkpt>
      <trkpt lat="47.27479" lon="-2.44853">
        <ele>126</ele>
        <time>2021-01-21T09:28:06.000Z</time>
      </trkpt>
      <trkpt lat="47.27485" lon="-2.44854">
        <ele>125.40000152588</ele>
        <time>2021-01-21T09:28:07.000Z</time>
      </trkpt>
      <trkpt lat="47.27491" lon="-2.44853">
        <ele>125</ele>
        <time>2021-01-21T09:28:08.000Z</time>
      </trkpt>
      <trkpt lat="47.27496" lon="-2.44853">
        <ele>125</ele>
        <time>2021-01-21T09:28:09.000Z</time>
      </trkpt>
      <trkpt lat="47.27501" lon="-2.44857">
        <ele>125</ele>
        <time>2021-01-21T09:28:10.000Z</time>
      </trkpt>
      <trkpt lat="47.27504" lon="-2.44861">
        <ele>125</ele>
        <time>2021-01-21T09:28:11.000Z</time>
      </trkpt>
      <trkpt lat="47.27513" lon="-2.44885">
        <ele>125</ele>
        <time>2021-01-21T09:28:15.000Z</time>
      </trkpt>
      <trkpt lat="47.27525" lon="-2.44939">
        <ele>125</ele>
        <time>2021-01-21T09:28:21.000Z</time>
      </trkpt>
      <trkpt lat="47.27543" lon="-2.45001">
        <ele>125</ele>
        <time>2021-01-21T09:28:28.000Z</time>
      </trkpt>
      <trkpt lat="47.27566" lon="-2.45058">
        <ele>125</ele>
        <time>2021-01-21T09:28:35.000Z</time>
      </trkpt>
      <trkpt lat="47.27593" lon="-2.45113">
        <ele>125</ele>
        <time>2021-01-21T09:28:42.000Z</time>
      </trkpt>
      <trkpt lat="47.276" lon="-2.4514">
        <ele>125</ele>
        <time>2021-01-21T09:28:45.000Z</time>
      </trkpt>
      <trkpt lat="47.27602" lon="-2.45158">
        <ele>125</ele>
        <time>2021-01-21T09:28:47.000Z</time>
      </trkpt>
      <trkpt lat="47.27608" lon="-2.45221">
        <ele>125</ele>
        <time>2021-01-21T09:28:54.000Z</time>
      </trkpt>
      <trkpt lat="47.27609" lon="-2.4523">
        <ele>125.40000152588</ele>
        <time>2021-01-21T09:28:55.000Z</time>
      </trkpt>
      <trkpt lat="47.2761" lon="-2.45239">
        <ele>125.80000305176</ele>
        <time>2021-01-21T09:28:56.000Z</time>
      </trkpt>
      <trkpt lat="47.27611" lon="-2.45247">
        <ele>126.19999694824</ele>
        <time>2021-01-21T09:28:57.000Z</time>
      </trkpt>
      <trkpt lat="47.27612" lon="-2.45256">
        <ele>126.59999847412</ele>
        <time>2021-01-21T09:28:58.000Z</time>
      </trkpt>
      <trkpt lat="47.27613" lon="-2.45264">
        <ele>127</ele>
        <time>2021-01-21T09:28:59.000Z</time>
      </trkpt>
      <trkpt lat="47.27616" lon="-2.45306">
        <ele>127</ele>
        <time>2021-01-21T09:29:04.000Z</time>
      </trkpt>
      <trkpt lat="47.27619" lon="-2.45353">
        <ele>127</ele>
        <time>2021-01-21T09:29:10.000Z</time>
      </trkpt>
      <trkpt lat="47.2761" lon="-2.45363">
        <ele>127</ele>
        <time>2021-01-21T09:29:13.000Z</time>
      </trkpt>
      <trkpt lat="47.27605" lon="-2.45363">
        <ele>127</ele>
        <time>2021-01-21T09:29:14.000Z</time>
      </trkpt>
      <trkpt lat="47.276" lon="-2.45364">
        <ele>127</ele>
        <time>2021-01-21T09:29:15.000Z</time>
      </trkpt>
      <trkpt lat="47.27589" lon="-2.45367">
        <ele>127</ele>
        <time>2021-01-21T09:29:17.000Z</time>
      </trkpt>
      <trkpt lat="47.27555" lon="-2.45378">
        <ele>127</ele>
        <time>2021-01-21T09:29:23.000Z</time>
      </trkpt>
      <trkpt lat="47.2755" lon="-2.45381">
        <ele>127.40000152588</ele>
        <time>2021-01-21T09:29:24.000Z</time>
      </trkpt>
      <trkpt lat="47.27545" lon="-2.45384">
        <ele>127.80000305176</ele>
        <time>2021-01-21T09:29:25.000Z</time>
      </trkpt>
      <trkpt lat="47.27539" lon="-2.45386">
        <ele>128.80000305176</ele>
        <time>2021-01-21T09:29:26.000Z</time>
      </trkpt>
      <trkpt lat="47.27534" lon="-2.45389">
        <ele>129.19999694824</ele>
        <time>2021-01-21T09:29:27.000Z</time>
      </trkpt>
      <trkpt lat="47.27519" lon="-2.45397">
        <ele>129.19999694824</ele>
        <time>2021-01-21T09:29:30.000Z</time>
      </trkpt>
      <trkpt lat="47.27508" lon="-2.45399">
        <ele>129.19999694824</ele>
        <time>2021-01-21T09:29:32.000Z</time>
      </trkpt>
      <trkpt lat="47.27493" lon="-2.45403">
        <ele>129.19999694824</ele>
        <time>2021-01-21T09:29:35.000Z</time>
      </trkpt>
      <trkpt lat="47.27487" lon="-2.45411">
        <ele>129.19999694824</ele>
        <time>2021-01-21T09:29:37.000Z</time>
      </trkpt>
      <trkpt lat="47.27489" lon="-2.4543">
        <ele>129.19999694824</ele>
        <time>2021-01-21T09:29:40.000Z</time>
      </trkpt>
      <trkpt lat="47.2749" lon="-2.45437">
        <ele>129.19999694824</ele>
        <time>2021-01-21T09:29:41.000Z</time>
      </trkpt>
      <trkpt lat="47.27493" lon="-2.45456">
        <ele>129.19999694824</ele>
        <time>2021-01-21T09:29:44.000Z</time>
      </trkpt>
      <trkpt lat="47.27494" lon="-2.45462">
        <ele>129.19999694824</ele>
        <time>2021-01-21T09:29:45.000Z</time>
      </trkpt>
      <trkpt lat="47.27495" lon="-2.45468">
        <ele>129.19999694824</ele>
        <time>2021-01-21T09:29:46.000Z</time>
      </trkpt>
      <trkpt lat="47.27491" lon="-2.45479">
        <ele>129.19999694824</ele>
        <time>2021-01-21T09:29:48.000Z</time>
      </trkpt>
      <trkpt lat="47.27478" lon="-2.45491">
        <ele>129.19999694824</ele>
        <time>2021-01-21T09:29:51.000Z</time>
      </trkpt>
      <trkpt lat="47.27473" lon="-2.45495">
        <ele>129.19999694824</ele>
        <time>2021-01-21T09:29:52.000Z</time>
      </trkpt>
      <trkpt lat="47.27468" lon="-2.45498">
        <ele>129.19999694824</ele>
        <time>2021-01-21T09:29:53.000Z</time>
      </trkpt>
      <trkpt lat="47.27441" lon="-2.45516">
        <ele>129.19999694824</ele>
        <time>2021-01-21T09:29:59.000Z</time>
      </trkpt>
      <trkpt lat="47.27436" lon="-2.45525">
        <ele>129.19999694824</ele>
        <time>2021-01-21T09:30:01.000Z</time>
      </trkpt>
      <trkpt lat="47.27435" lon="-2.4553">
        <ele>129.19999694824</ele>
        <time>2021-01-21T09:30:02.000Z</time>
      </trkpt>
      <trkpt lat="47.27434" lon="-2.45543">
        <ele>129.19999694824</ele>
        <time>2021-01-21T09:30:04.000Z</time>
      </trkpt>
      <trkpt lat="47.27429" lon="-2.45554">
        <ele>129.19999694824</ele>
        <time>2021-01-21T09:30:06.000Z</time>
      </trkpt>
      <trkpt lat="47.27417" lon="-2.45562">
        <ele>129.19999694824</ele>
        <time>2021-01-21T09:30:09.000Z</time>
      </trkpt>
      <trkpt lat="47.27412" lon="-2.45564">
        <ele>129.19999694824</ele>
        <time>2021-01-21T09:30:10.000Z</time>
      </trkpt>
      <trkpt lat="47.27398" lon="-2.45569">
        <ele>129.19999694824</ele>
        <time>2021-01-21T09:30:13.000Z</time>
      </trkpt>
      <trkpt lat="47.27382" lon="-2.45573">
        <ele>129.19999694824</ele>
        <time>2021-01-21T09:30:16.000Z</time>
      </trkpt>
      <trkpt lat="47.27371" lon="-2.45578">
        <ele>129.19999694824</ele>
        <time>2021-01-21T09:30:18.000Z</time>
      </trkpt>
      <trkpt lat="47.27349" lon="-2.45591">
        <ele>129.19999694824</ele>
        <time>2021-01-21T09:30:22.000Z</time>
      </trkpt>
      <trkpt lat="47.27333" lon="-2.45601">
        <ele>129.19999694824</ele>
        <time>2021-01-21T09:30:25.000Z</time>
      </trkpt>
      <trkpt lat="47.27321" lon="-2.45616">
        <ele>129.19999694824</ele>
        <time>2021-01-21T09:30:28.000Z</time>
      </trkpt>
      <trkpt lat="47.27322" lon="-2.45638">
        <ele>129.19999694824</ele>
        <time>2021-01-21T09:30:31.000Z</time>
      </trkpt>
      <trkpt lat="47.27327" lon="-2.45652">
        <ele>129.19999694824</ele>
        <time>2021-01-21T09:30:33.000Z</time>
      </trkpt>
      <trkpt lat="47.27336" lon="-2.45681">
        <ele>129.19999694824</ele>
        <time>2021-01-21T09:30:37.000Z</time>
      </trkpt>
      <trkpt lat="47.27348" lon="-2.45709">
        <ele>129.19999694824</ele>
        <time>2021-01-21T09:30:41.000Z</time>
      </trkpt>
      <trkpt lat="47.27354" lon="-2.45722">
        <ele>129.19999694824</ele>
        <time>2021-01-21T09:30:43.000Z</time>
      </trkpt>
      <trkpt lat="47.27367" lon="-2.4576">
        <ele>129.19999694824</ele>
        <time>2021-01-21T09:30:49.000Z</time>
      </trkpt>
      <trkpt lat="47.2737" lon="-2.4577">
        <ele>129.19999694824</ele>
        <time>2021-01-21T09:30:53.000Z</time>
      </trkpt>
      <trkpt lat="47.2737" lon="-2.45771">
        <ele>129.19999694824</ele>
        <time>2021-01-21T09:31:50.000Z</time>
      </trkpt>
      <trkpt lat="47.27371" lon="-2.45775">
        <ele>129.19999694824</ele>
        <time>2021-01-21T09:31:52.000Z</time>
      </trkpt>
      <trkpt lat="47.2738" lon="-2.45775">
        <ele>129.19999694824</ele>
        <time>2021-01-21T09:31:55.000Z</time>
      </trkpt>
      <trkpt lat="47.27384" lon="-2.45775">
        <ele>129.19999694824</ele>
        <time>2021-01-21T09:31:56.000Z</time>
      </trkpt>
      <trkpt lat="47.2741" lon="-2.4577">
        <ele>129.19999694824</ele>
        <time>2021-01-21T09:32:01.000Z</time>
      </trkpt>
      <trkpt lat="47.27453" lon="-2.45763">
        <ele>129.19999694824</ele>
        <time>2021-01-21T09:32:09.000Z</time>
      </trkpt>
      <trkpt lat="47.27495" lon="-2.45749">
        <ele>129.19999694824</ele>
        <time>2021-01-21T09:32:17.000Z</time>
      </trkpt>
      <trkpt lat="47.27545" lon="-2.45732">
        <ele>129.19999694824</ele>
        <time>2021-01-21T09:32:26.000Z</time>
      </trkpt>
      <trkpt lat="47.27588" lon="-2.45718">
        <ele>129.19999694824</ele>
        <time>2021-01-21T09:32:34.000Z</time>
      </trkpt>
      <trkpt lat="47.27619" lon="-2.45706">
        <ele>129.19999694824</ele>
        <time>2021-01-21T09:32:40.000Z</time>
      </trkpt>
      <trkpt lat="47.27623" lon="-2.45705">
        <ele>129.19999694824</ele>
        <time>2021-01-21T09:32:41.000Z</time>
      </trkpt>
      <trkpt lat="47.27631" lon="-2.45712">
        <ele>129.19999694824</ele>
        <time>2021-01-21T09:32:43.000Z</time>
      </trkpt>
      <trkpt lat="47.27641" lon="-2.4574">
        <ele>129.19999694824</ele>
        <time>2021-01-21T09:32:47.000Z</time>
      </trkpt>
      <trkpt lat="47.27645" lon="-2.45781">
        <ele>129.19999694824</ele>
        <time>2021-01-21T09:32:51.000Z</time>
      </trkpt>
      <trkpt lat="47.27646" lon="-2.45802">
        <ele>129.19999694824</ele>
        <time>2021-01-21T09:32:53.000Z</time>
      </trkpt>
      <trkpt lat="47.27646" lon="-2.45832">
        <ele>129.19999694824</ele>
        <time>2021-01-21T09:32:56.000Z</time>
      </trkpt>
      <trkpt lat="47.27644" lon="-2.45893">
        <ele>129.19999694824</ele>
        <time>2021-01-21T09:33:02.000Z</time>
      </trkpt>
      <trkpt lat="47.27642" lon="-2.45952">
        <ele>129.19999694824</ele>
        <time>2021-01-21T09:33:08.000Z</time>
      </trkpt>
      <trkpt lat="47.27642" lon="-2.45971">
        <ele>128.80000305176</ele>
        <time>2021-01-21T09:33:10.000Z</time>
      </trkpt>
      <trkpt lat="47.27642" lon="-2.45981">
        <ele>128.39999389648</ele>
        <time>2021-01-21T09:33:11.000Z</time>
      </trkpt>
      <trkpt lat="47.27642" lon="-2.4599">
        <ele>128</ele>
        <time>2021-01-21T09:33:12.000Z</time>
      </trkpt>
      <trkpt lat="47.27642" lon="-2.45999">
        <ele>127.59999847412</ele>
        <time>2021-01-21T09:33:13.000Z</time>
      </trkpt>
      <trkpt lat="47.27642" lon="-2.46008">
        <ele>127.19999694824</ele>
        <time>2021-01-21T09:33:14.000Z</time>
      </trkpt>
      <trkpt lat="47.27644" lon="-2.46017">
        <ele>127.19999694824</ele>
        <time>2021-01-21T09:33:15.000Z</time>
      </trkpt>
      <trkpt lat="47.27651" lon="-2.46052">
        <ele>127.19999694824</ele>
        <time>2021-01-21T09:33:19.000Z</time>
      </trkpt>
      <trkpt lat="47.27654" lon="-2.4607">
        <ele>127.19999694824</ele>
        <time>2021-01-21T09:33:22.000Z</time>
      </trkpt>
      <trkpt lat="47.27659" lon="-2.46101">
        <ele>127.19999694824</ele>
        <time>2021-01-21T09:33:29.000Z</time>
      </trkpt>
      <trkpt lat="47.27663" lon="-2.46124">
        <ele>127.19999694824</ele>
        <time>2021-01-21T09:33:35.000Z</time>
      </trkpt>
      <trkpt lat="47.27668" lon="-2.46154">
        <ele>127.19999694824</ele>
        <time>2021-01-21T09:33:41.000Z</time>
      </trkpt>
      <trkpt lat="47.2767" lon="-2.46171">
        <ele>127.59999847412</ele>
        <time>2021-01-21T09:33:44.000Z</time>
      </trkpt>
      <trkpt lat="47.27671" lon="-2.46178">
        <ele>128</ele>
        <time>2021-01-21T09:33:45.000Z</time>
      </trkpt>
      <trkpt lat="47.27671" lon="-2.46186">
        <ele>128.39999389648</ele>
        <time>2021-01-21T09:33:46.000Z</time>
      </trkpt>
      <trkpt lat="47.27671" lon="-2.46194">
        <ele>128.80000305176</ele>
        <time>2021-01-21T09:33:47.000Z</time>
      </trkpt>
      <trkpt lat="47.27672" lon="-2.46203">
        <ele>129.39999389648</ele>
        <time>2021-01-21T09:33:48.000Z</time>
      </trkpt>
      <trkpt lat="47.27675" lon="-2.46237">
        <ele>129.39999389648</ele>
        <time>2021-01-21T09:33:52.000Z</time>
      </trkpt>
      <trkpt lat="47.27675" lon="-2.46254">
        <ele>129.39999389648</ele>
        <time>2021-01-21T09:33:54.000Z</time>
      </trkpt>
      <trkpt lat="47.27669" lon="-2.46268">
        <ele>129.39999389648</ele>
        <time>2021-01-21T09:33:56.000Z</time>
      </trkpt>
      <trkpt lat="47.2766" lon="-2.46291">
        <ele>129.39999389648</ele>
        <time>2021-01-21T09:34:00.000Z</time>
      </trkpt>
      <trkpt lat="47.27667" lon="-2.46306">
        <ele>129.39999389648</ele>
        <time>2021-01-21T09:34:03.000Z</time>
      </trkpt>
      <trkpt lat="47.2767" lon="-2.46311">
        <ele>129.39999389648</ele>
        <time>2021-01-21T09:34:04.000Z</time>
      </trkpt>
      <trkpt lat="47.27676" lon="-2.46331">
        <ele>129.39999389648</ele>
        <time>2021-01-21T09:34:07.000Z</time>
      </trkpt>
      <trkpt lat="47.27677" lon="-2.46338">
        <ele>129.39999389648</ele>
        <time>2021-01-21T09:34:08.000Z</time>
      </trkpt>
      <trkpt lat="47.27682" lon="-2.46361">
        <ele>129.39999389648</ele>
        <time>2021-01-21T09:34:11.000Z</time>
      </trkpt>
      <trkpt lat="47.27687" lon="-2.46378">
        <ele>129.39999389648</ele>
        <time>2021-01-21T09:34:13.000Z</time>
      </trkpt>
      <trkpt lat="47.27705" lon="-2.46429">
        <ele>129.39999389648</ele>
        <time>2021-01-21T09:34:19.000Z</time>
      </trkpt>
      <trkpt lat="47.27709" lon="-2.46437">
        <ele>129.39999389648</ele>
        <time>2021-01-21T09:34:20.000Z</time>
      </trkpt>
      <trkpt lat="47.27724" lon="-2.46471">
        <ele>129.39999389648</ele>
        <time>2021-01-21T09:34:24.000Z</time>
      </trkpt>
      <trkpt lat="47.27729" lon="-2.46488">
        <ele>129.39999389648</ele>
        <time>2021-01-21T09:34:26.000Z</time>
      </trkpt>
      <trkpt lat="47.27738" lon="-2.46522">
        <ele>129.39999389648</ele>
        <time>2021-01-21T09:34:30.000Z</time>
      </trkpt>
      <trkpt lat="47.27742" lon="-2.46538">
        <ele>129.39999389648</ele>
        <time>2021-01-21T09:34:32.000Z</time>
      </trkpt>
      <trkpt lat="47.27755" lon="-2.46582">
        <ele>129.39999389648</ele>
        <time>2021-01-21T09:34:38.000Z</time>
      </trkpt>
      <trkpt lat="47.27758" lon="-2.46588">
        <ele>129.39999389648</ele>
        <time>2021-01-21T09:34:39.000Z</time>
      </trkpt>
      <trkpt lat="47.27773" lon="-2.46603">
        <ele>129.39999389648</ele>
        <time>2021-01-21T09:34:43.000Z</time>
      </trkpt>
      <trkpt lat="47.27789" lon="-2.46604">
        <ele>128.80000305176</ele>
        <time>2021-01-21T09:34:46.000Z</time>
      </trkpt>
      <trkpt lat="47.27795" lon="-2.46601">
        <ele>128.39999389648</ele>
        <time>2021-01-21T09:34:47.000Z</time>
      </trkpt>
      <trkpt lat="47.27798" lon="-2.466">
        <ele>127.59999847412</ele>
        <time>2021-01-21T09:34:48.000Z</time>
      </trkpt>
      <trkpt lat="47.27799" lon="-2.46601">
        <ele>127.19999694824</ele>
        <time>2021-01-21T09:34:49.000Z</time>
      </trkpt>
      <trkpt lat="47.27799" lon="-2.46602">
        <ele>127.19999694824</ele>
        <time>2021-01-21T09:34:50.000Z</time>
      </trkpt>
      <trkpt lat="47.27793" lon="-2.46604">
        <ele>127.19999694824</ele>
        <time>2021-01-21T09:34:54.000Z</time>
      </trkpt>
      <trkpt lat="47.27775" lon="-2.46601">
        <ele>127.19999694824</ele>
        <time>2021-01-21T09:34:59.000Z</time>
      </trkpt>
      <trkpt lat="47.27765" lon="-2.46602">
        <ele>127.19999694824</ele>
        <time>2021-01-21T09:35:02.000Z</time>
      </trkpt>
      <trkpt lat="47.27764" lon="-2.46606">
        <ele>127.19999694824</ele>
        <time>2021-01-21T09:35:03.000Z</time>
      </trkpt>
      <trkpt lat="47.27762" lon="-2.46622">
        <ele>127.19999694824</ele>
        <time>2021-01-21T09:35:07.000Z</time>
      </trkpt>
      <trkpt lat="47.27762" lon="-2.46643">
        <ele>127.19999694824</ele>
        <time>2021-01-21T09:35:11.000Z</time>
      </trkpt>
      <trkpt lat="47.27762" lon="-2.4667">
        <ele>127.19999694824</ele>
        <time>2021-01-21T09:35:15.000Z</time>
      </trkpt>
      <trkpt lat="47.27762" lon="-2.46686">
        <ele>127.19999694824</ele>
        <time>2021-01-21T09:35:17.000Z</time>
      </trkpt>
      <trkpt lat="47.27761" lon="-2.46694">
        <ele>127.19999694824</ele>
        <time>2021-01-21T09:35:18.000Z</time>
      </trkpt>
      <trkpt lat="47.2776" lon="-2.46702">
        <ele>127.19999694824</ele>
        <time>2021-01-21T09:35:19.000Z</time>
      </trkpt>
      <trkpt lat="47.27757" lon="-2.46729">
        <ele>127.19999694824</ele>
        <time>2021-01-21T09:35:23.000Z</time>
      </trkpt>
      <trkpt lat="47.27757" lon="-2.46735">
        <ele>127.19999694824</ele>
        <time>2021-01-21T09:35:24.000Z</time>
      </trkpt>
      <trkpt lat="47.27762" lon="-2.46754">
        <ele>127.19999694824</ele>
        <time>2021-01-21T09:35:27.000Z</time>
      </trkpt>
      <trkpt lat="47.27772" lon="-2.46788">
        <ele>127.19999694824</ele>
        <time>2021-01-21T09:35:32.000Z</time>
      </trkpt>
      <trkpt lat="47.27774" lon="-2.46796">
        <ele>127.19999694824</ele>
        <time>2021-01-21T09:35:33.000Z</time>
      </trkpt>
      <trkpt lat="47.27782" lon="-2.46836">
        <ele>127.19999694824</ele>
        <time>2021-01-21T09:35:39.000Z</time>
      </trkpt>
      <trkpt lat="47.27784" lon="-2.4687">
        <ele>127.19999694824</ele>
        <time>2021-01-21T09:35:44.000Z</time>
      </trkpt>
      <trkpt lat="47.27781" lon="-2.46887">
        <ele>127.19999694824</ele>
        <time>2021-01-21T09:35:48.000Z</time>
      </trkpt>
      <trkpt lat="47.27779" lon="-2.4689">
        <ele>127.19999694824</ele>
        <time>2021-01-21T09:35:52.000Z</time>
      </trkpt>
      <trkpt lat="47.27776" lon="-2.46903">
        <ele>127.19999694824</ele>
        <time>2021-01-21T09:38:58.000Z</time>
      </trkpt>
      <trkpt lat="47.27775" lon="-2.46908">
        <ele>127.19999694824</ele>
        <time>2021-01-21T09:39:00.000Z</time>
      </trkpt>
      <trkpt lat="47.27776" lon="-2.46914">
        <ele>127.19999694824</ele>
        <time>2021-01-21T09:39:02.000Z</time>
      </trkpt>
      <trkpt lat="47.27778" lon="-2.46927">
        <ele>127.19999694824</ele>
        <time>2021-01-21T09:39:07.000Z</time>
      </trkpt>
      <trkpt lat="47.27777" lon="-2.46929">
        <ele>127.19999694824</ele>
        <time>2021-01-21T09:39:08.000Z</time>
      </trkpt>
      <trkpt lat="47.27771" lon="-2.46933">
        <ele>127.19999694824</ele>
        <time>2021-01-21T09:39:11.000Z</time>
      </trkpt>
      <trkpt lat="47.27769" lon="-2.46934">
        <ele>127.19999694824</ele>
        <time>2021-01-21T09:39:12.000Z</time>
      </trkpt>
      <trkpt lat="47.27752" lon="-2.46932">
        <ele>127.19999694824</ele>
        <time>2021-01-21T09:39:17.000Z</time>
      </trkpt>
      <trkpt lat="47.27748" lon="-2.46933">
        <ele>127.59999847412</ele>
        <time>2021-01-21T09:39:18.000Z</time>
      </trkpt>
      <trkpt lat="47.27745" lon="-2.46933">
        <ele>128</ele>
        <time>2021-01-21T09:39:19.000Z</time>
      </trkpt>
      <trkpt lat="47.27742" lon="-2.46933">
        <ele>128.80000305176</ele>
        <time>2021-01-21T09:39:20.000Z</time>
      </trkpt>
      <trkpt lat="47.27738" lon="-2.46933">
        <ele>129.19999694824</ele>
        <time>2021-01-21T09:39:21.000Z</time>
      </trkpt>
      <trkpt lat="47.27735" lon="-2.46933">
        <ele>129.19999694824</ele>
        <time>2021-01-21T09:39:22.000Z</time>
      </trkpt>
      <trkpt lat="47.27711" lon="-2.46936">
        <ele>129.19999694824</ele>
        <time>2021-01-21T09:39:28.000Z</time>
      </trkpt>
      <trkpt lat="47.27682" lon="-2.46929">
        <ele>129.19999694824</ele>
        <time>2021-01-21T09:39:35.000Z</time>
      </trkpt>
      <trkpt lat="47.27671" lon="-2.46933">
        <ele>129.19999694824</ele>
        <time>2021-01-21T09:39:38.000Z</time>
      </trkpt>
      <trkpt lat="47.27669" lon="-2.46937">
        <ele>129.19999694824</ele>
        <time>2021-01-21T09:39:39.000Z</time>
      </trkpt>
      <trkpt lat="47.27666" lon="-2.46953">
        <ele>129.19999694824</ele>
        <time>2021-01-21T09:39:42.000Z</time>
      </trkpt>
      <trkpt lat="47.27666" lon="-2.46958">
        <ele>129.19999694824</ele>
        <time>2021-01-21T09:39:43.000Z</time>
      </trkpt>
      <trkpt lat="47.27661" lon="-2.46995">
        <ele>129.19999694824</ele>
        <time>2021-01-21T09:39:50.000Z</time>
      </trkpt>
      <trkpt lat="47.27651" lon="-2.46996">
        <ele>129.19999694824</ele>
        <time>2021-01-21T09:39:54.000Z</time>
      </trkpt>
      <trkpt lat="47.27631" lon="-2.46994">
        <ele>129.60000610352</ele>
        <time>2021-01-21T09:39:59.000Z</time>
      </trkpt>
      <trkpt lat="47.27627" lon="-2.46994">
        <ele>130</ele>
        <time>2021-01-21T09:40:00.000Z</time>
      </trkpt>
      <trkpt lat="47.27624" lon="-2.46994">
        <ele>130.39999389648</ele>
        <time>2021-01-21T09:40:01.000Z</time>
      </trkpt>
      <trkpt lat="47.27622" lon="-2.46994">
        <ele>131</ele>
        <time>2021-01-21T09:40:02.000Z</time>
      </trkpt>
      <trkpt lat="47.2762" lon="-2.46993">
        <ele>131.39999389648</ele>
        <time>2021-01-21T09:40:03.000Z</time>
      </trkpt>
      <trkpt lat="47.27618" lon="-2.46994">
        <ele>131.39999389648</ele>
        <time>2021-01-21T09:40:04.000Z</time>
      </trkpt>
      <trkpt lat="47.2761" lon="-2.46994">
        <ele>131.80000305176</ele>
        <time>2021-01-21T09:40:08.000Z</time>
      </trkpt>
      <trkpt lat="47.27608" lon="-2.46994">
        <ele>132.60000610352</ele>
        <time>2021-01-21T09:40:09.000Z</time>
      </trkpt>
      <trkpt lat="47.27605" lon="-2.46994">
        <ele>133</ele>
        <time>2021-01-21T09:40:10.000Z</time>
      </trkpt>
      <trkpt lat="47.27604" lon="-2.46994">
        <ele>133.39999389648</ele>
        <time>2021-01-21T09:40:11.000Z</time>
      </trkpt>
      <trkpt lat="47.27593" lon="-2.46993">
        <ele>133.39999389648</ele>
        <time>2021-01-21T09:40:16.000Z</time>
      </trkpt>
      <trkpt lat="47.27573" lon="-2.46983">
        <ele>133.39999389648</ele>
        <time>2021-01-21T09:40:22.000Z</time>
      </trkpt>
      <trkpt lat="47.27569" lon="-2.46981">
        <ele>133.39999389648</ele>
        <time>2021-01-21T09:40:23.000Z</time>
      </trkpt>
      <trkpt lat="47.27556" lon="-2.4698">
        <ele>133.39999389648</ele>
        <time>2021-01-21T09:40:26.000Z</time>
      </trkpt>
      <trkpt lat="47.27541" lon="-2.46997">
        <ele>133.39999389648</ele>
        <time>2021-01-21T09:40:30.000Z</time>
      </trkpt>
      <trkpt lat="47.27539" lon="-2.47002">
        <ele>133.39999389648</ele>
        <time>2021-01-21T09:40:31.000Z</time>
      </trkpt>
      <trkpt lat="47.27536" lon="-2.47007">
        <ele>133.39999389648</ele>
        <time>2021-01-21T09:40:32.000Z</time>
      </trkpt>
      <trkpt lat="47.27521" lon="-2.47035">
        <ele>133.39999389648</ele>
        <time>2021-01-21T09:40:37.000Z</time>
      </trkpt>
      <trkpt lat="47.27513" lon="-2.47044">
        <ele>133.39999389648</ele>
        <time>2021-01-21T09:40:39.000Z</time>
      </trkpt>
      <trkpt lat="47.27498" lon="-2.47063">
        <ele>133.39999389648</ele>
        <time>2021-01-21T09:40:43.000Z</time>
      </trkpt>
      <trkpt lat="47.2748" lon="-2.47085">
        <ele>133.39999389648</ele>
        <time>2021-01-21T09:40:48.000Z</time>
      </trkpt>
      <trkpt lat="47.27477" lon="-2.47096">
        <ele>133.39999389648</ele>
        <time>2021-01-21T09:40:50.000Z</time>
      </trkpt>
      <trkpt lat="47.2748" lon="-2.4711">
        <ele>133.39999389648</ele>
        <time>2021-01-21T09:40:52.000Z</time>
      </trkpt>
      <trkpt lat="47.27482" lon="-2.47118">
        <ele>133.39999389648</ele>
        <time>2021-01-21T09:40:53.000Z</time>
      </trkpt>
      <trkpt lat="47.275" lon="-2.47169">
        <ele>133.39999389648</ele>
        <time>2021-01-21T09:41:00.000Z</time>
      </trkpt>
      <trkpt lat="47.27505" lon="-2.47183">
        <ele>133.39999389648</ele>
        <time>2021-01-21T09:41:02.000Z</time>
      </trkpt>
      <trkpt lat="47.27502" lon="-2.47195">
        <ele>133.39999389648</ele>
        <time>2021-01-21T09:41:04.000Z</time>
      </trkpt>
      <trkpt lat="47.27491" lon="-2.47203">
        <ele>133.39999389648</ele>
        <time>2021-01-21T09:41:07.000Z</time>
      </trkpt>
      <trkpt lat="47.27458" lon="-2.47224">
        <ele>133.39999389648</ele>
        <time>2021-01-21T09:41:14.000Z</time>
      </trkpt>
      <trkpt lat="47.2743" lon="-2.47242">
        <ele>133.39999389648</ele>
        <time>2021-01-21T09:41:21.000Z</time>
      </trkpt>
      <trkpt lat="47.27406" lon="-2.47258">
        <ele>133.39999389648</ele>
        <time>2021-01-21T09:41:29.000Z</time>
      </trkpt>
      <trkpt lat="47.27388" lon="-2.47273">
        <ele>133.39999389648</ele>
        <time>2021-01-21T09:41:36.000Z</time>
      </trkpt>
      <trkpt lat="47.27367" lon="-2.47293">
        <ele>133.39999389648</ele>
        <time>2021-01-21T09:41:43.000Z</time>
      </trkpt>
      <trkpt lat="47.27365" lon="-2.47296">
        <ele>133.80000305176</ele>
        <time>2021-01-21T09:41:44.000Z</time>
      </trkpt>
      <trkpt lat="47.27361" lon="-2.47298">
        <ele>134.19999694824</ele>
        <time>2021-01-21T09:41:45.000Z</time>
      </trkpt>
      <trkpt lat="47.27359" lon="-2.47299">
        <ele>134.60000610352</ele>
        <time>2021-01-21T09:41:46.000Z</time>
      </trkpt>
      <trkpt lat="47.27357" lon="-2.47301">
        <ele>135</ele>
        <time>2021-01-21T09:41:47.000Z</time>
      </trkpt>
      <trkpt lat="47.27354" lon="-2.47302">
        <ele>135.39999389648</ele>
        <time>2021-01-21T09:41:48.000Z</time>
      </trkpt>
      <trkpt lat="47.27351" lon="-2.47303">
        <ele>135.39999389648</ele>
        <time>2021-01-21T09:41:49.000Z</time>
      </trkpt>
      <trkpt lat="47.27336" lon="-2.47306">
        <ele>135.39999389648</ele>
        <time>2021-01-21T09:41:54.000Z</time>
      </trkpt>
      <trkpt lat="47.27324" lon="-2.47314">
        <ele>135.39999389648</ele>
        <time>2021-01-21T09:41:58.000Z</time>
      </trkpt>
      <trkpt lat="47.27321" lon="-2.47316">
        <ele>135.80000305176</ele>
        <time>2021-01-21T09:41:59.000Z</time>
      </trkpt>
      <trkpt lat="47.27319" lon="-2.47317">
        <ele>136.19999694824</ele>
        <time>2021-01-21T09:42:00.000Z</time>
      </trkpt>
      <trkpt lat="47.27316" lon="-2.47319">
        <ele>136.60000610352</ele>
        <time>2021-01-21T09:42:01.000Z</time>
      </trkpt>
      <trkpt lat="47.27313" lon="-2.4732">
        <ele>137.19999694824</ele>
        <time>2021-01-21T09:42:02.000Z</time>
      </trkpt>
      <trkpt lat="47.27311" lon="-2.47322">
        <ele>137.60000610352</ele>
        <time>2021-01-21T09:42:03.000Z</time>
      </trkpt>
      <trkpt lat="47.27308" lon="-2.47324">
        <ele>137.60000610352</ele>
        <time>2021-01-21T09:42:04.000Z</time>
      </trkpt>
      <trkpt lat="47.27297" lon="-2.4734">
        <ele>137.60000610352</ele>
        <time>2021-01-21T09:42:09.000Z</time>
      </trkpt>
      <trkpt lat="47.27296" lon="-2.47361">
        <ele>138.39999389648</ele>
        <time>2021-01-21T09:42:13.000Z</time>
      </trkpt>
      <trkpt lat="47.27296" lon="-2.47367">
        <ele>138.80000305176</ele>
        <time>2021-01-21T09:42:14.000Z</time>
      </trkpt>
      <trkpt lat="47.27295" lon="-2.47372">
        <ele>139.19999694824</ele>
        <time>2021-01-21T09:42:15.000Z</time>
      </trkpt>
      <trkpt lat="47.27294" lon="-2.47378">
        <ele>139.60000610352</ele>
        <time>2021-01-21T09:42:16.000Z</time>
      </trkpt>
      <trkpt lat="47.27288" lon="-2.47394">
        <ele>139.60000610352</ele>
        <time>2021-01-21T09:42:19.000Z</time>
      </trkpt>
      <trkpt lat="47.27274" lon="-2.47417">
        <ele>139.60000610352</ele>
        <time>2021-01-21T09:42:24.000Z</time>
      </trkpt>
      <trkpt lat="47.27271" lon="-2.47443">
        <ele>139.60000610352</ele>
        <time>2021-01-21T09:42:28.000Z</time>
      </trkpt>
      <trkpt lat="47.27275" lon="-2.47464">
        <ele>139.60000610352</ele>
        <time>2021-01-21T09:42:31.000Z</time>
      </trkpt>
      <trkpt lat="47.27278" lon="-2.47479">
        <ele>139.60000610352</ele>
        <time>2021-01-21T09:42:33.000Z</time>
      </trkpt>
      <trkpt lat="47.27282" lon="-2.47501">
        <ele>139.60000610352</ele>
        <time>2021-01-21T09:42:36.000Z</time>
      </trkpt>
      <trkpt lat="47.27287" lon="-2.47524">
        <ele>139.60000610352</ele>
        <time>2021-01-21T09:42:39.000Z</time>
      </trkpt>
      <trkpt lat="47.27298" lon="-2.47557">
        <ele>139.60000610352</ele>
        <time>2021-01-21T09:42:44.000Z</time>
      </trkpt>
      <trkpt lat="47.27305" lon="-2.47572">
        <ele>139.60000610352</ele>
        <time>2021-01-21T09:42:48.000Z</time>
      </trkpt>
      <trkpt lat="47.27306" lon="-2.47578">
        <ele>139.60000610352</ele>
        <time>2021-01-21T09:42:52.000Z</time>
      </trkpt>
      <trkpt lat="47.27306" lon="-2.47579">
        <ele>139.60000610352</ele>
        <time>2021-01-21T09:42:53.000Z</time>
      </trkpt>
      <trkpt lat="47.27305" lon="-2.4758">
        <ele>139.60000610352</ele>
        <time>2021-01-21T09:42:54.000Z</time>
      </trkpt>
      <trkpt lat="47.27303" lon="-2.47583">
        <ele>139.60000610352</ele>
        <time>2021-01-21T09:42:57.000Z</time>
      </trkpt>
      <trkpt lat="47.27303" lon="-2.47585">
        <ele>139.60000610352</ele>
        <time>2021-01-21T09:42:58.000Z</time>
      </trkpt>
      <trkpt lat="47.27305" lon="-2.47589">
        <ele>139.60000610352</ele>
        <time>2021-01-21T09:43:01.000Z</time>
      </trkpt>
      <trkpt lat="47.27309" lon="-2.47594">
        <ele>139.60000610352</ele>
        <time>2021-01-21T09:43:03.000Z</time>
      </trkpt>
      <trkpt lat="47.27318" lon="-2.4761">
        <ele>139.19999694824</ele>
        <time>2021-01-21T09:43:07.000Z</time>
      </trkpt>
      <trkpt lat="47.27321" lon="-2.47614">
        <ele>138.60000610352</ele>
        <time>2021-01-21T09:43:08.000Z</time>
      </trkpt>
      <trkpt lat="47.27324" lon="-2.47618">
        <ele>138.19999694824</ele>
        <time>2021-01-21T09:43:09.000Z</time>
      </trkpt>
      <trkpt lat="47.27327" lon="-2.47621">
        <ele>137.80000305176</ele>
        <time>2021-01-21T09:43:10.000Z</time>
      </trkpt>
      <trkpt lat="47.27331" lon="-2.47622">
        <ele>137.39999389648</ele>
        <time>2021-01-21T09:43:11.000Z</time>
      </trkpt>
      <trkpt lat="47.27335" lon="-2.47624">
        <ele>137.39999389648</ele>
        <time>2021-01-21T09:43:12.000Z</time>
      </trkpt>
      <trkpt lat="47.27347" lon="-2.47639">
        <ele>137.39999389648</ele>
        <time>2021-01-21T09:43:15.000Z</time>
      </trkpt>
      <trkpt lat="47.27361" lon="-2.47655">
        <ele>137</ele>
        <time>2021-01-21T09:43:18.000Z</time>
      </trkpt>
      <trkpt lat="47.27366" lon="-2.47661">
        <ele>136.60000610352</ele>
        <time>2021-01-21T09:43:19.000Z</time>
      </trkpt>
      <trkpt lat="47.27372" lon="-2.47668">
        <ele>136.19999694824</ele>
        <time>2021-01-21T09:43:20.000Z</time>
      </trkpt>
      <trkpt lat="47.27377" lon="-2.47674">
        <ele>135.80000305176</ele>
        <time>2021-01-21T09:43:21.000Z</time>
      </trkpt>
      <trkpt lat="47.27382" lon="-2.47681">
        <ele>135.39999389648</ele>
        <time>2021-01-21T09:43:22.000Z</time>
      </trkpt>
      <trkpt lat="47.27392" lon="-2.47691">
        <ele>135.39999389648</ele>
        <time>2021-01-21T09:43:24.000Z</time>
      </trkpt>
      <trkpt lat="47.27403" lon="-2.47701">
        <ele>135.39999389648</ele>
        <time>2021-01-21T09:43:26.000Z</time>
      </trkpt>
      <trkpt lat="47.27408" lon="-2.47707">
        <ele>135.39999389648</ele>
        <time>2021-01-21T09:43:27.000Z</time>
      </trkpt>
      <trkpt lat="47.27412" lon="-2.47713">
        <ele>135</ele>
        <time>2021-01-21T09:43:28.000Z</time>
      </trkpt>
      <trkpt lat="47.27417" lon="-2.47719">
        <ele>134.60000610352</ele>
        <time>2021-01-21T09:43:29.000Z</time>
      </trkpt>
      <trkpt lat="47.27421" lon="-2.47725">
        <ele>134.19999694824</ele>
        <time>2021-01-21T09:43:30.000Z</time>
      </trkpt>
      <trkpt lat="47.27425" lon="-2.47732">
        <ele>133.80000305176</ele>
        <time>2021-01-21T09:43:31.000Z</time>
      </trkpt>
      <trkpt lat="47.27429" lon="-2.47738">
        <ele>133.39999389648</ele>
        <time>2021-01-21T09:43:32.000Z</time>
      </trkpt>
      <trkpt lat="47.27443" lon="-2.4776">
        <ele>133</ele>
        <time>2021-01-21T09:43:35.000Z</time>
      </trkpt>
      <trkpt lat="47.27447" lon="-2.47767">
        <ele>132.39999389648</ele>
        <time>2021-01-21T09:43:36.000Z</time>
      </trkpt>
      <trkpt lat="47.27451" lon="-2.47774">
        <ele>132</ele>
        <time>2021-01-21T09:43:37.000Z</time>
      </trkpt>
      <trkpt lat="47.27454" lon="-2.4778">
        <ele>131.60000610352</ele>
        <time>2021-01-21T09:43:38.000Z</time>
      </trkpt>
      <trkpt lat="47.27458" lon="-2.47786">
        <ele>131.19999694824</ele>
        <time>2021-01-21T09:43:39.000Z</time>
      </trkpt>
      <trkpt lat="47.27472" lon="-2.47811">
        <ele>131.19999694824</ele>
        <time>2021-01-21T09:43:43.000Z</time>
      </trkpt>
      <trkpt lat="47.27495" lon="-2.47853">
        <ele>131.19999694824</ele>
        <time>2021-01-21T09:43:49.000Z</time>
      </trkpt>
      <trkpt lat="47.27509" lon="-2.47886">
        <ele>131.60000610352</ele>
        <time>2021-01-21T09:43:53.000Z</time>
      </trkpt>
      <trkpt lat="47.27514" lon="-2.47893">
        <ele>132.19999694824</ele>
        <time>2021-01-21T09:43:54.000Z</time>
      </trkpt>
      <trkpt lat="47.27518" lon="-2.479">
        <ele>132.60000610352</ele>
        <time>2021-01-21T09:43:55.000Z</time>
      </trkpt>
      <trkpt lat="47.27522" lon="-2.47907">
        <ele>133</ele>
        <time>2021-01-21T09:43:56.000Z</time>
      </trkpt>
      <trkpt lat="47.27526" lon="-2.47913">
        <ele>133.39999389648</ele>
        <time>2021-01-21T09:43:57.000Z</time>
      </trkpt>
      <trkpt lat="47.27534" lon="-2.47923">
        <ele>133.39999389648</ele>
        <time>2021-01-21T09:43:59.000Z</time>
      </trkpt>
      <trkpt lat="47.27539" lon="-2.47925">
        <ele>133.39999389648</ele>
        <time>2021-01-21T09:44:00.000Z</time>
      </trkpt>
      <trkpt lat="47.27556" lon="-2.4792">
        <ele>133.39999389648</ele>
        <time>2021-01-21T09:44:03.000Z</time>
      </trkpt>
      <trkpt lat="47.27578" lon="-2.47909">
        <ele>133.39999389648</ele>
        <time>2021-01-21T09:44:07.000Z</time>
      </trkpt>
      <trkpt lat="47.27584" lon="-2.47909">
        <ele>133.39999389648</ele>
        <time>2021-01-21T09:44:08.000Z</time>
      </trkpt>
      <trkpt lat="47.27596" lon="-2.47924">
        <ele>133.80000305176</ele>
        <time>2021-01-21T09:44:11.000Z</time>
      </trkpt>
      <trkpt lat="47.27599" lon="-2.47931">
        <ele>134.19999694824</ele>
        <time>2021-01-21T09:44:12.000Z</time>
      </trkpt>
      <trkpt lat="47.27601" lon="-2.47938">
        <ele>134.60000610352</ele>
        <time>2021-01-21T09:44:13.000Z</time>
      </trkpt>
      <trkpt lat="47.27603" lon="-2.47945">
        <ele>135</ele>
        <time>2021-01-21T09:44:14.000Z</time>
      </trkpt>
      <trkpt lat="47.27604" lon="-2.47952">
        <ele>135.39999389648</ele>
        <time>2021-01-21T09:44:15.000Z</time>
      </trkpt>
      <trkpt lat="47.27606" lon="-2.47958">
        <ele>136</ele>
        <time>2021-01-21T09:44:16.000Z</time>
      </trkpt>
      <trkpt lat="47.27608" lon="-2.47965">
        <ele>136.39999389648</ele>
        <time>2021-01-21T09:44:17.000Z</time>
      </trkpt>
      <trkpt lat="47.27609" lon="-2.47971">
        <ele>137</ele>
        <time>2021-01-21T09:44:18.000Z</time>
      </trkpt>
      <trkpt lat="47.27611" lon="-2.47978">
        <ele>137.60000610352</ele>
        <time>2021-01-21T09:44:19.000Z</time>
      </trkpt>
      <trkpt lat="47.27613" lon="-2.47983">
        <ele>138</ele>
        <time>2021-01-21T09:44:20.000Z</time>
      </trkpt>
      <trkpt lat="47.27624" lon="-2.48008">
        <ele>138</ele>
        <time>2021-01-21T09:44:24.000Z</time>
      </trkpt>
      <trkpt lat="47.27625" lon="-2.48016">
        <ele>138.39999389648</ele>
        <time>2021-01-21T09:44:25.000Z</time>
      </trkpt>
      <trkpt lat="47.27625" lon="-2.48023">
        <ele>138.80000305176</ele>
        <time>2021-01-21T09:44:26.000Z</time>
      </trkpt>
      <trkpt lat="47.27623" lon="-2.48031">
        <ele>139.19999694824</ele>
        <time>2021-01-21T09:44:27.000Z</time>
      </trkpt>
      <trkpt lat="47.27622" lon="-2.48039">
        <ele>139.80000305176</ele>
        <time>2021-01-21T09:44:28.000Z</time>
      </trkpt>
      <trkpt lat="47.2762" lon="-2.48046">
        <ele>140.19999694824</ele>
        <time>2021-01-21T09:44:29.000Z</time>
      </trkpt>
      <trkpt lat="47.27617" lon="-2.48059">
        <ele>140.19999694824</ele>
        <time>2021-01-21T09:44:31.000Z</time>
      </trkpt>
      <trkpt lat="47.27618" lon="-2.48064">
        <ele>140.19999694824</ele>
        <time>2021-01-21T09:44:32.000Z</time>
      </trkpt>
      <trkpt lat="47.27623" lon="-2.48074">
        <ele>140.19999694824</ele>
        <time>2021-01-21T09:44:35.000Z</time>
      </trkpt>
      <trkpt lat="47.27629" lon="-2.48074">
        <ele>140.19999694824</ele>
        <time>2021-01-21T09:44:37.000Z</time>
      </trkpt>
      <trkpt lat="47.27634" lon="-2.48073">
        <ele>140.19999694824</ele>
        <time>2021-01-21T09:44:39.000Z</time>
      </trkpt>
      <trkpt lat="47.27643" lon="-2.4808">
        <ele>140.19999694824</ele>
        <time>2021-01-21T09:44:45.000Z</time>
      </trkpt>
      <trkpt lat="47.27655" lon="-2.4808">
        <ele>140.19999694824</ele>
        <time>2021-01-21T09:44:50.000Z</time>
      </trkpt>
      <trkpt lat="47.27666" lon="-2.48077">
        <ele>140.19999694824</ele>
        <time>2021-01-21T09:44:55.000Z</time>
      </trkpt>
      <trkpt lat="47.27677" lon="-2.48082">
        <ele>140.19999694824</ele>
        <time>2021-01-21T09:45:01.000Z</time>
      </trkpt>
      <trkpt lat="47.2769" lon="-2.48084">
        <ele>140.19999694824</ele>
        <time>2021-01-21T09:45:05.000Z</time>
      </trkpt>
      <trkpt lat="47.27708" lon="-2.48092">
        <ele>140.19999694824</ele>
        <time>2021-01-21T09:45:10.000Z</time>
      </trkpt>
      <trkpt lat="47.27713" lon="-2.48098">
        <ele>140.60000610352</ele>
        <time>2021-01-21T09:45:12.000Z</time>
      </trkpt>
      <trkpt lat="47.27716" lon="-2.48101">
        <ele>141.19999694824</ele>
        <time>2021-01-21T09:45:13.000Z</time>
      </trkpt>
      <trkpt lat="47.27717" lon="-2.48104">
        <ele>141.60000610352</ele>
        <time>2021-01-21T09:45:14.000Z</time>
      </trkpt>
      <trkpt lat="47.27719" lon="-2.48107">
        <ele>142.19999694824</ele>
        <time>2021-01-21T09:45:15.000Z</time>
      </trkpt>
      <trkpt lat="47.27721" lon="-2.48109">
        <ele>142.60000610352</ele>
        <time>2021-01-21T09:45:16.000Z</time>
      </trkpt>
      <trkpt lat="47.27722" lon="-2.48111">
        <ele>143</ele>
        <time>2021-01-21T09:45:17.000Z</time>
      </trkpt>
      <trkpt lat="47.27724" lon="-2.48114">
        <ele>143.39999389648</ele>
        <time>2021-01-21T09:45:18.000Z</time>
      </trkpt>
      <trkpt lat="47.27725" lon="-2.48116">
        <ele>143.80000305176</ele>
        <time>2021-01-21T09:45:19.000Z</time>
      </trkpt>
      <trkpt lat="47.27726" lon="-2.48119">
        <ele>144.19999694824</ele>
        <time>2021-01-21T09:45:20.000Z</time>
      </trkpt>
      <trkpt lat="47.27727" lon="-2.48122">
        <ele>144.80000305176</ele>
        <time>2021-01-21T09:45:21.000Z</time>
      </trkpt>
      <trkpt lat="47.27725" lon="-2.48136">
        <ele>144.80000305176</ele>
        <time>2021-01-21T09:45:25.000Z</time>
      </trkpt>
      <trkpt lat="47.2772" lon="-2.48153">
        <ele>144.80000305176</ele>
        <time>2021-01-21T09:45:31.000Z</time>
      </trkpt>
      <trkpt lat="47.27718" lon="-2.48167">
        <ele>144.80000305176</ele>
        <time>2021-01-21T09:45:36.000Z</time>
      </trkpt>
      <trkpt lat="47.27717" lon="-2.48173">
        <ele>144.19999694824</ele>
        <time>2021-01-21T09:45:37.000Z</time>
      </trkpt>
      <trkpt lat="47.27717" lon="-2.4818">
        <ele>143.80000305176</ele>
        <time>2021-01-21T09:45:38.000Z</time>
      </trkpt>
      <trkpt lat="47.27719" lon="-2.48188">
        <ele>143.19999694824</ele>
        <time>2021-01-21T09:45:39.000Z</time>
      </trkpt>
      <trkpt lat="47.27722" lon="-2.48196">
        <ele>142.39999389648</ele>
        <time>2021-01-21T09:45:40.000Z</time>
      </trkpt>
      <trkpt lat="47.27725" lon="-2.48204">
        <ele>141.80000305176</ele>
        <time>2021-01-21T09:45:41.000Z</time>
      </trkpt>
      <trkpt lat="47.27729" lon="-2.48212">
        <ele>141</ele>
        <time>2021-01-21T09:45:42.000Z</time>
      </trkpt>
      <trkpt lat="47.27733" lon="-2.4822">
        <ele>140.19999694824</ele>
        <time>2021-01-21T09:45:43.000Z</time>
      </trkpt>
      <trkpt lat="47.27738" lon="-2.48229">
        <ele>139.39999389648</ele>
        <time>2021-01-21T09:45:44.000Z</time>
      </trkpt>
      <trkpt lat="47.27743" lon="-2.48236">
        <ele>139</ele>
        <time>2021-01-21T09:45:45.000Z</time>
      </trkpt>
      <trkpt lat="47.27747" lon="-2.48242">
        <ele>138.60000610352</ele>
        <time>2021-01-21T09:45:46.000Z</time>
      </trkpt>
      <trkpt lat="47.2775" lon="-2.48248">
        <ele>138.19999694824</ele>
        <time>2021-01-21T09:45:47.000Z</time>
      </trkpt>
      <trkpt lat="47.27752" lon="-2.48252">
        <ele>137.80000305176</ele>
        <time>2021-01-21T09:45:48.000Z</time>
      </trkpt>
      <trkpt lat="47.27753" lon="-2.48256">
        <ele>137.19999694824</ele>
        <time>2021-01-21T09:45:49.000Z</time>
      </trkpt>
      <trkpt lat="47.27754" lon="-2.4826">
        <ele>136.60000610352</ele>
        <time>2021-01-21T09:45:50.000Z</time>
      </trkpt>
      <trkpt lat="47.27753" lon="-2.48264">
        <ele>136.19999694824</ele>
        <time>2021-01-21T09:45:51.000Z</time>
      </trkpt>
      <trkpt lat="47.27752" lon="-2.48266">
        <ele>135.60000610352</ele>
        <time>2021-01-21T09:45:52.000Z</time>
      </trkpt>
      <trkpt lat="47.2775" lon="-2.48266">
        <ele>135.19999694824</ele>
        <time>2021-01-21T09:45:53.000Z</time>
      </trkpt>
      <trkpt lat="47.27746" lon="-2.48266">
        <ele>135.19999694824</ele>
        <time>2021-01-21T09:45:55.000Z</time>
      </trkpt>
      <trkpt lat="47.27738" lon="-2.48274">
        <ele>135.19999694824</ele>
        <time>2021-01-21T09:45:59.000Z</time>
      </trkpt>
      <trkpt lat="47.27732" lon="-2.48273">
        <ele>135.19999694824</ele>
        <time>2021-01-21T09:46:02.000Z</time>
      </trkpt>
      <trkpt lat="47.2773" lon="-2.48271">
        <ele>135.19999694824</ele>
        <time>2021-01-21T09:46:03.000Z</time>
      </trkpt>
      <trkpt lat="47.27718" lon="-2.48267">
        <ele>135.19999694824</ele>
        <time>2021-01-21T09:46:07.000Z</time>
      </trkpt>
      <trkpt lat="47.27713" lon="-2.48274">
        <ele>135.19999694824</ele>
        <time>2021-01-21T09:46:12.000Z</time>
      </trkpt>
      <trkpt lat="47.27716" lon="-2.48289">
        <ele>135.19999694824</ele>
        <time>2021-01-21T09:46:18.000Z</time>
      </trkpt>
      <trkpt lat="47.27713" lon="-2.48294">
        <ele>135.19999694824</ele>
        <time>2021-01-21T09:46:21.000Z</time>
      </trkpt>
      <trkpt lat="47.27712" lon="-2.48294">
        <ele>135.19999694824</ele>
        <time>2021-01-21T09:46:23.000Z</time>
      </trkpt>
      <trkpt lat="47.27707" lon="-2.48292">
        <ele>135.19999694824</ele>
        <time>2021-01-21T09:46:25.000Z</time>
      </trkpt>
      <trkpt lat="47.27701" lon="-2.48289">
        <ele>135.19999694824</ele>
        <time>2021-01-21T09:46:28.000Z</time>
      </trkpt>
      <trkpt lat="47.27698" lon="-2.48291">
        <ele>135.19999694824</ele>
        <time>2021-01-21T09:46:30.000Z</time>
      </trkpt>
      <trkpt lat="47.27695" lon="-2.48295">
        <ele>135.19999694824</ele>
        <time>2021-01-21T09:46:34.000Z</time>
      </trkpt>
      <trkpt lat="47.27695" lon="-2.48297">
        <ele>135.19999694824</ele>
        <time>2021-01-21T09:46:36.000Z</time>
      </trkpt>
      <trkpt lat="47.27697" lon="-2.48303">
        <ele>135.19999694824</ele>
        <time>2021-01-21T09:47:02.000Z</time>
      </trkpt>
      <trkpt lat="47.27699" lon="-2.48307">
        <ele>135.19999694824</ele>
        <time>2021-01-21T09:47:04.000Z</time>
      </trkpt>
      <trkpt lat="47.27713" lon="-2.48334">
        <ele>135.19999694824</ele>
        <time>2021-01-21T09:47:11.000Z</time>
      </trkpt>
      <trkpt lat="47.27715" lon="-2.48358">
        <ele>135.19999694824</ele>
        <time>2021-01-21T09:47:15.000Z</time>
      </trkpt>
      <trkpt lat="47.27714" lon="-2.48362">
        <ele>135.19999694824</ele>
        <time>2021-01-21T09:47:16.000Z</time>
      </trkpt>
      <trkpt lat="47.27705" lon="-2.48388">
        <ele>135.19999694824</ele>
        <time>2021-01-21T09:47:21.000Z</time>
      </trkpt>
      <trkpt lat="47.27693" lon="-2.4841">
        <ele>135.19999694824</ele>
        <time>2021-01-21T09:47:25.000Z</time>
      </trkpt>
      <trkpt lat="47.27671" lon="-2.48446">
        <ele>135.19999694824</ele>
        <time>2021-01-21T09:47:32.000Z</time>
      </trkpt>
      <trkpt lat="47.27658" lon="-2.48474">
        <ele>135.19999694824</ele>
        <time>2021-01-21T09:47:37.000Z</time>
      </trkpt>
      <trkpt lat="47.27653" lon="-2.48484">
        <ele>135.19999694824</ele>
        <time>2021-01-21T09:47:39.000Z</time>
      </trkpt>
      <trkpt lat="47.27644" lon="-2.48503">
        <ele>135.19999694824</ele>
        <time>2021-01-21T09:47:44.000Z</time>
      </trkpt>
      <trkpt lat="47.27635" lon="-2.48523">
        <ele>135.19999694824</ele>
        <time>2021-01-21T09:47:50.000Z</time>
      </trkpt>
      <trkpt lat="47.2763" lon="-2.48536">
        <ele>134.80000305176</ele>
        <time>2021-01-21T09:47:53.000Z</time>
      </trkpt>
      <trkpt lat="47.27628" lon="-2.48541">
        <ele>134.39999389648</ele>
        <time>2021-01-21T09:47:54.000Z</time>
      </trkpt>
      <trkpt lat="47.27625" lon="-2.48546">
        <ele>134</ele>
        <time>2021-01-21T09:47:55.000Z</time>
      </trkpt>
      <trkpt lat="47.27623" lon="-2.48551">
        <ele>133.60000610352</ele>
        <time>2021-01-21T09:47:56.000Z</time>
      </trkpt>
      <trkpt lat="47.27621" lon="-2.48556">
        <ele>133.19999694824</ele>
        <time>2021-01-21T09:47:57.000Z</time>
      </trkpt>
      <trkpt lat="47.27604" lon="-2.48596">
        <ele>133.19999694824</ele>
        <time>2021-01-21T09:48:06.000Z</time>
      </trkpt>
      <trkpt lat="47.27597" lon="-2.48611">
        <ele>133.19999694824</ele>
        <time>2021-01-21T09:48:12.000Z</time>
      </trkpt>
      <trkpt lat="47.27594" lon="-2.48616">
        <ele>133.19999694824</ele>
        <time>2021-01-21T09:48:17.000Z</time>
      </trkpt>
      <trkpt lat="47.27593" lon="-2.48619">
        <ele>133.19999694824</ele>
        <time>2021-01-21T09:48:20.000Z</time>
      </trkpt>
      <trkpt lat="47.27584" lon="-2.4864">
        <ele>133.19999694824</ele>
        <time>2021-01-21T09:48:24.000Z</time>
      </trkpt>
      <trkpt lat="47.2757" lon="-2.48674">
        <ele>133.60000610352</ele>
        <time>2021-01-21T09:48:29.000Z</time>
      </trkpt>
      <trkpt lat="47.27566" lon="-2.48681">
        <ele>134</ele>
        <time>2021-01-21T09:48:30.000Z</time>
      </trkpt>
      <trkpt lat="47.27562" lon="-2.48686">
        <ele>134.39999389648</ele>
        <time>2021-01-21T09:48:31.000Z</time>
      </trkpt>
      <trkpt lat="47.27557" lon="-2.4869">
        <ele>135</ele>
        <time>2021-01-21T09:48:32.000Z</time>
      </trkpt>
      <trkpt lat="47.27552" lon="-2.48692">
        <ele>135.39999389648</ele>
        <time>2021-01-21T09:48:33.000Z</time>
      </trkpt>
      <trkpt lat="47.27548" lon="-2.48693">
        <ele>135.80000305176</ele>
        <time>2021-01-21T09:48:34.000Z</time>
      </trkpt>
      <trkpt lat="47.27543" lon="-2.48694">
        <ele>136.19999694824</ele>
        <time>2021-01-21T09:48:35.000Z</time>
      </trkpt>
      <trkpt lat="47.27539" lon="-2.48694">
        <ele>136.80000305176</ele>
        <time>2021-01-21T09:48:36.000Z</time>
      </trkpt>
      <trkpt lat="47.27535" lon="-2.48693">
        <ele>137.19999694824</ele>
        <time>2021-01-21T09:48:37.000Z</time>
      </trkpt>
      <trkpt lat="47.2753" lon="-2.48693">
        <ele>137.60000610352</ele>
        <time>2021-01-21T09:48:38.000Z</time>
      </trkpt>
      <trkpt lat="47.27503" lon="-2.48689">
        <ele>137.60000610352</ele>
        <time>2021-01-21T09:48:44.000Z</time>
      </trkpt>
      <trkpt lat="47.27489" lon="-2.48682">
        <ele>137</ele>
        <time>2021-01-21T09:48:48.000Z</time>
      </trkpt>
      <trkpt lat="47.27487" lon="-2.48678">
        <ele>136.39999389648</ele>
        <time>2021-01-21T09:48:49.000Z</time>
      </trkpt>
      <trkpt lat="47.27485" lon="-2.48674">
        <ele>135.80000305176</ele>
        <time>2021-01-21T09:48:50.000Z</time>
      </trkpt>
      <trkpt lat="47.27483" lon="-2.48669">
        <ele>135.19999694824</ele>
        <time>2021-01-21T09:48:51.000Z</time>
      </trkpt>
      <trkpt lat="47.27481" lon="-2.48664">
        <ele>134.80000305176</ele>
        <time>2021-01-21T09:48:52.000Z</time>
      </trkpt>
      <trkpt lat="47.27474" lon="-2.4865">
        <ele>134.80000305176</ele>
        <time>2021-01-21T09:48:55.000Z</time>
      </trkpt>
      <trkpt lat="47.27471" lon="-2.48635">
        <ele>134.80000305176</ele>
        <time>2021-01-21T09:48:59.000Z</time>
      </trkpt>
      <trkpt lat="47.2747" lon="-2.48633">
        <ele>134.80000305176</ele>
        <time>2021-01-21T09:49:00.000Z</time>
      </trkpt>
      <trkpt lat="47.27466" lon="-2.4863">
        <ele>134.80000305176</ele>
        <time>2021-01-21T09:49:03.000Z</time>
      </trkpt>
      <trkpt lat="47.2746" lon="-2.48618">
        <ele>134.80000305176</ele>
        <time>2021-01-21T09:49:08.000Z</time>
      </trkpt>
      <trkpt lat="47.27458" lon="-2.48604">
        <ele>134.80000305176</ele>
        <time>2021-01-21T09:49:13.000Z</time>
      </trkpt>
      <trkpt lat="47.27458" lon="-2.48603">
        <ele>134.80000305176</ele>
        <time>2021-01-21T09:49:14.000Z</time>
      </trkpt>
      <trkpt lat="47.27461" lon="-2.48594">
        <ele>132.60000610352</ele>
        <time>2021-01-21T09:58:36.000Z</time>
      </trkpt>
      <trkpt lat="47.27461" lon="-2.48589">
        <ele>132.60000610352</ele>
        <time>2021-01-21T09:58:38.000Z</time>
      </trkpt>
      <trkpt lat="47.2746" lon="-2.48574">
        <ele>132.60000610352</ele>
        <time>2021-01-21T09:58:42.000Z</time>
      </trkpt>
      <trkpt lat="47.2746" lon="-2.4857">
        <ele>132.60000610352</ele>
        <time>2021-01-21T09:58:43.000Z</time>
      </trkpt>
      <trkpt lat="47.27466" lon="-2.48555">
        <ele>132.60000610352</ele>
        <time>2021-01-21T09:58:48.000Z</time>
      </trkpt>
      <trkpt lat="47.27469" lon="-2.48536">
        <ele>132.60000610352</ele>
        <time>2021-01-21T09:58:54.000Z</time>
      </trkpt>
      <trkpt lat="47.2747" lon="-2.48505">
        <ele>132.60000610352</ele>
        <time>2021-01-21T09:59:01.000Z</time>
      </trkpt>
      <trkpt lat="47.27466" lon="-2.4848">
        <ele>132.60000610352</ele>
        <time>2021-01-21T09:59:07.000Z</time>
      </trkpt>
      <trkpt lat="47.27465" lon="-2.48472">
        <ele>133.19999694824</ele>
        <time>2021-01-21T09:59:09.000Z</time>
      </trkpt>
      <trkpt lat="47.27464" lon="-2.48469">
        <ele>133.80000305176</ele>
        <time>2021-01-21T09:59:10.000Z</time>
      </trkpt>
      <trkpt lat="47.27464" lon="-2.48465">
        <ele>134.19999694824</ele>
        <time>2021-01-21T09:59:11.000Z</time>
      </trkpt>
      <trkpt lat="47.27463" lon="-2.48461">
        <ele>134.80000305176</ele>
        <time>2021-01-21T09:59:12.000Z</time>
      </trkpt>
      <trkpt lat="47.27463" lon="-2.48457">
        <ele>134.39999389648</ele>
        <time>2021-01-21T09:59:13.000Z</time>
      </trkpt>
      <trkpt lat="47.27461" lon="-2.48454">
        <ele>134</ele>
        <time>2021-01-21T09:59:14.000Z</time>
      </trkpt>
      <trkpt lat="47.2746" lon="-2.48449">
        <ele>133.19999694824</ele>
        <time>2021-01-21T09:59:15.000Z</time>
      </trkpt>
      <trkpt lat="47.27459" lon="-2.48445">
        <ele>132.60000610352</ele>
        <time>2021-01-21T09:59:16.000Z</time>
      </trkpt>
      <trkpt lat="47.27459" lon="-2.48439">
        <ele>131.80000305176</ele>
        <time>2021-01-21T09:59:17.000Z</time>
      </trkpt>
      <trkpt lat="47.27458" lon="-2.48434">
        <ele>131.19999694824</ele>
        <time>2021-01-21T09:59:18.000Z</time>
      </trkpt>
      <trkpt lat="47.27457" lon="-2.48428">
        <ele>130.39999389648</ele>
        <time>2021-01-21T09:59:19.000Z</time>
      </trkpt>
      <trkpt lat="47.27448" lon="-2.48393">
        <ele>130.39999389648</ele>
        <time>2021-01-21T09:59:26.000Z</time>
      </trkpt>
      <trkpt lat="47.27437" lon="-2.48355">
        <ele>130.39999389648</ele>
        <time>2021-01-21T09:59:34.000Z</time>
      </trkpt>
      <trkpt lat="47.27436" lon="-2.4835">
        <ele>131</ele>
        <time>2021-01-21T09:59:35.000Z</time>
      </trkpt>
      <trkpt lat="47.27435" lon="-2.48344">
        <ele>131.39999389648</ele>
        <time>2021-01-21T09:59:36.000Z</time>
      </trkpt>
      <trkpt lat="47.27434" lon="-2.48339">
        <ele>131.80000305176</ele>
        <time>2021-01-21T09:59:37.000Z</time>
      </trkpt>
      <trkpt lat="47.27433" lon="-2.48333">
        <ele>132.39999389648</ele>
        <time>2021-01-21T09:59:38.000Z</time>
      </trkpt>
      <trkpt lat="47.27432" lon="-2.48327">
        <ele>132.80000305176</ele>
        <time>2021-01-21T09:59:39.000Z</time>
      </trkpt>
      <trkpt lat="47.2743" lon="-2.48322">
        <ele>132.80000305176</ele>
        <time>2021-01-21T09:59:40.000Z</time>
      </trkpt>
      <trkpt lat="47.27426" lon="-2.48303">
        <ele>132.80000305176</ele>
        <time>2021-01-21T09:59:43.000Z</time>
      </trkpt>
      <trkpt lat="47.27425" lon="-2.48284">
        <ele>132.80000305176</ele>
        <time>2021-01-21T09:59:46.000Z</time>
      </trkpt>
      <trkpt lat="47.27421" lon="-2.48241">
        <ele>132.80000305176</ele>
        <time>2021-01-21T09:59:54.000Z</time>
      </trkpt>
      <trkpt lat="47.2742" lon="-2.48236">
        <ele>133.19999694824</ele>
        <time>2021-01-21T09:59:55.000Z</time>
      </trkpt>
      <trkpt lat="47.27419" lon="-2.48232">
        <ele>134</ele>
        <time>2021-01-21T09:59:56.000Z</time>
      </trkpt>
      <trkpt lat="47.27418" lon="-2.48227">
        <ele>134.39999389648</ele>
        <time>2021-01-21T09:59:57.000Z</time>
      </trkpt>
      <trkpt lat="47.27417" lon="-2.48223">
        <ele>134.80000305176</ele>
        <time>2021-01-21T09:59:58.000Z</time>
      </trkpt>
      <trkpt lat="47.27415" lon="-2.48212">
        <ele>135.39999389648</ele>
        <time>2021-01-21T10:00:01.000Z</time>
      </trkpt>
      <trkpt lat="47.27414" lon="-2.48208">
        <ele>135.80000305176</ele>
        <time>2021-01-21T10:00:02.000Z</time>
      </trkpt>
      <trkpt lat="47.27413" lon="-2.48205">
        <ele>136.19999694824</ele>
        <time>2021-01-21T10:00:03.000Z</time>
      </trkpt>
      <trkpt lat="47.27412" lon="-2.48201">
        <ele>136.60000610352</ele>
        <time>2021-01-21T10:00:04.000Z</time>
      </trkpt>
      <trkpt lat="47.27411" lon="-2.48197">
        <ele>136.19999694824</ele>
        <time>2021-01-21T10:00:05.000Z</time>
      </trkpt>
      <trkpt lat="47.2741" lon="-2.48193">
        <ele>135.80000305176</ele>
        <time>2021-01-21T10:00:06.000Z</time>
      </trkpt>
      <trkpt lat="47.2741" lon="-2.48189">
        <ele>135.39999389648</ele>
        <time>2021-01-21T10:00:07.000Z</time>
      </trkpt>
      <trkpt lat="47.2741" lon="-2.48184">
        <ele>135</ele>
        <time>2021-01-21T10:00:08.000Z</time>
      </trkpt>
      <trkpt lat="47.27409" lon="-2.48179">
        <ele>134.60000610352</ele>
        <time>2021-01-21T10:00:09.000Z</time>
      </trkpt>
      <trkpt lat="47.2741" lon="-2.48139">
        <ele>134.60000610352</ele>
        <time>2021-01-21T10:00:18.000Z</time>
      </trkpt>
      <trkpt lat="47.27418" lon="-2.4813">
        <ele>134.60000610352</ele>
        <time>2021-01-21T10:00:22.000Z</time>
      </trkpt>
      <trkpt lat="47.27433" lon="-2.48128">
        <ele>134.60000610352</ele>
        <time>2021-01-21T10:00:27.000Z</time>
      </trkpt>
      <trkpt lat="47.27453" lon="-2.48125">
        <ele>134.60000610352</ele>
        <time>2021-01-21T10:00:34.000Z</time>
      </trkpt>
      <trkpt lat="47.27456" lon="-2.48125">
        <ele>135</ele>
        <time>2021-01-21T10:00:35.000Z</time>
      </trkpt>
      <trkpt lat="47.27459" lon="-2.48125">
        <ele>135.39999389648</ele>
        <time>2021-01-21T10:00:36.000Z</time>
      </trkpt>
      <trkpt lat="47.27462" lon="-2.48124">
        <ele>135.80000305176</ele>
        <time>2021-01-21T10:00:37.000Z</time>
      </trkpt>
      <trkpt lat="47.27465" lon="-2.48124">
        <ele>136.19999694824</ele>
        <time>2021-01-21T10:00:38.000Z</time>
      </trkpt>
      <trkpt lat="47.27468" lon="-2.48123">
        <ele>136.60000610352</ele>
        <time>2021-01-21T10:00:39.000Z</time>
      </trkpt>
      <trkpt lat="47.27473" lon="-2.48122">
        <ele>136.60000610352</ele>
        <time>2021-01-21T10:00:41.000Z</time>
      </trkpt>
      <trkpt lat="47.27492" lon="-2.48113">
        <ele>136.60000610352</ele>
        <time>2021-01-21T10:00:48.000Z</time>
      </trkpt>
      <trkpt lat="47.27493" lon="-2.48109">
        <ele>137</ele>
        <time>2021-01-21T10:00:49.000Z</time>
      </trkpt>
      <trkpt lat="47.27494" lon="-2.48106">
        <ele>137.39999389648</ele>
        <time>2021-01-21T10:00:50.000Z</time>
      </trkpt>
      <trkpt lat="47.27493" lon="-2.48103">
        <ele>137.80000305176</ele>
        <time>2021-01-21T10:00:51.000Z</time>
      </trkpt>
      <trkpt lat="47.27491" lon="-2.481">
        <ele>138.19999694824</ele>
        <time>2021-01-21T10:00:52.000Z</time>
      </trkpt>
      <trkpt lat="47.27489" lon="-2.48096">
        <ele>138.60000610352</ele>
        <time>2021-01-21T10:00:53.000Z</time>
      </trkpt>
      <trkpt lat="47.27477" lon="-2.48076">
        <ele>138.60000610352</ele>
        <time>2021-01-21T10:00:59.000Z</time>
      </trkpt>
      <trkpt lat="47.27463" lon="-2.48044">
        <ele>138.60000610352</ele>
        <time>2021-01-21T10:01:05.000Z</time>
      </trkpt>
      <trkpt lat="47.27443" lon="-2.48002">
        <ele>138.60000610352</ele>
        <time>2021-01-21T10:01:11.000Z</time>
      </trkpt>
      <trkpt lat="47.2742" lon="-2.47967">
        <ele>138.19999694824</ele>
        <time>2021-01-21T10:01:16.000Z</time>
      </trkpt>
      <trkpt lat="47.27416" lon="-2.4796">
        <ele>137.80000305176</ele>
        <time>2021-01-21T10:01:17.000Z</time>
      </trkpt>
      <trkpt lat="47.27411" lon="-2.47955">
        <ele>137.19999694824</ele>
        <time>2021-01-21T10:01:18.000Z</time>
      </trkpt>
      <trkpt lat="47.27406" lon="-2.47949">
        <ele>136.80000305176</ele>
        <time>2021-01-21T10:01:19.000Z</time>
      </trkpt>
      <trkpt lat="47.27401" lon="-2.47944">
        <ele>136.39999389648</ele>
        <time>2021-01-21T10:01:20.000Z</time>
      </trkpt>
      <trkpt lat="47.27376" lon="-2.47922">
        <ele>136.39999389648</ele>
        <time>2021-01-21T10:01:25.000Z</time>
      </trkpt>
      <trkpt lat="47.2736" lon="-2.4791">
        <ele>135.80000305176</ele>
        <time>2021-01-21T10:01:28.000Z</time>
      </trkpt>
      <trkpt lat="47.27355" lon="-2.47906">
        <ele>135.39999389648</ele>
        <time>2021-01-21T10:01:29.000Z</time>
      </trkpt>
      <trkpt lat="47.2735" lon="-2.47902">
        <ele>135</ele>
        <time>2021-01-21T10:01:30.000Z</time>
      </trkpt>
      <trkpt lat="47.27345" lon="-2.47898">
        <ele>134.60000610352</ele>
        <time>2021-01-21T10:01:31.000Z</time>
      </trkpt>
      <trkpt lat="47.2734" lon="-2.47893">
        <ele>134.19999694824</ele>
        <time>2021-01-21T10:01:32.000Z</time>
      </trkpt>
      <trkpt lat="47.27296" lon="-2.47858">
        <ele>134.19999694824</ele>
        <time>2021-01-21T10:01:41.000Z</time>
      </trkpt>
      <trkpt lat="47.27266" lon="-2.47825">
        <ele>134.19999694824</ele>
        <time>2021-01-21T10:01:48.000Z</time>
      </trkpt>
      <trkpt lat="47.27258" lon="-2.47815">
        <ele>134.60000610352</ele>
        <time>2021-01-21T10:01:50.000Z</time>
      </trkpt>
      <trkpt lat="47.27254" lon="-2.47809">
        <ele>135</ele>
        <time>2021-01-21T10:01:51.000Z</time>
      </trkpt>
      <trkpt lat="47.2725" lon="-2.47803">
        <ele>135.39999389648</ele>
        <time>2021-01-21T10:01:52.000Z</time>
      </trkpt>
      <trkpt lat="47.27247" lon="-2.47797">
        <ele>135.80000305176</ele>
        <time>2021-01-21T10:01:53.000Z</time>
      </trkpt>
      <trkpt lat="47.27244" lon="-2.47791">
        <ele>136.19999694824</ele>
        <time>2021-01-21T10:01:54.000Z</time>
      </trkpt>
      <trkpt lat="47.27237" lon="-2.47779">
        <ele>135.80000305176</ele>
        <time>2021-01-21T10:01:56.000Z</time>
      </trkpt>
      <trkpt lat="47.27234" lon="-2.47773">
        <ele>135.19999694824</ele>
        <time>2021-01-21T10:01:57.000Z</time>
      </trkpt>
      <trkpt lat="47.27231" lon="-2.47767">
        <ele>134.80000305176</ele>
        <time>2021-01-21T10:01:58.000Z</time>
      </trkpt>
      <trkpt lat="47.27228" lon="-2.47761">
        <ele>134.39999389648</ele>
        <time>2021-01-21T10:01:59.000Z</time>
      </trkpt>
      <trkpt lat="47.27226" lon="-2.47755">
        <ele>134</ele>
        <time>2021-01-21T10:02:00.000Z</time>
      </trkpt>
      <trkpt lat="47.27216" lon="-2.47728">
        <ele>134</ele>
        <time>2021-01-21T10:02:04.000Z</time>
      </trkpt>
      <trkpt lat="47.27212" lon="-2.47713">
        <ele>134.39999389648</ele>
        <time>2021-01-21T10:02:06.000Z</time>
      </trkpt>
      <trkpt lat="47.2721" lon="-2.47706">
        <ele>134.80000305176</ele>
        <time>2021-01-21T10:02:07.000Z</time>
      </trkpt>
      <trkpt lat="47.27209" lon="-2.47698">
        <ele>135.19999694824</ele>
        <time>2021-01-21T10:02:08.000Z</time>
      </trkpt>
      <trkpt lat="47.27208" lon="-2.4769">
        <ele>135.60000610352</ele>
        <time>2021-01-21T10:02:09.000Z</time>
      </trkpt>
      <trkpt lat="47.27207" lon="-2.47682">
        <ele>136</ele>
        <time>2021-01-21T10:02:10.000Z</time>
      </trkpt>
      <trkpt lat="47.27205" lon="-2.47675">
        <ele>136</ele>
        <time>2021-01-21T10:02:11.000Z</time>
      </trkpt>
      <trkpt lat="47.27203" lon="-2.47644">
        <ele>136</ele>
        <time>2021-01-21T10:02:15.000Z</time>
      </trkpt>
      <trkpt lat="47.27202" lon="-2.47628">
        <ele>136</ele>
        <time>2021-01-21T10:02:17.000Z</time>
      </trkpt>
      <trkpt lat="47.27196" lon="-2.47565">
        <ele>136</ele>
        <time>2021-01-21T10:02:25.000Z</time>
      </trkpt>
      <trkpt lat="47.27188" lon="-2.47502">
        <ele>136</ele>
        <time>2021-01-21T10:02:33.000Z</time>
      </trkpt>
      <trkpt lat="47.27177" lon="-2.47462">
        <ele>136</ele>
        <time>2021-01-21T10:02:39.000Z</time>
      </trkpt>
      <trkpt lat="47.27174" lon="-2.47455">
        <ele>136</ele>
        <time>2021-01-21T10:02:40.000Z</time>
      </trkpt>
      <trkpt lat="47.27156" lon="-2.47412">
        <ele>136.39999389648</ele>
        <time>2021-01-21T10:02:46.000Z</time>
      </trkpt>
      <trkpt lat="47.27153" lon="-2.47405">
        <ele>136.80000305176</ele>
        <time>2021-01-21T10:02:47.000Z</time>
      </trkpt>
      <trkpt lat="47.27151" lon="-2.47398">
        <ele>137.19999694824</ele>
        <time>2021-01-21T10:02:48.000Z</time>
      </trkpt>
      <trkpt lat="47.27148" lon="-2.47391">
        <ele>138.19999694824</ele>
        <time>2021-01-21T10:02:49.000Z</time>
      </trkpt>
      <trkpt lat="47.27132" lon="-2.47335">
        <ele>138.19999694824</ele>
        <time>2021-01-21T10:02:57.000Z</time>
      </trkpt>
      <trkpt lat="47.27126" lon="-2.47266">
        <ele>138.60000610352</ele>
        <time>2021-01-21T10:03:06.000Z</time>
      </trkpt>
      <trkpt lat="47.27126" lon="-2.47258">
        <ele>139</ele>
        <time>2021-01-21T10:03:07.000Z</time>
      </trkpt>
      <trkpt lat="47.27125" lon="-2.47251">
        <ele>139.39999389648</ele>
        <time>2021-01-21T10:03:08.000Z</time>
      </trkpt>
      <trkpt lat="47.27125" lon="-2.47242">
        <ele>139.80000305176</ele>
        <time>2021-01-21T10:03:09.000Z</time>
      </trkpt>
      <trkpt lat="47.27124" lon="-2.47233">
        <ele>140.19999694824</ele>
        <time>2021-01-21T10:03:10.000Z</time>
      </trkpt>
      <trkpt lat="47.27122" lon="-2.47207">
        <ele>140.19999694824</ele>
        <time>2021-01-21T10:03:13.000Z</time>
      </trkpt>
      <trkpt lat="47.2712" lon="-2.4718">
        <ele>140.19999694824</ele>
        <time>2021-01-21T10:03:16.000Z</time>
      </trkpt>
      <trkpt lat="47.27117" lon="-2.47153">
        <ele>140.19999694824</ele>
        <time>2021-01-21T10:03:19.000Z</time>
      </trkpt>
      <trkpt lat="47.2711" lon="-2.47068">
        <ele>140.19999694824</ele>
        <time>2021-01-21T10:03:29.000Z</time>
      </trkpt>
      <trkpt lat="47.27107" lon="-2.46991">
        <ele>140.19999694824</ele>
        <time>2021-01-21T10:03:38.000Z</time>
      </trkpt>
      <trkpt lat="47.27111" lon="-2.46934">
        <ele>140.19999694824</ele>
        <time>2021-01-21T10:03:45.000Z</time>
      </trkpt>
      <trkpt lat="47.27117" lon="-2.46876">
        <ele>140.19999694824</ele>
        <time>2021-01-21T10:03:52.000Z</time>
      </trkpt>
      <trkpt lat="47.27123" lon="-2.46795">
        <ele>140.19999694824</ele>
        <time>2021-01-21T10:04:01.000Z</time>
      </trkpt>
      <trkpt lat="47.27122" lon="-2.46719">
        <ele>140.19999694824</ele>
        <time>2021-01-21T10:04:09.000Z</time>
      </trkpt>
      <trkpt lat="47.2712" lon="-2.46667">
        <ele>139.80000305176</ele>
        <time>2021-01-21T10:04:15.000Z</time>
      </trkpt>
      <trkpt lat="47.27119" lon="-2.46658">
        <ele>139.39999389648</ele>
        <time>2021-01-21T10:04:16.000Z</time>
      </trkpt>
      <trkpt lat="47.27119" lon="-2.46649">
        <ele>139</ele>
        <time>2021-01-21T10:04:17.000Z</time>
      </trkpt>
      <trkpt lat="47.27119" lon="-2.46639">
        <ele>138.60000610352</ele>
        <time>2021-01-21T10:04:18.000Z</time>
      </trkpt>
      <trkpt lat="47.27118" lon="-2.46629">
        <ele>138.19999694824</ele>
        <time>2021-01-21T10:04:19.000Z</time>
      </trkpt>
      <trkpt lat="47.27117" lon="-2.46587">
        <ele>138.19999694824</ele>
        <time>2021-01-21T10:04:23.000Z</time>
      </trkpt>
      <trkpt lat="47.27116" lon="-2.46554">
        <ele>137.80000305176</ele>
        <time>2021-01-21T10:04:26.000Z</time>
      </trkpt>
      <trkpt lat="47.27115" lon="-2.46543">
        <ele>137.39999389648</ele>
        <time>2021-01-21T10:04:27.000Z</time>
      </trkpt>
      <trkpt lat="47.27115" lon="-2.46532">
        <ele>137</ele>
        <time>2021-01-21T10:04:28.000Z</time>
      </trkpt>
      <trkpt lat="47.27115" lon="-2.46521">
        <ele>136.19999694824</ele>
        <time>2021-01-21T10:04:29.000Z</time>
      </trkpt>
      <trkpt lat="47.27114" lon="-2.4651">
        <ele>136.19999694824</ele>
        <time>2021-01-21T10:04:30.000Z</time>
      </trkpt>
      <trkpt lat="47.27113" lon="-2.46499">
        <ele>135.80000305176</ele>
        <time>2021-01-21T10:04:31.000Z</time>
      </trkpt>
      <trkpt lat="47.27112" lon="-2.46488">
        <ele>135.39999389648</ele>
        <time>2021-01-21T10:04:32.000Z</time>
      </trkpt>
      <trkpt lat="47.27111" lon="-2.46477">
        <ele>135</ele>
        <time>2021-01-21T10:04:33.000Z</time>
      </trkpt>
      <trkpt lat="47.2711" lon="-2.46466">
        <ele>134.60000610352</ele>
        <time>2021-01-21T10:04:34.000Z</time>
      </trkpt>
      <trkpt lat="47.27109" lon="-2.46456">
        <ele>134.19999694824</ele>
        <time>2021-01-21T10:04:35.000Z</time>
      </trkpt>
      <trkpt lat="47.27105" lon="-2.46425">
        <ele>134.19999694824</ele>
        <time>2021-01-21T10:04:38.000Z</time>
      </trkpt>
      <trkpt lat="47.27092" lon="-2.4637">
        <ele>134.19999694824</ele>
        <time>2021-01-21T10:04:44.000Z</time>
      </trkpt>
      <trkpt lat="47.27072" lon="-2.46298">
        <ele>134.19999694824</ele>
        <time>2021-01-21T10:04:52.000Z</time>
      </trkpt>
      <trkpt lat="47.27054" lon="-2.46238">
        <ele>134.19999694824</ele>
        <time>2021-01-21T10:04:59.000Z</time>
      </trkpt>
      <trkpt lat="47.27038" lon="-2.46179">
        <ele>134.19999694824</ele>
        <time>2021-01-21T10:05:06.000Z</time>
      </trkpt>
      <trkpt lat="47.27023" lon="-2.46123">
        <ele>134.60000610352</ele>
        <time>2021-01-21T10:05:13.000Z</time>
      </trkpt>
      <trkpt lat="47.27021" lon="-2.46116">
        <ele>135</ele>
        <time>2021-01-21T10:05:14.000Z</time>
      </trkpt>
      <trkpt lat="47.27019" lon="-2.46109">
        <ele>135.39999389648</ele>
        <time>2021-01-21T10:05:15.000Z</time>
      </trkpt>
      <trkpt lat="47.27018" lon="-2.46101">
        <ele>135.80000305176</ele>
        <time>2021-01-21T10:05:16.000Z</time>
      </trkpt>
      <trkpt lat="47.27016" lon="-2.46094">
        <ele>136.19999694824</ele>
        <time>2021-01-21T10:05:17.000Z</time>
      </trkpt>
      <trkpt lat="47.27007" lon="-2.46056">
        <ele>136.19999694824</ele>
        <time>2021-01-21T10:05:22.000Z</time>
      </trkpt>
      <trkpt lat="47.26996" lon="-2.46004">
        <ele>136.60000610352</ele>
        <time>2021-01-21T10:05:29.000Z</time>
      </trkpt>
      <trkpt lat="47.26994" lon="-2.45997">
        <ele>137</ele>
        <time>2021-01-21T10:05:30.000Z</time>
      </trkpt>
      <trkpt lat="47.26993" lon="-2.45989">
        <ele>137.60000610352</ele>
        <time>2021-01-21T10:05:31.000Z</time>
      </trkpt>
      <trkpt lat="47.26991" lon="-2.45982">
        <ele>138</ele>
        <time>2021-01-21T10:05:32.000Z</time>
      </trkpt>
      <trkpt lat="47.2699" lon="-2.45974">
        <ele>138.39999389648</ele>
        <time>2021-01-21T10:05:33.000Z</time>
      </trkpt>
      <trkpt lat="47.26979" lon="-2.45914">
        <ele>138.39999389648</ele>
        <time>2021-01-21T10:05:41.000Z</time>
      </trkpt>
      <trkpt lat="47.26977" lon="-2.45906">
        <ele>137.60000610352</ele>
        <time>2021-01-21T10:05:42.000Z</time>
      </trkpt>
      <trkpt lat="47.26976" lon="-2.45898">
        <ele>137.19999694824</ele>
        <time>2021-01-21T10:05:43.000Z</time>
      </trkpt>
      <trkpt lat="47.26974" lon="-2.45891">
        <ele>136.80000305176</ele>
        <time>2021-01-21T10:05:44.000Z</time>
      </trkpt>
      <trkpt lat="47.26973" lon="-2.45883">
        <ele>136.39999389648</ele>
        <time>2021-01-21T10:05:45.000Z</time>
      </trkpt>
      <trkpt lat="47.2697" lon="-2.4585">
        <ele>136.39999389648</ele>
        <time>2021-01-21T10:05:49.000Z</time>
      </trkpt>
      <trkpt lat="47.26968" lon="-2.45777">
        <ele>136.39999389648</ele>
        <time>2021-01-21T10:05:57.000Z</time>
      </trkpt>
      <trkpt lat="47.26966" lon="-2.45749">
        <ele>136.39999389648</ele>
        <time>2021-01-21T10:06:00.000Z</time>
      </trkpt>
      <trkpt lat="47.26963" lon="-2.45711">
        <ele>136.39999389648</ele>
        <time>2021-01-21T10:06:04.000Z</time>
      </trkpt>
      <trkpt lat="47.2696" lon="-2.45673">
        <ele>136.39999389648</ele>
        <time>2021-01-21T10:06:08.000Z</time>
      </trkpt>
      <trkpt lat="47.26956" lon="-2.45657">
        <ele>136.39999389648</ele>
        <time>2021-01-21T10:06:10.000Z</time>
      </trkpt>
      <trkpt lat="47.2694" lon="-2.4563">
        <ele>136.39999389648</ele>
        <time>2021-01-21T10:06:14.000Z</time>
      </trkpt>
      <trkpt lat="47.26924" lon="-2.45613">
        <ele>136.39999389648</ele>
        <time>2021-01-21T10:06:17.000Z</time>
      </trkpt>
      <trkpt lat="47.26913" lon="-2.45603">
        <ele>136.39999389648</ele>
        <time>2021-01-21T10:06:19.000Z</time>
      </trkpt>
      <trkpt lat="47.26874" lon="-2.45567">
        <ele>136.39999389648</ele>
        <time>2021-01-21T10:06:26.000Z</time>
      </trkpt>
      <trkpt lat="47.26829" lon="-2.4553">
        <ele>136</ele>
        <time>2021-01-21T10:06:34.000Z</time>
      </trkpt>
      <trkpt lat="47.26824" lon="-2.45525">
        <ele>135.60000610352</ele>
        <time>2021-01-21T10:06:35.000Z</time>
      </trkpt>
      <trkpt lat="47.26818" lon="-2.45519">
        <ele>135.19999694824</ele>
        <time>2021-01-21T10:06:36.000Z</time>
      </trkpt>
      <trkpt lat="47.26813" lon="-2.45514">
        <ele>134.80000305176</ele>
        <time>2021-01-21T10:06:37.000Z</time>
      </trkpt>
      <trkpt lat="47.26808" lon="-2.45508">
        <ele>134.39999389648</ele>
        <time>2021-01-21T10:06:38.000Z</time>
      </trkpt>
      <trkpt lat="47.26783" lon="-2.45478">
        <ele>134.39999389648</ele>
        <time>2021-01-21T10:06:43.000Z</time>
      </trkpt>
      <trkpt lat="47.26774" lon="-2.45465">
        <ele>134</ele>
        <time>2021-01-21T10:06:45.000Z</time>
      </trkpt>
      <trkpt lat="47.2677" lon="-2.45459">
        <ele>133.60000610352</ele>
        <time>2021-01-21T10:06:46.000Z</time>
      </trkpt>
      <trkpt lat="47.26766" lon="-2.45453">
        <ele>133</ele>
        <time>2021-01-21T10:06:47.000Z</time>
      </trkpt>
      <trkpt lat="47.26762" lon="-2.45448">
        <ele>132.60000610352</ele>
        <time>2021-01-21T10:06:48.000Z</time>
      </trkpt>
      <trkpt lat="47.26757" lon="-2.45442">
        <ele>132.19999694824</ele>
        <time>2021-01-21T10:06:49.000Z</time>
      </trkpt>
      <trkpt lat="47.26753" lon="-2.45437">
        <ele>132.19999694824</ele>
        <time>2021-01-21T10:06:50.000Z</time>
      </trkpt>
      <trkpt lat="47.26739" lon="-2.45423">
        <ele>132.19999694824</ele>
        <time>2021-01-21T10:06:53.000Z</time>
      </trkpt>
      <trkpt lat="47.2673" lon="-2.45412">
        <ele>132.19999694824</ele>
        <time>2021-01-21T10:06:55.000Z</time>
      </trkpt>
      <trkpt lat="47.26725" lon="-2.45407">
        <ele>132.60000610352</ele>
        <time>2021-01-21T10:06:56.000Z</time>
      </trkpt>
      <trkpt lat="47.26721" lon="-2.45402">
        <ele>133</ele>
        <time>2021-01-21T10:06:57.000Z</time>
      </trkpt>
      <trkpt lat="47.26716" lon="-2.45397">
        <ele>133.60000610352</ele>
        <time>2021-01-21T10:06:58.000Z</time>
      </trkpt>
      <trkpt lat="47.26711" lon="-2.45392">
        <ele>134</ele>
        <time>2021-01-21T10:06:59.000Z</time>
      </trkpt>
      <trkpt lat="47.26707" lon="-2.45388">
        <ele>134.39999389648</ele>
        <time>2021-01-21T10:07:00.000Z</time>
      </trkpt>
      <trkpt lat="47.26702" lon="-2.45384">
        <ele>134.39999389648</ele>
        <time>2021-01-21T10:07:01.000Z</time>
      </trkpt>
      <trkpt lat="47.26664" lon="-2.45349">
        <ele>134.39999389648</ele>
        <time>2021-01-21T10:07:09.000Z</time>
      </trkpt>
      <trkpt lat="47.26646" lon="-2.45332">
        <ele>134.80000305176</ele>
        <time>2021-01-21T10:07:13.000Z</time>
      </trkpt>
      <trkpt lat="47.26642" lon="-2.45329">
        <ele>135.19999694824</ele>
        <time>2021-01-21T10:07:14.000Z</time>
      </trkpt>
      <trkpt lat="47.26639" lon="-2.45325">
        <ele>135.60000610352</ele>
        <time>2021-01-21T10:07:15.000Z</time>
      </trkpt>
      <trkpt lat="47.26635" lon="-2.4532">
        <ele>136</ele>
        <time>2021-01-21T10:07:16.000Z</time>
      </trkpt>
      <trkpt lat="47.26632" lon="-2.45316">
        <ele>136.60000610352</ele>
        <time>2021-01-21T10:07:17.000Z</time>
      </trkpt>
      <trkpt lat="47.26624" lon="-2.45307">
        <ele>136.60000610352</ele>
        <time>2021-01-21T10:07:19.000Z</time>
      </trkpt>
      <trkpt lat="47.26586" lon="-2.45272">
        <ele>136.60000610352</ele>
        <time>2021-01-21T10:07:28.000Z</time>
      </trkpt>
      <trkpt lat="47.26553" lon="-2.45242">
        <ele>136.60000610352</ele>
        <time>2021-01-21T10:07:36.000Z</time>
      </trkpt>
      <trkpt lat="47.26544" lon="-2.45235">
        <ele>136.19999694824</ele>
        <time>2021-01-21T10:07:38.000Z</time>
      </trkpt>
      <trkpt lat="47.26539" lon="-2.45231">
        <ele>135.80000305176</ele>
        <time>2021-01-21T10:07:39.000Z</time>
      </trkpt>
      <trkpt lat="47.26535" lon="-2.45226">
        <ele>135.39999389648</ele>
        <time>2021-01-21T10:07:40.000Z</time>
      </trkpt>
      <trkpt lat="47.26531" lon="-2.45222">
        <ele>135</ele>
        <time>2021-01-21T10:07:41.000Z</time>
      </trkpt>
      <trkpt lat="47.26527" lon="-2.45218">
        <ele>134.60000610352</ele>
        <time>2021-01-21T10:07:42.000Z</time>
      </trkpt>
      <trkpt lat="47.26522" lon="-2.45214">
        <ele>134.60000610352</ele>
        <time>2021-01-21T10:07:43.000Z</time>
      </trkpt>
      <trkpt lat="47.26496" lon="-2.4519">
        <ele>134.60000610352</ele>
        <time>2021-01-21T10:07:49.000Z</time>
      </trkpt>
      <trkpt lat="47.26488" lon="-2.45181">
        <ele>134.60000610352</ele>
        <time>2021-01-21T10:07:51.000Z</time>
      </trkpt>
      <trkpt lat="47.26459" lon="-2.45143">
        <ele>134.60000610352</ele>
        <time>2021-01-21T10:07:59.000Z</time>
      </trkpt>
      <trkpt lat="47.26435" lon="-2.45094">
        <ele>134.60000610352</ele>
        <time>2021-01-21T10:08:07.000Z</time>
      </trkpt>
      <trkpt lat="47.26419" lon="-2.45043">
        <ele>134.60000610352</ele>
        <time>2021-01-21T10:08:14.000Z</time>
      </trkpt>
      <trkpt lat="47.264" lon="-2.44982">
        <ele>135</ele>
        <time>2021-01-21T10:08:23.000Z</time>
      </trkpt>
      <trkpt lat="47.26398" lon="-2.44975">
        <ele>135.39999389648</ele>
        <time>2021-01-21T10:08:24.000Z</time>
      </trkpt>
      <trkpt lat="47.26396" lon="-2.44968">
        <ele>136</ele>
        <time>2021-01-21T10:08:25.000Z</time>
      </trkpt>
      <trkpt lat="47.26394" lon="-2.44961">
        <ele>136.39999389648</ele>
        <time>2021-01-21T10:08:26.000Z</time>
      </trkpt>
      <trkpt lat="47.26391" lon="-2.44954">
        <ele>136.80000305176</ele>
        <time>2021-01-21T10:08:27.000Z</time>
      </trkpt>
      <trkpt lat="47.26387" lon="-2.4494">
        <ele>136.80000305176</ele>
        <time>2021-01-21T10:08:29.000Z</time>
      </trkpt>
      <trkpt lat="47.26368" lon="-2.44886">
        <ele>136.80000305176</ele>
        <time>2021-01-21T10:08:37.000Z</time>
      </trkpt>
      <trkpt lat="47.26348" lon="-2.44821">
        <ele>136.80000305176</ele>
        <time>2021-01-21T10:08:46.000Z</time>
      </trkpt>
      <trkpt lat="47.26332" lon="-2.44764">
        <ele>136.80000305176</ele>
        <time>2021-01-21T10:08:54.000Z</time>
      </trkpt>
      <trkpt lat="47.26323" lon="-2.44712">
        <ele>137.39999389648</ele>
        <time>2021-01-21T10:09:00.000Z</time>
      </trkpt>
      <trkpt lat="47.26322" lon="-2.44703">
        <ele>137.80000305176</ele>
        <time>2021-01-21T10:09:01.000Z</time>
      </trkpt>
      <trkpt lat="47.26321" lon="-2.44694">
        <ele>138.19999694824</ele>
        <time>2021-01-21T10:09:02.000Z</time>
      </trkpt>
      <trkpt lat="47.2632" lon="-2.44686">
        <ele>138.60000610352</ele>
        <time>2021-01-21T10:09:03.000Z</time>
      </trkpt>
      <trkpt lat="47.26319" lon="-2.44677">
        <ele>139</ele>
        <time>2021-01-21T10:09:04.000Z</time>
      </trkpt>
      <trkpt lat="47.26318" lon="-2.4464">
        <ele>139</ele>
        <time>2021-01-21T10:09:08.000Z</time>
      </trkpt>
      <trkpt lat="47.26318" lon="-2.44622">
        <ele>139.39999389648</ele>
        <time>2021-01-21T10:09:10.000Z</time>
      </trkpt>
      <trkpt lat="47.26319" lon="-2.44612">
        <ele>139.80000305176</ele>
        <time>2021-01-21T10:09:11.000Z</time>
      </trkpt>
      <trkpt lat="47.26319" lon="-2.44603">
        <ele>140.19999694824</ele>
        <time>2021-01-21T10:09:12.000Z</time>
      </trkpt>
      <trkpt lat="47.2632" lon="-2.44594">
        <ele>140.60000610352</ele>
        <time>2021-01-21T10:09:13.000Z</time>
      </trkpt>
      <trkpt lat="47.2632" lon="-2.44585">
        <ele>141</ele>
        <time>2021-01-21T10:09:14.000Z</time>
      </trkpt>
      <trkpt lat="47.26321" lon="-2.44576">
        <ele>141</ele>
        <time>2021-01-21T10:09:15.000Z</time>
      </trkpt>
      <trkpt lat="47.26327" lon="-2.44531">
        <ele>141.39999389648</ele>
        <time>2021-01-21T10:09:20.000Z</time>
      </trkpt>
      <trkpt lat="47.26329" lon="-2.44523">
        <ele>142</ele>
        <time>2021-01-21T10:09:21.000Z</time>
      </trkpt>
      <trkpt lat="47.2633" lon="-2.44514">
        <ele>142.39999389648</ele>
        <time>2021-01-21T10:09:22.000Z</time>
      </trkpt>
      <trkpt lat="47.26332" lon="-2.44506">
        <ele>142.80000305176</ele>
        <time>2021-01-21T10:09:23.000Z</time>
      </trkpt>
      <trkpt lat="47.26335" lon="-2.44498">
        <ele>143.19999694824</ele>
        <time>2021-01-21T10:09:24.000Z</time>
      </trkpt>
      <trkpt lat="47.26339" lon="-2.44482">
        <ele>143.60000610352</ele>
        <time>2021-01-21T10:09:26.000Z</time>
      </trkpt>
      <trkpt lat="47.26341" lon="-2.44474">
        <ele>144</ele>
        <time>2021-01-21T10:09:27.000Z</time>
      </trkpt>
      <trkpt lat="47.26343" lon="-2.44466">
        <ele>144.39999389648</ele>
        <time>2021-01-21T10:09:28.000Z</time>
      </trkpt>
      <trkpt lat="47.26345" lon="-2.44458">
        <ele>145</ele>
        <time>2021-01-21T10:09:29.000Z</time>
      </trkpt>
      <trkpt lat="47.26348" lon="-2.4445">
        <ele>145.39999389648</ele>
        <time>2021-01-21T10:09:30.000Z</time>
      </trkpt>
      <trkpt lat="47.26351" lon="-2.44443">
        <ele>145.39999389648</ele>
        <time>2021-01-21T10:09:31.000Z</time>
      </trkpt>
      <trkpt lat="47.2636" lon="-2.4442">
        <ele>145.39999389648</ele>
        <time>2021-01-21T10:09:34.000Z</time>
      </trkpt>
      <trkpt lat="47.2637" lon="-2.44398">
        <ele>145.39999389648</ele>
        <time>2021-01-21T10:09:37.000Z</time>
      </trkpt>
      <trkpt lat="47.26382" lon="-2.44375">
        <ele>145.39999389648</ele>
        <time>2021-01-21T10:09:40.000Z</time>
      </trkpt>
      <trkpt lat="47.26421" lon="-2.44321">
        <ele>145.39999389648</ele>
        <time>2021-01-21T10:09:47.000Z</time>
      </trkpt>
      <trkpt lat="47.2646" lon="-2.44282">
        <ele>145.39999389648</ele>
        <time>2021-01-21T10:09:53.000Z</time>
      </trkpt>
      <trkpt lat="47.26506" lon="-2.44244">
        <ele>145.39999389648</ele>
        <time>2021-01-21T10:09:59.000Z</time>
      </trkpt>
      <trkpt lat="47.26559" lon="-2.44201">
        <ele>145.39999389648</ele>
        <time>2021-01-21T10:10:06.000Z</time>
      </trkpt>
      <trkpt lat="47.26566" lon="-2.44195">
        <ele>145.39999389648</ele>
        <time>2021-01-21T10:10:07.000Z</time>
      </trkpt>
      <trkpt lat="47.26581" lon="-2.44184">
        <ele>145</ele>
        <time>2021-01-21T10:10:09.000Z</time>
      </trkpt>
      <trkpt lat="47.26589" lon="-2.44178">
        <ele>144.60000610352</ele>
        <time>2021-01-21T10:10:10.000Z</time>
      </trkpt>
      <trkpt lat="47.26597" lon="-2.44171">
        <ele>144</ele>
        <time>2021-01-21T10:10:11.000Z</time>
      </trkpt>
      <trkpt lat="47.26604" lon="-2.44165">
        <ele>143.60000610352</ele>
        <time>2021-01-21T10:10:12.000Z</time>
      </trkpt>
      <trkpt lat="47.26612" lon="-2.44159">
        <ele>143.19999694824</ele>
        <time>2021-01-21T10:10:13.000Z</time>
      </trkpt>
      <trkpt lat="47.26643" lon="-2.44136">
        <ele>142.80000305176</ele>
        <time>2021-01-21T10:10:17.000Z</time>
      </trkpt>
      <trkpt lat="47.26652" lon="-2.44131">
        <ele>142.39999389648</ele>
        <time>2021-01-21T10:10:18.000Z</time>
      </trkpt>
      <trkpt lat="47.26661" lon="-2.44125">
        <ele>142</ele>
        <time>2021-01-21T10:10:19.000Z</time>
      </trkpt>
      <trkpt lat="47.26669" lon="-2.4412">
        <ele>141.60000610352</ele>
        <time>2021-01-21T10:10:20.000Z</time>
      </trkpt>
      <trkpt lat="47.26678" lon="-2.44116">
        <ele>141.19999694824</ele>
        <time>2021-01-21T10:10:21.000Z</time>
      </trkpt>
      <trkpt lat="47.26704" lon="-2.44103">
        <ele>141.19999694824</ele>
        <time>2021-01-21T10:10:24.000Z</time>
      </trkpt>
      <trkpt lat="47.26749" lon="-2.44091">
        <ele>141.19999694824</ele>
        <time>2021-01-21T10:10:29.000Z</time>
      </trkpt>
      <trkpt lat="47.26779" lon="-2.44085">
        <ele>140.80000305176</ele>
        <time>2021-01-21T10:10:33.000Z</time>
      </trkpt>
      <trkpt lat="47.26786" lon="-2.44082">
        <ele>140.39999389648</ele>
        <time>2021-01-21T10:10:34.000Z</time>
      </trkpt>
      <trkpt lat="47.26792" lon="-2.44079">
        <ele>140</ele>
        <time>2021-01-21T10:10:35.000Z</time>
      </trkpt>
      <trkpt lat="47.26798" lon="-2.44076">
        <ele>139.60000610352</ele>
        <time>2021-01-21T10:10:36.000Z</time>
      </trkpt>
      <trkpt lat="47.26803" lon="-2.44076">
        <ele>139.19999694824</ele>
        <time>2021-01-21T10:10:37.000Z</time>
      </trkpt>
      <trkpt lat="47.26808" lon="-2.44077">
        <ele>139.19999694824</ele>
        <time>2021-01-21T10:10:38.000Z</time>
      </trkpt>
      <trkpt lat="47.26813" lon="-2.44078">
        <ele>139.19999694824</ele>
        <time>2021-01-21T10:10:39.000Z</time>
      </trkpt>
      <trkpt lat="47.26818" lon="-2.44078">
        <ele>139.19999694824</ele>
        <time>2021-01-21T10:10:40.000Z</time>
      </trkpt>
      <trkpt lat="47.26824" lon="-2.44075">
        <ele>139.19999694824</ele>
        <time>2021-01-21T10:10:42.000Z</time>
      </trkpt>
      <trkpt lat="47.26825" lon="-2.44075">
        <ele>139.19999694824</ele>
        <time>2021-01-21T10:10:44.000Z</time>
      </trkpt>
      <trkpt lat="47.26828" lon="-2.44075">
        <ele>139.19999694824</ele>
        <time>2021-01-21T10:10:58.000Z</time>
      </trkpt>
      <trkpt lat="47.26841" lon="-2.44073">
        <ele>139.19999694824</ele>
        <time>2021-01-21T10:11:03.000Z</time>
      </trkpt>
      <trkpt lat="47.26852" lon="-2.44072">
        <ele>138.60000610352</ele>
        <time>2021-01-21T10:11:06.000Z</time>
      </trkpt>
      <trkpt lat="47.26855" lon="-2.44072">
        <ele>138.19999694824</ele>
        <time>2021-01-21T10:11:07.000Z</time>
      </trkpt>
      <trkpt lat="47.26859" lon="-2.44071">
        <ele>137.80000305176</ele>
        <time>2021-01-21T10:11:08.000Z</time>
      </trkpt>
      <trkpt lat="47.26863" lon="-2.44071">
        <ele>137.39999389648</ele>
        <time>2021-01-21T10:11:09.000Z</time>
      </trkpt>
      <trkpt lat="47.26867" lon="-2.44071">
        <ele>137</ele>
        <time>2021-01-21T10:11:10.000Z</time>
      </trkpt>
      <trkpt lat="47.26894" lon="-2.44069">
        <ele>137</ele>
        <time>2021-01-21T10:11:16.000Z</time>
      </trkpt>
      <trkpt lat="47.26934" lon="-2.44066">
        <ele>136.60000610352</ele>
        <time>2021-01-21T10:11:24.000Z</time>
      </trkpt>
      <trkpt lat="47.2694" lon="-2.44066">
        <ele>136.19999694824</ele>
        <time>2021-01-21T10:11:25.000Z</time>
      </trkpt>
      <trkpt lat="47.26947" lon="-2.44066">
        <ele>135.80000305176</ele>
        <time>2021-01-21T10:11:26.000Z</time>
      </trkpt>
      <trkpt lat="47.26953" lon="-2.44065">
        <ele>135.19999694824</ele>
        <time>2021-01-21T10:11:27.000Z</time>
      </trkpt>
      <trkpt lat="47.2696" lon="-2.44065">
        <ele>134.80000305176</ele>
        <time>2021-01-21T10:11:28.000Z</time>
      </trkpt>
      <trkpt lat="47.26973" lon="-2.44064">
        <ele>134.80000305176</ele>
        <time>2021-01-21T10:11:30.000Z</time>
      </trkpt>
      <trkpt lat="47.27031" lon="-2.44058">
        <ele>134.39999389648</ele>
        <time>2021-01-21T10:11:38.000Z</time>
      </trkpt>
      <trkpt lat="47.27038" lon="-2.44058">
        <ele>134</ele>
        <time>2021-01-21T10:11:39.000Z</time>
      </trkpt>
      <trkpt lat="47.27046" lon="-2.44057">
        <ele>133.39999389648</ele>
        <time>2021-01-21T10:11:40.000Z</time>
      </trkpt>
      <trkpt lat="47.27054" lon="-2.44056">
        <ele>133</ele>
        <time>2021-01-21T10:11:41.000Z</time>
      </trkpt>
      <trkpt lat="47.27062" lon="-2.44054">
        <ele>132.39999389648</ele>
        <time>2021-01-21T10:11:42.000Z</time>
      </trkpt>
      <trkpt lat="47.27087" lon="-2.44051">
        <ele>132</ele>
        <time>2021-01-21T10:11:45.000Z</time>
      </trkpt>
      <trkpt lat="47.27095" lon="-2.4405">
        <ele>131.60000610352</ele>
        <time>2021-01-21T10:11:46.000Z</time>
      </trkpt>
      <trkpt lat="47.27104" lon="-2.44048">
        <ele>130.80000305176</ele>
        <time>2021-01-21T10:11:47.000Z</time>
      </trkpt>
      <trkpt lat="47.27112" lon="-2.44047">
        <ele>130.39999389648</ele>
        <time>2021-01-21T10:11:48.000Z</time>
      </trkpt>
      <trkpt lat="47.27153" lon="-2.44035">
        <ele>130.39999389648</ele>
        <time>2021-01-21T10:11:53.000Z</time>
      </trkpt>
      <trkpt lat="47.27198" lon="-2.44015">
        <ele>130.39999389648</ele>
        <time>2021-01-21T10:11:59.000Z</time>
      </trkpt>
      <trkpt lat="47.27207" lon="-2.44007">
        <ele>130.39999389648</ele>
        <time>2021-01-21T10:12:01.000Z</time>
      </trkpt>
      <trkpt lat="47.2721" lon="-2.44002">
        <ele>130</ele>
        <time>2021-01-21T10:12:02.000Z</time>
      </trkpt>
      <trkpt lat="47.27212" lon="-2.43997">
        <ele>129.60000610352</ele>
        <time>2021-01-21T10:12:03.000Z</time>
      </trkpt>
      <trkpt lat="47.27216" lon="-2.43994">
        <ele>129.19999694824</ele>
        <time>2021-01-21T10:12:04.000Z</time>
      </trkpt>
      <trkpt lat="47.2722" lon="-2.43994">
        <ele>128.80000305176</ele>
        <time>2021-01-21T10:12:05.000Z</time>
      </trkpt>
      <trkpt lat="47.27223" lon="-2.43996">
        <ele>128.19999694824</ele>
        <time>2021-01-21T10:12:06.000Z</time>
      </trkpt>
      <trkpt lat="47.2723" lon="-2.44005">
        <ele>128.19999694824</ele>
        <time>2021-01-21T10:12:08.000Z</time>
      </trkpt>
      <trkpt lat="47.27234" lon="-2.44009">
        <ele>128.19999694824</ele>
        <time>2021-01-21T10:12:09.000Z</time>
      </trkpt>
      <trkpt lat="47.27239" lon="-2.44012">
        <ele>128.19999694824</ele>
        <time>2021-01-21T10:12:10.000Z</time>
      </trkpt>
      <trkpt lat="47.27257" lon="-2.44009">
        <ele>128.19999694824</ele>
        <time>2021-01-21T10:12:13.000Z</time>
      </trkpt>
      <trkpt lat="47.27263" lon="-2.44007">
        <ele>128.19999694824</ele>
        <time>2021-01-21T10:12:14.000Z</time>
      </trkpt>
      <trkpt lat="47.27289" lon="-2.43997">
        <ele>128.19999694824</ele>
        <time>2021-01-21T10:12:18.000Z</time>
      </trkpt>
      <trkpt lat="47.273" lon="-2.43987">
        <ele>128.19999694824</ele>
        <time>2021-01-21T10:12:20.000Z</time>
      </trkpt>
      <trkpt lat="47.27306" lon="-2.43984">
        <ele>128.19999694824</ele>
        <time>2021-01-21T10:12:21.000Z</time>
      </trkpt>
      <trkpt lat="47.27325" lon="-2.4398">
        <ele>128.19999694824</ele>
        <time>2021-01-21T10:12:24.000Z</time>
      </trkpt>
      <trkpt lat="47.27363" lon="-2.43969">
        <ele>128.19999694824</ele>
        <time>2021-01-21T10:12:30.000Z</time>
      </trkpt>
      <trkpt lat="47.27403" lon="-2.43949">
        <ele>128.19999694824</ele>
        <time>2021-01-21T10:12:37.000Z</time>
      </trkpt>
      <trkpt lat="47.27444" lon="-2.4393">
        <ele>128.19999694824</ele>
        <time>2021-01-21T10:12:44.000Z</time>
      </trkpt>
      <trkpt lat="47.2749" lon="-2.43912">
        <ele>128.19999694824</ele>
        <time>2021-01-21T10:12:51.000Z</time>
      </trkpt>
      <trkpt lat="47.27502" lon="-2.43909">
        <ele>128.19999694824</ele>
        <time>2021-01-21T10:12:53.000Z</time>
      </trkpt>
      <trkpt lat="47.27512" lon="-2.43904">
        <ele>128.19999694824</ele>
        <time>2021-01-21T10:12:55.000Z</time>
      </trkpt>
      <trkpt lat="47.27552" lon="-2.43886">
        <ele>128.19999694824</ele>
        <time>2021-01-21T10:13:02.000Z</time>
      </trkpt>
      <trkpt lat="47.27585" lon="-2.4387">
        <ele>128.19999694824</ele>
        <time>2021-01-21T10:13:08.000Z</time>
      </trkpt>
      <trkpt lat="47.27633" lon="-2.43851">
        <ele>128.19999694824</ele>
        <time>2021-01-21T10:13:16.000Z</time>
      </trkpt>
      <trkpt lat="47.27666" lon="-2.43838">
        <ele>128.19999694824</ele>
        <time>2021-01-21T10:13:22.000Z</time>
      </trkpt>
      <trkpt lat="47.2771" lon="-2.43824">
        <ele>128.19999694824</ele>
        <time>2021-01-21T10:13:30.000Z</time>
      </trkpt>
      <trkpt lat="47.2774" lon="-2.43821">
        <ele>128.19999694824</ele>
        <time>2021-01-21T10:13:36.000Z</time>
      </trkpt>
      <trkpt lat="47.27753" lon="-2.43819">
        <ele>128.19999694824</ele>
        <time>2021-01-21T10:13:39.000Z</time>
      </trkpt>
      <trkpt lat="47.2776" lon="-2.43814">
        <ele>128.19999694824</ele>
        <time>2021-01-21T10:13:41.000Z</time>
      </trkpt>
      <trkpt lat="47.27772" lon="-2.43798">
        <ele>128.19999694824</ele>
        <time>2021-01-21T10:13:45.000Z</time>
      </trkpt>
      <trkpt lat="47.27785" lon="-2.43787">
        <ele>128.19999694824</ele>
        <time>2021-01-21T10:13:50.000Z</time>
      </trkpt>
      <trkpt lat="47.27786" lon="-2.43787">
        <ele>128.19999694824</ele>
        <time>2021-01-21T10:13:52.000Z</time>
      </trkpt>
      <trkpt lat="47.27785" lon="-2.43786">
        <ele>128.19999694824</ele>
        <time>2021-01-21T10:15:12.000Z</time>
      </trkpt>
      <trkpt lat="47.27787" lon="-2.43785">
        <ele>128.19999694824</ele>
        <time>2021-01-21T10:15:13.000Z</time>
      </trkpt>
      <trkpt lat="47.27789" lon="-2.43778">
        <ele>128.19999694824</ele>
        <time>2021-01-21T10:15:15.000Z</time>
      </trkpt>
      <trkpt lat="47.27791" lon="-2.43768">
        <ele>128.19999694824</ele>
        <time>2021-01-21T10:15:17.000Z</time>
      </trkpt>
      <trkpt lat="47.27801" lon="-2.43733">
        <ele>128.19999694824</ele>
        <time>2021-01-21T10:15:23.000Z</time>
      </trkpt>
      <trkpt lat="47.27815" lon="-2.43676">
        <ele>128.19999694824</ele>
        <time>2021-01-21T10:15:31.000Z</time>
      </trkpt>
      <trkpt lat="47.27827" lon="-2.43628">
        <ele>128.19999694824</ele>
        <time>2021-01-21T10:15:37.000Z</time>
      </trkpt>
      <trkpt lat="47.27834" lon="-2.43605">
        <ele>128.19999694824</ele>
        <time>2021-01-21T10:15:40.000Z</time>
      </trkpt>
      <trkpt lat="47.27846" lon="-2.43553">
        <ele>128.19999694824</ele>
        <time>2021-01-21T10:15:46.000Z</time>
      </trkpt>
      <trkpt lat="47.27854" lon="-2.43495">
        <ele>128.19999694824</ele>
        <time>2021-01-21T10:15:52.000Z</time>
      </trkpt>
      <trkpt lat="47.27861" lon="-2.4343">
        <ele>128.19999694824</ele>
        <time>2021-01-21T10:15:59.000Z</time>
      </trkpt>
      <trkpt lat="47.27864" lon="-2.43403">
        <ele>128.19999694824</ele>
        <time>2021-01-21T10:16:02.000Z</time>
      </trkpt>
      <trkpt lat="47.27861" lon="-2.43386">
        <ele>128.19999694824</ele>
        <time>2021-01-21T10:16:04.000Z</time>
      </trkpt>
      <trkpt lat="47.27859" lon="-2.43359">
        <ele>128.19999694824</ele>
        <time>2021-01-21T10:16:08.000Z</time>
      </trkpt>
      <trkpt lat="47.27869" lon="-2.4334">
        <ele>128.19999694824</ele>
        <time>2021-01-21T10:16:11.000Z</time>
      </trkpt>
      <trkpt lat="47.27872" lon="-2.43315">
        <ele>128.19999694824</ele>
        <time>2021-01-21T10:16:14.000Z</time>
      </trkpt>
      <trkpt lat="47.27871" lon="-2.43284">
        <ele>128.19999694824</ele>
        <time>2021-01-21T10:16:18.000Z</time>
      </trkpt>
      <trkpt lat="47.27871" lon="-2.43275">
        <ele>128.19999694824</ele>
        <time>2021-01-21T10:16:19.000Z</time>
      </trkpt>
      <trkpt lat="47.27869" lon="-2.43233">
        <ele>128.80000305176</ele>
        <time>2021-01-21T10:16:24.000Z</time>
      </trkpt>
      <trkpt lat="47.27868" lon="-2.43225">
        <ele>129.19999694824</ele>
        <time>2021-01-21T10:16:25.000Z</time>
      </trkpt>
      <trkpt lat="47.27867" lon="-2.43217">
        <ele>129.60000610352</ele>
        <time>2021-01-21T10:16:26.000Z</time>
      </trkpt>
      <trkpt lat="47.27866" lon="-2.43208">
        <ele>130.19999694824</ele>
        <time>2021-01-21T10:16:27.000Z</time>
      </trkpt>
      <trkpt lat="47.27864" lon="-2.432">
        <ele>130.60000610352</ele>
        <time>2021-01-21T10:16:28.000Z</time>
      </trkpt>
      <trkpt lat="47.27862" lon="-2.4317">
        <ele>130.60000610352</ele>
        <time>2021-01-21T10:16:32.000Z</time>
      </trkpt>
      <trkpt lat="47.27855" lon="-2.43123">
        <ele>130.60000610352</ele>
        <time>2021-01-21T10:16:38.000Z</time>
      </trkpt>
      <trkpt lat="47.27851" lon="-2.43063">
        <ele>130.60000610352</ele>
        <time>2021-01-21T10:16:45.000Z</time>
      </trkpt>
      <trkpt lat="47.27849" lon="-2.43046">
        <ele>130.60000610352</ele>
        <time>2021-01-21T10:16:47.000Z</time>
      </trkpt>
      <trkpt lat="47.27845" lon="-2.43032">
        <ele>130.60000610352</ele>
        <time>2021-01-21T10:16:49.000Z</time>
      </trkpt>
      <trkpt lat="47.2784" lon="-2.4303">
        <ele>130.60000610352</ele>
        <time>2021-01-21T10:16:50.000Z</time>
      </trkpt>
      <trkpt lat="47.27835" lon="-2.43028">
        <ele>130.60000610352</ele>
        <time>2021-01-21T10:16:51.000Z</time>
      </trkpt>
      <trkpt lat="47.27814" lon="-2.43013">
        <ele>130.60000610352</ele>
        <time>2021-01-21T10:16:57.000Z</time>
      </trkpt>
      <trkpt lat="47.27815" lon="-2.42992">
        <ele>130.60000610352</ele>
        <time>2021-01-21T10:17:01.000Z</time>
      </trkpt>
      <trkpt lat="47.27815" lon="-2.42972">
        <ele>130.60000610352</ele>
        <time>2021-01-21T10:17:04.000Z</time>
      </trkpt>
      <trkpt lat="47.27813" lon="-2.42957">
        <ele>130.60000610352</ele>
        <time>2021-01-21T10:17:06.000Z</time>
      </trkpt>
      <trkpt lat="47.27811" lon="-2.42942">
        <ele>130.60000610352</ele>
        <time>2021-01-21T10:17:08.000Z</time>
      </trkpt>
      <trkpt lat="47.27808" lon="-2.42911">
        <ele>130.60000610352</ele>
        <time>2021-01-21T10:17:12.000Z</time>
      </trkpt>
      <trkpt lat="47.27802" lon="-2.42873">
        <ele>130.60000610352</ele>
        <time>2021-01-21T10:17:18.000Z</time>
      </trkpt>
      <trkpt lat="47.27801" lon="-2.42843">
        <ele>130.60000610352</ele>
        <time>2021-01-21T10:17:24.000Z</time>
      </trkpt>
      <trkpt lat="47.27803" lon="-2.42823">
        <ele>130.60000610352</ele>
        <time>2021-01-21T10:17:30.000Z</time>
      </trkpt>
      <trkpt lat="47.27803" lon="-2.42824">
        <ele>130.60000610352</ele>
        <time>2021-01-21T10:17:32.000Z</time>
      </trkpt>
      <trkpt lat="47.27803" lon="-2.42821">
        <ele>130.60000610352</ele>
        <time>2021-01-21T10:17:34.000Z</time>
      </trkpt>
      <trkpt lat="47.27804" lon="-2.42819">
        <ele>130.60000610352</ele>
        <time>2021-01-21T10:17:35.000Z</time>
      </trkpt>
      <trkpt lat="47.27813" lon="-2.42816">
        <ele>130.60000610352</ele>
        <time>2021-01-21T10:17:39.000Z</time>
      </trkpt>
      <trkpt lat="47.2782" lon="-2.42816">
        <ele>130.60000610352</ele>
        <time>2021-01-21T10:17:41.000Z</time>
      </trkpt>
      <trkpt lat="47.27826" lon="-2.42812">
        <ele>130.60000610352</ele>
        <time>2021-01-21T10:17:43.000Z</time>
      </trkpt>
      <trkpt lat="47.27827" lon="-2.42807">
        <ele>130.60000610352</ele>
        <time>2021-01-21T10:17:44.000Z</time>
      </trkpt>
      <trkpt lat="47.27828" lon="-2.42791">
        <ele>130.60000610352</ele>
        <time>2021-01-21T10:17:47.000Z</time>
      </trkpt>
      <trkpt lat="47.27827" lon="-2.42785">
        <ele>130.60000610352</ele>
        <time>2021-01-21T10:17:48.000Z</time>
      </trkpt>
      <trkpt lat="47.27826" lon="-2.42734">
        <ele>130.60000610352</ele>
        <time>2021-01-21T10:17:55.000Z</time>
      </trkpt>
      <trkpt lat="47.27826" lon="-2.42708">
        <ele>130.60000610352</ele>
        <time>2021-01-21T10:17:58.000Z</time>
      </trkpt>
      <trkpt lat="47.27826" lon="-2.42682">
        <ele>130.60000610352</ele>
        <time>2021-01-21T10:18:01.000Z</time>
      </trkpt>
      <trkpt lat="47.27823" lon="-2.42647">
        <ele>130.19999694824</ele>
        <time>2021-01-21T10:18:05.000Z</time>
      </trkpt>
      <trkpt lat="47.27822" lon="-2.42637">
        <ele>129.80000305176</ele>
        <time>2021-01-21T10:18:06.000Z</time>
      </trkpt>
      <trkpt lat="47.2782" lon="-2.42628">
        <ele>129.39999389648</ele>
        <time>2021-01-21T10:18:07.000Z</time>
      </trkpt>
      <trkpt lat="47.27819" lon="-2.42618">
        <ele>129</ele>
        <time>2021-01-21T10:18:08.000Z</time>
      </trkpt>
      <trkpt lat="47.27817" lon="-2.42609">
        <ele>128.60000610352</ele>
        <time>2021-01-21T10:18:09.000Z</time>
      </trkpt>
      <trkpt lat="47.27815" lon="-2.42599">
        <ele>128.60000610352</ele>
        <time>2021-01-21T10:18:10.000Z</time>
      </trkpt>
      <trkpt lat="47.27803" lon="-2.42564">
        <ele>128.60000610352</ele>
        <time>2021-01-21T10:18:14.000Z</time>
      </trkpt>
      <trkpt lat="47.2778" lon="-2.42506">
        <ele>128.60000610352</ele>
        <time>2021-01-21T10:18:21.000Z</time>
      </trkpt>
      <trkpt lat="47.27758" lon="-2.42435">
        <ele>128.60000610352</ele>
        <time>2021-01-21T10:18:30.000Z</time>
      </trkpt>
      <trkpt lat="47.27747" lon="-2.42366">
        <ele>128.60000610352</ele>
        <time>2021-01-21T10:18:38.000Z</time>
      </trkpt>
      <trkpt lat="47.27739" lon="-2.42294">
        <ele>128.60000610352</ele>
        <time>2021-01-21T10:18:46.000Z</time>
      </trkpt>
      <trkpt lat="47.27736" lon="-2.42239">
        <ele>128.60000610352</ele>
        <time>2021-01-21T10:18:52.000Z</time>
      </trkpt>
      <trkpt lat="47.27735" lon="-2.42157">
        <ele>128.60000610352</ele>
        <time>2021-01-21T10:19:01.000Z</time>
      </trkpt>
      <trkpt lat="47.27739" lon="-2.42094">
        <ele>128.60000610352</ele>
        <time>2021-01-21T10:19:08.000Z</time>
      </trkpt>
      <trkpt lat="47.27748" lon="-2.4204">
        <ele>128.60000610352</ele>
        <time>2021-01-21T10:19:14.000Z</time>
      </trkpt>
      <trkpt lat="47.27763" lon="-2.41988">
        <ele>128.60000610352</ele>
        <time>2021-01-21T10:19:20.000Z</time>
      </trkpt>
      <trkpt lat="47.27772" lon="-2.41956">
        <ele>128.60000610352</ele>
        <time>2021-01-21T10:19:24.000Z</time>
      </trkpt>
      <trkpt lat="47.27779" lon="-2.41931">
        <ele>128.60000610352</ele>
        <time>2021-01-21T10:19:27.000Z</time>
      </trkpt>
      <trkpt lat="47.27801" lon="-2.41868">
        <ele>128.60000610352</ele>
        <time>2021-01-21T10:19:35.000Z</time>
      </trkpt>
      <trkpt lat="47.27823" lon="-2.41813">
        <ele>128.60000610352</ele>
        <time>2021-01-21T10:19:43.000Z</time>
      </trkpt>
      <trkpt lat="47.27838" lon="-2.41775">
        <ele>128.60000610352</ele>
        <time>2021-01-21T10:19:49.000Z</time>
      </trkpt>
      <trkpt lat="47.27854" lon="-2.41739">
        <ele>128.60000610352</ele>
        <time>2021-01-21T10:19:55.000Z</time>
      </trkpt>
      <trkpt lat="47.27857" lon="-2.41733">
        <ele>128.60000610352</ele>
        <time>2021-01-21T10:19:56.000Z</time>
      </trkpt>
      <trkpt lat="47.27871" lon="-2.41702">
        <ele>128.60000610352</ele>
        <time>2021-01-21T10:20:00.000Z</time>
      </trkpt>
      <trkpt lat="47.27898" lon="-2.41645">
        <ele>128.60000610352</ele>
        <time>2021-01-21T10:20:07.000Z</time>
      </trkpt>
      <trkpt lat="47.27912" lon="-2.41615">
        <ele>129</ele>
        <time>2021-01-21T10:20:11.000Z</time>
      </trkpt>
      <trkpt lat="47.27916" lon="-2.41606">
        <ele>129.39999389648</ele>
        <time>2021-01-21T10:20:12.000Z</time>
      </trkpt>
      <trkpt lat="47.2792" lon="-2.41598">
        <ele>129.80000305176</ele>
        <time>2021-01-21T10:20:13.000Z</time>
      </trkpt>
      <trkpt lat="47.27923" lon="-2.4159">
        <ele>130.19999694824</ele>
        <time>2021-01-21T10:20:14.000Z</time>
      </trkpt>
      <trkpt lat="47.27927" lon="-2.41583">
        <ele>130.60000610352</ele>
        <time>2021-01-21T10:20:15.000Z</time>
      </trkpt>
      <trkpt lat="47.27941" lon="-2.41553">
        <ele>130.60000610352</ele>
        <time>2021-01-21T10:20:19.000Z</time>
      </trkpt>
      <trkpt lat="47.27955" lon="-2.41523">
        <ele>130.60000610352</ele>
        <time>2021-01-21T10:20:23.000Z</time>
      </trkpt>
      <trkpt lat="47.27962" lon="-2.41505">
        <ele>130.60000610352</ele>
        <time>2021-01-21T10:20:25.000Z</time>
      </trkpt>
      <trkpt lat="47.27978" lon="-2.41452">
        <ele>130.60000610352</ele>
        <time>2021-01-21T10:20:31.000Z</time>
      </trkpt>
      <trkpt lat="47.2799" lon="-2.41396">
        <ele>130.60000610352</ele>
        <time>2021-01-21T10:20:37.000Z</time>
      </trkpt>
      <trkpt lat="47.27997" lon="-2.41341">
        <ele>130.60000610352</ele>
        <time>2021-01-21T10:20:43.000Z</time>
      </trkpt>
      <trkpt lat="47.28007" lon="-2.41284">
        <ele>130.60000610352</ele>
        <time>2021-01-21T10:20:49.000Z</time>
      </trkpt>
      <trkpt lat="47.28024" lon="-2.41217">
        <ele>130.60000610352</ele>
        <time>2021-01-21T10:20:56.000Z</time>
      </trkpt>
      <trkpt lat="47.2804" lon="-2.41148">
        <ele>130.60000610352</ele>
        <time>2021-01-21T10:21:03.000Z</time>
      </trkpt>
      <trkpt lat="47.28053" lon="-2.41063">
        <ele>130.60000610352</ele>
        <time>2021-01-21T10:21:11.000Z</time>
      </trkpt>
      <trkpt lat="47.28056" lon="-2.41053">
        <ele>130.60000610352</ele>
        <time>2021-01-21T10:21:12.000Z</time>
      </trkpt>
      <trkpt lat="47.28066" lon="-2.41008">
        <ele>130.60000610352</ele>
        <time>2021-01-21T10:21:16.000Z</time>
      </trkpt>
      <trkpt lat="47.28082" lon="-2.40948">
        <ele>130.60000610352</ele>
        <time>2021-01-21T10:21:22.000Z</time>
      </trkpt>
      <trkpt lat="47.28086" lon="-2.40932">
        <ele>130.60000610352</ele>
        <time>2021-01-21T10:21:24.000Z</time>
      </trkpt>
      <trkpt lat="47.28084" lon="-2.40917">
        <ele>130.60000610352</ele>
        <time>2021-01-21T10:21:26.000Z</time>
      </trkpt>
      <trkpt lat="47.28075" lon="-2.40898">
        <ele>130.60000610352</ele>
        <time>2021-01-21T10:21:29.000Z</time>
      </trkpt>
      <trkpt lat="47.28049" lon="-2.4085">
        <ele>131</ele>
        <time>2021-01-21T10:21:37.000Z</time>
      </trkpt>
      <trkpt lat="47.28046" lon="-2.40846">
        <ele>131.39999389648</ele>
        <time>2021-01-21T10:21:38.000Z</time>
      </trkpt>
      <trkpt lat="47.28043" lon="-2.40841">
        <ele>131.80000305176</ele>
        <time>2021-01-21T10:21:39.000Z</time>
      </trkpt>
      <trkpt lat="47.28041" lon="-2.40837">
        <ele>132.19999694824</ele>
        <time>2021-01-21T10:21:40.000Z</time>
      </trkpt>
      <trkpt lat="47.28038" lon="-2.40832">
        <ele>132.60000610352</ele>
        <time>2021-01-21T10:21:41.000Z</time>
      </trkpt>
      <trkpt lat="47.28033" lon="-2.40823">
        <ele>132.60000610352</ele>
        <time>2021-01-21T10:21:43.000Z</time>
      </trkpt>
      <trkpt lat="47.28029" lon="-2.40813">
        <ele>132.60000610352</ele>
        <time>2021-01-21T10:21:45.000Z</time>
      </trkpt>
      <trkpt lat="47.28032" lon="-2.40799">
        <ele>132.60000610352</ele>
        <time>2021-01-21T10:21:47.000Z</time>
      </trkpt>
      <trkpt lat="47.28037" lon="-2.40783">
        <ele>132.60000610352</ele>
        <time>2021-01-21T10:21:49.000Z</time>
      </trkpt>
      <trkpt lat="47.28044" lon="-2.40756">
        <ele>132.60000610352</ele>
        <time>2021-01-21T10:21:52.000Z</time>
      </trkpt>
      <trkpt lat="47.28056" lon="-2.40699">
        <ele>132.60000610352</ele>
        <time>2021-01-21T10:21:58.000Z</time>
      </trkpt>
      <trkpt lat="47.28057" lon="-2.40689">
        <ele>132.60000610352</ele>
        <time>2021-01-21T10:21:59.000Z</time>
      </trkpt>
      <trkpt lat="47.28057" lon="-2.4066">
        <ele>132.60000610352</ele>
        <time>2021-01-21T10:22:02.000Z</time>
      </trkpt>
      <trkpt lat="47.28054" lon="-2.40641">
        <ele>132.60000610352</ele>
        <time>2021-01-21T10:22:04.000Z</time>
      </trkpt>
      <trkpt lat="47.28051" lon="-2.40612">
        <ele>132.60000610352</ele>
        <time>2021-01-21T10:22:07.000Z</time>
      </trkpt>
      <trkpt lat="47.28057" lon="-2.40572">
        <ele>132.60000610352</ele>
        <time>2021-01-21T10:22:11.000Z</time>
      </trkpt>
      <trkpt lat="47.28071" lon="-2.40508">
        <ele>132.60000610352</ele>
        <time>2021-01-21T10:22:17.000Z</time>
      </trkpt>
      <trkpt lat="47.28076" lon="-2.40487">
        <ele>132.60000610352</ele>
        <time>2021-01-21T10:22:19.000Z</time>
      </trkpt>
      <trkpt lat="47.28084" lon="-2.40469">
        <ele>132.60000610352</ele>
        <time>2021-01-21T10:22:21.000Z</time>
      </trkpt>
      <trkpt lat="47.28093" lon="-2.40452">
        <ele>132.60000610352</ele>
        <time>2021-01-21T10:22:23.000Z</time>
      </trkpt>
      <trkpt lat="47.28106" lon="-2.40425">
        <ele>132.60000610352</ele>
        <time>2021-01-21T10:22:26.000Z</time>
      </trkpt>
      <trkpt lat="47.28115" lon="-2.40383">
        <ele>132.60000610352</ele>
        <time>2021-01-21T10:22:30.000Z</time>
      </trkpt>
      <trkpt lat="47.28123" lon="-2.40322">
        <ele>132.60000610352</ele>
        <time>2021-01-21T10:22:36.000Z</time>
      </trkpt>
      <trkpt lat="47.28131" lon="-2.40243">
        <ele>132.60000610352</ele>
        <time>2021-01-21T10:22:44.000Z</time>
      </trkpt>
      <trkpt lat="47.28137" lon="-2.40197">
        <ele>132.60000610352</ele>
        <time>2021-01-21T10:22:49.000Z</time>
      </trkpt>
      <trkpt lat="47.28144" lon="-2.40131">
        <ele>132.60000610352</ele>
        <time>2021-01-21T10:22:56.000Z</time>
      </trkpt>
      <trkpt lat="47.28147" lon="-2.40071">
        <ele>132.60000610352</ele>
        <time>2021-01-21T10:23:02.000Z</time>
      </trkpt>
      <trkpt lat="47.28152" lon="-2.40017">
        <ele>132.60000610352</ele>
        <time>2021-01-21T10:23:08.000Z</time>
      </trkpt>
      <trkpt lat="47.28155" lon="-2.39979">
        <ele>132.60000610352</ele>
        <time>2021-01-21T10:23:12.000Z</time>
      </trkpt>
      <trkpt lat="47.28158" lon="-2.39924">
        <ele>132.60000610352</ele>
        <time>2021-01-21T10:23:17.000Z</time>
      </trkpt>
      <trkpt lat="47.28164" lon="-2.39841">
        <ele>132.60000610352</ele>
        <time>2021-01-21T10:23:24.000Z</time>
      </trkpt>
      <trkpt lat="47.28169" lon="-2.39753">
        <ele>132.60000610352</ele>
        <time>2021-01-21T10:23:31.000Z</time>
      </trkpt>
      <trkpt lat="47.2817" lon="-2.39741">
        <ele>132.60000610352</ele>
        <time>2021-01-21T10:23:32.000Z</time>
      </trkpt>
      <trkpt lat="47.28171" lon="-2.39729">
        <ele>133</ele>
        <time>2021-01-21T10:23:33.000Z</time>
      </trkpt>
      <trkpt lat="47.28171" lon="-2.39717">
        <ele>133.39999389648</ele>
        <time>2021-01-21T10:23:34.000Z</time>
      </trkpt>
      <trkpt lat="47.28172" lon="-2.39705">
        <ele>133.80000305176</ele>
        <time>2021-01-21T10:23:35.000Z</time>
      </trkpt>
      <trkpt lat="47.28172" lon="-2.39692">
        <ele>134.19999694824</ele>
        <time>2021-01-21T10:23:36.000Z</time>
      </trkpt>
      <trkpt lat="47.28173" lon="-2.39679">
        <ele>134.60000610352</ele>
        <time>2021-01-21T10:23:37.000Z</time>
      </trkpt>
      <trkpt lat="47.28173" lon="-2.39667">
        <ele>134.60000610352</ele>
        <time>2021-01-21T10:23:38.000Z</time>
      </trkpt>
      <trkpt lat="47.28178" lon="-2.39595">
        <ele>134.60000610352</ele>
        <time>2021-01-21T10:23:44.000Z</time>
      </trkpt>
      <trkpt lat="47.28177" lon="-2.39522">
        <ele>134.60000610352</ele>
        <time>2021-01-21T10:23:50.000Z</time>
      </trkpt>
      <trkpt lat="47.28178" lon="-2.39432">
        <ele>134.60000610352</ele>
        <time>2021-01-21T10:23:57.000Z</time>
      </trkpt>
      <trkpt lat="47.28179" lon="-2.39418">
        <ele>134.60000610352</ele>
        <time>2021-01-21T10:23:58.000Z</time>
      </trkpt>
      <trkpt lat="47.28178" lon="-2.39364">
        <ele>134.60000610352</ele>
        <time>2021-01-21T10:24:03.000Z</time>
      </trkpt>
      <trkpt lat="47.28177" lon="-2.39315">
        <ele>134.60000610352</ele>
        <time>2021-01-21T10:24:09.000Z</time>
      </trkpt>
      <trkpt lat="47.28175" lon="-2.39267">
        <ele>134.60000610352</ele>
        <time>2021-01-21T10:24:16.000Z</time>
      </trkpt>
      <trkpt lat="47.28172" lon="-2.3922">
        <ele>134.60000610352</ele>
        <time>2021-01-21T10:24:21.000Z</time>
      </trkpt>
      <trkpt lat="47.28169" lon="-2.39147">
        <ele>134.60000610352</ele>
        <time>2021-01-21T10:24:27.000Z</time>
      </trkpt>
      <trkpt lat="47.28164" lon="-2.39066">
        <ele>134.60000610352</ele>
        <time>2021-01-21T10:24:33.000Z</time>
      </trkpt>
      <trkpt lat="47.28163" lon="-2.39053">
        <ele>134.60000610352</ele>
        <time>2021-01-21T10:24:34.000Z</time>
      </trkpt>
      <trkpt lat="47.28155" lon="-2.38975">
        <ele>134.60000610352</ele>
        <time>2021-01-21T10:24:40.000Z</time>
      </trkpt>
      <trkpt lat="47.28141" lon="-2.38913">
        <ele>134.60000610352</ele>
        <time>2021-01-21T10:24:45.000Z</time>
      </trkpt>
      <trkpt lat="47.28129" lon="-2.38833">
        <ele>134.60000610352</ele>
        <time>2021-01-21T10:24:51.000Z</time>
      </trkpt>
      <trkpt lat="47.28122" lon="-2.38752">
        <ele>134.60000610352</ele>
        <time>2021-01-21T10:24:57.000Z</time>
      </trkpt>
      <trkpt lat="47.28119" lon="-2.38712">
        <ele>134.60000610352</ele>
        <time>2021-01-21T10:25:00.000Z</time>
      </trkpt>
      <trkpt lat="47.28111" lon="-2.38622">
        <ele>134.60000610352</ele>
        <time>2021-01-21T10:25:07.000Z</time>
      </trkpt>
      <trkpt lat="47.28102" lon="-2.38532">
        <ele>134.60000610352</ele>
        <time>2021-01-21T10:25:14.000Z</time>
      </trkpt>
      <trkpt lat="47.28087" lon="-2.38446">
        <ele>134.60000610352</ele>
        <time>2021-01-21T10:25:21.000Z</time>
      </trkpt>
      <trkpt lat="47.28073" lon="-2.38368">
        <ele>134.60000610352</ele>
        <time>2021-01-21T10:25:28.000Z</time>
      </trkpt>
      <trkpt lat="47.2806" lon="-2.38302">
        <ele>134.60000610352</ele>
        <time>2021-01-21T10:25:35.000Z</time>
      </trkpt>
      <trkpt lat="47.2805" lon="-2.38255">
        <ele>134.60000610352</ele>
        <time>2021-01-21T10:25:41.000Z</time>
      </trkpt>
      <trkpt lat="47.28038" lon="-2.38192">
        <ele>134.60000610352</ele>
        <time>2021-01-21T10:25:50.000Z</time>
      </trkpt>
      <trkpt lat="47.28029" lon="-2.38142">
        <ele>134.60000610352</ele>
        <time>2021-01-21T10:25:57.000Z</time>
      </trkpt>
      <trkpt lat="47.28022" lon="-2.38095">
        <ele>134.60000610352</ele>
        <time>2021-01-21T10:26:05.000Z</time>
      </trkpt>
      <trkpt lat="47.28015" lon="-2.38061">
        <ele>134.60000610352</ele>
        <time>2021-01-21T10:26:12.000Z</time>
      </trkpt>
      <trkpt lat="47.28005" lon="-2.38013">
        <ele>134.60000610352</ele>
        <time>2021-01-21T10:26:19.000Z</time>
      </trkpt>
      <trkpt lat="47.2799" lon="-2.37935">
        <ele>134.60000610352</ele>
        <time>2021-01-21T10:26:29.000Z</time>
      </trkpt>
      <trkpt lat="47.27977" lon="-2.37871">
        <ele>134.60000610352</ele>
        <time>2021-01-21T10:26:37.000Z</time>
      </trkpt>
      <trkpt lat="47.27971" lon="-2.37828">
        <ele>134.60000610352</ele>
        <time>2021-01-21T10:26:43.000Z</time>
      </trkpt>
      <trkpt lat="47.2797" lon="-2.37822">
        <ele>134.60000610352</ele>
        <time>2021-01-21T10:26:44.000Z</time>
      </trkpt>
      <trkpt lat="47.27967" lon="-2.37801">
        <ele>134.60000610352</ele>
        <time>2021-01-21T10:26:48.000Z</time>
      </trkpt>
      <trkpt lat="47.27974" lon="-2.37792">
        <ele>134.60000610352</ele>
        <time>2021-01-21T10:26:51.000Z</time>
      </trkpt>
      <trkpt lat="47.27989" lon="-2.37789">
        <ele>134.60000610352</ele>
        <time>2021-01-21T10:26:55.000Z</time>
      </trkpt>
      <trkpt lat="47.28004" lon="-2.37775">
        <ele>134.60000610352</ele>
        <time>2021-01-21T10:26:59.000Z</time>
      </trkpt>
      <trkpt lat="47.2802" lon="-2.37764">
        <ele>134.60000610352</ele>
        <time>2021-01-21T10:27:04.000Z</time>
      </trkpt>
      <trkpt lat="47.2804" lon="-2.37746">
        <ele>134.60000610352</ele>
        <time>2021-01-21T10:27:09.000Z</time>
      </trkpt>
      <trkpt lat="47.28047" lon="-2.37739">
        <ele>134.60000610352</ele>
        <time>2021-01-21T10:27:11.000Z</time>
      </trkpt>
      <trkpt lat="47.28056" lon="-2.37727">
        <ele>134.60000610352</ele>
        <time>2021-01-21T10:27:14.000Z</time>
      </trkpt>
      <trkpt lat="47.2806" lon="-2.37724">
        <ele>134.60000610352</ele>
        <time>2021-01-21T10:27:15.000Z</time>
      </trkpt>
      <trkpt lat="47.28076" lon="-2.37711">
        <ele>134.60000610352</ele>
        <time>2021-01-21T10:27:19.000Z</time>
      </trkpt>
      <trkpt lat="47.28102" lon="-2.37684">
        <ele>134.60000610352</ele>
        <time>2021-01-21T10:27:27.000Z</time>
      </trkpt>
      <trkpt lat="47.28124" lon="-2.37662">
        <ele>134.60000610352</ele>
        <time>2021-01-21T10:27:34.000Z</time>
      </trkpt>
      <trkpt lat="47.2814" lon="-2.37641">
        <ele>134.60000610352</ele>
        <time>2021-01-21T10:27:39.000Z</time>
      </trkpt>
      <trkpt lat="47.28144" lon="-2.37639">
        <ele>134.60000610352</ele>
        <time>2021-01-21T10:27:40.000Z</time>
      </trkpt>
      <trkpt lat="47.28165" lon="-2.37636">
        <ele>134.60000610352</ele>
        <time>2021-01-21T10:27:44.000Z</time>
      </trkpt>
      <trkpt lat="47.28199" lon="-2.37639">
        <ele>134.60000610352</ele>
        <time>2021-01-21T10:27:51.000Z</time>
      </trkpt>
      <trkpt lat="47.28231" lon="-2.37642">
        <ele>134.60000610352</ele>
        <time>2021-01-21T10:27:58.000Z</time>
      </trkpt>
      <trkpt lat="47.28237" lon="-2.37641">
        <ele>134.60000610352</ele>
        <time>2021-01-21T10:27:59.000Z</time>
      </trkpt>
      <trkpt lat="47.28253" lon="-2.37636">
        <ele>134.60000610352</ele>
        <time>2021-01-21T10:28:02.000Z</time>
      </trkpt>
      <trkpt lat="47.28263" lon="-2.37631">
        <ele>134.60000610352</ele>
        <time>2021-01-21T10:28:04.000Z</time>
      </trkpt>
      <trkpt lat="47.28276" lon="-2.37622">
        <ele>134.60000610352</ele>
        <time>2021-01-21T10:28:07.000Z</time>
      </trkpt>
      <trkpt lat="47.28297" lon="-2.37599">
        <ele>134.60000610352</ele>
        <time>2021-01-21T10:28:13.000Z</time>
      </trkpt>
      <trkpt lat="47.28319" lon="-2.37568">
        <ele>134.60000610352</ele>
        <time>2021-01-21T10:28:19.000Z</time>
      </trkpt>
      <trkpt lat="47.28323" lon="-2.37562">
        <ele>134.60000610352</ele>
        <time>2021-01-21T10:28:20.000Z</time>
      </trkpt>
      <trkpt lat="47.28337" lon="-2.37551">
        <ele>134.60000610352</ele>
        <time>2021-01-21T10:28:23.000Z</time>
      </trkpt>
      <trkpt lat="47.28342" lon="-2.37547">
        <ele>134.60000610352</ele>
        <time>2021-01-21T10:28:24.000Z</time>
      </trkpt>
      <trkpt lat="47.28357" lon="-2.37539">
        <ele>134.60000610352</ele>
        <time>2021-01-21T10:28:27.000Z</time>
      </trkpt>
      <trkpt lat="47.28365" lon="-2.37536">
        <ele>134.60000610352</ele>
        <time>2021-01-21T10:28:29.000Z</time>
      </trkpt>
      <trkpt lat="47.28386" lon="-2.37533">
        <ele>134.60000610352</ele>
        <time>2021-01-21T10:28:35.000Z</time>
      </trkpt>
      <trkpt lat="47.28395" lon="-2.37533">
        <ele>134.60000610352</ele>
        <time>2021-01-21T10:28:37.000Z</time>
      </trkpt>
      <trkpt lat="47.28405" lon="-2.3753">
        <ele>134.60000610352</ele>
        <time>2021-01-21T10:28:39.000Z</time>
      </trkpt>
      <trkpt lat="47.28411" lon="-2.37525">
        <ele>134.60000610352</ele>
        <time>2021-01-21T10:28:40.000Z</time>
      </trkpt>
      <trkpt lat="47.28421" lon="-2.37513">
        <ele>134.60000610352</ele>
        <time>2021-01-21T10:28:42.000Z</time>
      </trkpt>
      <trkpt lat="47.28439" lon="-2.37475">
        <ele>134.60000610352</ele>
        <time>2021-01-21T10:28:47.000Z</time>
      </trkpt>
      <trkpt lat="47.28441" lon="-2.37466">
        <ele>134.60000610352</ele>
        <time>2021-01-21T10:28:48.000Z</time>
      </trkpt>
      <trkpt lat="47.2845" lon="-2.3743">
        <ele>134.60000610352</ele>
        <time>2021-01-21T10:28:53.000Z</time>
      </trkpt>
      <trkpt lat="47.2846" lon="-2.37393">
        <ele>134.60000610352</ele>
        <time>2021-01-21T10:28:59.000Z</time>
      </trkpt>
      <trkpt lat="47.28464" lon="-2.3738">
        <ele>134.60000610352</ele>
        <time>2021-01-21T10:29:03.000Z</time>
      </trkpt>
      <trkpt lat="47.2847" lon="-2.3736">
        <ele>134.60000610352</ele>
        <time>2021-01-21T10:29:07.000Z</time>
      </trkpt>
      <trkpt lat="47.28476" lon="-2.3733">
        <ele>134.60000610352</ele>
        <time>2021-01-21T10:29:11.000Z</time>
      </trkpt>
      <trkpt lat="47.28484" lon="-2.3729">
        <ele>134.60000610352</ele>
        <time>2021-01-21T10:29:17.000Z</time>
      </trkpt>
      <trkpt lat="47.2849" lon="-2.37244">
        <ele>134.60000610352</ele>
        <time>2021-01-21T10:29:24.000Z</time>
      </trkpt>
      <trkpt lat="47.28499" lon="-2.3721">
        <ele>134.60000610352</ele>
        <time>2021-01-21T10:29:30.000Z</time>
      </trkpt>
      <trkpt lat="47.28503" lon="-2.37183">
        <ele>134.60000610352</ele>
        <time>2021-01-21T10:29:35.000Z</time>
      </trkpt>
      <trkpt lat="47.28505" lon="-2.37134">
        <ele>134.60000610352</ele>
        <time>2021-01-21T10:29:43.000Z</time>
      </trkpt>
      <trkpt lat="47.28506" lon="-2.37097">
        <ele>134.60000610352</ele>
        <time>2021-01-21T10:29:49.000Z</time>
      </trkpt>
      <trkpt lat="47.28507" lon="-2.37068">
        <ele>134.60000610352</ele>
        <time>2021-01-21T10:29:55.000Z</time>
      </trkpt>
      <trkpt lat="47.28507" lon="-2.37034">
        <ele>134.60000610352</ele>
        <time>2021-01-21T10:30:03.000Z</time>
      </trkpt>
      <trkpt lat="47.28507" lon="-2.37013">
        <ele>134.60000610352</ele>
        <time>2021-01-21T10:30:08.000Z</time>
      </trkpt>
      <trkpt lat="47.28506" lon="-2.37009">
        <ele>134.60000610352</ele>
        <time>2021-01-21T10:30:09.000Z</time>
      </trkpt>
      <trkpt lat="47.28494" lon="-2.36976">
        <ele>134.60000610352</ele>
        <time>2021-01-21T10:30:16.000Z</time>
      </trkpt>
      <trkpt lat="47.28483" lon="-2.36923">
        <ele>134.60000610352</ele>
        <time>2021-01-21T10:30:25.000Z</time>
      </trkpt>
      <trkpt lat="47.28475" lon="-2.3688">
        <ele>134.60000610352</ele>
        <time>2021-01-21T10:30:33.000Z</time>
      </trkpt>
      <trkpt lat="47.28472" lon="-2.36852">
        <ele>134.60000610352</ele>
        <time>2021-01-21T10:30:38.000Z</time>
      </trkpt>
      <trkpt lat="47.28471" lon="-2.3684">
        <ele>134.60000610352</ele>
        <time>2021-01-21T10:30:40.000Z</time>
      </trkpt>
      <trkpt lat="47.28473" lon="-2.3683">
        <ele>134.60000610352</ele>
        <time>2021-01-21T10:30:42.000Z</time>
      </trkpt>
      <trkpt lat="47.28471" lon="-2.36809">
        <ele>134.60000610352</ele>
        <time>2021-01-21T10:30:46.000Z</time>
      </trkpt>
      <trkpt lat="47.28469" lon="-2.36804">
        <ele>134.60000610352</ele>
        <time>2021-01-21T10:30:47.000Z</time>
      </trkpt>
      <trkpt lat="47.2846" lon="-2.36769">
        <ele>134.60000610352</ele>
        <time>2021-01-21T10:30:54.000Z</time>
      </trkpt>
      <trkpt lat="47.28451" lon="-2.36731">
        <ele>134.60000610352</ele>
        <time>2021-01-21T10:31:01.000Z</time>
      </trkpt>
      <trkpt lat="47.28455" lon="-2.36717">
        <ele>134.60000610352</ele>
        <time>2021-01-21T10:31:04.000Z</time>
      </trkpt>
      <trkpt lat="47.28457" lon="-2.36713">
        <ele>134.60000610352</ele>
        <time>2021-01-21T10:31:05.000Z</time>
      </trkpt>
      <trkpt lat="47.28473" lon="-2.36696">
        <ele>134.60000610352</ele>
        <time>2021-01-21T10:31:10.000Z</time>
      </trkpt>
      <trkpt lat="47.28491" lon="-2.36671">
        <ele>134.60000610352</ele>
        <time>2021-01-21T10:31:16.000Z</time>
      </trkpt>
      <trkpt lat="47.2849" lon="-2.36647">
        <ele>134.60000610352</ele>
        <time>2021-01-21T10:31:20.000Z</time>
      </trkpt>
      <trkpt lat="47.28489" lon="-2.36641">
        <ele>134.60000610352</ele>
        <time>2021-01-21T10:31:21.000Z</time>
      </trkpt>
      <trkpt lat="47.2848" lon="-2.36614">
        <ele>134.60000610352</ele>
        <time>2021-01-21T10:31:26.000Z</time>
      </trkpt>
      <trkpt lat="47.28474" lon="-2.36592">
        <ele>135</ele>
        <time>2021-01-21T10:31:30.000Z</time>
      </trkpt>
      <trkpt lat="47.28472" lon="-2.36587">
        <ele>135.39999389648</ele>
        <time>2021-01-21T10:31:31.000Z</time>
      </trkpt>
      <trkpt lat="47.2847" lon="-2.36582">
        <ele>136.19999694824</ele>
        <time>2021-01-21T10:31:32.000Z</time>
      </trkpt>
      <trkpt lat="47.28469" lon="-2.36578">
        <ele>136.60000610352</ele>
        <time>2021-01-21T10:31:33.000Z</time>
      </trkpt>
      <trkpt lat="47.2847" lon="-2.36569">
        <ele>136.60000610352</ele>
        <time>2021-01-21T10:31:35.000Z</time>
      </trkpt>
      <trkpt lat="47.28473" lon="-2.36561">
        <ele>136.60000610352</ele>
        <time>2021-01-21T10:31:37.000Z</time>
      </trkpt>
      <trkpt lat="47.28485" lon="-2.36543">
        <ele>136.60000610352</ele>
        <time>2021-01-21T10:31:42.000Z</time>
      </trkpt>
      <trkpt lat="47.28489" lon="-2.36538">
        <ele>136.60000610352</ele>
        <time>2021-01-21T10:31:44.000Z</time>
      </trkpt>
      <trkpt lat="47.28498" lon="-2.36529">
        <ele>136.60000610352</ele>
        <time>2021-01-21T10:31:48.000Z</time>
      </trkpt>
      <trkpt lat="47.2851" lon="-2.36515">
        <ele>136.60000610352</ele>
        <time>2021-01-21T10:31:54.000Z</time>
      </trkpt>
      <trkpt lat="47.28519" lon="-2.36499">
        <ele>136.60000610352</ele>
        <time>2021-01-21T10:32:01.000Z</time>
      </trkpt>
      <trkpt lat="47.2852" lon="-2.36496">
        <ele>136.60000610352</ele>
        <time>2021-01-21T10:32:02.000Z</time>
      </trkpt>
      <trkpt lat="47.28518" lon="-2.36488">
        <ele>136.60000610352</ele>
        <time>2021-01-21T10:32:05.000Z</time>
      </trkpt>
      <trkpt lat="47.28515" lon="-2.36471">
        <ele>136.60000610352</ele>
        <time>2021-01-21T10:32:10.000Z</time>
      </trkpt>
      <trkpt lat="47.28508" lon="-2.36455">
        <ele>136.60000610352</ele>
        <time>2021-01-21T10:32:14.000Z</time>
      </trkpt>
      <trkpt lat="47.28497" lon="-2.36447">
        <ele>136.60000610352</ele>
        <time>2021-01-21T10:32:17.000Z</time>
      </trkpt>
      <trkpt lat="47.2849" lon="-2.36442">
        <ele>136.60000610352</ele>
        <time>2021-01-21T10:32:19.000Z</time>
      </trkpt>
      <trkpt lat="47.28476" lon="-2.36429">
        <ele>136.60000610352</ele>
        <time>2021-01-21T10:32:24.000Z</time>
      </trkpt>
      <trkpt lat="47.2847" lon="-2.36423">
        <ele>136.60000610352</ele>
        <time>2021-01-21T10:32:27.000Z</time>
      </trkpt>
      <trkpt lat="47.28467" lon="-2.36415">
        <ele>136.60000610352</ele>
        <time>2021-01-21T10:32:29.000Z</time>
      </trkpt>
      <trkpt lat="47.28455" lon="-2.36402">
        <ele>136.60000610352</ele>
        <time>2021-01-21T10:32:33.000Z</time>
      </trkpt>
      <trkpt lat="47.28452" lon="-2.36397">
        <ele>136.60000610352</ele>
        <time>2021-01-21T10:32:34.000Z</time>
      </trkpt>
      <trkpt lat="47.28434" lon="-2.36384">
        <ele>136.60000610352</ele>
        <time>2021-01-21T10:32:38.000Z</time>
      </trkpt>
      <trkpt lat="47.2843" lon="-2.36381">
        <ele>136.60000610352</ele>
        <time>2021-01-21T10:32:39.000Z</time>
      </trkpt>
      <trkpt lat="47.2842" lon="-2.36366">
        <ele>136.60000610352</ele>
        <time>2021-01-21T10:32:42.000Z</time>
      </trkpt>
      <trkpt lat="47.28416" lon="-2.3636">
        <ele>136.60000610352</ele>
        <time>2021-01-21T10:32:43.000Z</time>
      </trkpt>
      <trkpt lat="47.28412" lon="-2.36355">
        <ele>136.60000610352</ele>
        <time>2021-01-21T10:32:44.000Z</time>
      </trkpt>
      <trkpt lat="47.284" lon="-2.36341">
        <ele>136.60000610352</ele>
        <time>2021-01-21T10:32:47.000Z</time>
      </trkpt>
      <trkpt lat="47.28396" lon="-2.36336">
        <ele>136.60000610352</ele>
        <time>2021-01-21T10:32:48.000Z</time>
      </trkpt>
      <trkpt lat="47.28391" lon="-2.36331">
        <ele>136.60000610352</ele>
        <time>2021-01-21T10:32:49.000Z</time>
      </trkpt>
      <trkpt lat="47.28378" lon="-2.36323">
        <ele>136.60000610352</ele>
        <time>2021-01-21T10:32:52.000Z</time>
      </trkpt>
      <trkpt lat="47.28366" lon="-2.36309">
        <ele>136.60000610352</ele>
        <time>2021-01-21T10:32:56.000Z</time>
      </trkpt>
      <trkpt lat="47.28364" lon="-2.36305">
        <ele>136.60000610352</ele>
        <time>2021-01-21T10:32:57.000Z</time>
      </trkpt>
      <trkpt lat="47.28361" lon="-2.36294">
        <ele>136.60000610352</ele>
        <time>2021-01-21T10:33:00.000Z</time>
      </trkpt>
      <trkpt lat="47.2836" lon="-2.36278">
        <ele>136.60000610352</ele>
        <time>2021-01-21T10:33:03.000Z</time>
      </trkpt>
      <trkpt lat="47.28361" lon="-2.36275">
        <ele>136.60000610352</ele>
        <time>2021-01-21T10:33:04.000Z</time>
      </trkpt>
      <trkpt lat="47.28367" lon="-2.36264">
        <ele>136.60000610352</ele>
        <time>2021-01-21T10:33:08.000Z</time>
      </trkpt>
      <trkpt lat="47.28369" lon="-2.36262">
        <ele>136.60000610352</ele>
        <time>2021-01-21T10:33:09.000Z</time>
      </trkpt>
      <trkpt lat="47.28378" lon="-2.36252">
        <ele>137</ele>
        <time>2021-01-21T10:33:13.000Z</time>
      </trkpt>
      <trkpt lat="47.28381" lon="-2.36249">
        <ele>137.39999389648</ele>
        <time>2021-01-21T10:33:14.000Z</time>
      </trkpt>
      <trkpt lat="47.28384" lon="-2.36246">
        <ele>137.80000305176</ele>
        <time>2021-01-21T10:33:15.000Z</time>
      </trkpt>
      <trkpt lat="47.28388" lon="-2.36242">
        <ele>138.19999694824</ele>
        <time>2021-01-21T10:33:16.000Z</time>
      </trkpt>
      <trkpt lat="47.28392" lon="-2.36238">
        <ele>138.60000610352</ele>
        <time>2021-01-21T10:33:17.000Z</time>
      </trkpt>
      <trkpt lat="47.28409" lon="-2.36229">
        <ele>138.60000610352</ele>
        <time>2021-01-21T10:33:21.000Z</time>
      </trkpt>
      <trkpt lat="47.28419" lon="-2.36222">
        <ele>138.60000610352</ele>
        <time>2021-01-21T10:33:26.000Z</time>
      </trkpt>
      <trkpt lat="47.28425" lon="-2.36217">
        <ele>138.60000610352</ele>
        <time>2021-01-21T10:33:30.000Z</time>
      </trkpt>
      <trkpt lat="47.28449" lon="-2.36204">
        <ele>136.60000610352</ele>
        <time>2021-01-21T10:34:19.000Z</time>
      </trkpt>
      <trkpt lat="47.28452" lon="-2.36202">
        <ele>136.60000610352</ele>
        <time>2021-01-21T10:34:20.000Z</time>
      </trkpt>
      <trkpt lat="47.28469" lon="-2.36183">
        <ele>136.60000610352</ele>
        <time>2021-01-21T10:34:26.000Z</time>
      </trkpt>
      <trkpt lat="47.28482" lon="-2.36168">
        <ele>136.60000610352</ele>
        <time>2021-01-21T10:34:31.000Z</time>
      </trkpt>
      <trkpt lat="47.28498" lon="-2.36152">
        <ele>136.60000610352</ele>
        <time>2021-01-21T10:34:37.000Z</time>
      </trkpt>
      <trkpt lat="47.28512" lon="-2.36153">
        <ele>136.60000610352</ele>
        <time>2021-01-21T10:34:42.000Z</time>
      </trkpt>
      <trkpt lat="47.28528" lon="-2.36159">
        <ele>136.60000610352</ele>
        <time>2021-01-21T10:34:48.000Z</time>
      </trkpt>
      <trkpt lat="47.28538" lon="-2.36161">
        <ele>136.60000610352</ele>
        <time>2021-01-21T10:34:53.000Z</time>
      </trkpt>
      <trkpt lat="47.2855" lon="-2.36159">
        <ele>136.60000610352</ele>
        <time>2021-01-21T10:35:00.000Z</time>
      </trkpt>
      <trkpt lat="47.28561" lon="-2.3615">
        <ele>136.60000610352</ele>
        <time>2021-01-21T10:35:06.000Z</time>
      </trkpt>
      <trkpt lat="47.28569" lon="-2.36146">
        <ele>136.60000610352</ele>
        <time>2021-01-21T10:35:14.000Z</time>
      </trkpt>
      <trkpt lat="47.28576" lon="-2.36148">
        <ele>136.60000610352</ele>
        <time>2021-01-21T10:35:19.000Z</time>
      </trkpt>
      <trkpt lat="47.28586" lon="-2.36151">
        <ele>136.60000610352</ele>
        <time>2021-01-21T10:35:23.000Z</time>
      </trkpt>
      <trkpt lat="47.28604" lon="-2.36149">
        <ele>136.60000610352</ele>
        <time>2021-01-21T10:35:29.000Z</time>
      </trkpt>
      <trkpt lat="47.28616" lon="-2.36143">
        <ele>136.60000610352</ele>
        <time>2021-01-21T10:35:36.000Z</time>
      </trkpt>
      <trkpt lat="47.2862" lon="-2.36141">
        <ele>136.60000610352</ele>
        <time>2021-01-21T10:35:39.000Z</time>
      </trkpt>
      <trkpt lat="47.28626" lon="-2.36135">
        <ele>136.60000610352</ele>
        <time>2021-01-21T10:35:50.000Z</time>
      </trkpt>
      <trkpt lat="47.28631" lon="-2.36128">
        <ele>136.60000610352</ele>
        <time>2021-01-21T10:35:52.000Z</time>
      </trkpt>
      <trkpt lat="47.28647" lon="-2.361">
        <ele>136.60000610352</ele>
        <time>2021-01-21T10:35:59.000Z</time>
      </trkpt>
      <trkpt lat="47.28649" lon="-2.36084">
        <ele>136.60000610352</ele>
        <time>2021-01-21T10:36:02.000Z</time>
      </trkpt>
      <trkpt lat="47.28646" lon="-2.36074">
        <ele>136.60000610352</ele>
        <time>2021-01-21T10:36:03.000Z</time>
      </trkpt>
      <trkpt lat="47.28633" lon="-2.36036">
        <ele>136.60000610352</ele>
        <time>2021-01-21T10:36:07.000Z</time>
      </trkpt>
      <trkpt lat="47.28607" lon="-2.35969">
        <ele>136.60000610352</ele>
        <time>2021-01-21T10:36:14.000Z</time>
      </trkpt>
      <trkpt lat="47.28603" lon="-2.35962">
        <ele>136.60000610352</ele>
        <time>2021-01-21T10:36:15.000Z</time>
      </trkpt>
      <trkpt lat="47.28591" lon="-2.35945">
        <ele>136.60000610352</ele>
        <time>2021-01-21T10:36:18.000Z</time>
      </trkpt>
      <trkpt lat="47.2858" lon="-2.3593">
        <ele>136.60000610352</ele>
        <time>2021-01-21T10:36:21.000Z</time>
      </trkpt>
      <trkpt lat="47.28576" lon="-2.3592">
        <ele>136.60000610352</ele>
        <time>2021-01-21T10:36:23.000Z</time>
      </trkpt>
      <trkpt lat="47.28575" lon="-2.35911">
        <ele>136.60000610352</ele>
        <time>2021-01-21T10:36:26.000Z</time>
      </trkpt>
      <trkpt lat="47.28574" lon="-2.35909">
        <ele>136.60000610352</ele>
        <time>2021-01-21T10:36:27.000Z</time>
      </trkpt>
      <trkpt lat="47.28567" lon="-2.35903">
        <ele>136.60000610352</ele>
        <time>2021-01-21T10:36:31.000Z</time>
      </trkpt>
      <trkpt lat="47.28553" lon="-2.35904">
        <ele>137</ele>
        <time>2021-01-21T10:36:36.000Z</time>
      </trkpt>
      <trkpt lat="47.28551" lon="-2.35906">
        <ele>137.39999389648</ele>
        <time>2021-01-21T10:36:37.000Z</time>
      </trkpt>
      <trkpt lat="47.2855" lon="-2.35908">
        <ele>137.80000305176</ele>
        <time>2021-01-21T10:36:38.000Z</time>
      </trkpt>
      <trkpt lat="47.28548" lon="-2.35911">
        <ele>138.19999694824</ele>
        <time>2021-01-21T10:36:39.000Z</time>
      </trkpt>
      <trkpt lat="47.28547" lon="-2.35915">
        <ele>138.60000610352</ele>
        <time>2021-01-21T10:36:40.000Z</time>
      </trkpt>
      <trkpt lat="47.28541" lon="-2.35934">
        <ele>138.60000610352</ele>
        <time>2021-01-21T10:36:46.000Z</time>
      </trkpt>
      <trkpt lat="47.28539" lon="-2.35938">
        <ele>138.60000610352</ele>
        <time>2021-01-21T10:36:48.000Z</time>
      </trkpt>
      <trkpt lat="47.28534" lon="-2.3594">
        <ele>138.60000610352</ele>
        <time>2021-01-21T10:36:51.000Z</time>
      </trkpt>
      <trkpt lat="47.28531" lon="-2.3594">
        <ele>138.60000610352</ele>
        <time>2021-01-21T10:36:52.000Z</time>
      </trkpt>
      <trkpt lat="47.28517" lon="-2.35939">
        <ele>138.60000610352</ele>
        <time>2021-01-21T10:36:56.000Z</time>
      </trkpt>
      <trkpt lat="47.28497" lon="-2.35948">
        <ele>139</ele>
        <time>2021-01-21T10:37:01.000Z</time>
      </trkpt>
      <trkpt lat="47.28492" lon="-2.35951">
        <ele>139.39999389648</ele>
        <time>2021-01-21T10:37:02.000Z</time>
      </trkpt>
      <trkpt lat="47.28487" lon="-2.35955">
        <ele>139.80000305176</ele>
        <time>2021-01-21T10:37:03.000Z</time>
      </trkpt>
      <trkpt lat="47.28483" lon="-2.35959">
        <ele>140.19999694824</ele>
        <time>2021-01-21T10:37:04.000Z</time>
      </trkpt>
      <trkpt lat="47.2848" lon="-2.35963">
        <ele>140.80000305176</ele>
        <time>2021-01-21T10:37:05.000Z</time>
      </trkpt>
      <trkpt lat="47.28476" lon="-2.35966">
        <ele>140.80000305176</ele>
        <time>2021-01-21T10:37:06.000Z</time>
      </trkpt>
      <trkpt lat="47.28466" lon="-2.35981">
        <ele>140.80000305176</ele>
        <time>2021-01-21T10:37:11.000Z</time>
      </trkpt>
      <trkpt lat="47.28464" lon="-2.35984">
        <ele>140.80000305176</ele>
        <time>2021-01-21T10:37:13.000Z</time>
      </trkpt>
      <trkpt lat="47.28461" lon="-2.35981">
        <ele>140.80000305176</ele>
        <time>2021-01-21T10:37:15.000Z</time>
      </trkpt>
      <trkpt lat="47.28463" lon="-2.35966">
        <ele>140.80000305176</ele>
        <time>2021-01-21T10:37:18.000Z</time>
      </trkpt>
      <trkpt lat="47.28465" lon="-2.35957">
        <ele>140.80000305176</ele>
        <time>2021-01-21T10:37:19.000Z</time>
      </trkpt>
      <trkpt lat="47.28476" lon="-2.35921">
        <ele>140.80000305176</ele>
        <time>2021-01-21T10:37:24.000Z</time>
      </trkpt>
      <trkpt lat="47.28476" lon="-2.35914">
        <ele>140.80000305176</ele>
        <time>2021-01-21T10:37:25.000Z</time>
      </trkpt>
      <trkpt lat="47.28473" lon="-2.359">
        <ele>140.80000305176</ele>
        <time>2021-01-21T10:37:27.000Z</time>
      </trkpt>
      <trkpt lat="47.28469" lon="-2.35884">
        <ele>140.80000305176</ele>
        <time>2021-01-21T10:37:30.000Z</time>
      </trkpt>
      <trkpt lat="47.28468" lon="-2.35878">
        <ele>140.80000305176</ele>
        <time>2021-01-21T10:37:31.000Z</time>
      </trkpt>
      <trkpt lat="47.2847" lon="-2.35863">
        <ele>140.80000305176</ele>
        <time>2021-01-21T10:37:34.000Z</time>
      </trkpt>
      <trkpt lat="47.28473" lon="-2.35846">
        <ele>140.80000305176</ele>
        <time>2021-01-21T10:37:38.000Z</time>
      </trkpt>
      <trkpt lat="47.28471" lon="-2.35843">
        <ele>140.80000305176</ele>
        <time>2021-01-21T10:37:40.000Z</time>
      </trkpt>
      <trkpt lat="47.28467" lon="-2.35842">
        <ele>140.80000305176</ele>
        <time>2021-01-21T10:37:42.000Z</time>
      </trkpt>
      <trkpt lat="47.28452" lon="-2.35841">
        <ele>140.80000305176</ele>
        <time>2021-01-21T10:37:47.000Z</time>
      </trkpt>
      <trkpt lat="47.28443" lon="-2.35842">
        <ele>140.80000305176</ele>
        <time>2021-01-21T10:37:49.000Z</time>
      </trkpt>
      <trkpt lat="47.28428" lon="-2.35845">
        <ele>140.80000305176</ele>
        <time>2021-01-21T10:37:53.000Z</time>
      </trkpt>
      <trkpt lat="47.28417" lon="-2.35844">
        <ele>140.80000305176</ele>
        <time>2021-01-21T10:37:57.000Z</time>
      </trkpt>
      <trkpt lat="47.28409" lon="-2.3585">
        <ele>141.19999694824</ele>
        <time>2021-01-21T10:38:00.000Z</time>
      </trkpt>
      <trkpt lat="47.28406" lon="-2.35851">
        <ele>141.60000610352</ele>
        <time>2021-01-21T10:38:01.000Z</time>
      </trkpt>
      <trkpt lat="47.28403" lon="-2.35852">
        <ele>142</ele>
        <time>2021-01-21T10:38:02.000Z</time>
      </trkpt>
      <trkpt lat="47.284" lon="-2.35853">
        <ele>142.39999389648</ele>
        <time>2021-01-21T10:38:03.000Z</time>
      </trkpt>
      <trkpt lat="47.28396" lon="-2.35854">
        <ele>142.80000305176</ele>
        <time>2021-01-21T10:38:04.000Z</time>
      </trkpt>
      <trkpt lat="47.28384" lon="-2.35855">
        <ele>142.80000305176</ele>
        <time>2021-01-21T10:38:07.000Z</time>
      </trkpt>
      <trkpt lat="47.28357" lon="-2.35855">
        <ele>142.80000305176</ele>
        <time>2021-01-21T10:38:14.000Z</time>
      </trkpt>
      <trkpt lat="47.28353" lon="-2.35859">
        <ele>142.80000305176</ele>
        <time>2021-01-21T10:38:18.000Z</time>
      </trkpt>
      <trkpt lat="47.28353" lon="-2.35861">
        <ele>142.80000305176</ele>
        <time>2021-01-21T10:38:19.000Z</time>
      </trkpt>
      <trkpt lat="47.28358" lon="-2.35868">
        <ele>142.80000305176</ele>
        <time>2021-01-21T10:38:22.000Z</time>
      </trkpt>
      <trkpt lat="47.28361" lon="-2.35875">
        <ele>142.80000305176</ele>
        <time>2021-01-21T10:38:23.000Z</time>
      </trkpt>
      <trkpt lat="47.28367" lon="-2.3589">
        <ele>142.80000305176</ele>
        <time>2021-01-21T10:38:28.000Z</time>
      </trkpt>
      <trkpt lat="47.28367" lon="-2.3589">
        <ele>142.80000305176</ele>
        <time>2021-01-21T10:38:29.000Z</time>
      </trkpt>
      <trkpt lat="47.28353" lon="-2.35907">
        <ele>145</ele>
        <time>2021-01-21T10:39:54.000Z</time>
      </trkpt>
      <trkpt lat="47.28349" lon="-2.35909">
        <ele>145</ele>
        <time>2021-01-21T10:39:56.000Z</time>
      </trkpt>
      <trkpt lat="47.2834" lon="-2.35913">
        <ele>145</ele>
        <time>2021-01-21T10:40:01.000Z</time>
      </trkpt>
      <trkpt lat="47.28323" lon="-2.35931">
        <ele>145</ele>
        <time>2021-01-21T10:40:08.000Z</time>
      </trkpt>
      <trkpt lat="47.2831" lon="-2.35953">
        <ele>145</ele>
        <time>2021-01-21T10:40:14.000Z</time>
      </trkpt>
      <trkpt lat="47.2829" lon="-2.35977">
        <ele>145</ele>
        <time>2021-01-21T10:40:21.000Z</time>
      </trkpt>
      <trkpt lat="47.28287" lon="-2.35977">
        <ele>145</ele>
        <time>2021-01-21T10:40:22.000Z</time>
      </trkpt>
      <trkpt lat="47.28283" lon="-2.35971">
        <ele>145</ele>
        <time>2021-01-21T10:40:24.000Z</time>
      </trkpt>
      <trkpt lat="47.28278" lon="-2.35962">
        <ele>145</ele>
        <time>2021-01-21T10:40:26.000Z</time>
      </trkpt>
      <trkpt lat="47.28267" lon="-2.35942">
        <ele>145</ele>
        <time>2021-01-21T10:40:30.000Z</time>
      </trkpt>
      <trkpt lat="47.28256" lon="-2.35922">
        <ele>145</ele>
        <time>2021-01-21T10:40:35.000Z</time>
      </trkpt>
      <trkpt lat="47.28251" lon="-2.35905">
        <ele>145</ele>
        <time>2021-01-21T10:40:40.000Z</time>
      </trkpt>
      <trkpt lat="47.28258" lon="-2.35893">
        <ele>145</ele>
        <time>2021-01-21T10:40:45.000Z</time>
      </trkpt>
      <trkpt lat="47.2827" lon="-2.35881">
        <ele>145</ele>
        <time>2021-01-21T10:40:50.000Z</time>
      </trkpt>
      <trkpt lat="47.28278" lon="-2.35874">
        <ele>145</ele>
        <time>2021-01-21T10:40:54.000Z</time>
      </trkpt>
      <trkpt lat="47.28279" lon="-2.3587">
        <ele>145</ele>
        <time>2021-01-21T10:40:55.000Z</time>
      </trkpt>
      <trkpt lat="47.28277" lon="-2.35865">
        <ele>145</ele>
        <time>2021-01-21T10:40:58.000Z</time>
      </trkpt>
      <trkpt lat="47.28276" lon="-2.35864">
        <ele>145</ele>
        <time>2021-01-21T10:40:59.000Z</time>
      </trkpt>
      <trkpt lat="47.28267" lon="-2.35852">
        <ele>145</ele>
        <time>2021-01-21T10:41:05.000Z</time>
      </trkpt>
      <trkpt lat="47.28264" lon="-2.35833">
        <ele>145</ele>
        <time>2021-01-21T10:41:09.000Z</time>
      </trkpt>
      <trkpt lat="47.28259" lon="-2.35804">
        <ele>145</ele>
        <time>2021-01-21T10:41:15.000Z</time>
      </trkpt>
      <trkpt lat="47.28256" lon="-2.3578">
        <ele>145</ele>
        <time>2021-01-21T10:41:21.000Z</time>
      </trkpt>
      <trkpt lat="47.28248" lon="-2.3578">
        <ele>145</ele>
        <time>2021-01-21T10:41:24.000Z</time>
      </trkpt>
      <trkpt lat="47.28245" lon="-2.3578">
        <ele>145</ele>
        <time>2021-01-21T10:41:25.000Z</time>
      </trkpt>
      <trkpt lat="47.28236" lon="-2.35779">
        <ele>145</ele>
        <time>2021-01-21T10:41:30.000Z</time>
      </trkpt>
      <trkpt lat="47.28235" lon="-2.35778">
        <ele>145</ele>
        <time>2021-01-21T10:41:32.000Z</time>
      </trkpt>
      <trkpt lat="47.28229" lon="-2.35781">
        <ele>145</ele>
        <time>2021-01-21T10:41:45.000Z</time>
      </trkpt>
      <trkpt lat="47.28227" lon="-2.35783">
        <ele>145</ele>
        <time>2021-01-21T10:41:46.000Z</time>
      </trkpt>
      <trkpt lat="47.28221" lon="-2.35789">
        <ele>145</ele>
        <time>2021-01-21T10:41:52.000Z</time>
      </trkpt>
      <trkpt lat="47.28221" lon="-2.35788">
        <ele>145</ele>
        <time>2021-01-21T10:41:53.000Z</time>
      </trkpt>
      <trkpt lat="47.28214" lon="-2.35791">
        <ele>145</ele>
        <time>2021-01-21T10:42:10.000Z</time>
      </trkpt>
      <trkpt lat="47.28213" lon="-2.35781">
        <ele>145</ele>
        <time>2021-01-21T10:42:13.000Z</time>
      </trkpt>
      <trkpt lat="47.28213" lon="-2.35777">
        <ele>145</ele>
        <time>2021-01-21T10:42:14.000Z</time>
      </trkpt>
      <trkpt lat="47.28213" lon="-2.35752">
        <ele>145</ele>
        <time>2021-01-21T10:42:18.000Z</time>
      </trkpt>
      <trkpt lat="47.28203" lon="-2.35729">
        <ele>145</ele>
        <time>2021-01-21T10:42:22.000Z</time>
      </trkpt>
      <trkpt lat="47.28195" lon="-2.35717">
        <ele>145</ele>
        <time>2021-01-21T10:42:26.000Z</time>
      </trkpt>
      <trkpt lat="47.28192" lon="-2.35717">
        <ele>145</ele>
        <time>2021-01-21T10:42:28.000Z</time>
      </trkpt>
      <trkpt lat="47.28188" lon="-2.35715">
        <ele>145</ele>
        <time>2021-01-21T10:42:31.000Z</time>
      </trkpt>
      <trkpt lat="47.28187" lon="-2.35713">
        <ele>145</ele>
        <time>2021-01-21T10:42:32.000Z</time>
      </trkpt>
      <trkpt lat="47.28181" lon="-2.35702">
        <ele>145</ele>
        <time>2021-01-21T10:42:37.000Z</time>
      </trkpt>
      <trkpt lat="47.28173" lon="-2.35686">
        <ele>145</ele>
        <time>2021-01-21T10:42:44.000Z</time>
      </trkpt>
      <trkpt lat="47.28165" lon="-2.35681">
        <ele>145</ele>
        <time>2021-01-21T10:42:50.000Z</time>
      </trkpt>
      <trkpt lat="47.28156" lon="-2.35674">
        <ele>145</ele>
        <time>2021-01-21T10:42:57.000Z</time>
      </trkpt>
      <trkpt lat="47.28153" lon="-2.35672">
        <ele>145</ele>
        <time>2021-01-21T10:42:59.000Z</time>
      </trkpt>
      <trkpt lat="47.28146" lon="-2.35672">
        <ele>145</ele>
        <time>2021-01-21T10:43:02.000Z</time>
      </trkpt>
      <trkpt lat="47.28131" lon="-2.35681">
        <ele>145</ele>
        <time>2021-01-21T10:43:08.000Z</time>
      </trkpt>
      <trkpt lat="47.28124" lon="-2.35682">
        <ele>145</ele>
        <time>2021-01-21T10:43:13.000Z</time>
      </trkpt>
      <trkpt lat="47.2811" lon="-2.35686">
        <ele>145</ele>
        <time>2021-01-21T10:43:17.000Z</time>
      </trkpt>
      <trkpt lat="47.28099" lon="-2.35695">
        <ele>145</ele>
        <time>2021-01-21T10:43:21.000Z</time>
      </trkpt>
      <trkpt lat="47.28096" lon="-2.35694">
        <ele>145</ele>
        <time>2021-01-21T10:43:24.000Z</time>
      </trkpt>
      <trkpt lat="47.28095" lon="-2.35691">
        <ele>145</ele>
        <time>2021-01-21T10:43:25.000Z</time>
      </trkpt>
      <trkpt lat="47.28092" lon="-2.35677">
        <ele>145</ele>
        <time>2021-01-21T10:43:28.000Z</time>
      </trkpt>
      <trkpt lat="47.2809" lon="-2.35671">
        <ele>145</ele>
        <time>2021-01-21T10:43:29.000Z</time>
      </trkpt>
      <trkpt lat="47.28082" lon="-2.35649">
        <ele>145</ele>
        <time>2021-01-21T10:43:32.000Z</time>
      </trkpt>
      <trkpt lat="47.28078" lon="-2.35636">
        <ele>145</ele>
        <time>2021-01-21T10:43:34.000Z</time>
      </trkpt>
      <trkpt lat="47.28077" lon="-2.35618">
        <ele>145</ele>
        <time>2021-01-21T10:43:37.000Z</time>
      </trkpt>
      <trkpt lat="47.28081" lon="-2.35611">
        <ele>145</ele>
        <time>2021-01-21T10:43:40.000Z</time>
      </trkpt>
      <trkpt lat="47.28085" lon="-2.35611">
        <ele>145</ele>
        <time>2021-01-21T10:43:42.000Z</time>
      </trkpt>
      <trkpt lat="47.28087" lon="-2.35614">
        <ele>145</ele>
        <time>2021-01-21T10:43:45.000Z</time>
      </trkpt>
      <trkpt lat="47.28089" lon="-2.3562">
        <ele>145</ele>
        <time>2021-01-21T10:43:48.000Z</time>
      </trkpt>
      <trkpt lat="47.28086" lon="-2.35615">
        <ele>149</ele>
        <time>2021-01-21T10:46:10.000Z</time>
      </trkpt>
      <trkpt lat="47.28084" lon="-2.35614">
        <ele>149</ele>
        <time>2021-01-21T10:46:11.000Z</time>
      </trkpt>
      <trkpt lat="47.28073" lon="-2.35602">
        <ele>149</ele>
        <time>2021-01-21T10:46:17.000Z</time>
      </trkpt>
      <trkpt lat="47.28064" lon="-2.35587">
        <ele>149</ele>
        <time>2021-01-21T10:46:22.000Z</time>
      </trkpt>
      <trkpt lat="47.28052" lon="-2.35576">
        <ele>149</ele>
        <time>2021-01-21T10:46:26.000Z</time>
      </trkpt>
      <trkpt lat="47.28048" lon="-2.35572">
        <ele>149</ele>
        <time>2021-01-21T10:46:28.000Z</time>
      </trkpt>
      <trkpt lat="47.28045" lon="-2.35566">
        <ele>149</ele>
        <time>2021-01-21T10:46:30.000Z</time>
      </trkpt>
      <trkpt lat="47.28042" lon="-2.3556">
        <ele>149</ele>
        <time>2021-01-21T10:46:32.000Z</time>
      </trkpt>
      <trkpt lat="47.2804" lon="-2.35558">
        <ele>149</ele>
        <time>2021-01-21T10:46:33.000Z</time>
      </trkpt>
      <trkpt lat="47.28036" lon="-2.35558">
        <ele>149</ele>
        <time>2021-01-21T10:46:35.000Z</time>
      </trkpt>
      <trkpt lat="47.28016" lon="-2.35561">
        <ele>149</ele>
        <time>2021-01-21T10:46:40.000Z</time>
      </trkpt>
      <trkpt lat="47.28" lon="-2.35566">
        <ele>149</ele>
        <time>2021-01-21T10:46:46.000Z</time>
      </trkpt>
      <trkpt lat="47.27977" lon="-2.35575">
        <ele>149</ele>
        <time>2021-01-21T10:46:53.000Z</time>
      </trkpt>
      <trkpt lat="47.27946" lon="-2.35589">
        <ele>149</ele>
        <time>2021-01-21T10:47:00.000Z</time>
      </trkpt>
      <trkpt lat="47.27914" lon="-2.35597">
        <ele>149</ele>
        <time>2021-01-21T10:47:06.000Z</time>
      </trkpt>
      <trkpt lat="47.27878" lon="-2.35603">
        <ele>149</ele>
        <time>2021-01-21T10:47:12.000Z</time>
      </trkpt>
      <trkpt lat="47.27839" lon="-2.35613">
        <ele>149</ele>
        <time>2021-01-21T10:47:18.000Z</time>
      </trkpt>
      <trkpt lat="47.27793" lon="-2.35628">
        <ele>149</ele>
        <time>2021-01-21T10:47:25.000Z</time>
      </trkpt>
      <trkpt lat="47.2778" lon="-2.35636">
        <ele>149</ele>
        <time>2021-01-21T10:47:27.000Z</time>
      </trkpt>
      <trkpt lat="47.27763" lon="-2.3565">
        <ele>149</ele>
        <time>2021-01-21T10:47:30.000Z</time>
      </trkpt>
      <trkpt lat="47.27736" lon="-2.35686">
        <ele>148.60000610352</ele>
        <time>2021-01-21T10:47:36.000Z</time>
      </trkpt>
      <trkpt lat="47.27732" lon="-2.35694">
        <ele>148.19999694824</ele>
        <time>2021-01-21T10:47:37.000Z</time>
      </trkpt>
      <trkpt lat="47.27727" lon="-2.35701">
        <ele>147.39999389648</ele>
        <time>2021-01-21T10:47:38.000Z</time>
      </trkpt>
      <trkpt lat="47.27722" lon="-2.35708">
        <ele>147</ele>
        <time>2021-01-21T10:47:39.000Z</time>
      </trkpt>
      <trkpt lat="47.27712" lon="-2.35719">
        <ele>147</ele>
        <time>2021-01-21T10:47:41.000Z</time>
      </trkpt>
      <trkpt lat="47.27707" lon="-2.35724">
        <ele>147</ele>
        <time>2021-01-21T10:47:42.000Z</time>
      </trkpt>
      <trkpt lat="47.2769" lon="-2.35738">
        <ele>147</ele>
        <time>2021-01-21T10:47:45.000Z</time>
      </trkpt>
      <trkpt lat="47.27681" lon="-2.35747">
        <ele>147</ele>
        <time>2021-01-21T10:47:47.000Z</time>
      </trkpt>
      <trkpt lat="47.27667" lon="-2.35745">
        <ele>147</ele>
        <time>2021-01-21T10:47:50.000Z</time>
      </trkpt>
      <trkpt lat="47.27652" lon="-2.35726">
        <ele>147</ele>
        <time>2021-01-21T10:47:55.000Z</time>
      </trkpt>
      <trkpt lat="47.27642" lon="-2.35721">
        <ele>147</ele>
        <time>2021-01-21T10:47:57.000Z</time>
      </trkpt>
      <trkpt lat="47.27627" lon="-2.35714">
        <ele>147</ele>
        <time>2021-01-21T10:48:00.000Z</time>
      </trkpt>
      <trkpt lat="47.27595" lon="-2.35706">
        <ele>147</ele>
        <time>2021-01-21T10:48:05.000Z</time>
      </trkpt>
      <trkpt lat="47.27553" lon="-2.35696">
        <ele>147</ele>
        <time>2021-01-21T10:48:11.000Z</time>
      </trkpt>
      <trkpt lat="47.27513" lon="-2.35686">
        <ele>147</ele>
        <time>2021-01-21T10:48:17.000Z</time>
      </trkpt>
      <trkpt lat="47.27471" lon="-2.35679">
        <ele>147</ele>
        <time>2021-01-21T10:48:23.000Z</time>
      </trkpt>
      <trkpt lat="47.27433" lon="-2.35671">
        <ele>147</ele>
        <time>2021-01-21T10:48:29.000Z</time>
      </trkpt>
      <trkpt lat="47.27422" lon="-2.35669">
        <ele>147</ele>
        <time>2021-01-21T10:48:31.000Z</time>
      </trkpt>
      <trkpt lat="47.27405" lon="-2.35673">
        <ele>147</ele>
        <time>2021-01-21T10:48:34.000Z</time>
      </trkpt>
      <trkpt lat="47.2738" lon="-2.35686">
        <ele>147</ele>
        <time>2021-01-21T10:48:38.000Z</time>
      </trkpt>
      <trkpt lat="47.27374" lon="-2.3569">
        <ele>147</ele>
        <time>2021-01-21T10:48:39.000Z</time>
      </trkpt>
      <trkpt lat="47.27344" lon="-2.35713">
        <ele>147</ele>
        <time>2021-01-21T10:48:45.000Z</time>
      </trkpt>
      <trkpt lat="47.27331" lon="-2.35724">
        <ele>147</ele>
        <time>2021-01-21T10:48:48.000Z</time>
      </trkpt>
      <trkpt lat="47.27324" lon="-2.35733">
        <ele>147</ele>
        <time>2021-01-21T10:48:50.000Z</time>
      </trkpt>
      <trkpt lat="47.27322" lon="-2.35738">
        <ele>147</ele>
        <time>2021-01-21T10:48:51.000Z</time>
      </trkpt>
      <trkpt lat="47.2731" lon="-2.3574">
        <ele>147</ele>
        <time>2021-01-21T10:48:55.000Z</time>
      </trkpt>
      <trkpt lat="47.27302" lon="-2.35722">
        <ele>147</ele>
        <time>2021-01-21T10:48:58.000Z</time>
      </trkpt>
      <trkpt lat="47.273" lon="-2.35716">
        <ele>147</ele>
        <time>2021-01-21T10:48:59.000Z</time>
      </trkpt>
      <trkpt lat="47.27295" lon="-2.35703">
        <ele>147</ele>
        <time>2021-01-21T10:49:01.000Z</time>
      </trkpt>
      <trkpt lat="47.27282" lon="-2.3568">
        <ele>147</ele>
        <time>2021-01-21T10:49:05.000Z</time>
      </trkpt>
      <trkpt lat="47.27263" lon="-2.35637">
        <ele>147</ele>
        <time>2021-01-21T10:49:12.000Z</time>
      </trkpt>
      <trkpt lat="47.27241" lon="-2.35588">
        <ele>147</ele>
        <time>2021-01-21T10:49:20.000Z</time>
      </trkpt>
      <trkpt lat="47.27225" lon="-2.35551">
        <ele>147</ele>
        <time>2021-01-21T10:49:26.000Z</time>
      </trkpt>
      <trkpt lat="47.27203" lon="-2.35505">
        <ele>147</ele>
        <time>2021-01-21T10:49:34.000Z</time>
      </trkpt>
      <trkpt lat="47.27178" lon="-2.35457">
        <ele>147</ele>
        <time>2021-01-21T10:49:42.000Z</time>
      </trkpt>
      <trkpt lat="47.27145" lon="-2.35395">
        <ele>147</ele>
        <time>2021-01-21T10:49:52.000Z</time>
      </trkpt>
      <trkpt lat="47.27117" lon="-2.35346">
        <ele>147</ele>
        <time>2021-01-21T10:50:00.000Z</time>
      </trkpt>
      <trkpt lat="47.27091" lon="-2.35305">
        <ele>146</ele>
        <time>2021-01-21T10:50:07.000Z</time>
      </trkpt>
      <trkpt lat="47.27087" lon="-2.35299">
        <ele>145.60000610352</ele>
        <time>2021-01-21T10:50:08.000Z</time>
      </trkpt>
      <trkpt lat="47.27084" lon="-2.35293">
        <ele>145.19999694824</ele>
        <time>2021-01-21T10:50:09.000Z</time>
      </trkpt>
      <trkpt lat="47.2708" lon="-2.35287">
        <ele>144.80000305176</ele>
        <time>2021-01-21T10:50:10.000Z</time>
      </trkpt>
      <trkpt lat="47.27058" lon="-2.35252">
        <ele>144.80000305176</ele>
        <time>2021-01-21T10:50:16.000Z</time>
      </trkpt>
      <trkpt lat="47.27027" lon="-2.35204">
        <ele>144.80000305176</ele>
        <time>2021-01-21T10:50:24.000Z</time>
      </trkpt>
      <trkpt lat="47.26993" lon="-2.35154">
        <ele>144.80000305176</ele>
        <time>2021-01-21T10:50:33.000Z</time>
      </trkpt>
      <trkpt lat="47.26968" lon="-2.35115">
        <ele>144.80000305176</ele>
        <time>2021-01-21T10:50:40.000Z</time>
      </trkpt>
      <trkpt lat="47.26939" lon="-2.3507">
        <ele>144.80000305176</ele>
        <time>2021-01-21T10:50:48.000Z</time>
      </trkpt>
      <trkpt lat="47.26914" lon="-2.35032">
        <ele>144.80000305176</ele>
        <time>2021-01-21T10:50:55.000Z</time>
      </trkpt>
      <trkpt lat="47.26885" lon="-2.34988">
        <ele>144.80000305176</ele>
        <time>2021-01-21T10:51:03.000Z</time>
      </trkpt>
      <trkpt lat="47.26856" lon="-2.34944">
        <ele>144.80000305176</ele>
        <time>2021-01-21T10:51:11.000Z</time>
      </trkpt>
      <trkpt lat="47.26849" lon="-2.34933">
        <ele>144.80000305176</ele>
        <time>2021-01-21T10:51:13.000Z</time>
      </trkpt>
      <trkpt lat="47.26842" lon="-2.34921">
        <ele>144.80000305176</ele>
        <time>2021-01-21T10:51:15.000Z</time>
      </trkpt>
      <trkpt lat="47.26831" lon="-2.34906">
        <ele>144.80000305176</ele>
        <time>2021-01-21T10:51:18.000Z</time>
      </trkpt>
      <trkpt lat="47.26806" lon="-2.34869">
        <ele>144.80000305176</ele>
        <time>2021-01-21T10:51:25.000Z</time>
      </trkpt>
      <trkpt lat="47.26768" lon="-2.34816">
        <ele>144.80000305176</ele>
        <time>2021-01-21T10:51:35.000Z</time>
      </trkpt>
      <trkpt lat="47.26743" lon="-2.34783">
        <ele>144.80000305176</ele>
        <time>2021-01-21T10:51:41.000Z</time>
      </trkpt>
      <trkpt lat="47.26712" lon="-2.34745">
        <ele>144.80000305176</ele>
        <time>2021-01-21T10:51:48.000Z</time>
      </trkpt>
      <trkpt lat="47.26691" lon="-2.34719">
        <ele>144.80000305176</ele>
        <time>2021-01-21T10:51:53.000Z</time>
      </trkpt>
      <trkpt lat="47.26678" lon="-2.34703">
        <ele>144.80000305176</ele>
        <time>2021-01-21T10:51:56.000Z</time>
      </trkpt>
      <trkpt lat="47.26641" lon="-2.34657">
        <ele>144.80000305176</ele>
        <time>2021-01-21T10:52:05.000Z</time>
      </trkpt>
      <trkpt lat="47.26605" lon="-2.34613">
        <ele>144.80000305176</ele>
        <time>2021-01-21T10:52:13.000Z</time>
      </trkpt>
      <trkpt lat="47.26573" lon="-2.34578">
        <ele>144.80000305176</ele>
        <time>2021-01-21T10:52:20.000Z</time>
      </trkpt>
      <trkpt lat="47.26526" lon="-2.3453">
        <ele>144.80000305176</ele>
        <time>2021-01-21T10:52:30.000Z</time>
      </trkpt>
      <trkpt lat="47.26517" lon="-2.34523">
        <ele>144.80000305176</ele>
        <time>2021-01-21T10:52:32.000Z</time>
      </trkpt>
      <trkpt lat="47.26493" lon="-2.34506">
        <ele>144.80000305176</ele>
        <time>2021-01-21T10:52:37.000Z</time>
      </trkpt>
      <trkpt lat="47.26459" lon="-2.34481">
        <ele>144.80000305176</ele>
        <time>2021-01-21T10:52:44.000Z</time>
      </trkpt>
      <trkpt lat="47.26421" lon="-2.34453">
        <ele>144.80000305176</ele>
        <time>2021-01-21T10:52:52.000Z</time>
      </trkpt>
      <trkpt lat="47.26389" lon="-2.34428">
        <ele>144.80000305176</ele>
        <time>2021-01-21T10:52:59.000Z</time>
      </trkpt>
      <trkpt lat="47.26354" lon="-2.34397">
        <ele>144.80000305176</ele>
        <time>2021-01-21T10:53:07.000Z</time>
      </trkpt>
      <trkpt lat="47.26337" lon="-2.34384">
        <ele>144.80000305176</ele>
        <time>2021-01-21T10:53:11.000Z</time>
      </trkpt>
      <trkpt lat="47.26327" lon="-2.3438">
        <ele>144.80000305176</ele>
        <time>2021-01-21T10:53:13.000Z</time>
      </trkpt>
      <trkpt lat="47.26315" lon="-2.34362">
        <ele>144.80000305176</ele>
        <time>2021-01-21T10:53:16.000Z</time>
      </trkpt>
      <trkpt lat="47.26302" lon="-2.34347">
        <ele>144.80000305176</ele>
        <time>2021-01-21T10:53:19.000Z</time>
      </trkpt>
      <trkpt lat="47.26297" lon="-2.34342">
        <ele>144.80000305176</ele>
        <time>2021-01-21T10:53:20.000Z</time>
      </trkpt>
      <trkpt lat="47.26258" lon="-2.34301">
        <ele>144.80000305176</ele>
        <time>2021-01-21T10:53:28.000Z</time>
      </trkpt>
      <trkpt lat="47.26235" lon="-2.34276">
        <ele>144.39999389648</ele>
        <time>2021-01-21T10:53:33.000Z</time>
      </trkpt>
      <trkpt lat="47.2623" lon="-2.34271">
        <ele>144</ele>
        <time>2021-01-21T10:53:34.000Z</time>
      </trkpt>
      <trkpt lat="47.26225" lon="-2.34266">
        <ele>143.60000610352</ele>
        <time>2021-01-21T10:53:35.000Z</time>
      </trkpt>
      <trkpt lat="47.2622" lon="-2.34261">
        <ele>143.19999694824</ele>
        <time>2021-01-21T10:53:36.000Z</time>
      </trkpt>
      <trkpt lat="47.26215" lon="-2.34257">
        <ele>142.80000305176</ele>
        <time>2021-01-21T10:53:37.000Z</time>
      </trkpt>
      <trkpt lat="47.26181" lon="-2.34221">
        <ele>142.80000305176</ele>
        <time>2021-01-21T10:53:44.000Z</time>
      </trkpt>
      <trkpt lat="47.26146" lon="-2.34189">
        <ele>142.80000305176</ele>
        <time>2021-01-21T10:53:51.000Z</time>
      </trkpt>
      <trkpt lat="47.26125" lon="-2.34174">
        <ele>142.80000305176</ele>
        <time>2021-01-21T10:53:55.000Z</time>
      </trkpt>
      <trkpt lat="47.26107" lon="-2.34159">
        <ele>142.80000305176</ele>
        <time>2021-01-21T10:53:59.000Z</time>
      </trkpt>
      <trkpt lat="47.26101" lon="-2.34157">
        <ele>142.80000305176</ele>
        <time>2021-01-21T10:54:00.000Z</time>
      </trkpt>
      <trkpt lat="47.26064" lon="-2.34138">
        <ele>142.80000305176</ele>
        <time>2021-01-21T10:54:07.000Z</time>
      </trkpt>
      <trkpt lat="47.26019" lon="-2.34115">
        <ele>142.80000305176</ele>
        <time>2021-01-21T10:54:15.000Z</time>
      </trkpt>
      <trkpt lat="47.25975" lon="-2.34094">
        <ele>142.80000305176</ele>
        <time>2021-01-21T10:54:23.000Z</time>
      </trkpt>
      <trkpt lat="47.25921" lon="-2.34073">
        <ele>142.80000305176</ele>
        <time>2021-01-21T10:54:33.000Z</time>
      </trkpt>
      <trkpt lat="47.25911" lon="-2.34068">
        <ele>142.80000305176</ele>
        <time>2021-01-21T10:54:35.000Z</time>
      </trkpt>
      <trkpt lat="47.25903" lon="-2.34056">
        <ele>142.80000305176</ele>
        <time>2021-01-21T10:54:37.000Z</time>
      </trkpt>
      <trkpt lat="47.25903" lon="-2.34035">
        <ele>142.80000305176</ele>
        <time>2021-01-21T10:54:40.000Z</time>
      </trkpt>
      <trkpt lat="47.25908" lon="-2.34015">
        <ele>142.80000305176</ele>
        <time>2021-01-21T10:54:43.000Z</time>
      </trkpt>
      <trkpt lat="47.2591" lon="-2.34008">
        <ele>142.80000305176</ele>
        <time>2021-01-21T10:54:44.000Z</time>
      </trkpt>
      <trkpt lat="47.25911" lon="-2.33989">
        <ele>142.80000305176</ele>
        <time>2021-01-21T10:54:48.000Z</time>
      </trkpt>
      <trkpt lat="47.25911" lon="-2.33988">
        <ele>142.80000305176</ele>
        <time>2021-01-21T10:54:50.000Z</time>
      </trkpt>
      <trkpt lat="47.25912" lon="-2.33985">
        <ele>142.80000305176</ele>
        <time>2021-01-21T10:55:21.000Z</time>
      </trkpt>
      <trkpt lat="47.25919" lon="-2.33973">
        <ele>142.80000305176</ele>
        <time>2021-01-21T10:55:26.000Z</time>
      </trkpt>
      <trkpt lat="47.25928" lon="-2.33951">
        <ele>142.80000305176</ele>
        <time>2021-01-21T10:55:31.000Z</time>
      </trkpt>
      <trkpt lat="47.25937" lon="-2.3393">
        <ele>142.80000305176</ele>
        <time>2021-01-21T10:55:37.000Z</time>
      </trkpt>
      <trkpt lat="47.25946" lon="-2.33905">
        <ele>142.80000305176</ele>
        <time>2021-01-21T10:55:43.000Z</time>
      </trkpt>
      <trkpt lat="47.25957" lon="-2.33879">
        <ele>142.80000305176</ele>
        <time>2021-01-21T10:55:48.000Z</time>
      </trkpt>
      <trkpt lat="47.25959" lon="-2.33872">
        <ele>142.80000305176</ele>
        <time>2021-01-21T10:55:49.000Z</time>
      </trkpt>
      <trkpt lat="47.2597" lon="-2.33837">
        <ele>142.39999389648</ele>
        <time>2021-01-21T10:55:54.000Z</time>
      </trkpt>
      <trkpt lat="47.25972" lon="-2.3383">
        <ele>142</ele>
        <time>2021-01-21T10:55:55.000Z</time>
      </trkpt>
      <trkpt lat="47.25974" lon="-2.33823">
        <ele>141.60000610352</ele>
        <time>2021-01-21T10:55:56.000Z</time>
      </trkpt>
      <trkpt lat="47.25976" lon="-2.33817">
        <ele>141.19999694824</ele>
        <time>2021-01-21T10:55:57.000Z</time>
      </trkpt>
      <trkpt lat="47.25979" lon="-2.3381">
        <ele>140.80000305176</ele>
        <time>2021-01-21T10:55:58.000Z</time>
      </trkpt>
      <trkpt lat="47.2599" lon="-2.33777">
        <ele>140.80000305176</ele>
        <time>2021-01-21T10:56:03.000Z</time>
      </trkpt>
      <trkpt lat="47.26007" lon="-2.3372">
        <ele>140.80000305176</ele>
        <time>2021-01-21T10:56:11.000Z</time>
      </trkpt>
      <trkpt lat="47.26022" lon="-2.33675">
        <ele>140.80000305176</ele>
        <time>2021-01-21T10:56:17.000Z</time>
      </trkpt>
      <trkpt lat="47.26033" lon="-2.33667">
        <ele>140.80000305176</ele>
        <time>2021-01-21T10:56:20.000Z</time>
      </trkpt>
      <trkpt lat="47.2604" lon="-2.33668">
        <ele>140.80000305176</ele>
        <time>2021-01-21T10:56:22.000Z</time>
      </trkpt>
      <trkpt lat="47.26045" lon="-2.33667">
        <ele>140.80000305176</ele>
        <time>2021-01-21T10:56:24.000Z</time>
      </trkpt>
      <trkpt lat="47.26049" lon="-2.33667">
        <ele>140.80000305176</ele>
        <time>2021-01-21T10:56:26.000Z</time>
      </trkpt>
      <trkpt lat="47.26054" lon="-2.33667">
        <ele>140.80000305176</ele>
        <time>2021-01-21T10:56:28.000Z</time>
      </trkpt>
      <trkpt lat="47.26056" lon="-2.33664">
        <ele>140.80000305176</ele>
        <time>2021-01-21T10:56:29.000Z</time>
      </trkpt>
      <trkpt lat="47.26062" lon="-2.33648">
        <ele>140.80000305176</ele>
        <time>2021-01-21T10:56:32.000Z</time>
      </trkpt>
      <trkpt lat="47.26064" lon="-2.33642">
        <ele>140.80000305176</ele>
        <time>2021-01-21T10:56:33.000Z</time>
      </trkpt>
      <trkpt lat="47.2608" lon="-2.33596">
        <ele>140.80000305176</ele>
        <time>2021-01-21T10:56:40.000Z</time>
      </trkpt>
      <trkpt lat="47.26097" lon="-2.33542">
        <ele>140.80000305176</ele>
        <time>2021-01-21T10:56:47.000Z</time>
      </trkpt>
      <trkpt lat="47.26117" lon="-2.3349">
        <ele>140.80000305176</ele>
        <time>2021-01-21T10:56:54.000Z</time>
      </trkpt>
      <trkpt lat="47.26131" lon="-2.33455">
        <ele>140.80000305176</ele>
        <time>2021-01-21T10:57:00.000Z</time>
      </trkpt>
      <trkpt lat="47.26135" lon="-2.33447">
        <ele>140.80000305176</ele>
        <time>2021-01-21T10:57:04.000Z</time>
      </trkpt>
      <trkpt lat="47.2614" lon="-2.33432">
        <ele>140.80000305176</ele>
        <time>2021-01-21T10:57:09.000Z</time>
      </trkpt>
      <trkpt lat="47.26139" lon="-2.33421">
        <ele>140.80000305176</ele>
        <time>2021-01-21T10:57:11.000Z</time>
      </trkpt>
      <trkpt lat="47.26135" lon="-2.33417">
        <ele>140.80000305176</ele>
        <time>2021-01-21T10:57:12.000Z</time>
      </trkpt>
      <trkpt lat="47.26117" lon="-2.33407">
        <ele>140.80000305176</ele>
        <time>2021-01-21T10:57:16.000Z</time>
      </trkpt>
      <trkpt lat="47.26112" lon="-2.33402">
        <ele>140.39999389648</ele>
        <time>2021-01-21T10:57:17.000Z</time>
      </trkpt>
      <trkpt lat="47.26108" lon="-2.33396">
        <ele>140</ele>
        <time>2021-01-21T10:57:18.000Z</time>
      </trkpt>
      <trkpt lat="47.26104" lon="-2.3339">
        <ele>139.60000610352</ele>
        <time>2021-01-21T10:57:19.000Z</time>
      </trkpt>
      <trkpt lat="47.261" lon="-2.33385">
        <ele>139.19999694824</ele>
        <time>2021-01-21T10:57:20.000Z</time>
      </trkpt>
      <trkpt lat="47.26096" lon="-2.33381">
        <ele>138.80000305176</ele>
        <time>2021-01-21T10:57:21.000Z</time>
      </trkpt>
      <trkpt lat="47.2608" lon="-2.33366">
        <ele>138.80000305176</ele>
        <time>2021-01-21T10:57:25.000Z</time>
      </trkpt>
      <trkpt lat="47.26077" lon="-2.33341">
        <ele>138.80000305176</ele>
        <time>2021-01-21T10:57:29.000Z</time>
      </trkpt>
      <trkpt lat="47.26069" lon="-2.33315">
        <ele>138.80000305176</ele>
        <time>2021-01-21T10:57:33.000Z</time>
      </trkpt>
      <trkpt lat="47.26066" lon="-2.33308">
        <ele>138.80000305176</ele>
        <time>2021-01-21T10:57:34.000Z</time>
      </trkpt>
      <trkpt lat="47.26053" lon="-2.33274">
        <ele>138.80000305176</ele>
        <time>2021-01-21T10:57:39.000Z</time>
      </trkpt>
      <trkpt lat="47.26032" lon="-2.33215">
        <ele>138.80000305176</ele>
        <time>2021-01-21T10:57:47.000Z</time>
      </trkpt>
      <trkpt lat="47.26014" lon="-2.33166">
        <ele>138.80000305176</ele>
        <time>2021-01-21T10:57:54.000Z</time>
      </trkpt>
      <trkpt lat="47.25998" lon="-2.33124">
        <ele>138.80000305176</ele>
        <time>2021-01-21T10:58:01.000Z</time>
      </trkpt>
      <trkpt lat="47.2599" lon="-2.33099">
        <ele>138.80000305176</ele>
        <time>2021-01-21T10:58:07.000Z</time>
      </trkpt>
      <trkpt lat="47.25983" lon="-2.33084">
        <ele>138.80000305176</ele>
        <time>2021-01-21T10:58:12.000Z</time>
      </trkpt>
      <trkpt lat="47.25974" lon="-2.33063">
        <ele>138.80000305176</ele>
        <time>2021-01-21T10:58:17.000Z</time>
      </trkpt>
      <trkpt lat="47.25973" lon="-2.33057">
        <ele>138.80000305176</ele>
        <time>2021-01-21T10:58:18.000Z</time>
      </trkpt>
      <trkpt lat="47.25968" lon="-2.33038">
        <ele>138.80000305176</ele>
        <time>2021-01-21T10:58:21.000Z</time>
      </trkpt>
      <trkpt lat="47.25968" lon="-2.33031">
        <ele>138.80000305176</ele>
        <time>2021-01-21T10:58:22.000Z</time>
      </trkpt>
      <trkpt lat="47.25962" lon="-2.3301">
        <ele>138.80000305176</ele>
        <time>2021-01-21T10:58:25.000Z</time>
      </trkpt>
      <trkpt lat="47.25959" lon="-2.33002">
        <ele>138.80000305176</ele>
        <time>2021-01-21T10:58:26.000Z</time>
      </trkpt>
      <trkpt lat="47.2595" lon="-2.3298">
        <ele>138.80000305176</ele>
        <time>2021-01-21T10:58:29.000Z</time>
      </trkpt>
      <trkpt lat="47.25942" lon="-2.32965">
        <ele>138.80000305176</ele>
        <time>2021-01-21T10:58:31.000Z</time>
      </trkpt>
      <trkpt lat="47.25926" lon="-2.32915">
        <ele>138.80000305176</ele>
        <time>2021-01-21T10:58:37.000Z</time>
      </trkpt>
      <trkpt lat="47.25908" lon="-2.32865">
        <ele>138.80000305176</ele>
        <time>2021-01-21T10:58:43.000Z</time>
      </trkpt>
      <trkpt lat="47.25885" lon="-2.32798">
        <ele>138.80000305176</ele>
        <time>2021-01-21T10:58:51.000Z</time>
      </trkpt>
      <trkpt lat="47.25867" lon="-2.32738">
        <ele>138.80000305176</ele>
        <time>2021-01-21T10:58:58.000Z</time>
      </trkpt>
      <trkpt lat="47.25849" lon="-2.3267">
        <ele>138.80000305176</ele>
        <time>2021-01-21T10:59:06.000Z</time>
      </trkpt>
      <trkpt lat="47.25832" lon="-2.32609">
        <ele>138.80000305176</ele>
        <time>2021-01-21T10:59:14.000Z</time>
      </trkpt>
      <trkpt lat="47.2582" lon="-2.32563">
        <ele>138.80000305176</ele>
        <time>2021-01-21T10:59:20.000Z</time>
      </trkpt>
      <trkpt lat="47.25809" lon="-2.32514">
        <ele>138.80000305176</ele>
        <time>2021-01-21T10:59:27.000Z</time>
      </trkpt>
      <trkpt lat="47.2581" lon="-2.32495">
        <ele>138.80000305176</ele>
        <time>2021-01-21T10:59:31.000Z</time>
      </trkpt>
      <trkpt lat="47.25823" lon="-2.32486">
        <ele>138.80000305176</ele>
        <time>2021-01-21T10:59:35.000Z</time>
      </trkpt>
      <trkpt lat="47.25838" lon="-2.32487">
        <ele>138.80000305176</ele>
        <time>2021-01-21T10:59:38.000Z</time>
      </trkpt>
      <trkpt lat="47.25848" lon="-2.32487">
        <ele>138.80000305176</ele>
        <time>2021-01-21T10:59:40.000Z</time>
      </trkpt>
      <trkpt lat="47.25882" lon="-2.32488">
        <ele>138.80000305176</ele>
        <time>2021-01-21T10:59:47.000Z</time>
      </trkpt>
      <trkpt lat="47.25891" lon="-2.32474">
        <ele>138.80000305176</ele>
        <time>2021-01-21T10:59:50.000Z</time>
      </trkpt>
      <trkpt lat="47.25905" lon="-2.32452">
        <ele>138.80000305176</ele>
        <time>2021-01-21T10:59:55.000Z</time>
      </trkpt>
      <trkpt lat="47.25928" lon="-2.32423">
        <ele>138.80000305176</ele>
        <time>2021-01-21T11:00:01.000Z</time>
      </trkpt>
      <trkpt lat="47.25961" lon="-2.32379">
        <ele>138.80000305176</ele>
        <time>2021-01-21T11:00:09.000Z</time>
      </trkpt>
      <trkpt lat="47.25986" lon="-2.32348">
        <ele>138.80000305176</ele>
        <time>2021-01-21T11:00:15.000Z</time>
      </trkpt>
      <trkpt lat="47.26014" lon="-2.32314">
        <ele>138.80000305176</ele>
        <time>2021-01-21T11:00:22.000Z</time>
      </trkpt>
      <trkpt lat="47.26047" lon="-2.32275">
        <ele>138.80000305176</ele>
        <time>2021-01-21T11:00:30.000Z</time>
      </trkpt>
      <trkpt lat="47.26074" lon="-2.32243">
        <ele>138.80000305176</ele>
        <time>2021-01-21T11:00:37.000Z</time>
      </trkpt>
      <trkpt lat="47.26099" lon="-2.32204">
        <ele>138.80000305176</ele>
        <time>2021-01-21T11:00:44.000Z</time>
      </trkpt>
      <trkpt lat="47.26119" lon="-2.32158">
        <ele>138.80000305176</ele>
        <time>2021-01-21T11:00:51.000Z</time>
      </trkpt>
      <trkpt lat="47.26133" lon="-2.32115">
        <ele>138.80000305176</ele>
        <time>2021-01-21T11:00:57.000Z</time>
      </trkpt>
      <trkpt lat="47.26152" lon="-2.32051">
        <ele>138.39999389648</ele>
        <time>2021-01-21T11:01:06.000Z</time>
      </trkpt>
      <trkpt lat="47.26154" lon="-2.32044">
        <ele>138</ele>
        <time>2021-01-21T11:01:07.000Z</time>
      </trkpt>
      <trkpt lat="47.26156" lon="-2.32037">
        <ele>137.60000610352</ele>
        <time>2021-01-21T11:01:08.000Z</time>
      </trkpt>
      <trkpt lat="47.26158" lon="-2.3203">
        <ele>137.19999694824</ele>
        <time>2021-01-21T11:01:09.000Z</time>
      </trkpt>
      <trkpt lat="47.2616" lon="-2.32023">
        <ele>136.80000305176</ele>
        <time>2021-01-21T11:01:10.000Z</time>
      </trkpt>
      <trkpt lat="47.26161" lon="-2.32015">
        <ele>136.80000305176</ele>
        <time>2021-01-21T11:01:11.000Z</time>
      </trkpt>
      <trkpt lat="47.26161" lon="-2.31999">
        <ele>136.80000305176</ele>
        <time>2021-01-21T11:01:13.000Z</time>
      </trkpt>
      <trkpt lat="47.26154" lon="-2.3197">
        <ele>136.80000305176</ele>
        <time>2021-01-21T11:01:17.000Z</time>
      </trkpt>
      <trkpt lat="47.2615" lon="-2.31948">
        <ele>136.80000305176</ele>
        <time>2021-01-21T11:01:20.000Z</time>
      </trkpt>
      <trkpt lat="47.26148" lon="-2.31924">
        <ele>136.80000305176</ele>
        <time>2021-01-21T11:01:23.000Z</time>
      </trkpt>
      <trkpt lat="47.26141" lon="-2.31872">
        <ele>136.80000305176</ele>
        <time>2021-01-21T11:01:30.000Z</time>
      </trkpt>
      <trkpt lat="47.26136" lon="-2.31818">
        <ele>136.80000305176</ele>
        <time>2021-01-21T11:01:37.000Z</time>
      </trkpt>
      <trkpt lat="47.26131" lon="-2.31764">
        <ele>136.80000305176</ele>
        <time>2021-01-21T11:01:44.000Z</time>
      </trkpt>
      <trkpt lat="47.26124" lon="-2.31712">
        <ele>136.80000305176</ele>
        <time>2021-01-21T11:01:51.000Z</time>
      </trkpt>
      <trkpt lat="47.26119" lon="-2.3167">
        <ele>136.80000305176</ele>
        <time>2021-01-21T11:01:57.000Z</time>
      </trkpt>
      <trkpt lat="47.26117" lon="-2.31633">
        <ele>136.80000305176</ele>
        <time>2021-01-21T11:02:02.000Z</time>
      </trkpt>
      <trkpt lat="47.26119" lon="-2.31621">
        <ele>136.80000305176</ele>
        <time>2021-01-21T11:02:04.000Z</time>
      </trkpt>
      <trkpt lat="47.26127" lon="-2.31609">
        <ele>136.80000305176</ele>
        <time>2021-01-21T11:02:07.000Z</time>
      </trkpt>
      <trkpt lat="47.26137" lon="-2.31609">
        <ele>136.80000305176</ele>
        <time>2021-01-21T11:02:09.000Z</time>
      </trkpt>
      <trkpt lat="47.26142" lon="-2.31608">
        <ele>136.80000305176</ele>
        <time>2021-01-21T11:02:10.000Z</time>
      </trkpt>
      <trkpt lat="47.26171" lon="-2.31599">
        <ele>136.80000305176</ele>
        <time>2021-01-21T11:02:16.000Z</time>
      </trkpt>
      <trkpt lat="47.26211" lon="-2.31587">
        <ele>136.80000305176</ele>
        <time>2021-01-21T11:02:24.000Z</time>
      </trkpt>
      <trkpt lat="47.26216" lon="-2.31588">
        <ele>136.80000305176</ele>
        <time>2021-01-21T11:02:25.000Z</time>
      </trkpt>
      <trkpt lat="47.26228" lon="-2.31593">
        <ele>136.80000305176</ele>
        <time>2021-01-21T11:02:28.000Z</time>
      </trkpt>
      <trkpt lat="47.26233" lon="-2.31596">
        <ele>136.80000305176</ele>
        <time>2021-01-21T11:02:29.000Z</time>
      </trkpt>
      <trkpt lat="47.2624" lon="-2.31603">
        <ele>136.80000305176</ele>
        <time>2021-01-21T11:02:31.000Z</time>
      </trkpt>
      <trkpt lat="47.26251" lon="-2.31616">
        <ele>136.80000305176</ele>
        <time>2021-01-21T11:02:34.000Z</time>
      </trkpt>
      <trkpt lat="47.26266" lon="-2.31647">
        <ele>136.80000305176</ele>
        <time>2021-01-21T11:02:40.000Z</time>
      </trkpt>
      <trkpt lat="47.26283" lon="-2.31679">
        <ele>136.80000305176</ele>
        <time>2021-01-21T11:02:46.000Z</time>
      </trkpt>
      <trkpt lat="47.26294" lon="-2.31698">
        <ele>136.80000305176</ele>
        <time>2021-01-21T11:02:49.000Z</time>
      </trkpt>
      <trkpt lat="47.26303" lon="-2.31706">
        <ele>136.80000305176</ele>
        <time>2021-01-21T11:02:51.000Z</time>
      </trkpt>
      <trkpt lat="47.26315" lon="-2.31705">
        <ele>136.80000305176</ele>
        <time>2021-01-21T11:02:54.000Z</time>
      </trkpt>
      <trkpt lat="47.26324" lon="-2.31702">
        <ele>136.80000305176</ele>
        <time>2021-01-21T11:02:57.000Z</time>
      </trkpt>
      <trkpt lat="47.2633" lon="-2.31697">
        <ele>136.80000305176</ele>
        <time>2021-01-21T11:02:59.000Z</time>
      </trkpt>
      <trkpt lat="47.26338" lon="-2.31686">
        <ele>136.80000305176</ele>
        <time>2021-01-21T11:03:04.000Z</time>
      </trkpt>
      <trkpt lat="47.26352" lon="-2.31679">
        <ele>136.80000305176</ele>
        <time>2021-01-21T11:03:09.000Z</time>
      </trkpt>
      <trkpt lat="47.26373" lon="-2.31672">
        <ele>136.80000305176</ele>
        <time>2021-01-21T11:03:15.000Z</time>
      </trkpt>
      <trkpt lat="47.26383" lon="-2.31666">
        <ele>136.80000305176</ele>
        <time>2021-01-21T11:03:20.000Z</time>
      </trkpt>
      <trkpt lat="47.26397" lon="-2.31659">
        <ele>136.80000305176</ele>
        <time>2021-01-21T11:03:25.000Z</time>
      </trkpt>
      <trkpt lat="47.26411" lon="-2.31646">
        <ele>136.80000305176</ele>
        <time>2021-01-21T11:03:30.000Z</time>
      </trkpt>
      <trkpt lat="47.26411" lon="-2.31626">
        <ele>136.80000305176</ele>
        <time>2021-01-21T11:03:34.000Z</time>
      </trkpt>
      <trkpt lat="47.26411" lon="-2.31586">
        <ele>136.80000305176</ele>
        <time>2021-01-21T11:03:42.000Z</time>
      </trkpt>
      <trkpt lat="47.26411" lon="-2.31559">
        <ele>136.80000305176</ele>
        <time>2021-01-21T11:03:48.000Z</time>
      </trkpt>
      <trkpt lat="47.26413" lon="-2.31552">
        <ele>136.80000305176</ele>
        <time>2021-01-21T11:03:50.000Z</time>
      </trkpt>
      <trkpt lat="47.26416" lon="-2.3155">
        <ele>136.80000305176</ele>
        <time>2021-01-21T11:03:52.000Z</time>
      </trkpt>
      <trkpt lat="47.26418" lon="-2.31552">
        <ele>136.80000305176</ele>
        <time>2021-01-21T11:03:56.000Z</time>
      </trkpt>
    </trkseg>
  </trk>
</gpx>